<?xml version="1.0" encoding="UTF-8" standalone="no" ?>
<gpx xmlns="http://www.topografix.com/GPX/1/1" creator="" version="1.1" xmlns:xsi="http://www.w3.org/2001/XMLSchema-instance" xsi:schemaLocation="http://www.topografix.com/GPX/1/1 http://www.topografix.com/GPX/1/1/gpx.xsd">
 <trk>
  <name>ACTIVE LOG072552</name>
  <trkseg>
   <trkpt lat="31.745502" lon="35.176516">
    <ele>641.131</ele>
    <time>2011-04-19T04:25:51Z</time>
   </trkpt>
   <trkpt lat="31.745615" lon="35.176516">
     <ele>641.131</ele>
    <time>2011-04-19T04:26:41Z</time>
   </trkpt>
   <trkpt lat="31.745710" lon="35.176729">
    <ele>641.131</ele>
    <time>2011-04-19T04:26:53Z</time>
   </trkpt>
   <trkpt lat="31.745663" lon="35.176799">
    <ele>641.131</ele>
    <time>2011-04-19T04:27:32Z</time>
   </trkpt>
   <trkpt lat="31.745656" lon="35.177379">
    <ele>641.131</ele>
    <time>2011-04-19T04:27:48Z</time>
   </trkpt>
   <trkpt lat="31.745546" lon="35.177391">
   <ele>641.131</ele>
    <time>2011-04-19T04:27:58Z</time>
   </trkpt>
   <trkpt lat="31.745504" lon="35.177114">
   <ele>641.131</ele>
    <time>2011-04-19T04:28:06Z</time>
   </trkpt>
   <trkpt lat="31.745222" lon="35.176396">
    <ele>641.131</ele>
    <time>2011-04-19T04:28:18Z</time>
   </trkpt>
   <trkpt lat="31.744860" lon="35.175947">
   <ele>641.131</ele>
    <time>2011-04-19T04:28:32Z</time>
   </trkpt>
   <trkpt lat="31.744470" lon="35.175503">
   <ele>641.131</ele>
    <time>2011-04-19T04:28:48Z</time>
   </trkpt>
   <trkpt lat="31.744097" lon="35.174806">
   <ele>641.131</ele>
    <time>2011-04-19T04:29:06Z</time>
   </trkpt>
   <trkpt lat="31.743820" lon="35.173872">
    <ele>641.131</ele>
    <time>2011-04-19T04:29:24Z</time>
   </trkpt>
   <trkpt lat="31.743812" lon="35.173818">
   <ele>641.131</ele>
    <time>2011-04-19T04:29:25Z</time>
   </trkpt>
   <trkpt lat="31.743827" lon="35.173066">
   <ele>641.131</ele>
    <time>2011-04-19T04:29:42Z</time>
   </trkpt>
   <trkpt lat="31.743850" lon="35.172690">
   <ele>641.131</ele>
    <time>2011-04-19T04:29:50Z</time>
   </trkpt>
   <trkpt lat="31.743932" lon="35.171522">
    <ele>641.131</ele>
    <time>2011-04-19T04:30:10Z</time>
   </trkpt>
   <trkpt lat="31.743938" lon="35.170788">
   <ele>641.131</ele>
    <time>2011-04-19T04:30:23Z</time>
   </trkpt>
   <trkpt lat="31.743848" lon="35.170353">
   <ele>641.131</ele>
    <time>2011-04-19T04:30:30Z</time>
   </trkpt>
   <trkpt lat="31.743866" lon="35.169887">
   <ele>641.131</ele>
    <time>2011-04-19T04:30:38Z</time>
   </trkpt>
   <trkpt lat="31.743902" lon="35.169356">
    <ele>641.131</ele>
    <time>2011-04-19T04:30:47Z</time>
   </trkpt>
   <trkpt lat="31.743931" lon="35.168177">
   <ele>641.131</ele>
    <time>2011-04-19T04:31:06Z</time>
   </trkpt>
   <trkpt lat="31.743956" lon="35.167119">
    <ele>641.131</ele>
    <time>2011-04-19T04:31:26Z</time>
   </trkpt>
   <trkpt lat="31.744004" lon="35.165851">
   <ele>641.131</ele>
    <time>2011-04-19T04:31:49Z</time>
   </trkpt>
   <trkpt lat="31.744364" lon="35.165048">
    <ele>641.131</ele>
    <time>2011-04-19T04:32:04Z</time>
   </trkpt>
   <trkpt lat="31.744960" lon="35.164493">
    <ele>641.131</ele>
    <time>2011-04-19T04:32:22Z</time>
   </trkpt>
   <trkpt lat="31.745616" lon="35.163889">
    <ele>641.131</ele>
    <time>2011-04-19T04:32:41Z</time>
   </trkpt>
   <trkpt lat="31.745696" lon="35.163819">
   <ele>641.131</ele>
    <time>2011-04-19T04:32:43Z</time>
   </trkpt>
   <trkpt lat="31.745887" lon="35.163703">
    <ele>641.131</ele>
    <time>2011-04-19T04:32:47Z</time>
   </trkpt>
   <trkpt lat="31.745991" lon="35.163666">
    <ele>641.428</ele>
    <time>2011-04-19T04:32:49Z</time>
   </trkpt>
   <trkpt lat="31.746212" lon="35.163461">
    <ele>642.796</ele>
    <time>2011-04-19T04:32:55Z</time>
   </trkpt>
   <trkpt lat="31.746319" lon="35.163360">
    <ele>642.699</ele>
    <time>2011-04-19T04:32:58Z</time>
   </trkpt>
   <trkpt lat="31.746449" lon="35.163156">
    <ele>641.170</ele>
    <time>2011-04-19T04:33:02Z</time>
   </trkpt>
   <trkpt lat="31.746655" lon="35.162665">
    <ele>642.592</ele>
    <time>2011-04-19T04:33:11Z</time>
   </trkpt>
   <trkpt lat="31.746724" lon="35.162488">
    <ele>642.083</ele>
    <time>2011-04-19T04:33:15Z</time>
   </trkpt>
   <trkpt lat="31.747046" lon="35.161977">
    <ele>642.860</ele>
    <time>2011-04-19T04:33:28Z</time>
   </trkpt>
   <trkpt lat="31.747556" lon="35.161695">
    <ele>643.571</ele>
    <time>2011-04-19T04:33:41Z</time>
   </trkpt>
   <trkpt lat="31.747692" lon="35.161645">
    <ele>643.568</ele>
    <time>2011-04-19T04:33:44Z</time>
   </trkpt>
   <trkpt lat="31.748181" lon="35.161514">
    <ele>641.250</ele>
    <time>2011-04-19T04:33:54Z</time>
   </trkpt>
   <trkpt lat="31.748250" lon="35.161235">
    <ele>640.953</ele>
    <time>2011-04-19T04:34:00Z</time>
   </trkpt>
   <trkpt lat="31.748219" lon="35.161192">
    <ele>641.236</ele>
    <time>2011-04-19T04:34:01Z</time>
   </trkpt>
   <trkpt lat="31.747846" lon="35.160676">
    <ele>642.614</ele>
    <time>2011-04-19T04:34:14Z</time>
   </trkpt>
   <trkpt lat="31.747841" lon="35.160480">
    <ele>643.425</ele>
    <time>2011-04-19T04:34:18Z</time>
   </trkpt>
   <trkpt lat="31.747898" lon="35.160293">
    <ele>643.935</ele>
    <time>2011-04-19T04:34:22Z</time>
   </trkpt>
   <trkpt lat="31.747997" lon="35.160143">
    <ele>644.413</ele>
    <time>2011-04-19T04:34:26Z</time>
   </trkpt>
   <trkpt lat="31.748295" lon="35.159941">
    <ele>644.956</ele>
    <time>2011-04-19T04:34:35Z</time>
   </trkpt>
   <trkpt lat="31.748455" lon="35.159794">
    <ele>643.362</ele>
    <time>2011-04-19T04:34:39Z</time>
   </trkpt>
   <trkpt lat="31.748420" lon="35.159372">
    <ele>642.982</ele>
    <time>2011-04-19T04:34:47Z</time>
   </trkpt>
   <trkpt lat="31.748376" lon="35.159331">
    <ele>642.742</ele>
    <time>2011-04-19T04:34:48Z</time>
   </trkpt>
   <trkpt lat="31.748283" lon="35.159252">
    <ele>642.916</ele>
    <time>2011-04-19T04:34:50Z</time>
   </trkpt>
   <trkpt lat="31.748048" lon="35.159085">
    <ele>642.993</ele>
    <time>2011-04-19T04:34:55Z</time>
   </trkpt>
   <trkpt lat="31.747886" lon="35.158950">
    <ele>642.766</ele>
    <time>2011-04-19T04:34:59Z</time>
   </trkpt>
   <trkpt lat="31.747716" lon="35.158862">
    <ele>642.669</ele>
    <time>2011-04-19T04:35:03Z</time>
   </trkpt>
   <trkpt lat="31.747647" lon="35.158805">
    <ele>642.672</ele>
    <time>2011-04-19T04:35:05Z</time>
   </trkpt>
   <trkpt lat="31.747523" lon="35.158608">
    <ele>642.386</ele>
    <time>2011-04-19T04:35:10Z</time>
   </trkpt>
   <trkpt lat="31.747377" lon="35.158370">
    <ele>641.245</ele>
    <time>2011-04-19T04:35:15Z</time>
   </trkpt>
   <trkpt lat="31.747347" lon="35.158045">
    <ele>639.782</ele>
    <time>2011-04-19T04:35:20Z</time>
   </trkpt>
   <trkpt lat="31.747535" lon="35.157633">
    <ele>640.034</ele>
    <time>2011-04-19T04:35:30Z</time>
   </trkpt>
   <trkpt lat="31.747610" lon="35.157526">
    <ele>639.733</ele>
    <time>2011-04-19T04:35:33Z</time>
   </trkpt>
   <trkpt lat="31.747525" lon="35.157287">
    <ele>640.509</ele>
    <time>2011-04-19T04:35:39Z</time>
   </trkpt>
   <trkpt lat="31.747426" lon="35.157274">
    <ele>639.908</ele>
    <time>2011-04-19T04:35:41Z</time>
   </trkpt>
   <trkpt lat="31.747037" lon="35.157130">
    <ele>638.873</ele>
    <time>2011-04-19T04:35:50Z</time>
   </trkpt>
   <trkpt lat="31.746814" lon="35.156888">
    <ele>639.797</ele>
    <time>2011-04-19T04:35:59Z</time>
   </trkpt>
   <trkpt lat="31.746658" lon="35.156605">
    <ele>639.440</ele>
    <time>2011-04-19T04:36:06Z</time>
   </trkpt>
   <trkpt lat="31.746518" lon="35.156454">
    <ele>639.029</ele>
    <time>2011-04-19T04:36:10Z</time>
   </trkpt>
   <trkpt lat="31.746353" lon="35.156347">
    <ele>638.745</ele>
    <time>2011-04-19T04:36:14Z</time>
   </trkpt>
   <trkpt lat="31.746032" lon="35.156088">
    <ele>638.750</ele>
    <time>2011-04-19T04:36:23Z</time>
   </trkpt>
   <trkpt lat="31.745925" lon="35.155987">
    <ele>638.705</ele>
    <time>2011-04-19T04:36:26Z</time>
   </trkpt>
   <trkpt lat="31.745744" lon="35.155838">
    <ele>639.204</ele>
    <time>2011-04-19T04:36:31Z</time>
   </trkpt>
   <trkpt lat="31.745634" lon="35.155752">
    <ele>639.166</ele>
    <time>2011-04-19T04:36:34Z</time>
   </trkpt>
   <trkpt lat="31.745473" lon="35.155608">
    <ele>638.995</ele>
    <time>2011-04-19T04:36:38Z</time>
   </trkpt>
   <trkpt lat="31.745127" lon="35.155182">
    <ele>641.686</ele>
    <time>2011-04-19T04:36:52Z</time>
   </trkpt>
   <trkpt lat="31.744956" lon="35.155021">
    <ele>641.938</ele>
    <time>2011-04-19T04:36:58Z</time>
   </trkpt>
   <trkpt lat="31.744864" lon="35.154919">
    <ele>641.743</ele>
    <time>2011-04-19T04:37:01Z</time>
   </trkpt>
   <trkpt lat="31.744720" lon="35.154795">
    <ele>641.235</ele>
    <time>2011-04-19T04:37:05Z</time>
   </trkpt>
   <trkpt lat="31.744492" lon="35.154574">
    <ele>639.170</ele>
    <time>2011-04-19T04:37:11Z</time>
   </trkpt>
   <trkpt lat="31.744368" lon="35.154226">
    <ele>638.975</ele>
    <time>2011-04-19T04:37:17Z</time>
   </trkpt>
   <trkpt lat="31.744359" lon="35.154044">
    <ele>639.012</ele>
    <time>2011-04-19T04:37:20Z</time>
   </trkpt>
   <trkpt lat="31.744346" lon="35.153865">
    <ele>638.507</ele>
    <time>2011-04-19T04:37:23Z</time>
   </trkpt>
   <trkpt lat="31.744574" lon="35.153307">
    <ele>638.824</ele>
    <time>2011-04-19T04:37:33Z</time>
   </trkpt>
   <trkpt lat="31.744398" lon="35.153047">
    <ele>635.869</ele>
    <time>2011-04-19T04:37:39Z</time>
   </trkpt>
   <trkpt lat="31.744341" lon="35.153057">
    <ele>636.062</ele>
    <time>2011-04-19T04:37:40Z</time>
   </trkpt>
   <trkpt lat="31.744123" lon="35.153127">
    <ele>635.357</ele>
    <time>2011-04-19T04:37:44Z</time>
   </trkpt>
   <trkpt lat="31.743634" lon="35.153211">
    <ele>632.212</ele>
    <time>2011-04-19T04:37:51Z</time>
   </trkpt>
   <trkpt lat="31.743371" lon="35.153167">
    <ele>633.252</ele>
    <time>2011-04-19T04:37:56Z</time>
   </trkpt>
   <trkpt lat="31.743280" lon="35.153164">
    <ele>633.799</ele>
    <time>2011-04-19T04:37:58Z</time>
   </trkpt>
   <trkpt lat="31.742815" lon="35.153133">
    <ele>634.565</ele>
    <time>2011-04-19T04:38:11Z</time>
   </trkpt>
   <trkpt lat="31.742549" lon="35.153107">
    <ele>633.518</ele>
    <time>2011-04-19T04:38:17Z</time>
   </trkpt>
   <trkpt lat="31.742159" lon="35.152890">
    <ele>632.828</ele>
    <time>2011-04-19T04:38:25Z</time>
   </trkpt>
   <trkpt lat="31.741936" lon="35.152849">
    <ele>632.918</ele>
    <time>2011-04-19T04:38:29Z</time>
   </trkpt>
   <trkpt lat="31.741600" lon="35.152851">
    <ele>632.542</ele>
    <time>2011-04-19T04:38:35Z</time>
   </trkpt>
   <trkpt lat="31.741259" lon="35.152564">
    <ele>632.302</ele>
    <time>2011-04-19T04:38:43Z</time>
   </trkpt>
   <trkpt lat="31.740959" lon="35.152289">
    <ele>631.158</ele>
    <time>2011-04-19T04:38:50Z</time>
   </trkpt>
   <trkpt lat="31.740860" lon="35.152238">
    <ele>630.724</ele>
    <time>2011-04-19T04:38:52Z</time>
   </trkpt>
   <trkpt lat="31.740633" lon="35.152257">
    <ele>627.009</ele>
    <time>2011-04-19T04:38:56Z</time>
   </trkpt>
   <trkpt lat="31.740285" lon="35.151910">
    <ele>626.429</ele>
    <time>2011-04-19T04:39:04Z</time>
   </trkpt>
   <trkpt lat="31.740174" lon="35.151768">
    <ele>626.731</ele>
    <time>2011-04-19T04:39:07Z</time>
   </trkpt>
   <trkpt lat="31.739966" lon="35.151661">
    <ele>626.429</ele>
    <time>2011-04-19T04:39:12Z</time>
   </trkpt>
   <trkpt lat="31.739625" lon="35.151030">
    <ele>621.264</ele>
    <time>2011-04-19T04:39:22Z</time>
   </trkpt>
   <trkpt lat="31.739402" lon="35.150776">
    <ele>619.998</ele>
    <time>2011-04-19T04:39:26Z</time>
   </trkpt>
   <trkpt lat="31.739088" lon="35.150599">
    <ele>618.933</ele>
    <time>2011-04-19T04:39:31Z</time>
   </trkpt>
   <trkpt lat="31.738924" lon="35.150553">
    <ele>616.582</ele>
    <time>2011-04-19T04:39:34Z</time>
   </trkpt>
   <trkpt lat="31.738819" lon="35.150501">
    <ele>614.974</ele>
    <time>2011-04-19T04:39:36Z</time>
   </trkpt>
   <trkpt lat="31.738640" lon="35.150321">
    <ele>611.130</ele>
    <time>2011-04-19T04:39:40Z</time>
   </trkpt>
   <trkpt lat="31.738481" lon="35.149920">
    <ele>607.622</ele>
    <time>2011-04-19T04:39:46Z</time>
   </trkpt>
   <trkpt lat="31.738366" lon="35.149663">
    <ele>605.458</ele>
    <time>2011-04-19T04:39:50Z</time>
   </trkpt>
   <trkpt lat="31.738335" lon="35.149357">
    <ele>603.320</ele>
    <time>2011-04-19T04:39:54Z</time>
   </trkpt>
   <trkpt lat="31.738300" lon="35.149127">
    <ele>601.698</ele>
    <time>2011-04-19T04:39:58Z</time>
   </trkpt>
   <trkpt lat="31.738267" lon="35.148840">
    <ele>600.348</ele>
    <time>2011-04-19T04:40:03Z</time>
   </trkpt>
   <trkpt lat="31.738069" lon="35.148474">
    <ele>598.324</ele>
    <time>2011-04-19T04:40:09Z</time>
   </trkpt>
   <trkpt lat="31.737949" lon="35.148263">
    <ele>597.500</ele>
    <time>2011-04-19T04:40:12Z</time>
   </trkpt>
   <trkpt lat="31.737557" lon="35.147449">
    <ele>599.575</ele>
    <time>2011-04-19T04:40:26Z</time>
   </trkpt>
   <trkpt lat="31.737474" lon="35.147362">
    <ele>600.267</ele>
    <time>2011-04-19T04:40:29Z</time>
   </trkpt>
   <trkpt lat="31.737287" lon="35.147250">
    <ele>600.690</ele>
    <time>2011-04-19T04:40:34Z</time>
   </trkpt>
   <trkpt lat="31.736925" lon="35.147023">
    <ele>599.867</ele>
    <time>2011-04-19T04:40:42Z</time>
   </trkpt>
   <trkpt lat="31.736779" lon="35.146994">
    <ele>600.559</ele>
    <time>2011-04-19T04:40:45Z</time>
   </trkpt>
   <trkpt lat="31.736571" lon="35.146907">
    <ele>601.964</ele>
    <time>2011-04-19T04:40:50Z</time>
   </trkpt>
   <trkpt lat="31.736345" lon="35.146827">
    <ele>601.225</ele>
    <time>2011-04-19T04:40:55Z</time>
   </trkpt>
   <trkpt lat="31.736170" lon="35.146656">
    <ele>598.796</ele>
    <time>2011-04-19T04:40:59Z</time>
   </trkpt>
   <trkpt lat="31.736049" lon="35.146352">
    <ele>599.363</ele>
    <time>2011-04-19T04:41:04Z</time>
   </trkpt>
   <trkpt lat="31.736034" lon="35.146243">
    <ele>599.778</ele>
    <time>2011-04-19T04:41:06Z</time>
   </trkpt>
   <trkpt lat="31.735966" lon="35.145982">
    <ele>599.317</ele>
    <time>2011-04-19T04:41:11Z</time>
   </trkpt>
   <trkpt lat="31.735877" lon="35.145779">
    <ele>599.114</ele>
    <time>2011-04-19T04:41:15Z</time>
   </trkpt>
   <trkpt lat="31.735411" lon="35.145147">
    <ele>602.479</ele>
    <time>2011-04-19T04:41:31Z</time>
   </trkpt>
   <trkpt lat="31.735103" lon="35.144950">
    <ele>604.310</ele>
    <time>2011-04-19T04:41:43Z</time>
   </trkpt>
   <trkpt lat="31.734762" lon="35.144693">
    <ele>604.149</ele>
    <time>2011-04-19T04:41:56Z</time>
   </trkpt>
   <trkpt lat="31.734690" lon="35.144287">
    <ele>604.952</ele>
    <time>2011-04-19T04:42:07Z</time>
   </trkpt>
   <trkpt lat="31.734542" lon="35.143739">
    <ele>606.529</ele>
    <time>2011-04-19T04:42:21Z</time>
   </trkpt>
   <trkpt lat="31.734426" lon="35.143099">
    <ele>606.571</ele>
    <time>2011-04-19T04:42:36Z</time>
   </trkpt>
   <trkpt lat="31.734388" lon="35.142833">
    <ele>607.125</ele>
    <time>2011-04-19T04:42:42Z</time>
   </trkpt>
   <trkpt lat="31.734194" lon="35.142363">
    <ele>605.527</ele>
    <time>2011-04-19T04:42:52Z</time>
   </trkpt>
   <trkpt lat="31.734121" lon="35.142049">
    <ele>605.301</ele>
    <time>2011-04-19T04:42:58Z</time>
   </trkpt>
   <trkpt lat="31.734091" lon="35.141900">
    <ele>605.793</ele>
    <time>2011-04-19T04:43:01Z</time>
   </trkpt>
   <trkpt lat="31.733755" lon="35.141102">
    <ele>609.078</ele>
    <time>2011-04-19T04:43:19Z</time>
   </trkpt>
   <trkpt lat="31.733595" lon="35.140816">
    <ele>608.859</ele>
    <time>2011-04-19T04:43:34Z</time>
   </trkpt>
   <trkpt lat="31.733599" lon="35.140818">
    <ele>608.594</ele>
    <time>2011-04-19T04:43:38Z</time>
   </trkpt>
   <trkpt lat="31.733592" lon="35.140772">
    <ele>608.445</ele>
    <time>2011-04-19T04:43:42Z</time>
   </trkpt>
   <trkpt lat="31.733503" lon="35.140587">
    <ele>609.854</ele>
    <time>2011-04-19T04:43:56Z</time>
   </trkpt>
   <trkpt lat="31.733376" lon="35.140370">
    <ele>614.312</ele>
    <time>2011-04-19T04:44:12Z</time>
   </trkpt>
   <trkpt lat="31.733249" lon="35.140148">
    <ele>613.895</ele>
    <time>2011-04-19T04:44:30Z</time>
   </trkpt>
   <trkpt lat="31.733057" lon="35.139829">
    <ele>614.591</ele>
    <time>2011-04-19T04:44:48Z</time>
   </trkpt>
   <trkpt lat="31.733043" lon="35.139811">
    <ele>614.486</ele>
    <time>2011-04-19T04:45:03Z</time>
   </trkpt>
   <trkpt lat="31.733014" lon="35.139718">
    <ele>614.403</ele>
    <time>2011-04-19T04:45:09Z</time>
   </trkpt>
   <trkpt lat="31.733077" lon="35.139599">
    <ele>614.829</ele>
    <time>2011-04-19T04:45:14Z</time>
   </trkpt>
   <trkpt lat="31.733440" lon="35.139466">
    <ele>614.488</ele>
    <time>2011-04-19T04:45:26Z</time>
   </trkpt>
   <trkpt lat="31.733733" lon="35.139462">
    <ele>611.772</ele>
    <time>2011-04-19T04:45:32Z</time>
   </trkpt>
   <trkpt lat="31.734525" lon="35.139239">
    <ele>607.617</ele>
    <time>2011-04-19T04:45:44Z</time>
   </trkpt>
   <trkpt lat="31.734579" lon="35.139221">
    <ele>606.869</ele>
    <time>2011-04-19T04:45:45Z</time>
   </trkpt>
   <trkpt lat="31.734767" lon="35.139134">
    <ele>603.972</ele>
    <time>2011-04-19T04:45:48Z</time>
   </trkpt>
   <trkpt lat="31.735185" lon="35.139101">
    <ele>607.501</ele>
    <time>2011-04-19T04:45:59Z</time>
   </trkpt>
   <trkpt lat="31.735541" lon="35.139095">
    <ele>609.782</ele>
    <time>2011-04-19T04:46:15Z</time>
   </trkpt>
   <trkpt lat="31.735911" lon="35.139063">
    <ele>612.028</ele>
    <time>2011-04-19T04:46:34Z</time>
   </trkpt>
   <trkpt lat="31.736334" lon="35.138978">
    <ele>617.090</ele>
    <time>2011-04-19T04:46:59Z</time>
   </trkpt>
   <trkpt lat="31.736719" lon="35.138913">
    <ele>621.208</ele>
    <time>2011-04-19T04:47:20Z</time>
   </trkpt>
   <trkpt lat="31.737059" lon="35.138924">
    <ele>624.314</ele>
    <time>2011-04-19T04:47:38Z</time>
   </trkpt>
   <trkpt lat="31.737348" lon="35.138908">
    <ele>626.491</ele>
    <time>2011-04-19T04:47:54Z</time>
   </trkpt>
   <trkpt lat="31.737724" lon="35.138824">
    <ele>630.088</ele>
    <time>2011-04-19T04:48:17Z</time>
   </trkpt>
   <trkpt lat="31.737931" lon="35.138871">
    <ele>632.986</ele>
    <time>2011-04-19T04:48:30Z</time>
   </trkpt>
   <trkpt lat="31.738110" lon="35.138719">
    <ele>634.051</ele>
    <time>2011-04-19T04:48:43Z</time>
   </trkpt>
   <trkpt lat="31.738052" lon="35.138446">
    <ele>635.993</ele>
    <time>2011-04-19T04:48:57Z</time>
   </trkpt>
   <trkpt lat="31.737940" lon="35.138026">
    <ele>637.203</ele>
    <time>2011-04-19T04:49:16Z</time>
   </trkpt>
   <trkpt lat="31.737923" lon="35.137824">
    <ele>638.030</ele>
    <time>2011-04-19T04:49:24Z</time>
   </trkpt>
   <trkpt lat="31.737951" lon="35.137549">
    <ele>639.288</ele>
    <time>2011-04-19T04:49:36Z</time>
   </trkpt>
   <trkpt lat="31.738025" lon="35.137186">
    <ele>639.978</ele>
    <time>2011-04-19T04:49:54Z</time>
   </trkpt>
   <trkpt lat="31.738091" lon="35.136990">
    <ele>642.350</ele>
    <time>2011-04-19T04:50:05Z</time>
   </trkpt>
   <trkpt lat="31.738181" lon="35.136690">
    <ele>644.385</ele>
    <time>2011-04-19T04:50:21Z</time>
   </trkpt>
   <trkpt lat="31.738224" lon="35.136527">
    <ele>644.688</ele>
    <time>2011-04-19T04:50:30Z</time>
   </trkpt>
   <trkpt lat="31.738317" lon="35.136214">
    <ele>646.660</ele>
    <time>2011-04-19T04:50:48Z</time>
   </trkpt>
   <trkpt lat="31.738387" lon="35.135840">
    <ele>648.500</ele>
    <time>2011-04-19T04:51:07Z</time>
   </trkpt>
   <trkpt lat="31.738419" lon="35.135449">
    <ele>650.968</ele>
    <time>2011-04-19T04:51:25Z</time>
   </trkpt>
   <trkpt lat="31.738400" lon="35.135190">
    <ele>651.750</ele>
    <time>2011-04-19T04:51:37Z</time>
   </trkpt>
   <trkpt lat="31.738412" lon="35.134796">
    <ele>653.025</ele>
    <time>2011-04-19T04:51:56Z</time>
   </trkpt>
   <trkpt lat="31.738412" lon="35.134212">
    <ele>655.758</ele>
    <time>2011-04-19T04:52:20Z</time>
   </trkpt>
   <trkpt lat="31.738422" lon="35.133671">
    <ele>660.113</ele>
    <time>2011-04-19T04:52:42Z</time>
   </trkpt>
   <trkpt lat="31.738428" lon="35.133307">
    <ele>663.785</ele>
    <time>2011-04-19T04:52:59Z</time>
   </trkpt>
   <trkpt lat="31.738432" lon="35.132933">
    <ele>665.138</ele>
    <time>2011-04-19T04:53:17Z</time>
   </trkpt>
   <trkpt lat="31.738511" lon="35.132556">
    <ele>667.087</ele>
    <time>2011-04-19T04:53:36Z</time>
   </trkpt>
   <trkpt lat="31.738747" lon="35.132218">
    <ele>670.450</ele>
    <time>2011-04-19T04:53:57Z</time>
   </trkpt>
   <trkpt lat="31.739027" lon="35.131991">
    <ele>674.552</ele>
    <time>2011-04-19T04:54:16Z</time>
   </trkpt>
   <trkpt lat="31.739078" lon="35.131970">
    <ele>675.178</ele>
    <time>2011-04-19T04:54:19Z</time>
   </trkpt>
   <trkpt lat="31.739409" lon="35.131946">
    <ele>677.839</ele>
    <time>2011-04-19T04:54:36Z</time>
   </trkpt>
   <trkpt lat="31.739777" lon="35.132113">
    <ele>680.101</ele>
    <time>2011-04-19T04:54:57Z</time>
   </trkpt>
   <trkpt lat="31.740047" lon="35.132262">
    <ele>682.572</ele>
    <time>2011-04-19T04:55:15Z</time>
   </trkpt>
   <trkpt lat="31.740161" lon="35.132274">
    <ele>682.990</ele>
    <time>2011-04-19T04:55:24Z</time>
   </trkpt>
   <trkpt lat="31.740473" lon="35.132484">
    <ele>681.339</ele>
    <time>2011-04-19T04:55:39Z</time>
   </trkpt>
   <trkpt lat="31.740697" lon="35.132649">
    <ele>680.158</ele>
    <time>2011-04-19T04:55:46Z</time>
   </trkpt>
   <trkpt lat="31.740816" lon="35.132753">
    <ele>679.290</ele>
    <time>2011-04-19T04:55:49Z</time>
   </trkpt>
   <trkpt lat="31.741014" lon="35.132909">
    <ele>677.202</ele>
    <time>2011-04-19T04:55:53Z</time>
   </trkpt>
   <trkpt lat="31.741882" lon="35.133322">
    <ele>671.017</ele>
    <time>2011-04-19T04:56:05Z</time>
   </trkpt>
   <trkpt lat="31.743284" lon="35.133415">
    <ele>662.976</ele>
    <time>2011-04-19T04:56:20Z</time>
   </trkpt>
   <trkpt lat="31.743577" lon="35.133210">
    <ele>660.270</ele>
    <time>2011-04-19T04:56:27Z</time>
   </trkpt>
   <trkpt lat="31.743557" lon="35.133071">
    <ele>658.143</ele>
    <time>2011-04-19T04:56:30Z</time>
   </trkpt>
   <trkpt lat="31.743469" lon="35.132688">
    <ele>656.503</ele>
    <time>2011-04-19T04:56:38Z</time>
   </trkpt>
   <trkpt lat="31.743408" lon="35.132070">
    <ele>654.405</ele>
    <time>2011-04-19T04:56:46Z</time>
   </trkpt>
   <trkpt lat="31.743552" lon="35.131159">
    <ele>649.833</ele>
    <time>2011-04-19T04:56:56Z</time>
   </trkpt>
   <trkpt lat="31.743718" lon="35.130825">
    <ele>648.126</ele>
    <time>2011-04-19T04:57:00Z</time>
   </trkpt>
   <trkpt lat="31.744082" lon="35.130413">
    <ele>644.269</ele>
    <time>2011-04-19T04:57:06Z</time>
   </trkpt>
   <trkpt lat="31.744892" lon="35.129973">
    <ele>639.869</ele>
    <time>2011-04-19T04:57:16Z</time>
   </trkpt>
   <trkpt lat="31.745717" lon="35.129838">
    <ele>632.288</ele>
    <time>2011-04-19T04:57:26Z</time>
   </trkpt>
   <trkpt lat="31.746483" lon="35.129469">
    <ele>627.558</ele>
    <time>2011-04-19T04:57:36Z</time>
   </trkpt>
   <trkpt lat="31.746568" lon="35.129429">
    <ele>627.027</ele>
    <time>2011-04-19T04:57:37Z</time>
   </trkpt>
   <trkpt lat="31.747064" lon="35.129340">
    <ele>622.839</ele>
    <time>2011-04-19T04:57:43Z</time>
   </trkpt>
   <trkpt lat="31.747248" lon="35.128928">
    <ele>619.567</ele>
    <time>2011-04-19T04:57:50Z</time>
   </trkpt>
   <trkpt lat="31.747221" lon="35.128235">
    <ele>614.904</ele>
    <time>2011-04-19T04:57:57Z</time>
   </trkpt>
   <trkpt lat="31.747347" lon="35.127914">
    <ele>611.495</ele>
    <time>2011-04-19T04:58:01Z</time>
   </trkpt>
   <trkpt lat="31.747279" lon="35.127562">
    <ele>608.606</ele>
    <time>2011-04-19T04:58:07Z</time>
   </trkpt>
   <trkpt lat="31.747223" lon="35.127534">
    <ele>607.819</ele>
    <time>2011-04-19T04:58:08Z</time>
   </trkpt>
   <trkpt lat="31.746966" lon="35.127389">
    <ele>603.910</ele>
    <time>2011-04-19T04:58:12Z</time>
   </trkpt>
   <trkpt lat="31.746699" lon="35.127170">
    <ele>601.176</ele>
    <time>2011-04-19T04:58:16Z</time>
   </trkpt>
   <trkpt lat="31.746305" lon="35.126955">
    <ele>598.815</ele>
    <time>2011-04-19T04:58:21Z</time>
   </trkpt>
   <trkpt lat="31.745993" lon="35.126338">
    <ele>594.372</ele>
    <time>2011-04-19T04:58:28Z</time>
   </trkpt>
   <trkpt lat="31.746111" lon="35.125882">
    <ele>591.847</ele>
    <time>2011-04-19T04:58:33Z</time>
   </trkpt>
   <trkpt lat="31.746071" lon="35.125589">
    <ele>590.213</ele>
    <time>2011-04-19T04:58:37Z</time>
   </trkpt>
   <trkpt lat="31.745921" lon="35.125429">
    <ele>588.937</ele>
    <time>2011-04-19T04:58:40Z</time>
   </trkpt>
   <trkpt lat="31.745788" lon="35.125165">
    <ele>586.075</ele>
    <time>2011-04-19T04:58:44Z</time>
   </trkpt>
   <trkpt lat="31.745733" lon="35.124873">
    <ele>583.583</ele>
    <time>2011-04-19T04:58:47Z</time>
   </trkpt>
   <trkpt lat="31.745463" lon="35.124068">
    <ele>578.797</ele>
    <time>2011-04-19T04:58:55Z</time>
   </trkpt>
   <trkpt lat="31.745418" lon="35.123865">
    <ele>577.743</ele>
    <time>2011-04-19T04:58:57Z</time>
   </trkpt>
   <trkpt lat="31.745059" lon="35.122987">
    <ele>571.376</ele>
    <time>2011-04-19T04:59:06Z</time>
   </trkpt>
   <trkpt lat="31.744998" lon="35.122623">
    <ele>568.556</ele>
    <time>2011-04-19T04:59:10Z</time>
   </trkpt>
   <trkpt lat="31.744994" lon="35.122458">
    <ele>567.163</ele>
    <time>2011-04-19T04:59:12Z</time>
   </trkpt>
   <trkpt lat="31.744825" lon="35.122134">
    <ele>565.715</ele>
    <time>2011-04-19T04:59:17Z</time>
   </trkpt>
   <trkpt lat="31.743984" lon="35.121411">
    <ele>558.462</ele>
    <time>2011-04-19T04:59:33Z</time>
   </trkpt>
   <trkpt lat="31.743226" lon="35.120581">
    <ele>550.124</ele>
    <time>2011-04-19T04:59:46Z</time>
   </trkpt>
   <trkpt lat="31.743137" lon="35.120462">
    <ele>548.682</ele>
    <time>2011-04-19T04:59:48Z</time>
   </trkpt>
   <trkpt lat="31.742780" lon="35.120274">
    <ele>545.862</ele>
    <time>2011-04-19T04:59:54Z</time>
   </trkpt>
   <trkpt lat="31.742252" lon="35.120133">
    <ele>543.748</ele>
    <time>2011-04-19T05:00:02Z</time>
   </trkpt>
   <trkpt lat="31.742054" lon="35.120006">
    <ele>542.444</ele>
    <time>2011-04-19T05:00:05Z</time>
   </trkpt>
   <trkpt lat="31.740927" lon="35.119508">
    <ele>534.018</ele>
    <time>2011-04-19T05:00:18Z</time>
   </trkpt>
   <trkpt lat="31.740420" lon="35.119315">
    <ele>530.194</ele>
    <time>2011-04-19T05:00:24Z</time>
   </trkpt>
   <trkpt lat="31.739053" lon="35.119077">
    <ele>520.257</ele>
    <time>2011-04-19T05:00:38Z</time>
   </trkpt>
   <trkpt lat="31.737923" lon="35.118975">
    <ele>516.141</ele>
    <time>2011-04-19T05:00:49Z</time>
   </trkpt>
   <trkpt lat="31.737644" lon="35.118915">
    <ele>515.605</ele>
    <time>2011-04-19T05:00:52Z</time>
   </trkpt>
   <trkpt lat="31.736912" lon="35.118833">
    <ele>512.555</ele>
    <time>2011-04-19T05:01:00Z</time>
   </trkpt>
   <trkpt lat="31.736621" lon="35.118718">
    <ele>511.242</ele>
    <time>2011-04-19T05:01:04Z</time>
   </trkpt>
   <trkpt lat="31.736348" lon="35.118566">
    <ele>509.078</ele>
    <time>2011-04-19T05:01:11Z</time>
   </trkpt>
   <trkpt lat="31.736320" lon="35.118341">
    <ele>509.117</ele>
    <time>2011-04-19T05:01:26Z</time>
   </trkpt>
   <trkpt lat="31.736341" lon="35.118294">
    <ele>509.636</ele>
    <time>2011-04-19T05:01:30Z</time>
   </trkpt>
   <trkpt lat="31.736324" lon="35.118274">
    <ele>509.883</ele>
    <time>2011-04-19T05:01:34Z</time>
   </trkpt>
   <trkpt lat="31.736200" lon="35.118580">
    <ele>506.603</ele>
    <time>2011-04-19T05:01:47Z</time>
   </trkpt>
   <trkpt lat="31.736052" lon="35.118655">
    <ele>506.214</ele>
    <time>2011-04-19T05:01:53Z</time>
   </trkpt>
   <trkpt lat="31.735982" lon="35.118551">
    <ele>506.777</ele>
    <time>2011-04-19T05:02:00Z</time>
   </trkpt>
   <trkpt lat="31.735942" lon="35.118272">
    <ele>506.450</ele>
    <time>2011-04-19T05:02:14Z</time>
   </trkpt>
   <trkpt lat="31.735959" lon="35.118069">
    <ele>505.338</ele>
    <time>2011-04-19T05:02:21Z</time>
   </trkpt>
   <trkpt lat="31.736043" lon="35.117587">
    <ele>505.046</ele>
    <time>2011-04-19T05:02:34Z</time>
   </trkpt>
   <trkpt lat="31.736212" lon="35.117160">
    <ele>503.340</ele>
    <time>2011-04-19T05:02:44Z</time>
   </trkpt>
   <trkpt lat="31.736235" lon="35.117114">
    <ele>503.284</ele>
    <time>2011-04-19T05:02:45Z</time>
   </trkpt>
   <trkpt lat="31.736711" lon="35.116333">
    <ele>503.691</ele>
    <time>2011-04-19T05:03:03Z</time>
   </trkpt>
   <trkpt lat="31.736926" lon="35.115736">
    <ele>503.832</ele>
    <time>2011-04-19T05:03:17Z</time>
   </trkpt>
   <trkpt lat="31.737058" lon="35.115206">
    <ele>504.233</ele>
    <time>2011-04-19T05:03:32Z</time>
   </trkpt>
   <trkpt lat="31.737121" lon="35.114899">
    <ele>503.005</ele>
    <time>2011-04-19T05:03:42Z</time>
   </trkpt>
   <trkpt lat="31.737204" lon="35.114483">
    <ele>503.056</ele>
    <time>2011-04-19T05:03:54Z</time>
   </trkpt>
   <trkpt lat="31.737282" lon="35.114462">
    <ele>501.091</ele>
    <time>2011-04-19T05:03:58Z</time>
   </trkpt>
   <trkpt lat="31.737335" lon="35.114480">
    <ele>501.483</ele>
    <time>2011-04-19T05:04:00Z</time>
   </trkpt>
   <trkpt lat="31.737398" lon="35.114466">
    <ele>502.275</ele>
    <time>2011-04-19T05:04:04Z</time>
   </trkpt>
   <trkpt lat="31.737434" lon="35.114366">
    <ele>501.837</ele>
    <time>2011-04-19T05:04:09Z</time>
   </trkpt>
   <trkpt lat="31.737539" lon="35.113958">
    <ele>502.177</ele>
    <time>2011-04-19T05:04:25Z</time>
   </trkpt>
   <trkpt lat="31.737729" lon="35.113710">
    <ele>502.563</ele>
    <time>2011-04-19T05:04:36Z</time>
   </trkpt>
   <trkpt lat="31.737903" lon="35.113295">
    <ele>505.013</ele>
    <time>2011-04-19T05:04:53Z</time>
   </trkpt>
   <trkpt lat="31.738189" lon="35.112781">
    <ele>503.082</ele>
    <time>2011-04-19T05:05:11Z</time>
   </trkpt>
   <trkpt lat="31.738601" lon="35.112178">
    <ele>501.554</ele>
    <time>2011-04-19T05:05:27Z</time>
   </trkpt>
   <trkpt lat="31.738675" lon="35.112095">
    <ele>500.695</ele>
    <time>2011-04-19T05:05:29Z</time>
   </trkpt>
   <trkpt lat="31.738863" lon="35.111969">
    <ele>499.500</ele>
    <time>2011-04-19T05:05:33Z</time>
   </trkpt>
   <trkpt lat="31.739538" lon="35.111716">
    <ele>497.876</ele>
    <time>2011-04-19T05:05:46Z</time>
   </trkpt>
   <trkpt lat="31.739703" lon="35.111669">
    <ele>497.697</ele>
    <time>2011-04-19T05:05:49Z</time>
   </trkpt>
   <trkpt lat="31.739848" lon="35.111584">
    <ele>497.077</ele>
    <time>2011-04-19T05:05:52Z</time>
   </trkpt>
   <trkpt lat="31.740337" lon="35.111380">
    <ele>496.710</ele>
    <time>2011-04-19T05:06:02Z</time>
   </trkpt>
   <trkpt lat="31.740519" lon="35.111268">
    <ele>496.139</ele>
    <time>2011-04-19T05:06:06Z</time>
   </trkpt>
   <trkpt lat="31.740757" lon="35.111031">
    <ele>495.619</ele>
    <time>2011-04-19T05:06:12Z</time>
   </trkpt>
   <trkpt lat="31.741214" lon="35.110223">
    <ele>492.871</ele>
    <time>2011-04-19T05:06:27Z</time>
   </trkpt>
   <trkpt lat="31.741268" lon="35.110036">
    <ele>492.843</ele>
    <time>2011-04-19T05:06:30Z</time>
   </trkpt>
   <trkpt lat="31.741371" lon="35.109424">
    <ele>492.016</ele>
    <time>2011-04-19T05:06:39Z</time>
   </trkpt>
   <trkpt lat="31.741407" lon="35.109174">
    <ele>491.549</ele>
    <time>2011-04-19T05:06:43Z</time>
   </trkpt>
   <trkpt lat="31.741526" lon="35.108977">
    <ele>491.185</ele>
    <time>2011-04-19T05:06:47Z</time>
   </trkpt>
   <trkpt lat="31.741488" lon="35.108460">
    <ele>489.757</ele>
    <time>2011-04-19T05:06:59Z</time>
   </trkpt>
   <trkpt lat="31.741347" lon="35.108270">
    <ele>490.209</ele>
    <time>2011-04-19T05:07:10Z</time>
   </trkpt>
   <trkpt lat="31.741241" lon="35.108113">
    <ele>489.627</ele>
    <time>2011-04-19T05:07:28Z</time>
   </trkpt>
   <trkpt lat="31.741027" lon="35.107738">
    <ele>489.212</ele>
    <time>2011-04-19T05:07:42Z</time>
   </trkpt>
   <trkpt lat="31.741019" lon="35.107508">
    <ele>488.587</ele>
    <time>2011-04-19T05:07:47Z</time>
   </trkpt>
   <trkpt lat="31.741289" lon="35.106998">
    <ele>487.660</ele>
    <time>2011-04-19T05:07:59Z</time>
   </trkpt>
   <trkpt lat="31.741297" lon="35.106980">
    <ele>487.843</ele>
    <time>2011-04-19T05:08:08Z</time>
   </trkpt>
   <trkpt lat="31.741284" lon="35.106976">
    <ele>487.910</ele>
    <time>2011-04-19T05:08:22Z</time>
   </trkpt>
   <trkpt lat="31.741273" lon="35.106990">
    <ele>487.291</ele>
    <time>2011-04-19T05:08:30Z</time>
   </trkpt>
   <trkpt lat="31.741390" lon="35.106846">
    <ele>486.965</ele>
    <time>2011-04-19T05:08:37Z</time>
   </trkpt>
   <trkpt lat="31.741616" lon="35.106676">
    <ele>484.898</ele>
    <time>2011-04-19T05:08:42Z</time>
   </trkpt>
   <trkpt lat="31.741985" lon="35.106563">
    <ele>484.392</ele>
    <time>2011-04-19T05:08:48Z</time>
   </trkpt>
   <trkpt lat="31.742294" lon="35.106435">
    <ele>485.331</ele>
    <time>2011-04-19T05:08:53Z</time>
   </trkpt>
   <trkpt lat="31.742524" lon="35.106184">
    <ele>486.762</ele>
    <time>2011-04-19T05:08:59Z</time>
   </trkpt>
   <trkpt lat="31.742674" lon="35.105700">
    <ele>485.215</ele>
    <time>2011-04-19T05:09:07Z</time>
   </trkpt>
   <trkpt lat="31.742740" lon="35.105520">
    <ele>484.145</ele>
    <time>2011-04-19T05:09:10Z</time>
   </trkpt>
   <trkpt lat="31.742979" lon="35.104807">
    <ele>484.026</ele>
    <time>2011-04-19T05:09:22Z</time>
   </trkpt>
   <trkpt lat="31.742940" lon="35.104535">
    <ele>482.498</ele>
    <time>2011-04-19T05:09:27Z</time>
   </trkpt>
   <trkpt lat="31.742845" lon="35.104356">
    <ele>481.316</ele>
    <time>2011-04-19T05:09:30Z</time>
   </trkpt>
   <trkpt lat="31.742779" lon="35.103927">
    <ele>481.698</ele>
    <time>2011-04-19T05:09:37Z</time>
   </trkpt>
   <trkpt lat="31.742793" lon="35.103703">
    <ele>481.383</ele>
    <time>2011-04-19T05:09:41Z</time>
   </trkpt>
   <trkpt lat="31.743054" lon="35.102790">
    <ele>481.252</ele>
    <time>2011-04-19T05:09:56Z</time>
   </trkpt>
   <trkpt lat="31.743117" lon="35.102596">
    <ele>480.654</ele>
    <time>2011-04-19T05:09:59Z</time>
   </trkpt>
   <trkpt lat="31.743182" lon="35.102167">
    <ele>479.333</ele>
    <time>2011-04-19T05:10:05Z</time>
   </trkpt>
   <trkpt lat="31.743172" lon="35.101958">
    <ele>479.462</ele>
    <time>2011-04-19T05:10:08Z</time>
   </trkpt>
   <trkpt lat="31.743188" lon="35.100968">
    <ele>481.463</ele>
    <time>2011-04-19T05:10:23Z</time>
   </trkpt>
   <trkpt lat="31.743202" lon="35.100797">
    <ele>481.569</ele>
    <time>2011-04-19T05:10:26Z</time>
   </trkpt>
   <trkpt lat="31.743196" lon="35.100625">
    <ele>481.286</ele>
    <time>2011-04-19T05:10:29Z</time>
   </trkpt>
   <trkpt lat="31.743012" lon="35.099899">
    <ele>480.772</ele>
    <time>2011-04-19T05:10:42Z</time>
   </trkpt>
   <trkpt lat="31.742502" lon="35.099019">
    <ele>478.410</ele>
    <time>2011-04-19T05:10:58Z</time>
   </trkpt>
   <trkpt lat="31.742387" lon="35.098816">
    <ele>477.771</ele>
    <time>2011-04-19T05:11:02Z</time>
   </trkpt>
   <trkpt lat="31.741867" lon="35.098135">
    <ele>475.161</ele>
    <time>2011-04-19T05:11:16Z</time>
   </trkpt>
   <trkpt lat="31.741575" lon="35.097431">
    <ele>473.943</ele>
    <time>2011-04-19T05:11:28Z</time>
   </trkpt>
   <trkpt lat="31.741411" lon="35.096483">
    <ele>472.976</ele>
    <time>2011-04-19T05:11:44Z</time>
   </trkpt>
   <trkpt lat="31.741368" lon="35.096257">
    <ele>472.310</ele>
    <time>2011-04-19T05:11:48Z</time>
   </trkpt>
   <trkpt lat="31.741373" lon="35.096021">
    <ele>471.704</ele>
    <time>2011-04-19T05:11:52Z</time>
   </trkpt>
   <trkpt lat="31.741466" lon="35.095762">
    <ele>471.527</ele>
    <time>2011-04-19T05:11:57Z</time>
   </trkpt>
   <trkpt lat="31.741514" lon="35.095619">
    <ele>471.254</ele>
    <time>2011-04-19T05:12:00Z</time>
   </trkpt>
   <trkpt lat="31.741681" lon="35.095314">
    <ele>471.246</ele>
    <time>2011-04-19T05:12:07Z</time>
   </trkpt>
   <trkpt lat="31.741875" lon="35.095070">
    <ele>469.990</ele>
    <time>2011-04-19T05:12:13Z</time>
   </trkpt>
   <trkpt lat="31.742106" lon="35.094950">
    <ele>469.551</ele>
    <time>2011-04-19T05:12:18Z</time>
   </trkpt>
   <trkpt lat="31.742208" lon="35.094934">
    <ele>469.640</ele>
    <time>2011-04-19T05:12:20Z</time>
   </trkpt>
   <trkpt lat="31.742512" lon="35.094972">
    <ele>469.390</ele>
    <time>2011-04-19T05:12:26Z</time>
   </trkpt>
   <trkpt lat="31.742788" lon="35.095104">
    <ele>469.309</ele>
    <time>2011-04-19T05:12:32Z</time>
   </trkpt>
   <trkpt lat="31.743145" lon="35.095190">
    <ele>470.488</ele>
    <time>2011-04-19T05:12:39Z</time>
   </trkpt>
   <trkpt lat="31.743335" lon="35.095181">
    <ele>472.083</ele>
    <time>2011-04-19T05:12:43Z</time>
   </trkpt>
   <trkpt lat="31.743787" lon="35.094904">
    <ele>475.463</ele>
    <time>2011-04-19T05:12:59Z</time>
   </trkpt>
   <trkpt lat="31.743972" lon="35.094733">
    <ele>474.188</ele>
    <time>2011-04-19T05:13:07Z</time>
   </trkpt>
   <trkpt lat="31.744062" lon="35.094542">
    <ele>470.896</ele>
    <time>2011-04-19T05:13:11Z</time>
   </trkpt>
   <trkpt lat="31.744272" lon="35.094347">
    <ele>468.948</ele>
    <time>2011-04-19T05:13:16Z</time>
   </trkpt>
   <trkpt lat="31.744366" lon="35.094320">
    <ele>468.720</ele>
    <time>2011-04-19T05:13:18Z</time>
   </trkpt>
   <trkpt lat="31.745167" lon="35.093970">
    <ele>467.002</ele>
    <time>2011-04-19T05:13:34Z</time>
   </trkpt>
   <trkpt lat="31.745217" lon="35.093954">
    <ele>466.800</ele>
    <time>2011-04-19T05:13:35Z</time>
   </trkpt>
   <trkpt lat="31.745679" lon="35.093960">
    <ele>466.973</ele>
    <time>2011-04-19T05:13:44Z</time>
   </trkpt>
   <trkpt lat="31.746054" lon="35.093786">
    <ele>465.051</ele>
    <time>2011-04-19T05:13:51Z</time>
   </trkpt>
   <trkpt lat="31.746325" lon="35.093696">
    <ele>465.187</ele>
    <time>2011-04-19T05:13:56Z</time>
   </trkpt>
   <trkpt lat="31.746592" lon="35.093921">
    <ele>463.228</ele>
    <time>2011-04-19T05:14:03Z</time>
   </trkpt>
   <trkpt lat="31.746590" lon="35.093986">
    <ele>462.855</ele>
    <time>2011-04-19T05:14:04Z</time>
   </trkpt>
   <trkpt lat="31.746772" lon="35.094403">
    <ele>462.833</ele>
    <time>2011-04-19T05:14:12Z</time>
   </trkpt>
   <trkpt lat="31.747114" lon="35.094625">
    <ele>462.915</ele>
    <time>2011-04-19T05:14:19Z</time>
   </trkpt>
   <trkpt lat="31.747506" lon="35.094615">
    <ele>463.050</ele>
    <time>2011-04-19T05:14:27Z</time>
   </trkpt>
   <trkpt lat="31.747734" lon="35.094514">
    <ele>460.498</ele>
    <time>2011-04-19T05:14:31Z</time>
   </trkpt>
   <trkpt lat="31.748014" lon="35.094285">
    <ele>457.133</ele>
    <time>2011-04-19T05:14:35Z</time>
   </trkpt>
   <trkpt lat="31.748689" lon="35.093889">
    <ele>457.421</ele>
    <time>2011-04-19T05:14:45Z</time>
   </trkpt>
   <trkpt lat="31.749007" lon="35.093715">
    <ele>457.170</ele>
    <time>2011-04-19T05:14:51Z</time>
   </trkpt>
   <trkpt lat="31.749227" lon="35.093650">
    <ele>457.995</ele>
    <time>2011-04-19T05:14:55Z</time>
   </trkpt>
   <trkpt lat="31.749329" lon="35.093640">
    <ele>457.931</ele>
    <time>2011-04-19T05:14:57Z</time>
   </trkpt>
   <trkpt lat="31.749541" lon="35.093545">
    <ele>456.421</ele>
    <time>2011-04-19T05:15:01Z</time>
   </trkpt>
   <trkpt lat="31.749757" lon="35.093457">
    <ele>454.544</ele>
    <time>2011-04-19T05:15:04Z</time>
   </trkpt>
   <trkpt lat="31.750517" lon="35.093302">
    <ele>452.432</ele>
    <time>2011-04-19T05:15:14Z</time>
   </trkpt>
   <trkpt lat="31.750773" lon="35.093163">
    <ele>453.205</ele>
    <time>2011-04-19T05:15:19Z</time>
   </trkpt>
   <trkpt lat="31.750970" lon="35.092787">
    <ele>451.973</ele>
    <time>2011-04-19T05:15:26Z</time>
   </trkpt>
   <trkpt lat="31.751007" lon="35.092392">
    <ele>452.196</ele>
    <time>2011-04-19T05:15:32Z</time>
   </trkpt>
   <trkpt lat="31.750978" lon="35.092157">
    <ele>451.889</ele>
    <time>2011-04-19T05:15:36Z</time>
   </trkpt>
   <trkpt lat="31.750703" lon="35.091704">
    <ele>450.577</ele>
    <time>2011-04-19T05:15:45Z</time>
   </trkpt>
   <trkpt lat="31.750609" lon="35.091422">
    <ele>450.367</ele>
    <time>2011-04-19T05:15:49Z</time>
   </trkpt>
   <trkpt lat="31.750504" lon="35.090689">
    <ele>448.323</ele>
    <time>2011-04-19T05:16:00Z</time>
   </trkpt>
   <trkpt lat="31.750506" lon="35.090316">
    <ele>448.130</ele>
    <time>2011-04-19T05:16:06Z</time>
   </trkpt>
   <trkpt lat="31.750529" lon="35.090194">
    <ele>448.561</ele>
    <time>2011-04-19T05:16:08Z</time>
   </trkpt>
   <trkpt lat="31.750588" lon="35.090006">
    <ele>447.832</ele>
    <time>2011-04-19T05:16:11Z</time>
   </trkpt>
   <trkpt lat="31.750810" lon="35.089532">
    <ele>446.954</ele>
    <time>2011-04-19T05:16:19Z</time>
   </trkpt>
   <trkpt lat="31.750892" lon="35.088951">
    <ele>445.561</ele>
    <time>2011-04-19T05:16:28Z</time>
   </trkpt>
   <trkpt lat="31.750850" lon="35.088539">
    <ele>445.062</ele>
    <time>2011-04-19T05:16:34Z</time>
   </trkpt>
   <trkpt lat="31.750731" lon="35.088299">
    <ele>444.165</ele>
    <time>2011-04-19T05:16:38Z</time>
   </trkpt>
   <trkpt lat="31.750529" lon="35.088046">
    <ele>442.769</ele>
    <time>2011-04-19T05:16:43Z</time>
   </trkpt>
   <trkpt lat="31.750214" lon="35.087521">
    <ele>442.698</ele>
    <time>2011-04-19T05:16:53Z</time>
   </trkpt>
   <trkpt lat="31.750135" lon="35.087233">
    <ele>441.945</ele>
    <time>2011-04-19T05:16:58Z</time>
   </trkpt>
   <trkpt lat="31.749997" lon="35.087009">
    <ele>443.350</ele>
    <time>2011-04-19T05:17:03Z</time>
   </trkpt>
   <trkpt lat="31.749797" lon="35.086640">
    <ele>445.831</ele>
    <time>2011-04-19T05:17:16Z</time>
   </trkpt>
   <trkpt lat="31.749817" lon="35.086230">
    <ele>446.542</ele>
    <time>2011-04-19T05:17:31Z</time>
   </trkpt>
   <trkpt lat="31.750099" lon="35.085908">
    <ele>444.527</ele>
    <time>2011-04-19T05:17:43Z</time>
   </trkpt>
   <trkpt lat="31.750374" lon="35.085643">
    <ele>439.102</ele>
    <time>2011-04-19T05:17:51Z</time>
   </trkpt>
   <trkpt lat="31.750807" lon="35.085553">
    <ele>435.481</ele>
    <time>2011-04-19T05:17:58Z</time>
   </trkpt>
   <trkpt lat="31.751364" lon="35.085636">
    <ele>437.842</ele>
    <time>2011-04-19T05:18:10Z</time>
   </trkpt>
   <trkpt lat="31.751769" lon="35.085670">
    <ele>436.317</ele>
    <time>2011-04-19T05:18:22Z</time>
   </trkpt>
   <trkpt lat="31.752038" lon="35.085633">
    <ele>433.947</ele>
    <time>2011-04-19T05:18:54Z</time>
   </trkpt>
   <trkpt lat="31.753011" lon="35.085626">
    <ele>433.209</ele>
    <time>2011-04-19T05:19:10Z</time>
   </trkpt>
   <trkpt lat="31.753398" lon="35.085870">
    <ele>432.185</ele>
    <time>2011-04-19T05:19:17Z</time>
   </trkpt>
   <trkpt lat="31.753539" lon="35.086128">
    <ele>431.896</ele>
    <time>2011-04-19T05:19:21Z</time>
   </trkpt>
   <trkpt lat="31.753603" lon="35.086409">
    <ele>432.962</ele>
    <time>2011-04-19T05:19:25Z</time>
   </trkpt>
   <trkpt lat="31.753773" lon="35.087025">
    <ele>432.804</ele>
    <time>2011-04-19T05:19:35Z</time>
   </trkpt>
   <trkpt lat="31.753783" lon="35.087243">
    <ele>431.885</ele>
    <time>2011-04-19T05:19:38Z</time>
   </trkpt>
   <trkpt lat="31.753887" lon="35.087754">
    <ele>431.601</ele>
    <time>2011-04-19T05:19:45Z</time>
   </trkpt>
   <trkpt lat="31.754053" lon="35.088178">
    <ele>430.504</ele>
    <time>2011-04-19T05:19:51Z</time>
   </trkpt>
   <trkpt lat="31.754270" lon="35.088430">
    <ele>429.793</ele>
    <time>2011-04-19T05:19:56Z</time>
   </trkpt>
   <trkpt lat="31.754395" lon="35.088587">
    <ele>430.381</ele>
    <time>2011-04-19T05:19:59Z</time>
   </trkpt>
   <trkpt lat="31.755112" lon="35.088986">
    <ele>428.129</ele>
    <time>2011-04-19T05:20:12Z</time>
   </trkpt>
   <trkpt lat="31.755328" lon="35.089083">
    <ele>429.936</ele>
    <time>2011-04-19T05:20:16Z</time>
   </trkpt>
   <trkpt lat="31.755593" lon="35.089010">
    <ele>429.481</ele>
    <time>2011-04-19T05:20:21Z</time>
   </trkpt>
   <trkpt lat="31.755869" lon="35.089124">
    <ele>428.761</ele>
    <time>2011-04-19T05:20:26Z</time>
   </trkpt>
   <trkpt lat="31.756070" lon="35.089333">
    <ele>427.900</ele>
    <time>2011-04-19T05:20:30Z</time>
   </trkpt>
   <trkpt lat="31.756345" lon="35.089544">
    <ele>430.065</ele>
    <time>2011-04-19T05:20:35Z</time>
   </trkpt>
   <trkpt lat="31.756683" lon="35.089666">
    <ele>429.740</ele>
    <time>2011-04-19T05:20:40Z</time>
   </trkpt>
   <trkpt lat="31.757069" lon="35.089658">
    <ele>428.685</ele>
    <time>2011-04-19T05:20:45Z</time>
   </trkpt>
   <trkpt lat="31.757402" lon="35.089475">
    <ele>428.953</ele>
    <time>2011-04-19T05:20:50Z</time>
   </trkpt>
   <trkpt lat="31.757527" lon="35.089384">
    <ele>428.617</ele>
    <time>2011-04-19T05:20:52Z</time>
   </trkpt>
   <trkpt lat="31.758034" lon="35.089288">
    <ele>429.512</ele>
    <time>2011-04-19T05:21:02Z</time>
   </trkpt>
   <trkpt lat="31.758097" lon="35.089308">
    <ele>429.982</ele>
    <time>2011-04-19T05:21:05Z</time>
   </trkpt>
   <trkpt lat="31.758117" lon="35.089341">
    <ele>429.970</ele>
    <time>2011-04-19T05:21:24Z</time>
   </trkpt>
   <trkpt lat="31.758136" lon="35.089330">
    <ele>430.935</ele>
    <time>2011-04-19T05:21:56Z</time>
   </trkpt>
   <trkpt lat="31.758134" lon="35.089329">
    <ele>430.785</ele>
    <time>2011-04-19T05:22:20Z</time>
   </trkpt>
   <trkpt lat="31.758145" lon="35.089352">
    <ele>430.653</ele>
    <time>2011-04-19T05:22:24Z</time>
   </trkpt>
   <trkpt lat="31.758218" lon="35.089613">
    <ele>430.806</ele>
    <time>2011-04-19T05:22:34Z</time>
   </trkpt>
   <trkpt lat="31.758237" lon="35.089619">
    <ele>430.548</ele>
    <time>2011-04-19T05:22:36Z</time>
   </trkpt>
   <trkpt lat="31.758251" lon="35.089573">
    <ele>429.581</ele>
    <time>2011-04-19T05:22:51Z</time>
   </trkpt>
   <trkpt lat="31.758253" lon="35.089575">
    <ele>428.843</ele>
    <time>2011-04-19T05:23:21Z</time>
   </trkpt>
   <trkpt lat="31.758259" lon="35.089565">
    <ele>428.527</ele>
    <time>2011-04-19T05:24:02Z</time>
   </trkpt>
   <trkpt lat="31.758289" lon="35.089536">
    <ele>428.422</ele>
    <time>2011-04-19T05:24:05Z</time>
   </trkpt>
   <trkpt lat="31.758341" lon="35.089278">
    <ele>425.852</ele>
    <time>2011-04-19T05:24:12Z</time>
   </trkpt>
   <trkpt lat="31.758439" lon="35.089044">
    <ele>424.897</ele>
    <time>2011-04-19T05:24:16Z</time>
   </trkpt>
   <trkpt lat="31.758577" lon="35.088814">
    <ele>424.700</ele>
    <time>2011-04-19T05:24:25Z</time>
   </trkpt>
   <trkpt lat="31.758650" lon="35.088375">
    <ele>423.275</ele>
    <time>2011-04-19T05:24:34Z</time>
   </trkpt>
   <trkpt lat="31.758633" lon="35.088260">
    <ele>423.162</ele>
    <time>2011-04-19T05:24:36Z</time>
   </trkpt>
   <trkpt lat="31.758506" lon="35.087955">
    <ele>422.712</ele>
    <time>2011-04-19T05:24:42Z</time>
   </trkpt>
   <trkpt lat="31.758108" lon="35.087123">
    <ele>421.322</ele>
    <time>2011-04-19T05:24:59Z</time>
   </trkpt>
   <trkpt lat="31.758051" lon="35.087028">
    <ele>421.095</ele>
    <time>2011-04-19T05:25:01Z</time>
   </trkpt>
   <trkpt lat="31.757966" lon="35.086842">
    <ele>420.668</ele>
    <time>2011-04-19T05:25:10Z</time>
   </trkpt>
   <trkpt lat="31.757964" lon="35.086842">
    <ele>420.624</ele>
    <time>2011-04-19T05:25:18Z</time>
   </trkpt>
   <trkpt lat="31.757708" lon="35.086471">
    <ele>420.217</ele>
    <time>2011-04-19T05:25:30Z</time>
   </trkpt>
   <trkpt lat="31.757508" lon="35.086209">
    <ele>419.587</ele>
    <time>2011-04-19T05:25:36Z</time>
   </trkpt>
   <trkpt lat="31.757304" lon="35.085900">
    <ele>419.314</ele>
    <time>2011-04-19T05:25:42Z</time>
   </trkpt>
   <trkpt lat="31.756944" lon="35.085312">
    <ele>418.725</ele>
    <time>2011-04-19T05:25:53Z</time>
   </trkpt>
   <trkpt lat="31.756658" lon="35.084904">
    <ele>418.136</ele>
    <time>2011-04-19T05:26:01Z</time>
   </trkpt>
   <trkpt lat="31.756456" lon="35.084188">
    <ele>417.230</ele>
    <time>2011-04-19T05:26:13Z</time>
   </trkpt>
   <trkpt lat="31.756421" lon="35.083700">
    <ele>417.049</ele>
    <time>2011-04-19T05:26:21Z</time>
   </trkpt>
   <trkpt lat="31.756371" lon="35.083406">
    <ele>415.805</ele>
    <time>2011-04-19T05:26:26Z</time>
   </trkpt>
   <trkpt lat="31.756315" lon="35.083261">
    <ele>415.819</ele>
    <time>2011-04-19T05:26:29Z</time>
   </trkpt>
   <trkpt lat="31.756233" lon="35.083137">
    <ele>415.606</ele>
    <time>2011-04-19T05:26:32Z</time>
   </trkpt>
   <trkpt lat="31.756117" lon="35.083015">
    <ele>415.550</ele>
    <time>2011-04-19T05:26:35Z</time>
   </trkpt>
   <trkpt lat="31.755918" lon="35.082893">
    <ele>415.065</ele>
    <time>2011-04-19T05:26:39Z</time>
   </trkpt>
   <trkpt lat="31.755489" lon="35.082648">
    <ele>414.568</ele>
    <time>2011-04-19T05:26:47Z</time>
   </trkpt>
   <trkpt lat="31.755077" lon="35.082375">
    <ele>414.641</ele>
    <time>2011-04-19T05:26:55Z</time>
   </trkpt>
   <trkpt lat="31.754908" lon="35.082294">
    <ele>414.793</ele>
    <time>2011-04-19T05:26:58Z</time>
   </trkpt>
   <trkpt lat="31.754762" lon="35.082164">
    <ele>414.896</ele>
    <time>2011-04-19T05:27:01Z</time>
   </trkpt>
   <trkpt lat="31.754489" lon="35.082021">
    <ele>415.195</ele>
    <time>2011-04-19T05:27:06Z</time>
   </trkpt>
   <trkpt lat="31.754163" lon="35.081742">
    <ele>415.535</ele>
    <time>2011-04-19T05:27:14Z</time>
   </trkpt>
   <trkpt lat="31.753989" lon="35.081588">
    <ele>416.129</ele>
    <time>2011-04-19T05:27:19Z</time>
   </trkpt>
   <trkpt lat="31.753447" lon="35.081195">
    <ele>418.445</ele>
    <time>2011-04-19T05:27:35Z</time>
   </trkpt>
   <trkpt lat="31.752939" lon="35.080788">
    <ele>421.239</ele>
    <time>2011-04-19T05:27:52Z</time>
   </trkpt>
   <trkpt lat="31.752534" lon="35.080499">
    <ele>423.804</ele>
    <time>2011-04-19T05:28:07Z</time>
   </trkpt>
   <trkpt lat="31.752100" lon="35.080241">
    <ele>425.480</ele>
    <time>2011-04-19T05:28:21Z</time>
   </trkpt>
   <trkpt lat="31.751402" lon="35.079901">
    <ele>425.411</ele>
    <time>2011-04-19T05:28:40Z</time>
   </trkpt>
   <trkpt lat="31.751327" lon="35.079859">
    <ele>425.263</ele>
    <time>2011-04-19T05:28:42Z</time>
   </trkpt>
   <trkpt lat="31.750998" lon="35.079720">
    <ele>423.945</ele>
    <time>2011-04-19T05:28:50Z</time>
   </trkpt>
   <trkpt lat="31.750603" lon="35.079500">
    <ele>421.263</ele>
    <time>2011-04-19T05:28:59Z</time>
   </trkpt>
   <trkpt lat="31.749959" lon="35.079195">
    <ele>417.535</ele>
    <time>2011-04-19T05:29:12Z</time>
   </trkpt>
   <trkpt lat="31.749773" lon="35.079055">
    <ele>416.551</ele>
    <time>2011-04-19T05:29:16Z</time>
   </trkpt>
   <trkpt lat="31.749332" lon="35.078585">
    <ele>413.210</ele>
    <time>2011-04-19T05:29:26Z</time>
   </trkpt>
   <trkpt lat="31.749063" lon="35.078163">
    <ele>412.034</ele>
    <time>2011-04-19T05:29:34Z</time>
   </trkpt>
   <trkpt lat="31.748939" lon="35.077983">
    <ele>411.382</ele>
    <time>2011-04-19T05:29:38Z</time>
   </trkpt>
   <trkpt lat="31.748734" lon="35.077594">
    <ele>410.643</ele>
    <time>2011-04-19T05:29:45Z</time>
   </trkpt>
   <trkpt lat="31.748663" lon="35.077471">
    <ele>410.255</ele>
    <time>2011-04-19T05:29:47Z</time>
   </trkpt>
   <trkpt lat="31.748552" lon="35.077316">
    <ele>410.173</ele>
    <time>2011-04-19T05:29:50Z</time>
   </trkpt>
   <trkpt lat="31.748410" lon="35.076948">
    <ele>409.339</ele>
    <time>2011-04-19T05:29:56Z</time>
   </trkpt>
   <trkpt lat="31.748351" lon="35.076697">
    <ele>408.770</ele>
    <time>2011-04-19T05:30:00Z</time>
   </trkpt>
   <trkpt lat="31.748312" lon="35.076504">
    <ele>408.887</ele>
    <time>2011-04-19T05:30:03Z</time>
   </trkpt>
   <trkpt lat="31.748273" lon="35.075930">
    <ele>408.074</ele>
    <time>2011-04-19T05:30:12Z</time>
   </trkpt>
   <trkpt lat="31.748301" lon="35.075678">
    <ele>407.650</ele>
    <time>2011-04-19T05:30:16Z</time>
   </trkpt>
   <trkpt lat="31.748344" lon="35.075192">
    <ele>408.009</ele>
    <time>2011-04-19T05:30:24Z</time>
   </trkpt>
   <trkpt lat="31.748380" lon="35.074725">
    <ele>407.801</ele>
    <time>2011-04-19T05:30:34Z</time>
   </trkpt>
   <trkpt lat="31.748427" lon="35.074139">
    <ele>407.602</ele>
    <time>2011-04-19T05:30:46Z</time>
   </trkpt>
   <trkpt lat="31.748413" lon="35.073664">
    <ele>406.708</ele>
    <time>2011-04-19T05:30:55Z</time>
   </trkpt>
   <trkpt lat="31.748471" lon="35.072612">
    <ele>404.578</ele>
    <time>2011-04-19T05:31:13Z</time>
   </trkpt>
   <trkpt lat="31.748699" lon="35.071946">
    <ele>402.925</ele>
    <time>2011-04-19T05:31:24Z</time>
   </trkpt>
   <trkpt lat="31.748946" lon="35.071423">
    <ele>402.029</ele>
    <time>2011-04-19T05:31:32Z</time>
   </trkpt>
   <trkpt lat="31.749216" lon="35.070805">
    <ele>401.790</ele>
    <time>2011-04-19T05:31:42Z</time>
   </trkpt>
   <trkpt lat="31.749495" lon="35.070175">
    <ele>401.453</ele>
    <time>2011-04-19T05:31:53Z</time>
   </trkpt>
   <trkpt lat="31.749975" lon="35.069283">
    <ele>399.954</ele>
    <time>2011-04-19T05:32:10Z</time>
   </trkpt>
   <trkpt lat="31.750186" lon="35.069054">
    <ele>399.405</ele>
    <time>2011-04-19T05:32:15Z</time>
   </trkpt>
   <trkpt lat="31.750622" lon="35.068820">
    <ele>398.899</ele>
    <time>2011-04-19T05:32:24Z</time>
   </trkpt>
   <trkpt lat="31.751302" lon="35.068648">
    <ele>397.797</ele>
    <time>2011-04-19T05:32:36Z</time>
   </trkpt>
   <trkpt lat="31.752029" lon="35.068497">
    <ele>397.542</ele>
    <time>2011-04-19T05:32:47Z</time>
   </trkpt>
   <trkpt lat="31.752319" lon="35.068272">
    <ele>396.529</ele>
    <time>2011-04-19T05:32:52Z</time>
   </trkpt>
   <trkpt lat="31.752401" lon="35.068147">
    <ele>396.789</ele>
    <time>2011-04-19T05:32:54Z</time>
   </trkpt>
   <trkpt lat="31.752490" lon="35.067957">
    <ele>397.235</ele>
    <time>2011-04-19T05:32:57Z</time>
   </trkpt>
   <trkpt lat="31.752658" lon="35.067178">
    <ele>397.214</ele>
    <time>2011-04-19T05:33:10Z</time>
   </trkpt>
   <trkpt lat="31.752699" lon="35.066942">
    <ele>397.183</ele>
    <time>2011-04-19T05:33:14Z</time>
   </trkpt>
   <trkpt lat="31.752762" lon="35.066717">
    <ele>397.084</ele>
    <time>2011-04-19T05:33:18Z</time>
   </trkpt>
   <trkpt lat="31.752796" lon="35.066464">
    <ele>395.803</ele>
    <time>2011-04-19T05:33:22Z</time>
   </trkpt>
   <trkpt lat="31.752981" lon="35.065209">
    <ele>391.109</ele>
    <time>2011-04-19T05:33:40Z</time>
   </trkpt>
   <trkpt lat="31.753043" lon="35.065080">
    <ele>390.743</ele>
    <time>2011-04-19T05:33:42Z</time>
   </trkpt>
   <trkpt lat="31.753238" lon="35.064873">
    <ele>389.460</ele>
    <time>2011-04-19T05:33:46Z</time>
   </trkpt>
   <trkpt lat="31.753353" lon="35.064792">
    <ele>389.261</ele>
    <time>2011-04-19T05:33:48Z</time>
   </trkpt>
   <trkpt lat="31.753790" lon="35.064709">
    <ele>388.460</ele>
    <time>2011-04-19T05:33:55Z</time>
   </trkpt>
   <trkpt lat="31.754093" lon="35.064820">
    <ele>388.258</ele>
    <time>2011-04-19T05:34:00Z</time>
   </trkpt>
   <trkpt lat="31.754322" lon="35.065048">
    <ele>387.529</ele>
    <time>2011-04-19T05:34:05Z</time>
   </trkpt>
   <trkpt lat="31.754449" lon="35.065204">
    <ele>386.585</ele>
    <time>2011-04-19T05:34:08Z</time>
   </trkpt>
   <trkpt lat="31.754584" lon="35.065326">
    <ele>386.532</ele>
    <time>2011-04-19T05:34:11Z</time>
   </trkpt>
   <trkpt lat="31.754857" lon="35.065640">
    <ele>386.682</ele>
    <time>2011-04-19T05:34:18Z</time>
   </trkpt>
   <trkpt lat="31.755440" lon="35.066373">
    <ele>384.990</ele>
    <time>2011-04-19T05:34:33Z</time>
   </trkpt>
   <trkpt lat="31.756006" lon="35.067054">
    <ele>383.052</ele>
    <time>2011-04-19T05:34:48Z</time>
   </trkpt>
   <trkpt lat="31.756086" lon="35.067139">
    <ele>382.881</ele>
    <time>2011-04-19T05:34:50Z</time>
   </trkpt>
   <trkpt lat="31.756179" lon="35.067207">
    <ele>382.750</ele>
    <time>2011-04-19T05:34:52Z</time>
   </trkpt>
   <trkpt lat="31.757021" lon="35.067728">
    <ele>381.009</ele>
    <time>2011-04-19T05:35:08Z</time>
   </trkpt>
   <trkpt lat="31.757077" lon="35.067768">
    <ele>380.829</ele>
    <time>2011-04-19T05:35:09Z</time>
   </trkpt>
   <trkpt lat="31.757319" lon="35.068019">
    <ele>380.384</ele>
    <time>2011-04-19T05:35:14Z</time>
   </trkpt>
   <trkpt lat="31.757550" lon="35.068434">
    <ele>379.056</ele>
    <time>2011-04-19T05:35:21Z</time>
   </trkpt>
   <trkpt lat="31.757839" lon="35.069466">
    <ele>379.345</ele>
    <time>2011-04-19T05:35:37Z</time>
   </trkpt>
   <trkpt lat="31.757852" lon="35.069524">
    <ele>379.425</ele>
    <time>2011-04-19T05:35:38Z</time>
   </trkpt>
   <trkpt lat="31.757904" lon="35.069700">
    <ele>379.480</ele>
    <time>2011-04-19T05:35:41Z</time>
   </trkpt>
   <trkpt lat="31.757948" lon="35.070008">
    <ele>379.299</ele>
    <time>2011-04-19T05:35:46Z</time>
   </trkpt>
   <trkpt lat="31.758010" lon="35.070240">
    <ele>379.435</ele>
    <time>2011-04-19T05:35:50Z</time>
   </trkpt>
   <trkpt lat="31.758057" lon="35.070342">
    <ele>378.969</ele>
    <time>2011-04-19T05:35:52Z</time>
   </trkpt>
   <trkpt lat="31.758334" lon="35.070713">
    <ele>378.602</ele>
    <time>2011-04-19T05:36:01Z</time>
   </trkpt>
   <trkpt lat="31.758956" lon="35.071033">
    <ele>377.989</ele>
    <time>2011-04-19T05:36:14Z</time>
   </trkpt>
   <trkpt lat="31.759266" lon="35.071198">
    <ele>377.622</ele>
    <time>2011-04-19T05:36:19Z</time>
   </trkpt>
   <trkpt lat="31.759586" lon="35.071321">
    <ele>377.554</ele>
    <time>2011-04-19T05:36:24Z</time>
   </trkpt>
   <trkpt lat="31.759688" lon="35.071336">
    <ele>377.330</ele>
    <time>2011-04-19T05:36:26Z</time>
   </trkpt>
   <trkpt lat="31.759963" lon="35.071331">
    <ele>377.184</ele>
    <time>2011-04-19T05:36:31Z</time>
   </trkpt>
   <trkpt lat="31.760247" lon="35.071271">
    <ele>376.742</ele>
    <time>2011-04-19T05:36:36Z</time>
   </trkpt>
   <trkpt lat="31.760806" lon="35.071015">
    <ele>375.066</ele>
    <time>2011-04-19T05:36:45Z</time>
   </trkpt>
   <trkpt lat="31.761693" lon="35.070640">
    <ele>375.208</ele>
    <time>2011-04-19T05:36:59Z</time>
   </trkpt>
   <trkpt lat="31.761796" lon="35.070574">
    <ele>375.565</ele>
    <time>2011-04-19T05:37:01Z</time>
   </trkpt>
   <trkpt lat="31.762487" lon="35.069796">
    <ele>375.434</ele>
    <time>2011-04-19T05:37:19Z</time>
   </trkpt>
   <trkpt lat="31.762559" lon="35.069698">
    <ele>375.183</ele>
    <time>2011-04-19T05:37:21Z</time>
   </trkpt>
   <trkpt lat="31.762720" lon="35.069519">
    <ele>374.314</ele>
    <time>2011-04-19T05:37:25Z</time>
   </trkpt>
   <trkpt lat="31.762934" lon="35.069326">
    <ele>374.558</ele>
    <time>2011-04-19T05:37:30Z</time>
   </trkpt>
   <trkpt lat="31.763442" lon="35.069053">
    <ele>372.807</ele>
    <time>2011-04-19T05:37:40Z</time>
   </trkpt>
   <trkpt lat="31.763644" lon="35.068925">
    <ele>372.835</ele>
    <time>2011-04-19T05:37:44Z</time>
   </trkpt>
   <trkpt lat="31.764635" lon="35.068507">
    <ele>371.367</ele>
    <time>2011-04-19T05:38:02Z</time>
   </trkpt>
   <trkpt lat="31.764987" lon="35.068352">
    <ele>371.155</ele>
    <time>2011-04-19T05:38:09Z</time>
   </trkpt>
   <trkpt lat="31.765235" lon="35.068137">
    <ele>371.580</ele>
    <time>2011-04-19T05:38:14Z</time>
   </trkpt>
   <trkpt lat="31.765438" lon="35.067884">
    <ele>370.398</ele>
    <time>2011-04-19T05:38:19Z</time>
   </trkpt>
   <trkpt lat="31.765937" lon="35.067342">
    <ele>369.363</ele>
    <time>2011-04-19T05:38:31Z</time>
   </trkpt>
   <trkpt lat="31.766166" lon="35.066277">
    <ele>367.249</ele>
    <time>2011-04-19T05:38:47Z</time>
   </trkpt>
   <trkpt lat="31.766170" lon="35.066143">
    <ele>367.010</ele>
    <time>2011-04-19T05:38:49Z</time>
   </trkpt>
   <trkpt lat="31.766136" lon="35.065745">
    <ele>366.359</ele>
    <time>2011-04-19T05:38:55Z</time>
   </trkpt>
   <trkpt lat="31.766016" lon="35.065324">
    <ele>366.346</ele>
    <time>2011-04-19T05:39:01Z</time>
   </trkpt>
   <trkpt lat="31.765699" lon="35.064801">
    <ele>366.364</ele>
    <time>2011-04-19T05:39:11Z</time>
   </trkpt>
   <trkpt lat="31.765622" lon="35.064712">
    <ele>366.768</ele>
    <time>2011-04-19T05:39:13Z</time>
   </trkpt>
   <trkpt lat="31.765440" lon="35.064565">
    <ele>366.758</ele>
    <time>2011-04-19T05:39:17Z</time>
   </trkpt>
   <trkpt lat="31.765319" lon="35.064437">
    <ele>366.727</ele>
    <time>2011-04-19T05:39:20Z</time>
   </trkpt>
   <trkpt lat="31.764639" lon="35.063857">
    <ele>366.316</ele>
    <time>2011-04-19T05:39:35Z</time>
   </trkpt>
   <trkpt lat="31.764289" lon="35.063048">
    <ele>364.882</ele>
    <time>2011-04-19T05:39:49Z</time>
   </trkpt>
   <trkpt lat="31.764120" lon="35.062475">
    <ele>365.055</ele>
    <time>2011-04-19T05:39:58Z</time>
   </trkpt>
   <trkpt lat="31.763776" lon="35.061525">
    <ele>364.489</ele>
    <time>2011-04-19T05:40:14Z</time>
   </trkpt>
   <trkpt lat="31.763624" lon="35.061349">
    <ele>364.557</ele>
    <time>2011-04-19T05:40:18Z</time>
   </trkpt>
   <trkpt lat="31.763428" lon="35.061115">
    <ele>364.940</ele>
    <time>2011-04-19T05:40:23Z</time>
   </trkpt>
   <trkpt lat="31.763249" lon="35.060940">
    <ele>364.678</ele>
    <time>2011-04-19T05:40:27Z</time>
   </trkpt>
   <trkpt lat="31.762485" lon="35.060397">
    <ele>363.894</ele>
    <time>2011-04-19T05:40:42Z</time>
   </trkpt>
   <trkpt lat="31.762265" lon="35.060225">
    <ele>363.421</ele>
    <time>2011-04-19T05:40:46Z</time>
   </trkpt>
   <trkpt lat="31.761596" lon="35.059728">
    <ele>361.809</ele>
    <time>2011-04-19T05:40:59Z</time>
   </trkpt>
   <trkpt lat="31.761547" lon="35.059688">
    <ele>361.802</ele>
    <time>2011-04-19T05:41:00Z</time>
   </trkpt>
   <trkpt lat="31.760855" lon="35.058899">
    <ele>359.722</ele>
    <time>2011-04-19T05:41:16Z</time>
   </trkpt>
   <trkpt lat="31.760656" lon="35.058659">
    <ele>359.585</ele>
    <time>2011-04-19T05:41:27Z</time>
   </trkpt>
   <trkpt lat="31.760640" lon="35.058644">
    <ele>359.300</ele>
    <time>2011-04-19T05:41:46Z</time>
   </trkpt>
   <trkpt lat="31.760618" lon="35.058626">
    <ele>359.609</ele>
    <time>2011-04-19T05:42:29Z</time>
   </trkpt>
   <trkpt lat="31.760346" lon="35.058266">
    <ele>359.792</ele>
    <time>2011-04-19T05:42:40Z</time>
   </trkpt>
   <trkpt lat="31.760117" lon="35.057953">
    <ele>360.609</ele>
    <time>2011-04-19T05:42:46Z</time>
   </trkpt>
   <trkpt lat="31.759973" lon="35.057797">
    <ele>360.767</ele>
    <time>2011-04-19T05:42:49Z</time>
   </trkpt>
   <trkpt lat="31.759729" lon="35.057470">
    <ele>360.652</ele>
    <time>2011-04-19T05:42:59Z</time>
   </trkpt>
   <trkpt lat="31.759660" lon="35.057373">
    <ele>359.998</ele>
    <time>2011-04-19T05:43:18Z</time>
   </trkpt>
   <trkpt lat="31.759508" lon="35.057104">
    <ele>360.752</ele>
    <time>2011-04-19T05:43:28Z</time>
   </trkpt>
   <trkpt lat="31.759168" lon="35.056431">
    <ele>361.703</ele>
    <time>2011-04-19T05:43:46Z</time>
   </trkpt>
   <trkpt lat="31.758803" lon="35.055728">
    <ele>362.189</ele>
    <time>2011-04-19T05:44:04Z</time>
   </trkpt>
   <trkpt lat="31.758325" lon="35.055005">
    <ele>364.763</ele>
    <time>2011-04-19T05:44:24Z</time>
   </trkpt>
   <trkpt lat="31.757756" lon="35.054403">
    <ele>367.557</ele>
    <time>2011-04-19T05:44:45Z</time>
   </trkpt>
   <trkpt lat="31.757268" lon="35.054075">
    <ele>368.968</ele>
    <time>2011-04-19T05:45:03Z</time>
   </trkpt>
   <trkpt lat="31.756816" lon="35.053827">
    <ele>368.419</ele>
    <time>2011-04-19T05:45:17Z</time>
   </trkpt>
   <trkpt lat="31.756120" lon="35.053561">
    <ele>365.713</ele>
    <time>2011-04-19T05:45:36Z</time>
   </trkpt>
   <trkpt lat="31.756019" lon="35.053510">
    <ele>365.009</ele>
    <time>2011-04-19T05:45:38Z</time>
   </trkpt>
   <trkpt lat="31.755498" lon="35.053339">
    <ele>361.255</ele>
    <time>2011-04-19T05:45:47Z</time>
   </trkpt>
   <trkpt lat="31.754733" lon="35.052906">
    <ele>357.221</ele>
    <time>2011-04-19T05:45:59Z</time>
   </trkpt>
   <trkpt lat="31.754271" lon="35.052615">
    <ele>354.716</ele>
    <time>2011-04-19T05:46:06Z</time>
   </trkpt>
   <trkpt lat="31.754085" lon="35.052489">
    <ele>354.107</ele>
    <time>2011-04-19T05:46:09Z</time>
   </trkpt>
   <trkpt lat="31.753640" lon="35.051842">
    <ele>351.730</ele>
    <time>2011-04-19T05:46:19Z</time>
   </trkpt>
   <trkpt lat="31.753574" lon="35.051732">
    <ele>352.269</ele>
    <time>2011-04-19T05:46:21Z</time>
   </trkpt>
   <trkpt lat="31.753133" lon="35.050803">
    <ele>352.373</ele>
    <time>2011-04-19T05:46:37Z</time>
   </trkpt>
   <trkpt lat="31.753038" lon="35.050525">
    <ele>352.139</ele>
    <time>2011-04-19T05:46:42Z</time>
   </trkpt>
   <trkpt lat="31.753031" lon="35.050250">
    <ele>351.813</ele>
    <time>2011-04-19T05:46:47Z</time>
   </trkpt>
   <trkpt lat="31.753074" lon="35.049998">
    <ele>352.273</ele>
    <time>2011-04-19T05:46:51Z</time>
   </trkpt>
   <trkpt lat="31.753428" lon="35.049397">
    <ele>354.646</ele>
    <time>2011-04-19T05:47:05Z</time>
   </trkpt>
   <trkpt lat="31.753588" lon="35.049251">
    <ele>354.018</ele>
    <time>2011-04-19T05:47:11Z</time>
   </trkpt>
   <trkpt lat="31.754295" lon="35.048764">
    <ele>354.971</ele>
    <time>2011-04-19T05:47:32Z</time>
   </trkpt>
   <trkpt lat="31.754731" lon="35.048366">
    <ele>357.554</ele>
    <time>2011-04-19T05:47:48Z</time>
   </trkpt>
   <trkpt lat="31.755064" lon="35.048071">
    <ele>359.624</ele>
    <time>2011-04-19T05:48:02Z</time>
   </trkpt>
   <trkpt lat="31.755529" lon="35.047843">
    <ele>359.828</ele>
    <time>2011-04-19T05:48:17Z</time>
   </trkpt>
   <trkpt lat="31.756084" lon="35.047706">
    <ele>360.039</ele>
    <time>2011-04-19T05:48:33Z</time>
   </trkpt>
   <trkpt lat="31.756425" lon="35.047680">
    <ele>359.011</ele>
    <time>2011-04-19T05:48:42Z</time>
   </trkpt>
   <trkpt lat="31.756650" lon="35.047638">
    <ele>358.381</ele>
    <time>2011-04-19T05:48:47Z</time>
   </trkpt>
   <trkpt lat="31.756877" lon="35.047640">
    <ele>357.559</ele>
    <time>2011-04-19T05:48:52Z</time>
   </trkpt>
   <trkpt lat="31.757156" lon="35.047708">
    <ele>356.298</ele>
    <time>2011-04-19T05:48:58Z</time>
   </trkpt>
   <trkpt lat="31.757494" lon="35.047852">
    <ele>354.936</ele>
    <time>2011-04-19T05:49:05Z</time>
   </trkpt>
   <trkpt lat="31.758181" lon="35.048188">
    <ele>356.140</ele>
    <time>2011-04-19T05:49:20Z</time>
   </trkpt>
   <trkpt lat="31.758513" lon="35.048399">
    <ele>355.664</ele>
    <time>2011-04-19T05:49:28Z</time>
   </trkpt>
   <trkpt lat="31.758624" lon="35.048495">
    <ele>355.265</ele>
    <time>2011-04-19T05:49:31Z</time>
   </trkpt>
   <trkpt lat="31.758723" lon="35.048597">
    <ele>354.891</ele>
    <time>2011-04-19T05:49:34Z</time>
   </trkpt>
   <trkpt lat="31.758798" lon="35.048663">
    <ele>354.567</ele>
    <time>2011-04-19T05:49:36Z</time>
   </trkpt>
   <trkpt lat="31.758930" lon="35.048740">
    <ele>352.824</ele>
    <time>2011-04-19T05:49:39Z</time>
   </trkpt>
   <trkpt lat="31.759123" lon="35.048925">
    <ele>351.066</ele>
    <time>2011-04-19T05:49:44Z</time>
   </trkpt>
   <trkpt lat="31.759781" lon="35.049550">
    <ele>347.284</ele>
    <time>2011-04-19T05:49:59Z</time>
   </trkpt>
   <trkpt lat="31.759864" lon="35.049614">
    <ele>346.831</ele>
    <time>2011-04-19T05:50:01Z</time>
   </trkpt>
   <trkpt lat="31.760042" lon="35.049721">
    <ele>346.267</ele>
    <time>2011-04-19T05:50:05Z</time>
   </trkpt>
   <trkpt lat="31.760664" lon="35.050209">
    <ele>341.410</ele>
    <time>2011-04-19T05:50:19Z</time>
   </trkpt>
   <trkpt lat="31.761176" lon="35.050555">
    <ele>336.507</ele>
    <time>2011-04-19T05:50:28Z</time>
   </trkpt>
   <trkpt lat="31.761647" lon="35.050753">
    <ele>330.692</ele>
    <time>2011-04-19T05:50:34Z</time>
   </trkpt>
   <trkpt lat="31.762235" lon="35.050702">
    <ele>328.744</ele>
    <time>2011-04-19T05:50:41Z</time>
   </trkpt>
   <trkpt lat="31.762459" lon="35.050638">
    <ele>326.963</ele>
    <time>2011-04-19T05:50:44Z</time>
   </trkpt>
   <trkpt lat="31.762601" lon="35.050621">
    <ele>325.762</ele>
    <time>2011-04-19T05:50:46Z</time>
   </trkpt>
   <trkpt lat="31.762908" lon="35.050530">
    <ele>320.942</ele>
    <time>2011-04-19T05:50:51Z</time>
   </trkpt>
   <trkpt lat="31.763038" lon="35.050519">
    <ele>321.126</ele>
    <time>2011-04-19T05:50:53Z</time>
   </trkpt>
   <trkpt lat="31.763522" lon="35.050162">
    <ele>318.640</ele>
    <time>2011-04-19T05:51:02Z</time>
   </trkpt>
   <trkpt lat="31.763578" lon="35.049984">
    <ele>318.917</ele>
    <time>2011-04-19T05:51:07Z</time>
   </trkpt>
   <trkpt lat="31.763613" lon="35.049886">
    <ele>318.560</ele>
    <time>2011-04-19T05:51:09Z</time>
   </trkpt>
   <trkpt lat="31.763644" lon="35.049569">
    <ele>318.063</ele>
    <time>2011-04-19T05:51:14Z</time>
   </trkpt>
   <trkpt lat="31.763604" lon="35.049297">
    <ele>317.659</ele>
    <time>2011-04-19T05:51:18Z</time>
   </trkpt>
   <trkpt lat="31.763520" lon="35.049043">
    <ele>317.333</ele>
    <time>2011-04-19T05:51:22Z</time>
   </trkpt>
   <trkpt lat="31.763352" lon="35.048654">
    <ele>317.447</ele>
    <time>2011-04-19T05:51:29Z</time>
   </trkpt>
   <trkpt lat="31.763248" lon="35.048513">
    <ele>318.360</ele>
    <time>2011-04-19T05:51:32Z</time>
   </trkpt>
   <trkpt lat="31.762915" lon="35.047998">
    <ele>318.369</ele>
    <time>2011-04-19T05:51:41Z</time>
   </trkpt>
   <trkpt lat="31.762715" lon="35.047658">
    <ele>318.719</ele>
    <time>2011-04-19T05:51:47Z</time>
   </trkpt>
   <trkpt lat="31.762602" lon="35.047364">
    <ele>317.985</ele>
    <time>2011-04-19T05:51:52Z</time>
   </trkpt>
   <trkpt lat="31.762546" lon="35.047186">
    <ele>316.536</ele>
    <time>2011-04-19T05:51:55Z</time>
   </trkpt>
   <trkpt lat="31.762525" lon="35.046957">
    <ele>315.963</ele>
    <time>2011-04-19T05:51:59Z</time>
   </trkpt>
   <trkpt lat="31.762516" lon="35.046798">
    <ele>315.445</ele>
    <time>2011-04-19T05:52:02Z</time>
   </trkpt>
   <trkpt lat="31.762595" lon="35.046386">
    <ele>315.452</ele>
    <time>2011-04-19T05:52:11Z</time>
   </trkpt>
   <trkpt lat="31.762579" lon="35.046181">
    <ele>315.001</ele>
    <time>2011-04-19T05:52:15Z</time>
   </trkpt>
   <trkpt lat="31.762676" lon="35.045863">
    <ele>315.301</ele>
    <time>2011-04-19T05:52:21Z</time>
   </trkpt>
   <trkpt lat="31.762935" lon="35.045394">
    <ele>317.092</ele>
    <time>2011-04-19T05:52:35Z</time>
   </trkpt>
   <trkpt lat="31.763230" lon="35.044880">
    <ele>317.871</ele>
    <time>2011-04-19T05:52:50Z</time>
   </trkpt>
   <trkpt lat="31.763333" lon="35.044404">
    <ele>319.402</ele>
    <time>2011-04-19T05:53:04Z</time>
   </trkpt>
   <trkpt lat="31.763474" lon="35.043897">
    <ele>319.982</ele>
    <time>2011-04-19T05:53:18Z</time>
   </trkpt>
   <trkpt lat="31.763523" lon="35.043764">
    <ele>320.159</ele>
    <time>2011-04-19T05:53:22Z</time>
   </trkpt>
   <trkpt lat="31.763684" lon="35.043297">
    <ele>319.514</ele>
    <time>2011-04-19T05:53:36Z</time>
   </trkpt>
   <trkpt lat="31.763882" lon="35.042792">
    <ele>319.350</ele>
    <time>2011-04-19T05:53:52Z</time>
   </trkpt>
   <trkpt lat="31.764091" lon="35.042187">
    <ele>317.731</ele>
    <time>2011-04-19T05:54:07Z</time>
   </trkpt>
   <trkpt lat="31.764335" lon="35.041595">
    <ele>315.967</ele>
    <time>2011-04-19T05:54:23Z</time>
   </trkpt>
   <trkpt lat="31.764522" lon="35.041257">
    <ele>315.217</ele>
    <time>2011-04-19T05:54:34Z</time>
   </trkpt>
   <trkpt lat="31.764679" lon="35.040871">
    <ele>313.385</ele>
    <time>2011-04-19T05:54:44Z</time>
   </trkpt>
   <trkpt lat="31.764689" lon="35.040650">
    <ele>311.591</ele>
    <time>2011-04-19T05:54:48Z</time>
   </trkpt>
   <trkpt lat="31.764724" lon="35.040311">
    <ele>309.745</ele>
    <time>2011-04-19T05:54:53Z</time>
   </trkpt>
   <trkpt lat="31.764819" lon="35.039892">
    <ele>307.833</ele>
    <time>2011-04-19T05:54:59Z</time>
   </trkpt>
   <trkpt lat="31.764840" lon="35.039494">
    <ele>305.598</ele>
    <time>2011-04-19T05:55:05Z</time>
   </trkpt>
   <trkpt lat="31.764731" lon="35.039221">
    <ele>302.949</ele>
    <time>2011-04-19T05:55:13Z</time>
   </trkpt>
   <trkpt lat="31.764635" lon="35.039105">
    <ele>301.849</ele>
    <time>2011-04-19T05:55:16Z</time>
   </trkpt>
   <trkpt lat="31.764579" lon="35.038907">
    <ele>301.616</ele>
    <time>2011-04-19T05:55:20Z</time>
   </trkpt>
   <trkpt lat="31.764386" lon="35.038441">
    <ele>300.743</ele>
    <time>2011-04-19T05:55:34Z</time>
   </trkpt>
   <trkpt lat="31.764275" lon="35.038148">
    <ele>301.257</ele>
    <time>2011-04-19T05:55:58Z</time>
   </trkpt>
   <trkpt lat="31.764116" lon="35.037752">
    <ele>298.926</ele>
    <time>2011-04-19T05:56:08Z</time>
   </trkpt>
   <trkpt lat="31.764103" lon="35.037686">
    <ele>298.726</ele>
    <time>2011-04-19T05:56:18Z</time>
   </trkpt>
   <trkpt lat="31.764004" lon="35.037464">
    <ele>297.243</ele>
    <time>2011-04-19T05:56:37Z</time>
   </trkpt>
   <trkpt lat="31.763829" lon="35.037232">
    <ele>294.643</ele>
    <time>2011-04-19T05:56:44Z</time>
   </trkpt>
   <trkpt lat="31.763588" lon="35.036677">
    <ele>295.562</ele>
    <time>2011-04-19T05:56:57Z</time>
   </trkpt>
   <trkpt lat="31.763517" lon="35.036334">
    <ele>294.633</ele>
    <time>2011-04-19T05:57:03Z</time>
   </trkpt>
   <trkpt lat="31.763427" lon="35.036014">
    <ele>293.955</ele>
    <time>2011-04-19T05:57:09Z</time>
   </trkpt>
   <trkpt lat="31.763408" lon="35.035771">
    <ele>293.361</ele>
    <time>2011-04-19T05:57:13Z</time>
   </trkpt>
   <trkpt lat="31.763313" lon="35.035488">
    <ele>294.131</ele>
    <time>2011-04-19T05:57:20Z</time>
   </trkpt>
   <trkpt lat="31.763160" lon="35.035264">
    <ele>296.059</ele>
    <time>2011-04-19T05:57:32Z</time>
   </trkpt>
   <trkpt lat="31.763150" lon="35.035258">
    <ele>294.974</ele>
    <time>2011-04-19T05:58:02Z</time>
   </trkpt>
   <trkpt lat="31.763143" lon="35.035268">
    <ele>294.323</ele>
    <time>2011-04-19T05:58:45Z</time>
   </trkpt>
   <trkpt lat="31.763131" lon="35.035262">
    <ele>293.532</ele>
    <time>2011-04-19T06:00:47Z</time>
   </trkpt>
   <trkpt lat="31.762917" lon="35.035114">
    <ele>292.265</ele>
    <time>2011-04-19T06:00:56Z</time>
   </trkpt>
   <trkpt lat="31.762774" lon="35.035041">
    <ele>291.455</ele>
    <time>2011-04-19T06:00:59Z</time>
   </trkpt>
   <trkpt lat="31.762583" lon="35.034918">
    <ele>290.951</ele>
    <time>2011-04-19T06:01:03Z</time>
   </trkpt>
   <trkpt lat="31.762407" lon="35.034748">
    <ele>290.036</ele>
    <time>2011-04-19T06:01:07Z</time>
   </trkpt>
   <trkpt lat="31.761790" lon="35.034129">
    <ele>285.856</ele>
    <time>2011-04-19T06:01:20Z</time>
   </trkpt>
   <trkpt lat="31.761535" lon="35.034024">
    <ele>285.569</ele>
    <time>2011-04-19T06:01:24Z</time>
   </trkpt>
   <trkpt lat="31.761377" lon="35.034054">
    <ele>286.998</ele>
    <time>2011-04-19T06:01:27Z</time>
   </trkpt>
   <trkpt lat="31.761225" lon="35.033985">
    <ele>286.780</ele>
    <time>2011-04-19T06:01:31Z</time>
   </trkpt>
   <trkpt lat="31.760990" lon="35.033830">
    <ele>283.155</ele>
    <time>2011-04-19T06:01:35Z</time>
   </trkpt>
   <trkpt lat="31.760825" lon="35.033745">
    <ele>282.892</ele>
    <time>2011-04-19T06:01:38Z</time>
   </trkpt>
   <trkpt lat="31.760695" lon="35.033614">
    <ele>282.366</ele>
    <time>2011-04-19T06:01:41Z</time>
   </trkpt>
   <trkpt lat="31.760558" lon="35.033366">
    <ele>280.956</ele>
    <time>2011-04-19T06:01:46Z</time>
   </trkpt>
   <trkpt lat="31.760458" lon="35.033106">
    <ele>279.903</ele>
    <time>2011-04-19T06:01:51Z</time>
   </trkpt>
   <trkpt lat="31.760461" lon="35.032632">
    <ele>276.986</ele>
    <time>2011-04-19T06:02:02Z</time>
   </trkpt>
   <trkpt lat="31.760414" lon="35.032446">
    <ele>275.531</ele>
    <time>2011-04-19T06:02:06Z</time>
   </trkpt>
   <trkpt lat="31.760389" lon="35.031883">
    <ele>271.814</ele>
    <time>2011-04-19T06:02:16Z</time>
   </trkpt>
   <trkpt lat="31.760425" lon="35.031481">
    <ele>269.192</ele>
    <time>2011-04-19T06:02:22Z</time>
   </trkpt>
   <trkpt lat="31.760367" lon="35.031209">
    <ele>267.429</ele>
    <time>2011-04-19T06:02:27Z</time>
   </trkpt>
   <trkpt lat="31.760352" lon="35.030668">
    <ele>263.585</ele>
    <time>2011-04-19T06:02:37Z</time>
   </trkpt>
   <trkpt lat="31.760451" lon="35.030504">
    <ele>263.428</ele>
    <time>2011-04-19T06:02:41Z</time>
   </trkpt>
   <trkpt lat="31.760607" lon="35.030424">
    <ele>263.191</ele>
    <time>2011-04-19T06:02:45Z</time>
   </trkpt>
   <trkpt lat="31.760794" lon="35.030257">
    <ele>264.800</ele>
    <time>2011-04-19T06:02:51Z</time>
   </trkpt>
   <trkpt lat="31.760879" lon="35.030146">
    <ele>266.204</ele>
    <time>2011-04-19T06:02:56Z</time>
   </trkpt>
   <trkpt lat="31.761088" lon="35.029971">
    <ele>266.008</ele>
    <time>2011-04-19T06:03:05Z</time>
   </trkpt>
   <trkpt lat="31.761315" lon="35.029749">
    <ele>265.258</ele>
    <time>2011-04-19T06:03:12Z</time>
   </trkpt>
   <trkpt lat="31.761617" lon="35.029451">
    <ele>263.822</ele>
    <time>2011-04-19T06:03:20Z</time>
   </trkpt>
   <trkpt lat="31.761711" lon="35.029320">
    <ele>263.318</ele>
    <time>2011-04-19T06:03:23Z</time>
   </trkpt>
   <trkpt lat="31.761987" lon="35.029059">
    <ele>262.262</ele>
    <time>2011-04-19T06:03:30Z</time>
   </trkpt>
   <trkpt lat="31.762106" lon="35.028740">
    <ele>260.886</ele>
    <time>2011-04-19T06:03:36Z</time>
   </trkpt>
   <trkpt lat="31.762258" lon="35.028282">
    <ele>258.407</ele>
    <time>2011-04-19T06:03:46Z</time>
   </trkpt>
   <trkpt lat="31.762164" lon="35.028051">
    <ele>257.900</ele>
    <time>2011-04-19T06:04:01Z</time>
   </trkpt>
   <trkpt lat="31.762129" lon="35.027983">
    <ele>257.898</ele>
    <time>2011-04-19T06:04:13Z</time>
   </trkpt>
   <trkpt lat="31.762126" lon="35.027984">
    <ele>257.835</ele>
    <time>2011-04-19T06:04:44Z</time>
   </trkpt>
   <trkpt lat="31.762137" lon="35.027934">
    <ele>258.175</ele>
    <time>2011-04-19T06:04:47Z</time>
   </trkpt>
   <trkpt lat="31.762098" lon="35.027539">
    <ele>259.471</ele>
    <time>2011-04-19T06:05:01Z</time>
   </trkpt>
   <trkpt lat="31.762037" lon="35.027173">
    <ele>261.249</ele>
    <time>2011-04-19T06:05:14Z</time>
   </trkpt>
   <trkpt lat="31.761900" lon="35.026483">
    <ele>261.102</ele>
    <time>2011-04-19T06:05:34Z</time>
   </trkpt>
   <trkpt lat="31.761831" lon="35.026191">
    <ele>260.653</ele>
    <time>2011-04-19T06:05:41Z</time>
   </trkpt>
   <trkpt lat="31.761565" lon="35.025577">
    <ele>258.692</ele>
    <time>2011-04-19T06:05:54Z</time>
   </trkpt>
   <trkpt lat="31.761409" lon="35.025213">
    <ele>255.763</ele>
    <time>2011-04-19T06:06:01Z</time>
   </trkpt>
   <trkpt lat="31.761330" lon="35.024952">
    <ele>254.058</ele>
    <time>2011-04-19T06:06:05Z</time>
   </trkpt>
   <trkpt lat="31.761215" lon="35.024595">
    <ele>252.219</ele>
    <time>2011-04-19T06:06:11Z</time>
   </trkpt>
   <trkpt lat="31.761196" lon="35.024347">
    <ele>250.280</ele>
    <time>2011-04-19T06:06:16Z</time>
   </trkpt>
   <trkpt lat="31.761183" lon="35.024162">
    <ele>248.832</ele>
    <time>2011-04-19T06:06:20Z</time>
   </trkpt>
   <trkpt lat="31.761141" lon="35.024019">
    <ele>247.407</ele>
    <time>2011-04-19T06:06:23Z</time>
   </trkpt>
   <trkpt lat="31.761013" lon="35.023640">
    <ele>245.597</ele>
    <time>2011-04-19T06:06:29Z</time>
   </trkpt>
   <trkpt lat="31.760969" lon="35.023321">
    <ele>244.719</ele>
    <time>2011-04-19T06:06:33Z</time>
   </trkpt>
   <trkpt lat="31.760912" lon="35.023101">
    <ele>243.843</ele>
    <time>2011-04-19T06:06:36Z</time>
   </trkpt>
   <trkpt lat="31.760890" lon="35.022887">
    <ele>242.720</ele>
    <time>2011-04-19T06:06:39Z</time>
   </trkpt>
   <trkpt lat="31.760719" lon="35.022158">
    <ele>240.796</ele>
    <time>2011-04-19T06:06:50Z</time>
   </trkpt>
   <trkpt lat="31.760645" lon="35.021969">
    <ele>240.477</ele>
    <time>2011-04-19T06:06:53Z</time>
   </trkpt>
   <trkpt lat="31.760633" lon="35.021722">
    <ele>240.952</ele>
    <time>2011-04-19T06:06:57Z</time>
   </trkpt>
   <trkpt lat="31.760601" lon="35.021495">
    <ele>241.184</ele>
    <time>2011-04-19T06:07:01Z</time>
   </trkpt>
   <trkpt lat="31.760603" lon="35.021335">
    <ele>241.247</ele>
    <time>2011-04-19T06:07:04Z</time>
   </trkpt>
   <trkpt lat="31.760623" lon="35.021046">
    <ele>241.120</ele>
    <time>2011-04-19T06:07:09Z</time>
   </trkpt>
   <trkpt lat="31.760654" lon="35.020891">
    <ele>241.411</ele>
    <time>2011-04-19T06:07:12Z</time>
   </trkpt>
   <trkpt lat="31.760737" lon="35.020511">
    <ele>241.694</ele>
    <time>2011-04-19T06:07:20Z</time>
   </trkpt>
   <trkpt lat="31.760829" lon="35.020283">
    <ele>241.568</ele>
    <time>2011-04-19T06:07:25Z</time>
   </trkpt>
   <trkpt lat="31.761006" lon="35.019829">
    <ele>241.279</ele>
    <time>2011-04-19T06:07:35Z</time>
   </trkpt>
   <trkpt lat="31.761109" lon="35.019455">
    <ele>241.588</ele>
    <time>2011-04-19T06:07:43Z</time>
   </trkpt>
   <trkpt lat="31.761194" lon="35.019145">
    <ele>242.082</ele>
    <time>2011-04-19T06:07:49Z</time>
   </trkpt>
   <trkpt lat="31.761216" lon="35.018977">
    <ele>241.988</ele>
    <time>2011-04-19T06:07:52Z</time>
   </trkpt>
   <trkpt lat="31.761247" lon="35.018738">
    <ele>241.611</ele>
    <time>2011-04-19T06:07:56Z</time>
   </trkpt>
   <trkpt lat="31.761361" lon="35.018143">
    <ele>240.740</ele>
    <time>2011-04-19T06:08:06Z</time>
   </trkpt>
   <trkpt lat="31.761372" lon="35.017606">
    <ele>240.603</ele>
    <time>2011-04-19T06:08:15Z</time>
   </trkpt>
   <trkpt lat="31.761404" lon="35.017328">
    <ele>240.566</ele>
    <time>2011-04-19T06:08:20Z</time>
   </trkpt>
   <trkpt lat="31.761416" lon="35.017075">
    <ele>239.988</ele>
    <time>2011-04-19T06:08:24Z</time>
   </trkpt>
   <trkpt lat="31.761402" lon="35.016890">
    <ele>239.918</ele>
    <time>2011-04-19T06:08:27Z</time>
   </trkpt>
   <trkpt lat="31.761472" lon="35.016670">
    <ele>239.516</ele>
    <time>2011-04-19T06:08:31Z</time>
   </trkpt>
   <trkpt lat="31.761521" lon="35.016583">
    <ele>239.856</ele>
    <time>2011-04-19T06:08:33Z</time>
   </trkpt>
   <trkpt lat="31.761544" lon="35.016409">
    <ele>239.216</ele>
    <time>2011-04-19T06:08:36Z</time>
   </trkpt>
   <trkpt lat="31.761540" lon="35.016155">
    <ele>238.699</ele>
    <time>2011-04-19T06:08:40Z</time>
   </trkpt>
   <trkpt lat="31.761580" lon="35.015294">
    <ele>237.911</ele>
    <time>2011-04-19T06:08:55Z</time>
   </trkpt>
   <trkpt lat="31.761608" lon="35.015180">
    <ele>237.905</ele>
    <time>2011-04-19T06:08:57Z</time>
   </trkpt>
   <trkpt lat="31.761686" lon="35.014957">
    <ele>237.693</ele>
    <time>2011-04-19T06:09:01Z</time>
   </trkpt>
   <trkpt lat="31.761667" lon="35.014300">
    <ele>235.462</ele>
    <time>2011-04-19T06:09:13Z</time>
   </trkpt>
   <trkpt lat="31.761660" lon="35.014127">
    <ele>235.134</ele>
    <time>2011-04-19T06:09:16Z</time>
   </trkpt>
   <trkpt lat="31.761890" lon="35.013204">
    <ele>233.595</ele>
    <time>2011-04-19T06:09:31Z</time>
   </trkpt>
   <trkpt lat="31.761961" lon="35.012947">
    <ele>233.759</ele>
    <time>2011-04-19T06:09:35Z</time>
   </trkpt>
   <trkpt lat="31.762281" lon="35.011743">
    <ele>233.348</ele>
    <time>2011-04-19T06:09:55Z</time>
   </trkpt>
   <trkpt lat="31.762544" lon="35.010737">
    <ele>234.284</ele>
    <time>2011-04-19T06:10:13Z</time>
   </trkpt>
   <trkpt lat="31.762664" lon="35.010265">
    <ele>234.029</ele>
    <time>2011-04-19T06:10:23Z</time>
   </trkpt>
   <trkpt lat="31.762692" lon="35.009372">
    <ele>232.937</ele>
    <time>2011-04-19T06:10:40Z</time>
   </trkpt>
   <trkpt lat="31.762690" lon="35.009358">
    <ele>232.861</ele>
    <time>2011-04-19T06:10:41Z</time>
   </trkpt>
   <trkpt lat="31.762699" lon="35.009385">
    <ele>232.663</ele>
    <time>2011-04-19T06:10:47Z</time>
   </trkpt>
   <trkpt lat="31.763149" lon="35.009261">
    <ele>233.512</ele>
    <time>2011-04-19T06:11:00Z</time>
   </trkpt>
   <trkpt lat="31.763757" lon="35.008963">
    <ele>236.436</ele>
    <time>2011-04-19T06:11:18Z</time>
   </trkpt>
   <trkpt lat="31.764157" lon="35.008925">
    <ele>238.016</ele>
    <time>2011-04-19T06:11:31Z</time>
   </trkpt>
   <trkpt lat="31.764657" lon="35.009071">
    <ele>240.398</ele>
    <time>2011-04-19T06:11:49Z</time>
   </trkpt>
   <trkpt lat="31.765292" lon="35.009260">
    <ele>242.252</ele>
    <time>2011-04-19T06:12:10Z</time>
   </trkpt>
   <trkpt lat="31.765948" lon="35.009440">
    <ele>244.581</ele>
    <time>2011-04-19T06:12:31Z</time>
   </trkpt>
   <trkpt lat="31.766512" lon="35.009838">
    <ele>247.207</ele>
    <time>2011-04-19T06:12:52Z</time>
   </trkpt>
   <trkpt lat="31.766960" lon="35.009954">
    <ele>249.613</ele>
    <time>2011-04-19T06:13:07Z</time>
   </trkpt>
   <trkpt lat="31.767395" lon="35.009941">
    <ele>251.944</ele>
    <time>2011-04-19T06:13:24Z</time>
   </trkpt>
   <trkpt lat="31.767916" lon="35.009758">
    <ele>256.505</ele>
    <time>2011-04-19T06:13:46Z</time>
   </trkpt>
   <trkpt lat="31.768143" lon="35.009794">
    <ele>257.827</ele>
    <time>2011-04-19T06:13:55Z</time>
   </trkpt>
   <trkpt lat="31.768497" lon="35.009730">
    <ele>259.607</ele>
    <time>2011-04-19T06:14:09Z</time>
   </trkpt>
   <trkpt lat="31.768821" lon="35.009662">
    <ele>258.668</ele>
    <time>2011-04-19T06:14:23Z</time>
   </trkpt>
   <trkpt lat="31.769127" lon="35.009619">
    <ele>264.682</ele>
    <time>2011-04-19T06:14:37Z</time>
   </trkpt>
   <trkpt lat="31.769462" lon="35.009529">
    <ele>267.458</ele>
    <time>2011-04-19T06:14:54Z</time>
   </trkpt>
   <trkpt lat="31.769885" lon="35.009478">
    <ele>271.656</ele>
    <time>2011-04-19T06:15:14Z</time>
   </trkpt>
   <trkpt lat="31.770080" lon="35.009456">
    <ele>274.531</ele>
    <time>2011-04-19T06:15:25Z</time>
   </trkpt>
   <trkpt lat="31.770590" lon="35.009433">
    <ele>280.461</ele>
    <time>2011-04-19T06:15:55Z</time>
   </trkpt>
   <trkpt lat="31.770603" lon="35.009425">
    <ele>280.814</ele>
    <time>2011-04-19T06:15:56Z</time>
   </trkpt>
   <trkpt lat="31.770743" lon="35.009141">
    <ele>285.177</ele>
    <time>2011-04-19T06:16:15Z</time>
   </trkpt>
   <trkpt lat="31.770956" lon="35.008983">
    <ele>287.418</ele>
    <time>2011-04-19T06:16:33Z</time>
   </trkpt>
   <trkpt lat="31.771041" lon="35.008762">
    <ele>288.182</ele>
    <time>2011-04-19T06:16:46Z</time>
   </trkpt>
   <trkpt lat="31.771079" lon="35.008308">
    <ele>284.062</ele>
    <time>2011-04-19T06:17:00Z</time>
   </trkpt>
   <trkpt lat="31.771064" lon="35.008254">
    <ele>283.846</ele>
    <time>2011-04-19T06:17:01Z</time>
   </trkpt>
   <trkpt lat="31.771030" lon="35.008141">
    <ele>283.197</ele>
    <time>2011-04-19T06:17:03Z</time>
   </trkpt>
   <trkpt lat="31.770922" lon="35.007633">
    <ele>282.248</ele>
    <time>2011-04-19T06:17:11Z</time>
   </trkpt>
   <trkpt lat="31.771028" lon="35.007081">
    <ele>280.818</ele>
    <time>2011-04-19T06:17:18Z</time>
   </trkpt>
   <trkpt lat="31.771040" lon="35.006775">
    <ele>278.950</ele>
    <time>2011-04-19T06:17:22Z</time>
   </trkpt>
   <trkpt lat="31.771032" lon="35.006627">
    <ele>276.238</ele>
    <time>2011-04-19T06:17:24Z</time>
   </trkpt>
   <trkpt lat="31.771106" lon="35.006277">
    <ele>272.045</ele>
    <time>2011-04-19T06:17:28Z</time>
   </trkpt>
   <trkpt lat="31.771100" lon="35.005762">
    <ele>268.755</ele>
    <time>2011-04-19T06:17:34Z</time>
   </trkpt>
   <trkpt lat="31.771124" lon="35.005476">
    <ele>266.948</ele>
    <time>2011-04-19T06:17:38Z</time>
   </trkpt>
   <trkpt lat="31.771070" lon="35.005188">
    <ele>262.704</ele>
    <time>2011-04-19T06:17:43Z</time>
   </trkpt>
   <trkpt lat="31.771022" lon="35.004858">
    <ele>259.664</ele>
    <time>2011-04-19T06:17:48Z</time>
   </trkpt>
   <trkpt lat="31.770902" lon="35.004493">
    <ele>257.742</ele>
    <time>2011-04-19T06:17:53Z</time>
   </trkpt>
   <trkpt lat="31.770837" lon="35.004286">
    <ele>255.092</ele>
    <time>2011-04-19T06:17:56Z</time>
   </trkpt>
   <trkpt lat="31.770822" lon="35.003946">
    <ele>250.405</ele>
    <time>2011-04-19T06:18:00Z</time>
   </trkpt>
   <trkpt lat="31.770922" lon="35.003498">
    <ele>246.788</ele>
    <time>2011-04-19T06:18:05Z</time>
   </trkpt>

   <trkpt lat="31.772111" lon="35.002449">
    <ele>234.881</ele>
    <time>2011-04-19T06:19:26Z</time>
   </trkpt>
   <trkpt lat="31.772091" lon="35.002453">
    <ele>235.090</ele>
    <time>2011-04-19T06:26:10Z</time>
   </trkpt>
   <trkpt lat="31.772088" lon="35.002509">
    <ele>235.409</ele>
    <time>2011-04-19T06:26:18Z</time>
   </trkpt>
   <trkpt lat="31.772097" lon="35.002554">
    <ele>235.915</ele>
    <time>2011-04-19T06:26:22Z</time>
   </trkpt>
   <trkpt lat="31.772111" lon="35.002584">
    <ele>235.674</ele>
    <time>2011-04-19T06:26:24Z</time>
   </trkpt>
   <trkpt lat="31.772131" lon="35.002697">
    <ele>236.860</ele>
    <time>2011-04-19T06:26:29Z</time>
   </trkpt>
   <trkpt lat="31.772145" lon="35.002957">
    <ele>237.828</ele>
    <time>2011-04-19T06:26:41Z</time>
   </trkpt>
   <trkpt lat="31.772501" lon="35.003444">
    <ele>238.129</ele>
    <time>2011-04-19T06:26:57Z</time>
   </trkpt>
   <trkpt lat="31.772812" lon="35.003893">
    <ele>238.050</ele>
    <time>2011-04-19T06:27:11Z</time>
   </trkpt>
   <trkpt lat="31.772883" lon="35.004009">
    <ele>238.457</ele>
    <time>2011-04-19T06:27:15Z</time>
   </trkpt>
   <trkpt lat="31.773225" lon="35.004283">
    <ele>239.783</ele>
    <time>2011-04-19T06:27:29Z</time>
   </trkpt>
   <trkpt lat="31.773501" lon="35.004653">
    <ele>240.697</ele>
    <time>2011-04-19T06:27:41Z</time>
   </trkpt>
   <trkpt lat="31.773674" lon="35.004914">
    <ele>241.044</ele>
    <time>2011-04-19T06:27:49Z</time>
   </trkpt>
   <trkpt lat="31.773898" lon="35.005093">
    <ele>238.258</ele>
    <time>2011-04-19T06:27:55Z</time>
   </trkpt>
   <trkpt lat="31.774069" lon="35.005601">
    <ele>237.627</ele>
    <time>2011-04-19T06:28:07Z</time>
   </trkpt>
   <trkpt lat="31.774209" lon="35.006150">
    <ele>238.010</ele>
    <time>2011-04-19T06:28:20Z</time>
   </trkpt>
   <trkpt lat="31.774447" lon="35.006450">
    <ele>237.183</ele>
    <time>2011-04-19T06:28:32Z</time>
   </trkpt>
   <trkpt lat="31.774833" lon="35.006715">
    <ele>237.960</ele>
    <time>2011-04-19T06:28:45Z</time>
   </trkpt>
   <trkpt lat="31.775061" lon="35.006770">
    <ele>237.896</ele>
    <time>2011-04-19T06:28:54Z</time>
   </trkpt>
   <trkpt lat="31.775201" lon="35.006993">
    <ele>238.898</ele>
    <time>2011-04-19T06:29:09Z</time>
   </trkpt>
   <trkpt lat="31.775211" lon="35.007005">
    <ele>239.018</ele>
    <time>2011-04-19T06:29:12Z</time>
   </trkpt>
   <trkpt lat="31.775230" lon="35.007031">
    <ele>239.479</ele>
    <time>2011-04-19T06:29:27Z</time>
   </trkpt>
   <trkpt lat="31.775239" lon="35.007052">
    <ele>239.354</ele>
    <time>2011-04-19T06:29:31Z</time>
   </trkpt>
   <trkpt lat="31.775314" lon="35.007184">
    <ele>239.152</ele>
    <time>2011-04-19T06:29:38Z</time>
   </trkpt>
   <trkpt lat="31.775406" lon="35.007172">
    <ele>239.351</ele>
    <time>2011-04-19T06:29:44Z</time>
   </trkpt>
   <trkpt lat="31.775616" lon="35.007171">
    <ele>240.161</ele>
    <time>2011-04-19T06:29:52Z</time>
   </trkpt>
   <trkpt lat="31.775674" lon="35.007242">
    <ele>241.215</ele>
    <time>2011-04-19T06:29:55Z</time>
   </trkpt>
   <trkpt lat="31.775720" lon="35.007272">
    <ele>241.706</ele>
    <time>2011-04-19T06:29:58Z</time>
   </trkpt>
   <trkpt lat="31.775757" lon="35.007321">
    <ele>242.088</ele>
    <time>2011-04-19T06:30:01Z</time>
   </trkpt>
   <trkpt lat="31.775913" lon="35.007322">
    <ele>243.553</ele>
    <time>2011-04-19T06:30:12Z</time>
   </trkpt>
   <trkpt lat="31.775929" lon="35.007293">
    <ele>244.159</ele>
    <time>2011-04-19T06:30:20Z</time>
   </trkpt>
   <trkpt lat="31.775796" lon="35.006993">
    <ele>245.757</ele>
    <time>2011-04-19T06:30:32Z</time>
   </trkpt>
   <trkpt lat="31.775474" lon="35.006404">
    <ele>245.937</ele>
    <time>2011-04-19T06:30:46Z</time>
   </trkpt>
   <trkpt lat="31.775073" lon="35.005687">
    <ele>241.951</ele>
    <time>2011-04-19T06:31:02Z</time>
   </trkpt>
   <trkpt lat="31.775151" lon="35.005544">
    <ele>242.191</ele>
    <time>2011-04-19T06:31:10Z</time>
   </trkpt>
   <trkpt lat="31.775282" lon="35.005433">
    <ele>242.158</ele>
    <time>2011-04-19T06:31:18Z</time>
   </trkpt>
   <trkpt lat="31.775518" lon="35.005209">
    <ele>242.713</ele>
    <time>2011-04-19T06:31:33Z</time>
   </trkpt>
   <trkpt lat="31.775773" lon="35.004986">
    <ele>243.941</ele>
    <time>2011-04-19T06:31:48Z</time>
   </trkpt>
   <trkpt lat="31.775845" lon="35.004930">
    <ele>244.416</ele>
    <time>2011-04-19T06:31:51Z</time>
   </trkpt>
   <trkpt lat="31.775959" lon="35.004930">
    <ele>244.163</ele>
    <time>2011-04-19T06:31:55Z</time>
   </trkpt>
   <trkpt lat="31.776081" lon="35.004882">
    <ele>244.027</ele>
    <time>2011-04-19T06:31:59Z</time>
   </trkpt>
   <trkpt lat="31.776555" lon="35.004444">
    <ele>246.802</ele>
    <time>2011-04-19T06:32:18Z</time>
   </trkpt>
   <trkpt lat="31.776946" lon="35.004051">
    <ele>247.388</ele>
    <time>2011-04-19T06:32:34Z</time>
   </trkpt>
   <trkpt lat="31.777452" lon="35.003428">
    <ele>248.086</ele>
    <time>2011-04-19T06:32:55Z</time>
   </trkpt>
   <trkpt lat="31.777939" lon="35.003037">
    <ele>248.151</ele>
    <time>2011-04-19T06:33:11Z</time>
   </trkpt>
   <trkpt lat="31.778622" lon="35.002933">
    <ele>247.853</ele>
    <time>2011-04-19T06:33:30Z</time>
   </trkpt>
   <trkpt lat="31.779404" lon="35.002815">
    <ele>249.458</ele>
    <time>2011-04-19T06:33:50Z</time>
   </trkpt>
   <trkpt lat="31.780446" lon="35.002656">
    <ele>254.046</ele>
    <time>2011-04-19T06:34:18Z</time>
   </trkpt>
   <trkpt lat="31.780930" lon="35.002364">
    <ele>257.239</ele>
    <time>2011-04-19T06:34:36Z</time>
   </trkpt>
   <trkpt lat="31.781223" lon="35.002174">
    <ele>258.748</ele>
    <time>2011-04-19T06:34:50Z</time>
   </trkpt>
   <trkpt lat="31.781251" lon="35.002179">
    <ele>258.087</ele>
    <time>2011-04-19T06:35:10Z</time>
   </trkpt>
   <trkpt lat="31.781249" lon="35.002167">
    <ele>258.342</ele>
    <time>2011-04-19T06:36:26Z</time>
   </trkpt>
   <trkpt lat="31.781345" lon="35.002274">
    <ele>259.574</ele>
    <time>2011-04-19T06:38:56Z</time>
   </trkpt>
   <trkpt lat="31.781350" lon="35.002351">
    <ele>259.453</ele>
    <time>2011-04-19T06:39:08Z</time>
   </trkpt>
   <trkpt lat="31.781357" lon="35.002361">
    <ele>260.382</ele>
    <time>2011-04-19T06:39:54Z</time>
   </trkpt>
   <trkpt lat="31.781364" lon="35.002353">
    <ele>260.899</ele>
    <time>2011-04-19T06:40:24Z</time>
   </trkpt>
   <trkpt lat="31.781460" lon="35.002664">
    <ele>258.218</ele>
    <time>2011-04-19T06:40:38Z</time>
   </trkpt>
   <trkpt lat="31.781547" lon="35.003009">
    <ele>257.306</ele>
    <time>2011-04-19T06:40:51Z</time>
   </trkpt>
   <trkpt lat="31.781729" lon="35.003785">
    <ele>259.007</ele>
    <time>2011-04-19T06:41:16Z</time>
   </trkpt>
   <trkpt lat="31.781800" lon="35.004353">
    <ele>260.322</ele>
    <time>2011-04-19T06:41:33Z</time>
   </trkpt>
   <trkpt lat="31.782039" lon="35.004650">
    <ele>262.858</ele>
    <time>2011-04-19T06:41:51Z</time>
   </trkpt>
   <trkpt lat="31.782330" lon="35.004822">
    <ele>265.535</ele>
    <time>2011-04-19T06:42:10Z</time>
   </trkpt>
   <trkpt lat="31.782565" lon="35.005110">
    <ele>268.100</ele>
    <time>2011-04-19T06:42:29Z</time>
   </trkpt>
   <trkpt lat="31.782890" lon="35.005312">
    <ele>271.586</ele>
    <time>2011-04-19T06:42:49Z</time>
   </trkpt>
   <trkpt lat="31.783176" lon="35.005106">
    <ele>274.888</ele>
    <time>2011-04-19T06:43:07Z</time>
   </trkpt>
   <trkpt lat="31.783467" lon="35.004952">
    <ele>277.992</ele>
    <time>2011-04-19T06:43:25Z</time>
   </trkpt>
   <trkpt lat="31.783646" lon="35.005011">
    <ele>280.008</ele>
    <time>2011-04-19T06:43:39Z</time>
   </trkpt>
   <trkpt lat="31.783669" lon="35.005030">
    <ele>280.326</ele>
    <time>2011-04-19T06:43:41Z</time>
   </trkpt>
   <trkpt lat="31.783938" lon="35.005148">
    <ele>282.903</ele>
    <time>2011-04-19T06:44:00Z</time>
   </trkpt>
   <trkpt lat="31.784300" lon="35.005310">
    <ele>286.980</ele>
    <time>2011-04-19T06:44:21Z</time>
   </trkpt>
   <trkpt lat="31.784668" lon="35.005505">
    <ele>291.025</ele>
    <time>2011-04-19T06:44:44Z</time>
   </trkpt>
   <trkpt lat="31.785000" lon="35.005766">
    <ele>293.506</ele>
    <time>2011-04-19T06:45:06Z</time>
   </trkpt>
   <trkpt lat="31.785249" lon="35.006040">
    <ele>295.866</ele>
    <time>2011-04-19T06:45:25Z</time>
   </trkpt>
   <trkpt lat="31.785374" lon="35.006361">
    <ele>299.474</ele>
    <time>2011-04-19T06:45:42Z</time>
   </trkpt>
   <trkpt lat="31.785397" lon="35.006514">
    <ele>300.970</ele>
    <time>2011-04-19T06:45:49Z</time>
   </trkpt>
   <trkpt lat="31.785508" lon="35.006834">
    <ele>303.500</ele>
    <time>2011-04-19T06:46:06Z</time>
   </trkpt>
   <trkpt lat="31.785721" lon="35.007104">
    <ele>305.778</ele>
    <time>2011-04-19T06:46:23Z</time>
   </trkpt>
   <trkpt lat="31.786076" lon="35.007243">
    <ele>309.633</ele>
    <time>2011-04-19T06:46:44Z</time>
   </trkpt>
   <trkpt lat="31.786392" lon="35.007338">
    <ele>312.510</ele>
    <time>2011-04-19T06:47:02Z</time>
   </trkpt>
   <trkpt lat="31.786685" lon="35.007429">
    <ele>314.349</ele>
    <time>2011-04-19T06:47:17Z</time>
   </trkpt>
   <trkpt lat="31.787019" lon="35.007453">
    <ele>317.209</ele>
    <time>2011-04-19T06:47:36Z</time>
   </trkpt>
   <trkpt lat="31.787154" lon="35.007398">
    <ele>318.242</ele>
    <time>2011-04-19T06:47:45Z</time>
   </trkpt>
   <trkpt lat="31.787256" lon="35.007255">
    <ele>319.142</ele>
    <time>2011-04-19T06:47:55Z</time>
   </trkpt>
   <trkpt lat="31.787358" lon="35.006901">
    <ele>322.126</ele>
    <time>2011-04-19T06:48:13Z</time>
   </trkpt>
   <trkpt lat="31.787375" lon="35.006625">
    <ele>325.383</ele>
    <time>2011-04-19T06:48:29Z</time>
   </trkpt>
   <trkpt lat="31.787390" lon="35.006542">
    <ele>325.542</ele>
    <time>2011-04-19T06:48:36Z</time>
   </trkpt>
   <trkpt lat="31.787383" lon="35.006488">
    <ele>325.510</ele>
    <time>2011-04-19T06:48:39Z</time>
   </trkpt>
   <trkpt lat="31.787484" lon="35.006094">
    <ele>327.708</ele>
    <time>2011-04-19T06:49:01Z</time>
   </trkpt>
   <trkpt lat="31.787644" lon="35.005740">
    <ele>331.392</ele>
    <time>2011-04-19T06:49:22Z</time>
   </trkpt>
   <trkpt lat="31.787841" lon="35.005446">
    <ele>333.581</ele>
    <time>2011-04-19T06:49:40Z</time>
   </trkpt>
   <trkpt lat="31.788019" lon="35.005199">
    <ele>335.837</ele>
    <time>2011-04-19T06:49:56Z</time>
   </trkpt>
   <trkpt lat="31.788279" lon="35.004836">
    <ele>340.324</ele>
    <time>2011-04-19T06:50:18Z</time>
   </trkpt>
   <trkpt lat="31.788477" lon="35.004537">
    <ele>343.321</ele>
    <time>2011-04-19T06:50:35Z</time>
   </trkpt>
   <trkpt lat="31.788481" lon="35.004518">
    <ele>343.514</ele>
    <time>2011-04-19T06:50:36Z</time>
   </trkpt>
   <trkpt lat="31.788816" lon="35.004157">
    <ele>345.428</ele>
    <time>2011-04-19T06:51:00Z</time>
   </trkpt>
   <trkpt lat="31.789067" lon="35.004068">
    <ele>346.802</ele>
    <time>2011-04-19T06:51:14Z</time>
   </trkpt>
   <trkpt lat="31.789392" lon="35.004025">
    <ele>349.554</ele>
    <time>2011-04-19T06:51:34Z</time>
   </trkpt>
   <trkpt lat="31.789405" lon="35.004029">
    <ele>349.433</ele>
    <time>2011-04-19T06:51:35Z</time>
   </trkpt>
   <trkpt lat="31.789716" lon="35.004062">
    <ele>350.687</ele>
    <time>2011-04-19T06:51:57Z</time>
   </trkpt>
   <trkpt lat="31.790092" lon="35.004105">
    <ele>354.316</ele>
    <time>2011-04-19T06:52:21Z</time>
   </trkpt>
   <trkpt lat="31.790275" lon="35.004120">
    <ele>356.093</ele>
    <time>2011-04-19T06:52:33Z</time>
   </trkpt>
   <trkpt lat="31.790573" lon="35.004188">
    <ele>359.163</ele>
    <time>2011-04-19T06:52:52Z</time>
   </trkpt>
   <trkpt lat="31.791025" lon="35.004267">
    <ele>361.958</ele>
    <time>2011-04-19T06:53:19Z</time>
   </trkpt>
   <trkpt lat="31.791389" lon="35.004319">
    <ele>364.208</ele>
    <time>2011-04-19T06:53:41Z</time>
   </trkpt>
   <trkpt lat="31.791724" lon="35.004376">
    <ele>367.377</ele>
    <time>2011-04-19T06:54:01Z</time>
   </trkpt>
   <trkpt lat="31.791783" lon="35.004388">
    <ele>367.634</ele>
    <time>2011-04-19T06:54:04Z</time>
   </trkpt>
   <trkpt lat="31.791874" lon="35.004398">
    <ele>368.226</ele>
    <time>2011-04-19T06:54:11Z</time>
   </trkpt>
   <trkpt lat="31.792134" lon="35.004421">
    <ele>370.289</ele>
    <time>2011-04-19T06:54:29Z</time>
   </trkpt>
   <trkpt lat="31.792384" lon="35.004412">
    <ele>373.467</ele>
    <time>2011-04-19T06:54:45Z</time>
   </trkpt>
   <trkpt lat="31.792504" lon="35.004404">
    <ele>374.625</ele>
    <time>2011-04-19T06:54:53Z</time>
   </trkpt>
   <trkpt lat="31.792538" lon="35.004420">
    <ele>374.667</ele>
    <time>2011-04-19T06:54:55Z</time>
   </trkpt>
   <trkpt lat="31.792797" lon="35.004439">
    <ele>376.883</ele>
    <time>2011-04-19T06:55:12Z</time>
   </trkpt>
   <trkpt lat="31.792829" lon="35.004444">
    <ele>377.643</ele>
    <time>2011-04-19T06:55:14Z</time>
   </trkpt>
   <trkpt lat="31.792869" lon="35.004464">
    <ele>378.392</ele>
    <time>2011-04-19T06:55:17Z</time>
   </trkpt>
   <trkpt lat="31.792942" lon="35.004489">
    <ele>378.886</ele>
    <time>2011-04-19T06:55:23Z</time>
   </trkpt>
   <trkpt lat="31.793184" lon="35.004610">
    <ele>380.775</ele>
    <time>2011-04-19T06:55:41Z</time>
   </trkpt>
   <trkpt lat="31.793265" lon="35.004587">
    <ele>381.834</ele>
    <time>2011-04-19T06:55:49Z</time>
   </trkpt>
   <trkpt lat="31.793362" lon="35.004527">
    <ele>381.617</ele>
    <time>2011-04-19T06:55:59Z</time>
   </trkpt>
   <trkpt lat="31.793418" lon="35.004532">
    <ele>380.939</ele>
    <time>2011-04-19T06:56:04Z</time>
   </trkpt>
   <trkpt lat="31.793460" lon="35.004519">
    <ele>381.784</ele>
    <time>2011-04-19T06:56:09Z</time>
   </trkpt>
   <trkpt lat="31.793570" lon="35.004476">
    <ele>381.789</ele>
    <time>2011-04-19T06:56:22Z</time>
   </trkpt>
   <trkpt lat="31.793592" lon="35.004444">
    <ele>381.772</ele>
    <time>2011-04-19T06:56:39Z</time>
   </trkpt>
   <trkpt lat="31.793690" lon="35.004315">
    <ele>382.444</ele>
    <time>2011-04-19T06:57:29Z</time>
   </trkpt>
   <trkpt lat="31.793757" lon="35.004186">
    <ele>382.881</ele>
    <time>2011-04-19T06:57:34Z</time>
   </trkpt>
   <trkpt lat="31.793892" lon="35.003981">
    <ele>385.844</ele>
    <time>2011-04-19T06:57:45Z</time>
   </trkpt>
   <trkpt lat="31.793887" lon="35.003952">
    <ele>386.135</ele>
    <time>2011-04-19T06:57:59Z</time>
   </trkpt>
   <trkpt lat="31.793885" lon="35.003955">
    <ele>386.586</ele>
    <time>2011-04-19T06:59:25Z</time>
   </trkpt>
   <trkpt lat="31.793885" lon="35.003955">
    <ele>386.607</ele>
    <time>2011-04-19T06:59:28Z</time>
   </trkpt>
   <trkpt lat="31.793924" lon="35.003915">
    <ele>388.385</ele>
    <time>2011-04-19T06:59:33Z</time>
   </trkpt>
   <trkpt lat="31.794031" lon="35.003676">
    <ele>388.548</ele>
    <time>2011-04-19T06:59:44Z</time>
   </trkpt>
   <trkpt lat="31.794217" lon="35.003338">
    <ele>385.993</ele>
    <time>2011-04-19T06:59:58Z</time>
   </trkpt>
   <trkpt lat="31.794451" lon="35.002918">
    <ele>384.405</ele>
    <time>2011-04-19T07:00:06Z</time>
   </trkpt>
   <trkpt lat="31.794902" lon="35.002465">
    <ele>380.718</ele>
    <time>2011-04-19T07:00:15Z</time>
   </trkpt>
   <trkpt lat="31.795171" lon="35.002195">
    <ele>379.727</ele>
    <time>2011-04-19T07:00:20Z</time>
   </trkpt>
   <trkpt lat="31.795726" lon="35.001586">
    <ele>377.262</ele>
    <time>2011-04-19T07:00:32Z</time>
   </trkpt>
   <trkpt lat="31.795881" lon="35.001267">
    <ele>374.577</ele>
    <time>2011-04-19T07:00:41Z</time>
   </trkpt>
   <trkpt lat="31.795903" lon="35.001138">
    <ele>373.860</ele>
    <time>2011-04-19T07:00:59Z</time>
   </trkpt>
   <trkpt lat="31.795815" lon="35.000921">
    <ele>371.968</ele>
    <time>2011-04-19T07:01:03Z</time>
   </trkpt>
   <trkpt lat="31.795583" lon="35.000758">
    <ele>370.307</ele>
    <time>2011-04-19T07:01:07Z</time>
   </trkpt>
   <trkpt lat="31.795269" lon="35.000649">
    <ele>368.112</ele>
    <time>2011-04-19T07:01:11Z</time>
   </trkpt>
   <trkpt lat="31.794649" lon="35.000743">
    <ele>364.306</ele>
    <time>2011-04-19T07:01:18Z</time>
   </trkpt>
   <trkpt lat="31.794243" lon="35.000682">
    <ele>360.557</ele>
    <time>2011-04-19T07:01:23Z</time>
   </trkpt>
   <trkpt lat="31.794097" lon="35.000588">
    <ele>360.706</ele>
    <time>2011-04-19T07:01:25Z</time>
   </trkpt>
   <trkpt lat="31.793840" lon="35.000509">
    <ele>362.013</ele>
    <time>2011-04-19T07:01:29Z</time>
   </trkpt>
   <trkpt lat="31.793277" lon="35.000514">
    <ele>367.167</ele>
    <time>2011-04-19T07:01:43Z</time>
   </trkpt>
   <trkpt lat="31.792867" lon="35.000507">
    <ele>370.161</ele>
    <time>2011-04-19T07:01:59Z</time>
   </trkpt>
   <trkpt lat="31.792557" lon="35.000339">
    <ele>372.730</ele>
    <time>2011-04-19T07:02:11Z</time>
   </trkpt>
   <trkpt lat="31.792333" lon="35.000036">
    <ele>375.818</ele>
    <time>2011-04-19T07:02:26Z</time>
   </trkpt>
   <trkpt lat="31.792277" lon="34.999712">
    <ele>377.193</ele>
    <time>2011-04-19T07:02:41Z</time>
   </trkpt>
   <trkpt lat="31.792229" lon="34.999644">
    <ele>377.806</ele>
    <time>2011-04-19T07:02:45Z</time>
   </trkpt>
   <trkpt lat="31.791905" lon="34.999457">
    <ele>381.275</ele>
    <time>2011-04-19T07:03:05Z</time>
   </trkpt>
   <trkpt lat="31.791570" lon="34.999130">
    <ele>381.764</ele>
    <time>2011-04-19T07:03:23Z</time>
   </trkpt>
   <trkpt lat="31.791496" lon="34.999084">
    <ele>381.639</ele>
    <time>2011-04-19T07:03:25Z</time>
   </trkpt>
   <trkpt lat="31.791132" lon="34.998731">
    <ele>381.633</ele>
    <time>2011-04-19T07:03:37Z</time>
   </trkpt>
   <trkpt lat="31.790992" lon="34.998591">
    <ele>380.592</ele>
    <time>2011-04-19T07:03:41Z</time>
   </trkpt>
   <trkpt lat="31.790830" lon="34.998072">
    <ele>380.451</ele>
    <time>2011-04-19T07:03:50Z</time>
   </trkpt>
   <trkpt lat="31.790953" lon="34.997955">
    <ele>382.935</ele>
    <time>2011-04-19T07:03:55Z</time>
   </trkpt>
   <trkpt lat="31.791319" lon="34.998031">
    <ele>383.357</ele>
    <time>2011-04-19T07:04:09Z</time>
   </trkpt>
   <trkpt lat="31.791470" lon="34.998018">
    <ele>384.135</ele>
    <time>2011-04-19T07:04:14Z</time>
   </trkpt>
   <trkpt lat="31.791832" lon="34.997712">
    <ele>380.299</ele>
    <time>2011-04-19T07:04:26Z</time>
   </trkpt>
   <trkpt lat="31.792125" lon="34.997739">
    <ele>379.823</ele>
    <time>2011-04-19T07:04:32Z</time>
   </trkpt>
   <trkpt lat="31.792537" lon="34.997713">
    <ele>381.765</ele>
    <time>2011-04-19T07:04:40Z</time>
   </trkpt>
   <trkpt lat="31.792773" lon="34.997616">
    <ele>382.677</ele>
    <time>2011-04-19T07:04:46Z</time>
   </trkpt>
   <trkpt lat="31.793419" lon="34.997295">
    <ele>383.645</ele>
    <time>2011-04-19T07:05:03Z</time>
   </trkpt>
   <trkpt lat="31.793956" lon="34.997053">
    <ele>385.018</ele>
    <time>2011-04-19T07:05:19Z</time>
   </trkpt>
   <trkpt lat="31.794487" lon="34.996750">
    <ele>386.303</ele>
    <time>2011-04-19T07:05:36Z</time>
   </trkpt>
   <trkpt lat="31.794879" lon="34.996596">
    <ele>385.811</ele>
    <time>2011-04-19T07:05:50Z</time>
   </trkpt>
   <trkpt lat="31.794989" lon="34.996606">
    <ele>385.176</ele>
    <time>2011-04-19T07:05:53Z</time>
   </trkpt>
   <trkpt lat="31.795693" lon="34.997028">
    <ele>378.547</ele>
    <time>2011-04-19T07:06:06Z</time>
   </trkpt>
   <trkpt lat="31.795755" lon="34.997078">
    <ele>377.917</ele>
    <time>2011-04-19T07:06:07Z</time>
   </trkpt>
   <trkpt lat="31.796419" lon="34.997447">
    <ele>370.669</ele>
    <time>2011-04-19T07:06:17Z</time>
   </trkpt>
   <trkpt lat="31.796803" lon="34.997453">
    <ele>367.046</ele>
    <time>2011-04-19T07:06:22Z</time>
   </trkpt>
   <trkpt lat="31.797014" lon="34.997404">
    <ele>364.865</ele>
    <time>2011-04-19T07:06:25Z</time>
   </trkpt>
   <trkpt lat="31.797319" lon="34.997373">
    <ele>363.475</ele>
    <time>2011-04-19T07:06:29Z</time>
   </trkpt>
   <trkpt lat="31.797794" lon="34.997054">
    <ele>362.006</ele>
    <time>2011-04-19T07:06:36Z</time>
   </trkpt>
   <trkpt lat="31.798235" lon="34.996583">
    <ele>362.086</ele>
    <time>2011-04-19T07:06:44Z</time>
   </trkpt>
   <trkpt lat="31.798394" lon="34.996384">
    <ele>361.060</ele>
    <time>2011-04-19T07:06:47Z</time>
   </trkpt>
   <trkpt lat="31.798582" lon="34.996199">
    <ele>359.797</ele>
    <time>2011-04-19T07:06:50Z</time>
   </trkpt>
   <trkpt lat="31.799301" lon="34.995377">
    <ele>355.444</ele>
    <time>2011-04-19T07:07:01Z</time>
   </trkpt>
   <trkpt lat="31.799649" lon="34.994853">
    <ele>354.706</ele>
    <time>2011-04-19T07:07:08Z</time>
   </trkpt>
   <trkpt lat="31.800088" lon="34.994615">
    <ele>353.701</ele>
    <time>2011-04-19T07:07:14Z</time>
   </trkpt>
   <trkpt lat="31.800478" lon="34.994657">
    <ele>353.701</ele>
    <time>2011-04-19T07:07:19Z</time>
   </trkpt>
   <trkpt lat="31.800629" lon="34.994675">
    <ele>353.285</ele>
    <time>2011-04-19T07:07:21Z</time>
   </trkpt>
   <trkpt lat="31.800922" lon="34.994591">
    <ele>352.027</ele>
    <time>2011-04-19T07:07:25Z</time>
   </trkpt>
   <trkpt lat="31.801211" lon="34.994294">
    <ele>351.258</ele>
    <time>2011-04-19T07:07:30Z</time>
   </trkpt>
   <trkpt lat="31.801641" lon="34.993567">
    <ele>351.520</ele>
    <time>2011-04-19T07:07:41Z</time>
   </trkpt>
   <trkpt lat="31.801873" lon="34.993390">
    <ele>351.475</ele>
    <time>2011-04-19T07:07:45Z</time>
   </trkpt>
   <trkpt lat="31.802593" lon="34.993069">
    <ele>348.446</ele>
    <time>2011-04-19T07:07:55Z</time>
   </trkpt>
   <trkpt lat="31.803237" lon="34.992461">
    <ele>347.887</ele>
    <time>2011-04-19T07:08:06Z</time>
   </trkpt>
   <trkpt lat="31.803700" lon="34.991589">
    <ele>343.983</ele>
    <time>2011-04-19T07:08:18Z</time>
   </trkpt>
   <trkpt lat="31.803905" lon="34.991536">
    <ele>342.845</ele>
    <time>2011-04-19T07:08:22Z</time>
   </trkpt>
   <trkpt lat="31.804029" lon="34.991562">
    <ele>342.544</ele>
    <time>2011-04-19T07:08:24Z</time>
   </trkpt>
   <trkpt lat="31.804439" lon="34.991437">
    <ele>341.704</ele>
    <time>2011-04-19T07:08:30Z</time>
   </trkpt>
   <trkpt lat="31.805049" lon="34.990997">
    <ele>339.360</ele>
    <time>2011-04-19T07:08:39Z</time>
   </trkpt>
   <trkpt lat="31.805246" lon="34.990834">
    <ele>338.279</ele>
    <time>2011-04-19T07:08:42Z</time>
   </trkpt>
   <trkpt lat="31.805383" lon="34.990748">
    <ele>337.720</ele>
    <time>2011-04-19T07:08:44Z</time>
   </trkpt>
   <trkpt lat="31.805938" lon="34.990502">
    <ele>335.434</ele>
    <time>2011-04-19T07:08:52Z</time>
   </trkpt>
   <trkpt lat="31.806653" lon="34.990442">
    <ele>333.056</ele>
    <time>2011-04-19T07:09:02Z</time>
   </trkpt>
   <trkpt lat="31.807249" lon="34.990827">
    <ele>330.331</ele>
    <time>2011-04-19T07:09:11Z</time>
   </trkpt>
   <trkpt lat="31.807606" lon="34.991374">
    <ele>326.730</ele>
    <time>2011-04-19T07:09:18Z</time>
   </trkpt>
   <trkpt lat="31.807903" lon="34.991405">
    <ele>324.624</ele>
    <time>2011-04-19T07:09:25Z</time>
   </trkpt>
   <trkpt lat="31.807914" lon="34.991362">
    <ele>324.169</ele>
    <time>2011-04-19T07:09:26Z</time>
   </trkpt>
   <trkpt lat="31.807932" lon="34.991278">
    <ele>322.523</ele>
    <time>2011-04-19T07:09:28Z</time>
   </trkpt>
   <trkpt lat="31.808083" lon="34.990726">
    <ele>314.689</ele>
    <time>2011-04-19T07:09:35Z</time>
   </trkpt>
   <trkpt lat="31.808203" lon="34.990279">
    <ele>312.033</ele>
    <time>2011-04-19T07:09:39Z</time>
   </trkpt>
   <trkpt lat="31.808743" lon="34.989448">
    <ele>303.556</ele>
    <time>2011-04-19T07:09:47Z</time>
   </trkpt>
   <trkpt lat="31.808812" lon="34.989342">
    <ele>303.197</ele>
    <time>2011-04-19T07:09:48Z</time>
   </trkpt>
   <trkpt lat="31.809424" lon="34.988128">
    <ele>293.307</ele>
    <time>2011-04-19T07:09:59Z</time>
   </trkpt>
   <trkpt lat="31.809477" lon="34.988047">
    <ele>292.134</ele>
    <time>2011-04-19T07:10:00Z</time>
   </trkpt>
   <trkpt lat="31.809567" lon="34.987876">
    <ele>290.970</ele>
    <time>2011-04-19T07:10:02Z</time>
   </trkpt>
   <trkpt lat="31.809598" lon="34.987438">
    <ele>287.021</ele>
    <time>2011-04-19T07:10:07Z</time>
   </trkpt>
   <trkpt lat="31.809496" lon="34.986957">
    <ele>283.823</ele>
    <time>2011-04-19T07:10:12Z</time>
   </trkpt>
   <trkpt lat="31.809248" lon="34.985774">
    <ele>271.382</ele>
    <time>2011-04-19T07:10:23Z</time>
   </trkpt>
   <trkpt lat="31.809194" lon="34.985519">
    <ele>269.259</ele>
    <time>2011-04-19T07:10:25Z</time>
   </trkpt>
   <trkpt lat="31.809250" lon="34.984991">
    <ele>267.971</ele>
    <time>2011-04-19T07:10:29Z</time>
   </trkpt>
   <trkpt lat="31.809873" lon="34.983403">
    <ele>257.598</ele>
    <time>2011-04-19T07:10:43Z</time>
   </trkpt>
   <trkpt lat="31.809932" lon="34.983289">
    <ele>257.491</ele>
    <time>2011-04-19T07:10:44Z</time>
   </trkpt>
   <trkpt lat="31.810066" lon="34.983088">
    <ele>257.165</ele>
    <time>2011-04-19T07:10:46Z</time>
   </trkpt>
   <trkpt lat="31.810296" lon="34.982857">
    <ele>254.712</ele>
    <time>2011-04-19T07:10:49Z</time>
   </trkpt>
   <trkpt lat="31.810524" lon="34.982484">
    <ele>251.960</ele>
    <time>2011-04-19T07:10:53Z</time>
   </trkpt>
   <trkpt lat="31.810943" lon="34.981304">
    <ele>247.026</ele>
    <time>2011-04-19T07:11:05Z</time>
   </trkpt>
   <trkpt lat="31.810999" lon="34.981023">
    <ele>245.106</ele>
    <time>2011-04-19T07:11:08Z</time>
   </trkpt>
   <trkpt lat="31.810894" lon="34.979832">
    <ele>239.215</ele>
    <time>2011-04-19T07:11:21Z</time>
   </trkpt>
   <trkpt lat="31.810498" lon="34.978683">
    <ele>233.985</ele>
    <time>2011-04-19T07:11:33Z</time>
   </trkpt>
   <trkpt lat="31.810306" lon="34.977584">
    <ele>229.989</ele>
    <time>2011-04-19T07:11:45Z</time>
   </trkpt>
   <trkpt lat="31.810188" lon="34.976966">
    <ele>227.525</ele>
    <time>2011-04-19T07:11:52Z</time>
   </trkpt>
   <trkpt lat="31.810051" lon="34.975802">
    <ele>223.429</ele>
    <time>2011-04-19T07:12:06Z</time>
   </trkpt>
   <trkpt lat="31.809788" lon="34.974678">
    <ele>220.447</ele>
    <time>2011-04-19T07:12:23Z</time>
   </trkpt>
   <trkpt lat="31.809761" lon="34.974154">
    <ele>218.170</ele>
    <time>2011-04-19T07:12:35Z</time>
   </trkpt>
   <trkpt lat="31.809725" lon="34.973906">
    <ele>218.748</ele>
    <time>2011-04-19T07:13:25Z</time>
   </trkpt>
   <trkpt lat="31.809631" lon="34.973305">
    <ele>215.889</ele>
    <time>2011-04-19T07:13:39Z</time>
   </trkpt>
   <trkpt lat="31.809556" lon="34.972938">
    <ele>215.009</ele>
    <time>2011-04-19T07:13:45Z</time>
   </trkpt>
   <trkpt lat="31.809104" lon="34.971820">
    <ele>215.795</ele>
    <time>2011-04-19T07:14:04Z</time>
   </trkpt>
   <trkpt lat="31.808704" lon="34.970796">
    <ele>218.260</ele>
    <time>2011-04-19T07:14:22Z</time>
   </trkpt>
   <trkpt lat="31.808430" lon="34.969819">
    <ele>219.915</ele>
    <time>2011-04-19T07:14:40Z</time>
   </trkpt>
   <trkpt lat="31.807978" lon="34.968588">
    <ele>219.468</ele>
    <time>2011-04-19T07:15:02Z</time>
   </trkpt>
   <trkpt lat="31.807676" lon="34.967490">
    <ele>220.196</ele>
    <time>2011-04-19T07:15:19Z</time>
   </trkpt>
   <trkpt lat="31.807548" lon="34.966514">
    <ele>222.033</ele>
    <time>2011-04-19T07:15:37Z</time>
   </trkpt>
   <trkpt lat="31.807539" lon="34.965949">
    <ele>223.870</ele>
    <time>2011-04-19T07:15:53Z</time>
   </trkpt>
   <trkpt lat="31.807419" lon="34.965541">
    <ele>227.424</ele>
    <time>2011-04-19T07:16:10Z</time>
   </trkpt>
   <trkpt lat="31.807316" lon="34.965196">
    <ele>231.075</ele>
    <time>2011-04-19T07:16:28Z</time>
   </trkpt>
   <trkpt lat="31.807315" lon="34.965151">
    <ele>231.572</ele>
    <time>2011-04-19T07:16:31Z</time>
   </trkpt>
   <trkpt lat="31.807256" lon="34.964839">
    <ele>235.315</ele>
    <time>2011-04-19T07:16:51Z</time>
   </trkpt>
   <trkpt lat="31.807113" lon="34.964583">
    <ele>236.393</ele>
    <time>2011-04-19T07:17:08Z</time>
   </trkpt>
   <trkpt lat="31.807086" lon="34.964569">
    <ele>236.403</ele>
    <time>2011-04-19T07:17:10Z</time>
   </trkpt>
   <trkpt lat="31.806998" lon="34.964565">
    <ele>235.912</ele>
    <time>2011-04-19T07:17:16Z</time>
   </trkpt>
   <trkpt lat="31.806806" lon="34.964579">
    <ele>235.572</ele>
    <time>2011-04-19T07:17:31Z</time>
   </trkpt>
   <trkpt lat="31.806851" lon="34.964619">
    <ele>235.397</ele>
    <time>2011-04-19T07:17:36Z</time>
   </trkpt>
   <trkpt lat="31.807015" lon="34.964433">
    <ele>234.763</ele>
    <time>2011-04-19T07:17:49Z</time>
   </trkpt>
   <trkpt lat="31.807023" lon="34.964396">
    <ele>234.540</ele>
    <time>2011-04-19T07:17:50Z</time>
   </trkpt>
   <trkpt lat="31.807161" lon="34.963767">
    <ele>229.174</ele>
    <time>2011-04-19T07:17:59Z</time>
   </trkpt>
   <trkpt lat="31.807226" lon="34.962952">
    <ele>223.891</ele>
    <time>2011-04-19T07:18:07Z</time>
   </trkpt>
   <trkpt lat="31.807083" lon="34.962007">
    <ele>218.444</ele>
    <time>2011-04-19T07:18:15Z</time>
   </trkpt>
   <trkpt lat="31.807206" lon="34.961384">
    <ele>213.670</ele>
    <time>2011-04-19T07:18:22Z</time>
   </trkpt>
   <trkpt lat="31.807231" lon="34.961187">
    <ele>212.216</ele>
    <time>2011-04-19T07:18:25Z</time>
   </trkpt>
   <trkpt lat="31.807192" lon="34.960852">
    <ele>210.128</ele>
    <time>2011-04-19T07:18:29Z</time>
   </trkpt>
   <trkpt lat="31.807010" lon="34.960599">
    <ele>209.226</ele>
    <time>2011-04-19T07:18:33Z</time>
   </trkpt>
   <trkpt lat="31.807008" lon="34.960458">
    <ele>209.425</ele>
    <time>2011-04-19T07:18:37Z</time>
   </trkpt>
   <trkpt lat="31.807545" lon="34.960340">
    <ele>213.250</ele>
    <time>2011-04-19T07:18:58Z</time>
   </trkpt>
   <trkpt lat="31.808026" lon="34.960055">
    <ele>212.719</ele>
    <time>2011-04-19T07:19:16Z</time>
   </trkpt>
   <trkpt lat="31.808739" lon="34.959627">
    <ele>209.861</ele>
    <time>2011-04-19T07:19:37Z</time>
   </trkpt>
   <trkpt lat="31.809038" lon="34.959434">
    <ele>209.441</ele>
    <time>2011-04-19T07:19:45Z</time>
   </trkpt>
   <trkpt lat="31.809232" lon="34.959226">
    <ele>209.264</ele>
    <time>2011-04-19T07:19:50Z</time>
   </trkpt>
   <trkpt lat="31.809630" lon="34.958411">
    <ele>209.335</ele>
    <time>2011-04-19T07:20:07Z</time>
   </trkpt>
   <trkpt lat="31.809875" lon="34.957873">
    <ele>207.160</ele>
    <time>2011-04-19T07:20:22Z</time>
   </trkpt>
   <trkpt lat="31.810013" lon="34.957665">
    <ele>205.691</ele>
    <time>2011-04-19T07:20:32Z</time>
   </trkpt>
   <trkpt lat="31.810131" lon="34.957520">
    <ele>204.672</ele>
    <time>2011-04-19T07:20:36Z</time>
   </trkpt>
   <trkpt lat="31.810212" lon="34.957393">
    <ele>204.690</ele>
    <time>2011-04-19T07:20:39Z</time>
   </trkpt>
   <trkpt lat="31.810410" lon="34.956842">
    <ele>204.394</ele>
    <time>2011-04-19T07:20:50Z</time>
   </trkpt>
   <trkpt lat="31.810595" lon="34.956717">
    <ele>204.551</ele>
    <time>2011-04-19T07:20:56Z</time>
   </trkpt>
   <trkpt lat="31.810739" lon="34.956717">
    <ele>204.376</ele>
    <time>2011-04-19T07:20:59Z</time>
   </trkpt>
   <trkpt lat="31.811123" lon="34.956674">
    <ele>203.685</ele>
    <time>2011-04-19T07:21:07Z</time>
   </trkpt>
   <trkpt lat="31.811287" lon="34.956621">
    <ele>204.143</ele>
    <time>2011-04-19T07:21:11Z</time>
   </trkpt>
   <trkpt lat="31.811469" lon="34.956592">
    <ele>203.695</ele>
    <time>2011-04-19T07:21:15Z</time>
   </trkpt>
   <trkpt lat="31.811787" lon="34.956499">
    <ele>203.432</ele>
    <time>2011-04-19T07:21:22Z</time>
   </trkpt>
   <trkpt lat="31.811916" lon="34.956451">
    <ele>203.077</ele>
    <time>2011-04-19T07:21:25Z</time>
   </trkpt>
   <trkpt lat="31.812145" lon="34.956389">
    <ele>202.921</ele>
    <time>2011-04-19T07:21:31Z</time>
   </trkpt>
   <trkpt lat="31.812281" lon="34.956280">
    <ele>203.188</ele>
    <time>2011-04-19T07:21:35Z</time>
   </trkpt>
   <trkpt lat="31.812393" lon="34.956180">
    <ele>203.527</ele>
    <time>2011-04-19T07:21:38Z</time>
   </trkpt>
   <trkpt lat="31.812562" lon="34.955783">
    <ele>204.172</ele>
    <time>2011-04-19T07:21:47Z</time>
   </trkpt>
   <trkpt lat="31.812778" lon="34.955305">
    <ele>204.475</ele>
    <time>2011-04-19T07:21:59Z</time>
   </trkpt>
   <trkpt lat="31.812904" lon="34.954857">
    <ele>206.233</ele>
    <time>2011-04-19T07:22:12Z</time>
   </trkpt>
   <trkpt lat="31.813188" lon="34.954728">
    <ele>205.763</ele>
    <time>2011-04-19T07:22:21Z</time>
   </trkpt>
   <trkpt lat="31.813515" lon="34.954502">
    <ele>206.250</ele>
    <time>2011-04-19T07:22:32Z</time>
   </trkpt>
   <trkpt lat="31.813642" lon="34.954131">
    <ele>207.429</ele>
    <time>2011-04-19T07:22:43Z</time>
   </trkpt>
   <trkpt lat="31.813692" lon="34.953676">
    <ele>208.478</ele>
    <time>2011-04-19T07:22:58Z</time>
   </trkpt>
   <trkpt lat="31.813644" lon="34.953220">
    <ele>209.016</ele>
    <time>2011-04-19T07:23:12Z</time>
   </trkpt>
   <trkpt lat="31.813637" lon="34.953125">
    <ele>208.804</ele>
    <time>2011-04-19T07:23:14Z</time>
   </trkpt>
   <trkpt lat="31.813598" lon="34.952929">
    <ele>208.458</ele>
    <time>2011-04-19T07:23:18Z</time>
   </trkpt>
   <trkpt lat="31.813372" lon="34.952289">
    <ele>206.542</ele>
    <time>2011-04-19T07:23:30Z</time>
   </trkpt>
   <trkpt lat="31.813299" lon="34.952117">
    <ele>207.354</ele>
    <time>2011-04-19T07:23:33Z</time>
   </trkpt>
   <trkpt lat="31.813267" lon="34.951927">
    <ele>207.674</ele>
    <time>2011-04-19T07:23:37Z</time>
   </trkpt>
   <trkpt lat="31.813260" lon="34.951250">
    <ele>207.187</ele>
    <time>2011-04-19T07:23:52Z</time>
   </trkpt>
   <trkpt lat="31.813306" lon="34.951093">
    <ele>205.193</ele>
    <time>2011-04-19T07:23:56Z</time>
   </trkpt>
   <trkpt lat="31.813627" lon="34.950459">
    <ele>196.819</ele>
    <time>2011-04-19T07:24:09Z</time>
   </trkpt>
   <trkpt lat="31.813660" lon="34.950402">
    <ele>196.084</ele>
    <time>2011-04-19T07:24:10Z</time>
   </trkpt>
   <trkpt lat="31.813840" lon="34.950395">
    <ele>193.090</ele>
    <time>2011-04-19T07:24:17Z</time>
   </trkpt>
   <trkpt lat="31.814129" lon="34.950523">
    <ele>190.539</ele>
    <time>2011-04-19T07:24:28Z</time>
   </trkpt>
   <trkpt lat="31.814199" lon="34.950493">
    <ele>190.022</ele>
    <time>2011-04-19T07:24:30Z</time>
   </trkpt>
   <trkpt lat="31.814497" lon="34.950258">
    <ele>187.130</ele>
    <time>2011-04-19T07:24:38Z</time>
   </trkpt>
   <trkpt lat="31.814676" lon="34.950098">
    <ele>185.079</ele>
    <time>2011-04-19T07:24:42Z</time>
   </trkpt>
   <trkpt lat="31.814822" lon="34.949948">
    <ele>183.613</ele>
    <time>2011-04-19T07:24:45Z</time>
   </trkpt>
   <trkpt lat="31.814961" lon="34.949785">
    <ele>181.765</ele>
    <time>2011-04-19T07:24:48Z</time>
   </trkpt>
   <trkpt lat="31.815365" lon="34.949406">
    <ele>178.382</ele>
    <time>2011-04-19T07:24:55Z</time>
   </trkpt>
   <trkpt lat="31.816015" lon="34.948476">
    <ele>170.931</ele>
    <time>2011-04-19T07:25:08Z</time>
   </trkpt>
   <trkpt lat="31.816534" lon="34.947906">
    <ele>166.743</ele>
    <time>2011-04-19T07:25:19Z</time>
   </trkpt>
   <trkpt lat="31.816711" lon="34.947564">
    <ele>164.724</ele>
    <time>2011-04-19T07:25:25Z</time>
   </trkpt>
   <trkpt lat="31.816807" lon="34.947303">
    <ele>163.042</ele>
    <time>2011-04-19T07:25:30Z</time>
   </trkpt>
   <trkpt lat="31.816967" lon="34.947024">
    <ele>161.009</ele>
    <time>2011-04-19T07:25:35Z</time>
   </trkpt>
   <trkpt lat="31.817364" lon="34.946531">
    <ele>157.844</ele>
    <time>2011-04-19T07:25:44Z</time>
   </trkpt>
   <trkpt lat="31.817745" lon="34.946457">
    <ele>156.906</ele>
    <time>2011-04-19T07:25:53Z</time>
   </trkpt>
   <trkpt lat="31.818636" lon="34.946636">
    <ele>153.097</ele>
    <time>2011-04-19T07:26:12Z</time>
   </trkpt>
   <trkpt lat="31.819096" lon="34.946587">
    <ele>150.786</ele>
    <time>2011-04-19T07:26:20Z</time>
   </trkpt>
   <trkpt lat="31.819711" lon="34.946426">
    <ele>149.215</ele>
    <time>2011-04-19T07:26:31Z</time>
   </trkpt>
   <trkpt lat="31.820099" lon="34.946357">
    <ele>147.515</ele>
    <time>2011-04-19T07:26:38Z</time>
   </trkpt>
   <trkpt lat="31.820511" lon="34.946230">
    <ele>147.012</ele>
    <time>2011-04-19T07:26:46Z</time>
   </trkpt>
   <trkpt lat="31.821599" lon="34.946140">
    <ele>144.125</ele>
    <time>2011-04-19T07:27:05Z</time>
   </trkpt>
   <trkpt lat="31.822189" lon="34.946026">
    <ele>143.465</ele>
    <time>2011-04-19T07:27:15Z</time>
   </trkpt>
   <trkpt lat="31.822864" lon="34.945658">
    <ele>141.258</ele>
    <time>2011-04-19T07:27:29Z</time>
   </trkpt>
   <trkpt lat="31.823697" lon="34.945089">
    <ele>138.221</ele>
    <time>2011-04-19T07:27:46Z</time>
   </trkpt>
   <trkpt lat="31.824110" lon="34.944717">
    <ele>137.276</ele>
    <time>2011-04-19T07:27:56Z</time>
   </trkpt>
   <trkpt lat="31.824208" lon="34.944580">
    <ele>137.015</ele>
    <time>2011-04-19T07:27:59Z</time>
   </trkpt>
   <trkpt lat="31.824379" lon="34.944336">
    <ele>137.085</ele>
    <time>2011-04-19T07:28:10Z</time>
   </trkpt>
   <trkpt lat="31.824363" lon="34.944318">
    <ele>137.538</ele>
    <time>2011-04-19T07:28:13Z</time>
   </trkpt>
   <trkpt lat="31.824308" lon="34.944305">
    <ele>138.231</ele>
    <time>2011-04-19T07:28:19Z</time>
   </trkpt>
   <trkpt lat="31.824270" lon="34.944190">
    <ele>139.500</ele>
    <time>2011-04-19T07:28:36Z</time>
   </trkpt>
   <trkpt lat="31.824265" lon="34.944185">
    <ele>138.921</ele>
    <time>2011-04-19T07:28:55Z</time>
   </trkpt>
   <trkpt lat="31.824267" lon="34.944195">
    <ele>138.956</ele>
    <time>2011-04-19T07:30:53Z</time>
   </trkpt>
   <trkpt lat="31.824253" lon="34.944137">
    <ele>140.009</ele>
    <time>2011-04-19T07:30:59Z</time>
   </trkpt>
   <trkpt lat="31.824173" lon="34.943897">
    <ele>142.915</ele>
    <time>2011-04-19T07:31:21Z</time>
   </trkpt>
   <trkpt lat="31.824182" lon="34.943734">
    <ele>142.895</ele>
    <time>2011-04-19T07:31:32Z</time>
   </trkpt>
   <trkpt lat="31.824248" lon="34.943226">
    <ele>142.983</ele>
    <time>2011-04-19T07:31:48Z</time>
   </trkpt>
   <trkpt lat="31.824287" lon="34.942756">
    <ele>141.873</ele>
    <time>2011-04-19T07:32:00Z</time>
   </trkpt>
   <trkpt lat="31.824342" lon="34.941947">
    <ele>138.564</ele>
    <time>2011-04-19T07:32:17Z</time>
   </trkpt>
   <trkpt lat="31.824379" lon="34.941782">
    <ele>138.191</ele>
    <time>2011-04-19T07:32:22Z</time>
   </trkpt>
   <trkpt lat="31.824339" lon="34.941749">
    <ele>138.543</ele>
    <time>2011-04-19T07:32:26Z</time>
   </trkpt>
   <trkpt lat="31.824078" lon="34.941476">
    <ele>140.118</ele>
    <time>2011-04-19T07:32:47Z</time>
   </trkpt>
   <trkpt lat="31.823837" lon="34.940951">
    <ele>141.417</ele>
    <time>2011-04-19T07:33:04Z</time>
   </trkpt>
   <trkpt lat="31.823659" lon="34.940658">
    <ele>141.614</ele>
    <time>2011-04-19T07:33:17Z</time>
   </trkpt>
   <trkpt lat="31.823557" lon="34.940508">
    <ele>142.260</ele>
    <time>2011-04-19T07:33:30Z</time>
   </trkpt>
   <trkpt lat="31.823500" lon="34.940422">
    <ele>142.863</ele>
    <time>2011-04-19T07:33:41Z</time>
   </trkpt>
   <trkpt lat="31.823397" lon="34.940203">
    <ele>143.922</ele>
    <time>2011-04-19T07:34:02Z</time>
   </trkpt>
   <trkpt lat="31.823161" lon="34.939766">
    <ele>145.255</ele>
    <time>2011-04-19T07:34:19Z</time>
   </trkpt>
   <trkpt lat="31.822973" lon="34.939075">
    <ele>144.110</ele>
    <time>2011-04-19T07:34:39Z</time>
   </trkpt>
   <trkpt lat="31.822997" lon="34.938948">
    <ele>143.307</ele>
    <time>2011-04-19T07:34:42Z</time>
   </trkpt>
   <trkpt lat="31.823099" lon="34.938601">
    <ele>141.924</ele>
    <time>2011-04-19T07:34:49Z</time>
   </trkpt>
   <trkpt lat="31.823091" lon="34.938358">
    <ele>141.455</ele>
    <time>2011-04-19T07:34:53Z</time>
   </trkpt>
   <trkpt lat="31.822809" lon="34.937651">
    <ele>141.907</ele>
    <time>2011-04-19T07:35:10Z</time>
   </trkpt>
   <trkpt lat="31.822798" lon="34.937356">
    <ele>141.589</ele>
    <time>2011-04-19T07:35:17Z</time>
   </trkpt>
   <trkpt lat="31.822872" lon="34.937244">
    <ele>141.480</ele>
    <time>2011-04-19T07:35:20Z</time>
   </trkpt>
   <trkpt lat="31.823047" lon="34.937213">
    <ele>140.073</ele>
    <time>2011-04-19T07:35:24Z</time>
   </trkpt>
   <trkpt lat="31.823311" lon="34.937232">
    <ele>138.468</ele>
    <time>2011-04-19T07:35:29Z</time>
   </trkpt>
   <trkpt lat="31.823524" lon="34.936998">
    <ele>136.395</ele>
    <time>2011-04-19T07:35:37Z</time>
   </trkpt>
   <trkpt lat="31.823521" lon="34.935953">
    <ele>135.791</ele>
    <time>2011-04-19T07:35:56Z</time>
   </trkpt>
   <trkpt lat="31.823490" lon="34.935453">
    <ele>135.474</ele>
    <time>2011-04-19T07:36:05Z</time>
   </trkpt>
   <trkpt lat="31.823628" lon="34.935238">
    <ele>133.797</ele>
    <time>2011-04-19T07:36:12Z</time>
   </trkpt>
   <trkpt lat="31.823700" lon="34.935208">
    <ele>133.550</ele>
    <time>2011-04-19T07:36:14Z</time>
   </trkpt>
   <trkpt lat="31.823764" lon="34.935069">
    <ele>132.852</ele>
    <time>2011-04-19T07:36:18Z</time>
   </trkpt>
   <trkpt lat="31.823762" lon="34.934636">
    <ele>131.578</ele>
    <time>2011-04-19T07:36:27Z</time>
   </trkpt>
   <trkpt lat="31.823522" lon="34.933740">
    <ele>131.291</ele>
    <time>2011-04-19T07:36:45Z</time>
   </trkpt>
   <trkpt lat="31.823144" lon="34.932707">
    <ele>130.063</ele>
    <time>2011-04-19T07:37:05Z</time>
   </trkpt>
   <trkpt lat="31.822921" lon="34.932509">
    <ele>130.252</ele>
    <time>2011-04-19T07:37:11Z</time>
   </trkpt>
   <trkpt lat="31.822641" lon="34.932515">
    <ele>131.272</ele>
    <time>2011-04-19T07:37:17Z</time>
   </trkpt>
   <trkpt lat="31.822454" lon="34.932415">
    <ele>132.008</ele>
    <time>2011-04-19T07:37:22Z</time>
   </trkpt>
   <trkpt lat="31.822344" lon="34.932216">
    <ele>131.782</ele>
    <time>2011-04-19T07:37:27Z</time>
   </trkpt>
   <trkpt lat="31.822447" lon="34.931939">
    <ele>129.499</ele>
    <time>2011-04-19T07:37:36Z</time>
   </trkpt>
   <trkpt lat="31.822481" lon="34.931969">
    <ele>129.217</ele>
    <time>2011-04-19T07:37:37Z</time>
   </trkpt>
   <trkpt lat="31.822554" lon="34.932036">
    <ele>128.701</ele>
    <time>2011-04-19T07:37:39Z</time>
   </trkpt>
   <trkpt lat="31.822720" lon="34.932080">
    <ele>128.049</ele>
    <time>2011-04-19T07:37:43Z</time>
   </trkpt>
   <trkpt lat="31.823005" lon="34.931997">
    <ele>126.988</ele>
    <time>2011-04-19T07:37:49Z</time>
   </trkpt>
   <trkpt lat="31.823255" lon="34.931908">
    <ele>126.731</ele>
    <time>2011-04-19T07:37:55Z</time>
   </trkpt>
   <trkpt lat="31.823462" lon="34.931920">
    <ele>125.730</ele>
    <time>2011-04-19T07:38:00Z</time>
   </trkpt>
   <trkpt lat="31.823651" lon="34.931968">
    <ele>124.948</ele>
    <time>2011-04-19T07:38:05Z</time>
   </trkpt>
   <trkpt lat="31.823772" lon="34.931847">
    <ele>124.074</ele>
    <time>2011-04-19T07:38:10Z</time>
   </trkpt>
   <trkpt lat="31.823954" lon="34.931740">
    <ele>124.174</ele>
    <time>2011-04-19T07:38:21Z</time>
   </trkpt>
   <trkpt lat="31.823983" lon="34.931714">
    <ele>124.679</ele>
    <time>2011-04-19T07:38:47Z</time>
   </trkpt>
   <trkpt lat="31.824369" lon="34.931585">
    <ele>125.078</ele>
    <time>2011-04-19T07:39:04Z</time>
   </trkpt>
   <trkpt lat="31.824758" lon="34.931337">
    <ele>128.374</ele>
    <time>2011-04-19T07:39:17Z</time>
   </trkpt>
   <trkpt lat="31.825038" lon="34.931107">
    <ele>129.800</ele>
    <time>2011-04-19T07:39:28Z</time>
   </trkpt>
   <trkpt lat="31.825080" lon="34.931055">
    <ele>129.708</ele>
    <time>2011-04-19T07:39:30Z</time>
   </trkpt>
   <trkpt lat="31.825185" lon="34.931115">
    <ele>129.341</ele>
    <time>2011-04-19T07:39:34Z</time>
   </trkpt>
   <trkpt lat="31.825560" lon="34.931421">
    <ele>128.908</ele>
    <time>2011-04-19T07:39:48Z</time>
   </trkpt>
   <trkpt lat="31.826093" lon="34.931307">
    <ele>130.874</ele>
    <time>2011-04-19T07:40:04Z</time>
   </trkpt>
   <trkpt lat="31.826563" lon="34.931282">
    <ele>131.594</ele>
    <time>2011-04-19T07:40:19Z</time>
   </trkpt>
   <trkpt lat="31.827168" lon="34.931474">
    <ele>131.808</ele>
    <time>2011-04-19T07:40:40Z</time>
   </trkpt>
   <trkpt lat="31.827708" lon="34.931714">
    <ele>133.411</ele>
    <time>2011-04-19T07:40:59Z</time>
   </trkpt>
   <trkpt lat="31.828430" lon="34.931804">
    <ele>135.516</ele>
    <time>2011-04-19T07:41:24Z</time>
   </trkpt>
   <trkpt lat="31.828879" lon="34.932126">
    <ele>137.082</ele>
    <time>2011-04-19T07:41:44Z</time>
   </trkpt>
   <trkpt lat="31.829424" lon="34.932252">
    <ele>139.183</ele>
    <time>2011-04-19T07:42:06Z</time>
   </trkpt>
   <trkpt lat="31.829946" lon="34.932333">
    <ele>141.270</ele>
    <time>2011-04-19T07:42:26Z</time>
   </trkpt>
   <trkpt lat="31.830603" lon="34.932565">
    <ele>142.091</ele>
    <time>2011-04-19T07:42:50Z</time>
   </trkpt>
   <trkpt lat="31.831148" lon="34.932712">
    <ele>142.965</ele>
    <time>2011-04-19T07:43:08Z</time>
   </trkpt>
   <trkpt lat="31.831745" lon="34.932770">
    <ele>143.877</ele>
    <time>2011-04-19T07:43:27Z</time>
   </trkpt>
   <trkpt lat="31.832590" lon="34.932758">
    <ele>146.992</ele>
    <time>2011-04-19T07:43:51Z</time>
   </trkpt>
   <trkpt lat="31.833149" lon="34.932704">
    <ele>149.860</ele>
    <time>2011-04-19T07:44:11Z</time>
   </trkpt>
   <trkpt lat="31.833624" lon="34.932524">
    <ele>152.472</ele>
    <time>2011-04-19T07:44:30Z</time>
   </trkpt>
   <trkpt lat="31.833824" lon="34.932298">
    <ele>152.949</ele>
    <time>2011-04-19T07:44:43Z</time>
   </trkpt>
   <trkpt lat="31.833861" lon="34.932257">
    <ele>153.259</ele>
    <time>2011-04-19T07:44:45Z</time>
   </trkpt>
   <trkpt lat="31.834305" lon="34.932278">
    <ele>154.962</ele>
    <time>2011-04-19T07:45:02Z</time>
   </trkpt>
   <trkpt lat="31.834661" lon="34.932125">
    <ele>156.562</ele>
    <time>2011-04-19T07:45:16Z</time>
   </trkpt>
   <trkpt lat="31.835035" lon="34.931979">
    <ele>157.752</ele>
    <time>2011-04-19T07:45:31Z</time>
   </trkpt>
   <trkpt lat="31.835311" lon="34.931804">
    <ele>158.933</ele>
    <time>2011-04-19T07:45:44Z</time>
   </trkpt>
   <trkpt lat="31.835576" lon="34.932013">
    <ele>160.069</ele>
    <time>2011-04-19T07:45:58Z</time>
   </trkpt>
   <trkpt lat="31.835904" lon="34.932229">
    <ele>161.316</ele>
    <time>2011-04-19T07:46:13Z</time>
   </trkpt>
   <trkpt lat="31.836352" lon="34.932294">
    <ele>163.835</ele>
    <time>2011-04-19T07:46:34Z</time>
   </trkpt>
   <trkpt lat="31.836532" lon="34.932333">
    <ele>165.253</ele>
    <time>2011-04-19T07:46:45Z</time>
   </trkpt>
   <trkpt lat="31.836924" lon="34.932412">
    <ele>166.958</ele>
    <time>2011-04-19T07:47:06Z</time>
   </trkpt>
   <trkpt lat="31.837381" lon="34.932550">
    <ele>168.579</ele>
    <time>2011-04-19T07:47:30Z</time>
   </trkpt>
   <trkpt lat="31.837638" lon="34.932500">
    <ele>169.873</ele>
    <time>2011-04-19T07:47:47Z</time>
   </trkpt>
   <trkpt lat="31.837904" lon="34.932481">
    <ele>173.736</ele>
    <time>2011-04-19T07:48:07Z</time>
   </trkpt>
   <trkpt lat="31.838130" lon="34.932521">
    <ele>175.020</ele>
    <time>2011-04-19T07:48:26Z</time>
   </trkpt>
   <trkpt lat="31.838189" lon="34.932474">
    <ele>176.121</ele>
    <time>2011-04-19T07:48:50Z</time>
   </trkpt>
   <trkpt lat="31.838217" lon="34.932470">
    <ele>179.107</ele>
    <time>2011-04-19T07:57:03Z</time>
   </trkpt>
   <trkpt lat="31.838320" lon="34.932470">
    <ele>181.671</ele>
    <time>2011-04-19T07:57:12Z</time>
   </trkpt>
   <trkpt lat="31.838488" lon="34.932379">
    <ele>185.329</ele>
    <time>2011-04-19T07:57:28Z</time>
   </trkpt>
   <trkpt lat="31.838531" lon="34.932342">
    <ele>186.193</ele>
    <time>2011-04-19T07:57:32Z</time>
   </trkpt>
   <trkpt lat="31.838651" lon="34.932289">
    <ele>188.076</ele>
    <time>2011-04-19T07:57:41Z</time>
   </trkpt>
   <trkpt lat="31.838868" lon="34.932187">
    <ele>191.690</ele>
    <time>2011-04-19T07:57:59Z</time>
   </trkpt>
   <trkpt lat="31.838982" lon="34.932151">
    <ele>193.358</ele>
    <time>2011-04-19T07:58:09Z</time>
   </trkpt>
   <trkpt lat="31.839041" lon="34.932163">
    <ele>194.177</ele>
    <time>2011-04-19T07:58:15Z</time>
   </trkpt>
   <trkpt lat="31.839054" lon="34.932176">
    <ele>194.417</ele>
    <time>2011-04-19T07:58:17Z</time>
   </trkpt>
   <trkpt lat="31.839166" lon="34.932222">
    <ele>196.721</ele>
    <time>2011-04-19T07:58:27Z</time>
   </trkpt>
   <trkpt lat="31.839268" lon="34.932303">
    <ele>197.181</ele>
    <time>2011-04-19T07:58:36Z</time>
   </trkpt>
   <trkpt lat="31.839300" lon="34.932381">
    <ele>198.032</ele>
    <time>2011-04-19T07:58:42Z</time>
   </trkpt>
   <trkpt lat="31.839366" lon="34.932772">
    <ele>198.209</ele>
    <time>2011-04-19T07:58:58Z</time>
   </trkpt>
   <trkpt lat="31.839468" lon="34.933338">
    <ele>199.689</ele>
    <time>2011-04-19T07:59:18Z</time>
   </trkpt>
   <trkpt lat="31.839681" lon="34.933767">
    <ele>203.725</ele>
    <time>2011-04-19T07:59:36Z</time>
   </trkpt>
   <trkpt lat="31.839928" lon="34.934176">
    <ele>205.405</ele>
    <time>2011-04-19T07:59:52Z</time>
   </trkpt>
   <trkpt lat="31.840367" lon="34.934711">
    <ele>199.593</ele>
    <time>2011-04-19T08:00:02Z</time>
   </trkpt>
   <trkpt lat="31.840433" lon="34.934783">
    <ele>199.203</ele>
    <time>2011-04-19T08:00:03Z</time>
   </trkpt>
   <trkpt lat="31.840801" lon="34.934994">
    <ele>200.334</ele>
    <time>2011-04-19T08:00:08Z</time>
   </trkpt>
   <trkpt lat="31.841091" lon="34.934978">
    <ele>204.078</ele>
    <time>2011-04-19T08:00:17Z</time>
   </trkpt>
   <trkpt lat="31.841373" lon="34.934854">
    <ele>207.908</ele>
    <time>2011-04-19T08:00:34Z</time>
   </trkpt>
   <trkpt lat="31.841715" lon="34.934973">
    <ele>209.553</ele>
    <time>2011-04-19T08:00:54Z</time>
   </trkpt>
   <trkpt lat="31.841761" lon="34.935430">
    <ele>209.660</ele>
    <time>2011-04-19T08:01:06Z</time>
   </trkpt>
   <trkpt lat="31.841739" lon="34.936422">
    <ele>209.239</ele>
    <time>2011-04-19T08:01:25Z</time>
   </trkpt>
   <trkpt lat="31.841745" lon="34.936476">
    <ele>209.868</ele>
    <time>2011-04-19T08:01:26Z</time>
   </trkpt>
   <trkpt lat="31.841737" lon="34.937345">
    <ele>211.509</ele>
    <time>2011-04-19T08:01:41Z</time>
   </trkpt>
   <trkpt lat="31.841670" lon="34.937923">
    <ele>212.790</ele>
    <time>2011-04-19T08:01:56Z</time>
   </trkpt>
   <trkpt lat="31.841517" lon="34.938105">
    <ele>211.645</ele>
    <time>2011-04-19T08:02:02Z</time>
   </trkpt>
   <trkpt lat="31.841289" lon="34.938227">
    <ele>210.038</ele>
    <time>2011-04-19T08:02:07Z</time>
   </trkpt>
   <trkpt lat="31.841191" lon="34.938266">
    <ele>209.389</ele>
    <time>2011-04-19T08:02:09Z</time>
   </trkpt>
   <trkpt lat="31.841053" lon="34.938594">
    <ele>207.235</ele>
    <time>2011-04-19T08:02:15Z</time>
   </trkpt>
   <trkpt lat="31.841021" lon="34.938950">
    <ele>204.520</ele>
    <time>2011-04-19T08:02:20Z</time>
   </trkpt>
   <trkpt lat="31.840987" lon="34.939382">
    <ele>202.632</ele>
    <time>2011-04-19T08:02:25Z</time>
   </trkpt>
   <trkpt lat="31.841209" lon="34.939851">
    <ele>202.634</ele>
    <time>2011-04-19T08:02:32Z</time>
   </trkpt>
   <trkpt lat="31.841467" lon="34.939910">
    <ele>202.454</ele>
    <time>2011-04-19T08:02:37Z</time>
   </trkpt>
   <trkpt lat="31.841592" lon="34.939884">
    <ele>202.967</ele>
    <time>2011-04-19T08:02:47Z</time>
   </trkpt>
   <trkpt lat="31.841598" lon="34.939884">
    <ele>203.332</ele>
    <time>2011-04-19T08:03:13Z</time>
   </trkpt>
   <trkpt lat="31.841663" lon="34.939886">
    <ele>203.070</ele>
    <time>2011-04-19T08:03:29Z</time>
   </trkpt>
   <trkpt lat="31.842134" lon="34.939798">
    <ele>202.673</ele>
    <time>2011-04-19T08:03:40Z</time>
   </trkpt>
   <trkpt lat="31.842800" lon="34.939649">
    <ele>202.731</ele>
    <time>2011-04-19T08:03:53Z</time>
   </trkpt>
   <trkpt lat="31.842928" lon="34.939651">
    <ele>202.902</ele>
    <time>2011-04-19T08:03:56Z</time>
   </trkpt>
   <trkpt lat="31.843271" lon="34.939507">
    <ele>206.471</ele>
    <time>2011-04-19T08:04:09Z</time>
   </trkpt>
   <trkpt lat="31.843499" lon="34.939408">
    <ele>209.258</ele>
    <time>2011-04-19T08:04:24Z</time>
   </trkpt>
   <trkpt lat="31.843748" lon="34.939328">
    <ele>212.680</ele>
    <time>2011-04-19T08:04:43Z</time>
   </trkpt>
   <trkpt lat="31.843765" lon="34.939326">
    <ele>213.023</ele>
    <time>2011-04-19T08:04:44Z</time>
   </trkpt>
   <trkpt lat="31.843786" lon="34.939306">
    <ele>212.945</ele>
    <time>2011-04-19T08:04:47Z</time>
   </trkpt>
   <trkpt lat="31.843957" lon="34.939285">
    <ele>215.856</ele>
    <time>2011-04-19T08:04:57Z</time>
   </trkpt>
   <trkpt lat="31.844153" lon="34.939103">
    <ele>220.663</ele>
    <time>2011-04-19T08:05:17Z</time>
   </trkpt>
   <trkpt lat="31.844238" lon="34.939038">
    <ele>222.368</ele>
    <time>2011-04-19T08:05:26Z</time>
   </trkpt>
   <trkpt lat="31.844380" lon="34.938992">
    <ele>222.996</ele>
    <time>2011-04-19T08:05:35Z</time>
   </trkpt>
   <trkpt lat="31.844803" lon="34.939259">
    <ele>223.785</ele>
    <time>2011-04-19T08:05:55Z</time>
   </trkpt>
   <trkpt lat="31.845146" lon="34.939634">
    <ele>223.179</ele>
    <time>2011-04-19T08:06:09Z</time>
   </trkpt>
   <trkpt lat="31.845198" lon="34.939670">
    <ele>222.913</ele>
    <time>2011-04-19T08:06:11Z</time>
   </trkpt>
   <trkpt lat="31.845699" lon="34.939691">
    <ele>226.300</ele>
    <time>2011-04-19T08:06:29Z</time>
   </trkpt>
   <trkpt lat="31.846205" lon="34.939728">
    <ele>229.632</ele>
    <time>2011-04-19T08:06:49Z</time>
   </trkpt>
   <trkpt lat="31.846571" lon="34.939865">
    <ele>228.563</ele>
    <time>2011-04-19T08:07:05Z</time>
   </trkpt>
   <trkpt lat="31.846611" lon="34.939950">
    <ele>227.654</ele>
    <time>2011-04-19T08:07:08Z</time>
   </trkpt>
   <trkpt lat="31.846527" lon="34.940291">
    <ele>224.300</ele>
    <time>2011-04-19T08:07:15Z</time>
   </trkpt>
   <trkpt lat="31.846519" lon="34.940562">
    <ele>222.165</ele>
    <time>2011-04-19T08:07:19Z</time>
   </trkpt>
   <trkpt lat="31.846636" lon="34.940825">
    <ele>220.392</ele>
    <time>2011-04-19T08:07:24Z</time>
   </trkpt>
   <trkpt lat="31.846796" lon="34.941081">
    <ele>218.380</ele>
    <time>2011-04-19T08:07:33Z</time>
   </trkpt>
   <trkpt lat="31.846779" lon="34.941600">
    <ele>214.748</ele>
    <time>2011-04-19T08:07:45Z</time>
   </trkpt>
   <trkpt lat="31.846862" lon="34.941777">
    <ele>213.219</ele>
    <time>2011-04-19T08:07:49Z</time>
   </trkpt>
   <trkpt lat="31.847242" lon="34.942220">
    <ele>212.045</ele>
    <time>2011-04-19T08:07:59Z</time>
   </trkpt>
   <trkpt lat="31.847534" lon="34.942427">
    <ele>213.273</ele>
    <time>2011-04-19T08:08:07Z</time>
   </trkpt>
   <trkpt lat="31.847592" lon="34.942503">
    <ele>212.974</ele>
    <time>2011-04-19T08:08:09Z</time>
   </trkpt>
   <trkpt lat="31.847644" lon="34.942593">
    <ele>212.641</ele>
    <time>2011-04-19T08:08:11Z</time>
   </trkpt>
   <trkpt lat="31.847679" lon="34.942692">
    <ele>212.358</ele>
    <time>2011-04-19T08:08:13Z</time>
   </trkpt>
   <trkpt lat="31.847707" lon="34.942799">
    <ele>212.507</ele>
    <time>2011-04-19T08:08:15Z</time>
   </trkpt>
   <trkpt lat="31.847583" lon="34.943216">
    <ele>214.049</ele>
    <time>2011-04-19T08:08:24Z</time>
   </trkpt>
   <trkpt lat="31.847577" lon="34.943310">
    <ele>214.317</ele>
    <time>2011-04-19T08:08:26Z</time>
   </trkpt>
   <trkpt lat="31.847624" lon="34.943650">
    <ele>213.796</ele>
    <time>2011-04-19T08:08:33Z</time>
   </trkpt>
   <trkpt lat="31.847707" lon="34.943861">
    <ele>212.848</ele>
    <time>2011-04-19T08:08:37Z</time>
   </trkpt>
   <trkpt lat="31.847877" lon="34.944024">
    <ele>211.915</ele>
    <time>2011-04-19T08:08:41Z</time>
   </trkpt>
   <trkpt lat="31.848096" lon="34.944215">
    <ele>210.577</ele>
    <time>2011-04-19T08:08:46Z</time>
   </trkpt>
   <trkpt lat="31.848221" lon="34.944535">
    <ele>208.401</ele>
    <time>2011-04-19T08:08:51Z</time>
   </trkpt>
   <trkpt lat="31.848395" lon="34.944897">
    <ele>205.175</ele>
    <time>2011-04-19T08:08:58Z</time>
   </trkpt>
   <trkpt lat="31.848393" lon="34.945011">
    <ele>204.048</ele>
    <time>2011-04-19T08:09:09Z</time>
   </trkpt>
   <trkpt lat="31.848392" lon="34.945008">
    <ele>203.683</ele>
    <time>2011-04-19T08:09:20Z</time>
   </trkpt>
   <trkpt lat="31.848505" lon="34.944948">
    <ele>202.798</ele>
    <time>2011-04-19T08:09:28Z</time>
   </trkpt>
   <trkpt lat="31.848581" lon="34.944960">
    <ele>201.509</ele>
    <time>2011-04-19T08:09:30Z</time>
   </trkpt>
   <trkpt lat="31.848893" lon="34.945060">
    <ele>197.822</ele>
    <time>2011-04-19T08:09:38Z</time>
   </trkpt>
   <trkpt lat="31.849124" lon="34.945229">
    <ele>193.420</ele>
    <time>2011-04-19T08:09:43Z</time>
   </trkpt>
   <trkpt lat="31.849337" lon="34.945109">
    <ele>190.791</ele>
    <time>2011-04-19T08:09:49Z</time>
   </trkpt>
   <trkpt lat="31.849351" lon="34.945068">
    <ele>190.251</ele>
    <time>2011-04-19T08:09:51Z</time>
   </trkpt>
   <trkpt lat="31.849660" lon="34.944580">
    <ele>185.617</ele>
    <time>2011-04-19T08:10:02Z</time>
   </trkpt>
   <trkpt lat="31.850015" lon="34.944112">
    <ele>179.987</ele>
    <time>2011-04-19T08:10:11Z</time>
   </trkpt>
   <trkpt lat="31.850242" lon="34.944064">
    <ele>175.446</ele>
    <time>2011-04-19T08:10:17Z</time>
   </trkpt>
   <trkpt lat="31.850609" lon="34.944144">
    <ele>168.839</ele>
    <time>2011-04-19T08:10:28Z</time>
   </trkpt>
   <trkpt lat="31.850656" lon="34.944150">
    <ele>168.040</ele>
    <time>2011-04-19T08:10:29Z</time>
   </trkpt>
   <trkpt lat="31.850921" lon="34.944010">
    <ele>165.622</ele>
    <time>2011-04-19T08:10:35Z</time>
   </trkpt>
   <trkpt lat="31.851125" lon="34.943592">
    <ele>166.284</ele>
    <time>2011-04-19T08:10:47Z</time>
   </trkpt>
   <trkpt lat="31.851377" lon="34.943130">
    <ele>165.949</ele>
    <time>2011-04-19T08:11:04Z</time>
   </trkpt>
   <trkpt lat="31.851514" lon="34.943040">
    <ele>165.759</ele>
    <time>2011-04-19T08:11:08Z</time>
   </trkpt>
   <trkpt lat="31.851657" lon="34.942920">
    <ele>165.119</ele>
    <time>2011-04-19T08:11:12Z</time>
   </trkpt>
   <trkpt lat="31.851741" lon="34.942752">
    <ele>163.423</ele>
    <time>2011-04-19T08:11:16Z</time>
   </trkpt>
   <trkpt lat="31.851863" lon="34.942594">
    <ele>161.660</ele>
    <time>2011-04-19T08:11:20Z</time>
   </trkpt>
   <trkpt lat="31.851871" lon="34.942417">
    <ele>160.905</ele>
    <time>2011-04-19T08:11:24Z</time>
   </trkpt>
   <trkpt lat="31.851531" lon="34.941808">
    <ele>162.647</ele>
    <time>2011-04-19T08:11:42Z</time>
   </trkpt>
   <trkpt lat="31.851211" lon="34.941339">
    <ele>165.062</ele>
    <time>2011-04-19T08:11:58Z</time>
   </trkpt>
   <trkpt lat="31.850869" lon="34.941381">
    <ele>167.492</ele>
    <time>2011-04-19T08:12:12Z</time>
   </trkpt>
   <trkpt lat="31.850677" lon="34.941788">
    <ele>168.536</ele>
    <time>2011-04-19T08:12:28Z</time>
   </trkpt>
   <trkpt lat="31.850493" lon="34.941808">
    <ele>170.167</ele>
    <time>2011-04-19T08:12:38Z</time>
   </trkpt>
   <trkpt lat="31.850292" lon="34.941344">
    <ele>170.839</ele>
    <time>2011-04-19T08:12:52Z</time>
   </trkpt>
   <trkpt lat="31.850044" lon="34.940975">
    <ele>172.230</ele>
    <time>2011-04-19T08:13:05Z</time>
   </trkpt>
   <trkpt lat="31.849701" lon="34.940506">
    <ele>175.675</ele>
    <time>2011-04-19T08:13:24Z</time>
   </trkpt>
   <trkpt lat="31.849598" lon="34.940039">
    <ele>179.034</ele>
    <time>2011-04-19T08:13:41Z</time>
   </trkpt>
   <trkpt lat="31.849888" lon="34.939643">
    <ele>178.712</ele>
    <time>2011-04-19T08:13:55Z</time>
   </trkpt>
   <trkpt lat="31.850167" lon="34.939315">
    <ele>178.125</ele>
    <time>2011-04-19T08:14:03Z</time>
   </trkpt>
   <trkpt lat="31.850549" lon="34.938964">
    <ele>179.255</ele>
    <time>2011-04-19T08:14:13Z</time>
   </trkpt>
   <trkpt lat="31.850705" lon="34.938548">
    <ele>183.885</ele>
    <time>2011-04-19T08:14:25Z</time>
   </trkpt>
   <trkpt lat="31.851020" lon="34.938261">
    <ele>185.618</ele>
    <time>2011-04-19T08:14:43Z</time>
   </trkpt>
   <trkpt lat="31.851540" lon="34.938083">
    <ele>186.051</ele>
    <time>2011-04-19T08:15:01Z</time>
   </trkpt>
   <trkpt lat="31.851709" lon="34.937687">
    <ele>189.021</ele>
    <time>2011-04-19T08:15:17Z</time>
   </trkpt>
   <trkpt lat="31.851679" lon="34.937404">
    <ele>192.430</ele>
    <time>2011-04-19T08:15:31Z</time>
   </trkpt>
   <trkpt lat="31.851948" lon="34.937179">
    <ele>195.722</ele>
    <time>2011-04-19T08:15:49Z</time>
   </trkpt>
   <trkpt lat="31.852367" lon="34.937113">
    <ele>194.911</ele>
    <time>2011-04-19T08:16:07Z</time>
   </trkpt>
   <trkpt lat="31.852433" lon="34.937149">
    <ele>194.408</ele>
    <time>2011-04-19T08:16:09Z</time>
   </trkpt>
   <trkpt lat="31.852624" lon="34.937309">
    <ele>192.130</ele>
    <time>2011-04-19T08:16:14Z</time>
   </trkpt>
   <trkpt lat="31.852763" lon="34.937643">
    <ele>189.835</ele>
    <time>2011-04-19T08:16:19Z</time>
   </trkpt>
   <trkpt lat="31.853071" lon="34.937901">
    <ele>188.841</ele>
    <time>2011-04-19T08:16:26Z</time>
   </trkpt>
   <trkpt lat="31.853116" lon="34.937876">
    <ele>189.179</ele>
    <time>2011-04-19T08:16:27Z</time>
   </trkpt>
   <trkpt lat="31.853203" lon="34.937826">
    <ele>189.808</ele>
    <time>2011-04-19T08:16:29Z</time>
   </trkpt>
   <trkpt lat="31.853372" lon="34.937704">
    <ele>190.224</ele>
    <time>2011-04-19T08:16:33Z</time>
   </trkpt>
   <trkpt lat="31.853487" lon="34.937493">
    <ele>189.845</ele>
    <time>2011-04-19T08:16:37Z</time>
   </trkpt>
   <trkpt lat="31.853528" lon="34.937245">
    <ele>189.152</ele>
    <time>2011-04-19T08:16:41Z</time>
   </trkpt>
   <trkpt lat="31.853694" lon="34.937126">
    <ele>186.544</ele>
    <time>2011-04-19T08:16:46Z</time>
   </trkpt>
   <trkpt lat="31.853981" lon="34.937087">
    <ele>183.703</ele>
    <time>2011-04-19T08:16:50Z</time>
   </trkpt>
   <trkpt lat="31.854305" lon="34.937168">
    <ele>181.640</ele>
    <time>2011-04-19T08:16:54Z</time>
   </trkpt>
   <trkpt lat="31.854887" lon="34.937498">
    <ele>176.327</ele>
    <time>2011-04-19T08:17:01Z</time>
   </trkpt>
   <trkpt lat="31.855661" lon="34.937591">
    <ele>170.352</ele>
    <time>2011-04-19T08:17:10Z</time>
   </trkpt>
   <trkpt lat="31.856402" lon="34.937457">
    <ele>166.428</ele>
    <time>2011-04-19T08:17:18Z</time>
   </trkpt>
   <trkpt lat="31.856767" lon="34.937481">
    <ele>165.441</ele>
    <time>2011-04-19T08:17:22Z</time>
   </trkpt>
   <trkpt lat="31.857176" lon="34.937594">
    <ele>166.511</ele>
    <time>2011-04-19T08:17:28Z</time>
   </trkpt>
   <trkpt lat="31.857283" lon="34.937506">
    <ele>167.102</ele>
    <time>2011-04-19T08:17:36Z</time>
   </trkpt>
   <trkpt lat="31.857296" lon="34.937431">
    <ele>167.140</ele>
    <time>2011-04-19T08:18:30Z</time>
   </trkpt>
   <trkpt lat="31.857298" lon="34.936939">
    <ele>164.779</ele>
    <time>2011-04-19T08:18:45Z</time>
   </trkpt>
   <trkpt lat="31.857226" lon="34.936692">
    <ele>163.687</ele>
    <time>2011-04-19T08:18:50Z</time>
   </trkpt>
   <trkpt lat="31.857180" lon="34.936523">
    <ele>162.796</ele>
    <time>2011-04-19T08:18:53Z</time>
   </trkpt>
   <trkpt lat="31.857300" lon="34.935736">
    <ele>162.100</ele>
    <time>2011-04-19T08:19:07Z</time>
   </trkpt>
   <trkpt lat="31.857386" lon="34.935530">
    <ele>161.377</ele>
    <time>2011-04-19T08:19:12Z</time>
   </trkpt>
   <trkpt lat="31.857402" lon="34.935315">
    <ele>160.025</ele>
    <time>2011-04-19T08:19:16Z</time>
   </trkpt>
   <trkpt lat="31.857485" lon="34.935070">
    <ele>158.352</ele>
    <time>2011-04-19T08:19:20Z</time>
   </trkpt>
   <trkpt lat="31.858245" lon="34.934316">
    <ele>155.444</ele>
    <time>2011-04-19T08:19:35Z</time>
   </trkpt>
   <trkpt lat="31.858839" lon="34.933506">
    <ele>153.915</ele>
    <time>2011-04-19T08:19:51Z</time>
   </trkpt>
   <trkpt lat="31.858905" lon="34.933408">
    <ele>153.725</ele>
    <time>2011-04-19T08:19:53Z</time>
   </trkpt>
   <trkpt lat="31.859154" lon="34.933097">
    <ele>152.664</ele>
    <time>2011-04-19T08:20:00Z</time>
   </trkpt>
   <trkpt lat="31.859875" lon="34.932625">
    <ele>149.676</ele>
    <time>2011-04-19T08:20:14Z</time>
   </trkpt>
   <trkpt lat="31.860108" lon="34.932524">
    <ele>148.812</ele>
    <time>2011-04-19T08:20:18Z</time>
   </trkpt>
   <trkpt lat="31.860314" lon="34.932492">
    <ele>148.076</ele>
    <time>2011-04-19T08:20:23Z</time>
   </trkpt>
   <trkpt lat="31.860869" lon="34.932429">
    <ele>147.174</ele>
    <time>2011-04-19T08:20:37Z</time>
   </trkpt>
   <trkpt lat="31.860955" lon="34.932403">
    <ele>146.904</ele>
    <time>2011-04-19T08:20:39Z</time>
   </trkpt>
   <trkpt lat="31.861216" lon="34.932257">
    <ele>145.588</ele>
    <time>2011-04-19T08:20:45Z</time>
   </trkpt>
   <trkpt lat="31.861727" lon="34.932260">
    <ele>144.799</ele>
    <time>2011-04-19T08:20:55Z</time>
   </trkpt>
   <trkpt lat="31.862005" lon="34.932359">
    <ele>145.034</ele>
    <time>2011-04-19T08:21:02Z</time>
   </trkpt>
   <trkpt lat="31.862412" lon="34.932637">
    <ele>147.351</ele>
    <time>2011-04-19T08:21:16Z</time>
   </trkpt>
   <trkpt lat="31.862748" lon="34.933034">
    <ele>149.744</ele>
    <time>2011-04-19T08:21:33Z</time>
   </trkpt>
   <trkpt lat="31.863039" lon="34.933362">
    <ele>151.762</ele>
    <time>2011-04-19T08:21:50Z</time>
   </trkpt>
   <trkpt lat="31.863140" lon="34.933485">
    <ele>152.288</ele>
    <time>2011-04-19T08:21:57Z</time>
   </trkpt>
   <trkpt lat="31.863181" lon="34.933574">
    <ele>152.532</ele>
    <time>2011-04-19T08:22:01Z</time>
   </trkpt>
   <trkpt lat="31.863394" lon="34.933773">
    <ele>154.156</ele>
    <time>2011-04-19T08:22:15Z</time>
   </trkpt>
   <trkpt lat="31.863486" lon="34.933891">
    <ele>154.915</ele>
    <time>2011-04-19T08:22:34Z</time>
   </trkpt>
   <trkpt lat="31.863489" lon="34.933895">
    <ele>154.957</ele>
    <time>2011-04-19T08:24:56Z</time>
   </trkpt>
   <trkpt lat="31.863490" lon="34.933891">
    <ele>155.088</ele>
    <time>2011-04-19T08:29:12Z</time>
   </trkpt>
   <trkpt lat="31.863601" lon="34.934014">
    <ele>155.588</ele>
    <time>2011-04-19T08:29:29Z</time>
   </trkpt>
   <trkpt lat="31.863910" lon="34.934325">
    <ele>155.407</ele>
    <time>2011-04-19T08:29:44Z</time>
   </trkpt>
   <trkpt lat="31.864120" lon="34.934780">
    <ele>155.831</ele>
    <time>2011-04-19T08:29:57Z</time>
   </trkpt>
   <trkpt lat="31.864219" lon="34.935350">
    <ele>153.494</ele>
    <time>2011-04-19T08:30:10Z</time>
   </trkpt>
   <trkpt lat="31.864262" lon="34.935571">
    <ele>153.198</ele>
    <time>2011-04-19T08:30:14Z</time>
   </trkpt>
   <trkpt lat="31.864279" lon="34.936140">
    <ele>153.443</ele>
    <time>2011-04-19T08:30:25Z</time>
   </trkpt>
   <trkpt lat="31.864291" lon="34.936286">
    <ele>153.246</ele>
    <time>2011-04-19T08:30:28Z</time>
   </trkpt>
   <trkpt lat="31.864212" lon="34.936675">
    <ele>153.499</ele>
    <time>2011-04-19T08:30:36Z</time>
   </trkpt>
   <trkpt lat="31.864199" lon="34.936834">
    <ele>153.085</ele>
    <time>2011-04-19T08:30:39Z</time>
   </trkpt>
   <trkpt lat="31.864160" lon="34.937250">
    <ele>150.845</ele>
    <time>2011-04-19T08:30:47Z</time>
   </trkpt>
   <trkpt lat="31.864268" lon="34.937455">
    <ele>150.662</ele>
    <time>2011-04-19T08:30:52Z</time>
   </trkpt>
   <trkpt lat="31.864401" lon="34.937955">
    <ele>149.213</ele>
    <time>2011-04-19T08:31:02Z</time>
   </trkpt>
   <trkpt lat="31.864545" lon="34.939107">
    <ele>146.990</ele>
    <time>2011-04-19T08:31:21Z</time>
   </trkpt>
   <trkpt lat="31.864691" lon="34.939451">
    <ele>145.631</ele>
    <time>2011-04-19T08:31:27Z</time>
   </trkpt>
   <trkpt lat="31.864740" lon="34.940221">
    <ele>142.903</ele>
    <time>2011-04-19T08:31:38Z</time>
   </trkpt>
   <trkpt lat="31.864806" lon="34.941371">
    <ele>139.946</ele>
    <time>2011-04-19T08:31:52Z</time>
   </trkpt>
   <trkpt lat="31.864855" lon="34.941601">
    <ele>139.239</ele>
    <time>2011-04-19T08:31:55Z</time>
   </trkpt>
   <trkpt lat="31.865121" lon="34.942817">
    <ele>135.373</ele>
    <time>2011-04-19T08:32:10Z</time>
   </trkpt>
   <trkpt lat="31.865138" lon="34.942900">
    <ele>135.032</ele>
    <time>2011-04-19T08:32:11Z</time>
   </trkpt>
   <trkpt lat="31.865467" lon="34.943138">
    <ele>135.018</ele>
    <time>2011-04-19T08:32:18Z</time>
   </trkpt>
   <trkpt lat="31.865526" lon="34.943126">
    <ele>135.072</ele>
    <time>2011-04-19T08:32:19Z</time>
   </trkpt>
   <trkpt lat="31.865638" lon="34.943106">
    <ele>135.150</ele>
    <time>2011-04-19T08:32:21Z</time>
   </trkpt>
   <trkpt lat="31.865923" lon="34.943300">
    <ele>134.646</ele>
    <time>2011-04-19T08:32:27Z</time>
   </trkpt>
   <trkpt lat="31.866033" lon="34.943542">
    <ele>133.909</ele>
    <time>2011-04-19T08:32:31Z</time>
   </trkpt>
   <trkpt lat="31.866715" lon="34.944043">
    <ele>132.073</ele>
    <time>2011-04-19T08:32:45Z</time>
   </trkpt>
   <trkpt lat="31.867088" lon="34.944246">
    <ele>132.019</ele>
    <time>2011-04-19T08:32:52Z</time>
   </trkpt>
   <trkpt lat="31.867469" lon="34.944664">
    <ele>131.557</ele>
    <time>2011-04-19T08:33:02Z</time>
   </trkpt>
   <trkpt lat="31.867561" lon="34.944864">
    <ele>130.766</ele>
    <time>2011-04-19T08:33:06Z</time>
   </trkpt>
   <trkpt lat="31.867498" lon="34.945351">
    <ele>129.543</ele>
    <time>2011-04-19T08:33:15Z</time>
   </trkpt>
   <trkpt lat="31.867434" lon="34.945387">
    <ele>129.967</ele>
    <time>2011-04-19T08:33:17Z</time>
   </trkpt>
   <trkpt lat="31.866964" lon="34.945811">
    <ele>131.629</ele>
    <time>2011-04-19T08:33:32Z</time>
   </trkpt>
   <trkpt lat="31.866593" lon="34.946382">
    <ele>134.172</ele>
    <time>2011-04-19T08:33:50Z</time>
   </trkpt>
   <trkpt lat="31.866801" lon="34.946772">
    <ele>134.132</ele>
    <time>2011-04-19T08:34:05Z</time>
   </trkpt>
   <trkpt lat="31.866741" lon="34.946856">
    <ele>134.215</ele>
    <time>2011-04-19T08:34:10Z</time>
   </trkpt>
   <trkpt lat="31.866287" lon="34.947293">
    <ele>134.922</ele>
    <time>2011-04-19T08:34:26Z</time>
   </trkpt>
   <trkpt lat="31.865637" lon="34.947912">
    <ele>137.160</ele>
    <time>2011-04-19T08:34:49Z</time>
   </trkpt>
   <trkpt lat="31.865468" lon="34.948399">
    <ele>138.085</ele>
    <time>2011-04-19T08:35:03Z</time>
   </trkpt>
   <trkpt lat="31.865440" lon="34.948524">
    <ele>138.355</ele>
    <time>2011-04-19T08:35:08Z</time>
   </trkpt>
   <trkpt lat="31.865457" lon="34.948694">
    <ele>138.356</ele>
    <time>2011-04-19T08:35:13Z</time>
   </trkpt>
   <trkpt lat="31.865486" lon="34.948823">
    <ele>138.589</ele>
    <time>2011-04-19T08:35:18Z</time>
   </trkpt>
   <trkpt lat="31.865418" lon="34.948906">
    <ele>138.613</ele>
    <time>2011-04-19T08:35:22Z</time>
   </trkpt>
   <trkpt lat="31.865092" lon="34.949265">
    <ele>139.120</ele>
    <time>2011-04-19T08:35:39Z</time>
   </trkpt>
   <trkpt lat="31.865025" lon="34.949293">
    <ele>139.621</ele>
    <time>2011-04-19T08:35:42Z</time>
   </trkpt>
   <trkpt lat="31.864722" lon="34.949655">
    <ele>141.501</ele>
    <time>2011-04-19T08:35:59Z</time>
   </trkpt>
   <trkpt lat="31.864413" lon="34.950069">
    <ele>143.865</ele>
    <time>2011-04-19T08:36:19Z</time>
   </trkpt>
   <trkpt lat="31.864176" lon="34.950376">
    <ele>146.012</ele>
    <time>2011-04-19T08:36:38Z</time>
   </trkpt>
   <trkpt lat="31.864074" lon="34.950608">
    <ele>147.041</ele>
    <time>2011-04-19T08:36:51Z</time>
   </trkpt>
   <trkpt lat="31.864469" lon="34.951037">
    <ele>146.467</ele>
    <time>2011-04-19T08:37:08Z</time>
   </trkpt>
   <trkpt lat="31.864662" lon="34.951467">
    <ele>147.094</ele>
    <time>2011-04-19T08:37:22Z</time>
   </trkpt>
   <trkpt lat="31.864413" lon="34.951972">
    <ele>149.361</ele>
    <time>2011-04-19T08:37:39Z</time>
   </trkpt>
   <trkpt lat="31.864321" lon="34.952213">
    <ele>151.235</ele>
    <time>2011-04-19T08:37:48Z</time>
   </trkpt>
   <trkpt lat="31.864342" lon="34.952304">
    <ele>151.701</ele>
    <time>2011-04-19T08:37:52Z</time>
   </trkpt>
   <trkpt lat="31.864600" lon="34.952573">
    <ele>155.600</ele>
    <time>2011-04-19T08:38:09Z</time>
   </trkpt>
   <trkpt lat="31.864958" lon="34.952906">
    <ele>160.817</ele>
    <time>2011-04-19T08:38:31Z</time>
   </trkpt>
   <trkpt lat="31.865037" lon="34.952993">
    <ele>161.605</ele>
    <time>2011-04-19T08:38:36Z</time>
   </trkpt>
   <trkpt lat="31.865158" lon="34.953135">
    <ele>162.822</ele>
    <time>2011-04-19T08:38:44Z</time>
   </trkpt>
   <trkpt lat="31.865273" lon="34.953718">
    <ele>163.925</ele>
    <time>2011-04-19T08:39:04Z</time>
   </trkpt>
   <trkpt lat="31.865103" lon="34.954028">
    <ele>164.943</ele>
    <time>2011-04-19T08:39:14Z</time>
   </trkpt>
   <trkpt lat="31.865183" lon="34.954243">
    <ele>166.217</ele>
    <time>2011-04-19T08:39:23Z</time>
   </trkpt>
   <trkpt lat="31.865243" lon="34.954309">
    <ele>166.748</ele>
    <time>2011-04-19T08:39:27Z</time>
   </trkpt>
   <trkpt lat="31.865357" lon="34.954293">
    <ele>168.026</ele>
    <time>2011-04-19T08:39:35Z</time>
   </trkpt>
   <trkpt lat="31.865624" lon="34.953805">
    <ele>168.227</ele>
    <time>2011-04-19T08:39:53Z</time>
   </trkpt>
   <trkpt lat="31.865933" lon="34.953183">
    <ele>167.026</ele>
    <time>2011-04-19T08:40:10Z</time>
   </trkpt>
   <trkpt lat="31.866156" lon="34.952766">
    <ele>164.892</ele>
    <time>2011-04-19T08:40:18Z</time>
   </trkpt>
   <trkpt lat="31.866361" lon="34.952435">
    <ele>162.771</ele>
    <time>2011-04-19T08:40:23Z</time>
   </trkpt>
   <trkpt lat="31.866449" lon="34.952201">
    <ele>161.741</ele>
    <time>2011-04-19T08:40:26Z</time>
   </trkpt>
   <trkpt lat="31.866628" lon="34.951984">
    <ele>160.376</ele>
    <time>2011-04-19T08:40:30Z</time>
   </trkpt>
   <trkpt lat="31.867096" lon="34.951347">
    <ele>154.969</ele>
    <time>2011-04-19T08:40:43Z</time>
   </trkpt>
   <trkpt lat="31.867411" lon="34.951226">
    <ele>154.893</ele>
    <time>2011-04-19T08:40:53Z</time>
   </trkpt>
   <trkpt lat="31.867786" lon="34.951495">
    <ele>157.075</ele>
    <time>2011-04-19T08:41:08Z</time>
   </trkpt>
   <trkpt lat="31.868282" lon="34.951776">
    <ele>161.061</ele>
    <time>2011-04-19T08:41:25Z</time>
   </trkpt>
   <trkpt lat="31.868673" lon="34.951582">
    <ele>160.387</ele>
    <time>2011-04-19T08:41:36Z</time>
   </trkpt>
   <trkpt lat="31.868715" lon="34.951572">
    <ele>160.707</ele>
    <time>2011-04-19T08:41:37Z</time>
   </trkpt>
   <trkpt lat="31.868849" lon="34.951559">
    <ele>159.967</ele>
    <time>2011-04-19T08:41:40Z</time>
   </trkpt>
   <trkpt lat="31.868979" lon="34.951630">
    <ele>159.487</ele>
    <time>2011-04-19T08:41:44Z</time>
   </trkpt>
   <trkpt lat="31.869063" lon="34.951751">
    <ele>158.055</ele>
    <time>2011-04-19T08:41:50Z</time>
   </trkpt>
   <trkpt lat="31.869319" lon="34.952134">
    <ele>153.203</ele>
    <time>2011-04-19T08:42:03Z</time>
   </trkpt>
   <trkpt lat="31.869414" lon="34.952386">
    <ele>152.772</ele>
    <time>2011-04-19T08:42:10Z</time>
   </trkpt>
   <trkpt lat="31.869581" lon="34.952511">
    <ele>150.324</ele>
    <time>2011-04-19T08:42:14Z</time>
   </trkpt>
   <trkpt lat="31.869691" lon="34.952560">
    <ele>149.584</ele>
    <time>2011-04-19T08:42:16Z</time>
   </trkpt>
   <trkpt lat="31.869814" lon="34.952753">
    <ele>147.312</ele>
    <time>2011-04-19T08:42:20Z</time>
   </trkpt>
   <trkpt lat="31.869896" lon="34.952868">
    <ele>145.763</ele>
    <time>2011-04-19T08:42:22Z</time>
   </trkpt>
   <trkpt lat="31.870218" lon="34.953096">
    <ele>141.524</ele>
    <time>2011-04-19T08:42:28Z</time>
   </trkpt>
   <trkpt lat="31.870400" lon="34.953251">
    <ele>138.219</ele>
    <time>2011-04-19T08:42:32Z</time>
   </trkpt>
   <trkpt lat="31.870634" lon="34.953574">
    <ele>132.274</ele>
    <time>2011-04-19T08:42:38Z</time>
   </trkpt>
   <trkpt lat="31.870700" lon="34.953748">
    <ele>130.306</ele>
    <time>2011-04-19T08:42:42Z</time>
   </trkpt>
   <trkpt lat="31.870752" lon="34.953882">
    <ele>129.382</ele>
    <time>2011-04-19T08:42:46Z</time>
   </trkpt>
   <trkpt lat="31.871265" lon="34.954156">
    <ele>124.617</ele>
    <time>2011-04-19T08:42:56Z</time>
   </trkpt>
   <trkpt lat="31.871309" lon="34.954180">
    <ele>124.298</ele>
    <time>2011-04-19T08:42:57Z</time>
   </trkpt>
   <trkpt lat="31.871603" lon="34.954127">
    <ele>122.990</ele>
    <time>2011-04-19T08:43:05Z</time>
   </trkpt>
   <trkpt lat="31.871710" lon="34.953974">
    <ele>122.710</ele>
    <time>2011-04-19T08:43:09Z</time>
   </trkpt>
   <trkpt lat="31.871961" lon="34.953419">
    <ele>122.161</ele>
    <time>2011-04-19T08:43:20Z</time>
   </trkpt>
   <trkpt lat="31.872326" lon="34.952745">
    <ele>122.429</ele>
    <time>2011-04-19T08:43:35Z</time>
   </trkpt>
   <trkpt lat="31.872577" lon="34.952361">
    <ele>122.279</ele>
    <time>2011-04-19T08:43:44Z</time>
   </trkpt>
   <trkpt lat="31.873002" lon="34.951522">
    <ele>124.521</ele>
    <time>2011-04-19T08:44:02Z</time>
   </trkpt>
   <trkpt lat="31.873294" lon="34.951035">
    <ele>125.589</ele>
    <time>2011-04-19T08:44:17Z</time>
   </trkpt>
   <trkpt lat="31.873391" lon="34.950898">
    <ele>126.053</ele>
    <time>2011-04-19T08:44:23Z</time>
   </trkpt>
   <trkpt lat="31.873477" lon="34.950960">
    <ele>126.095</ele>
    <time>2011-04-19T08:44:28Z</time>
   </trkpt>
   <trkpt lat="31.873701" lon="34.951466">
    <ele>124.131</ele>
    <time>2011-04-19T08:44:41Z</time>
   </trkpt>
   <trkpt lat="31.874048" lon="34.952254">
    <ele>121.407</ele>
    <time>2011-04-19T08:44:54Z</time>
   </trkpt>
   <trkpt lat="31.874488" lon="34.953524">
    <ele>118.244</ele>
    <time>2011-04-19T08:45:09Z</time>
   </trkpt>
   <trkpt lat="31.874970" lon="34.954926">
    <ele>120.865</ele>
    <time>2011-04-19T08:45:29Z</time>
   </trkpt>
   <trkpt lat="31.875279" lon="34.955854">
    <ele>121.974</ele>
    <time>2011-04-19T08:45:45Z</time>
   </trkpt>
   <trkpt lat="31.875468" lon="34.956462">
    <ele>123.056</ele>
    <time>2011-04-19T08:46:00Z</time>
   </trkpt>
   <trkpt lat="31.875619" lon="34.957078">
    <ele>123.317</ele>
    <time>2011-04-19T08:46:16Z</time>
   </trkpt>
   <trkpt lat="31.875836" lon="34.957663">
    <ele>123.327</ele>
    <time>2011-04-19T08:46:34Z</time>
   </trkpt>
   <trkpt lat="31.875978" lon="34.957681">
    <ele>123.815</ele>
    <time>2011-04-19T08:46:38Z</time>
   </trkpt>
   <trkpt lat="31.876034" lon="34.957518">
    <ele>123.443</ele>
    <time>2011-04-19T08:46:43Z</time>
   </trkpt>
   <trkpt lat="31.876148" lon="34.956934">
    <ele>125.094</ele>
    <time>2011-04-19T08:46:57Z</time>
   </trkpt>
   <trkpt lat="31.876247" lon="34.956739">
    <ele>124.471</ele>
    <time>2011-04-19T08:47:02Z</time>
   </trkpt>
   <trkpt lat="31.876465" lon="34.956446">
    <ele>125.581</ele>
    <time>2011-04-19T08:47:10Z</time>
   </trkpt>
   <trkpt lat="31.876896" lon="34.956105">
    <ele>132.091</ele>
    <time>2011-04-19T08:47:26Z</time>
   </trkpt>
   <trkpt lat="31.877237" lon="34.955884">
    <ele>137.214</ele>
    <time>2011-04-19T08:47:49Z</time>
   </trkpt>
   <trkpt lat="31.877469" lon="34.955976">
    <ele>138.780</ele>
    <time>2011-04-19T08:48:04Z</time>
   </trkpt>
   <trkpt lat="31.877765" lon="34.956036">
    <ele>139.254</ele>
    <time>2011-04-19T08:48:20Z</time>
   </trkpt>
   <trkpt lat="31.878303" lon="34.955741">
    <ele>140.256</ele>
    <time>2011-04-19T08:48:39Z</time>
   </trkpt>
   <trkpt lat="31.878795" lon="34.955713">
    <ele>140.729</ele>
    <time>2011-04-19T08:48:53Z</time>
   </trkpt>
   <trkpt lat="31.879289" lon="34.955723">
    <ele>139.687</ele>
    <time>2011-04-19T08:49:06Z</time>
   </trkpt>
   <trkpt lat="31.879902" lon="34.955474">
    <ele>135.617</ele>
    <time>2011-04-19T08:49:19Z</time>
   </trkpt>
   <trkpt lat="31.880251" lon="34.955560">
    <ele>133.593</ele>
    <time>2011-04-19T08:49:25Z</time>
   </trkpt>
   <trkpt lat="31.881110" lon="34.956289">
    <ele>131.525</ele>
    <time>2011-04-19T08:49:42Z</time>
   </trkpt>
   <trkpt lat="31.881373" lon="34.956277">
    <ele>127.365</ele>
    <time>2011-04-19T08:49:47Z</time>
   </trkpt>
   <trkpt lat="31.881588" lon="34.956137">
    <ele>124.312</ele>
    <time>2011-04-19T08:49:51Z</time>
   </trkpt>
   <trkpt lat="31.881754" lon="34.956071">
    <ele>123.378</ele>
    <time>2011-04-19T08:49:56Z</time>
   </trkpt>
   <trkpt lat="31.882042" lon="34.955879">
    <ele>125.052</ele>
    <time>2011-04-19T08:50:07Z</time>
   </trkpt>
   <trkpt lat="31.882104" lon="34.955914">
    <ele>125.223</ele>
    <time>2011-04-19T08:50:11Z</time>
   </trkpt>
   <trkpt lat="31.882131" lon="34.955949">
    <ele>125.374</ele>
    <time>2011-04-19T08:50:13Z</time>
   </trkpt>
   <trkpt lat="31.882169" lon="34.955964">
    <ele>125.865</ele>
    <time>2011-04-19T08:50:15Z</time>
   </trkpt>
   <trkpt lat="31.882424" lon="34.956075">
    <ele>127.481</ele>
    <time>2011-04-19T08:50:30Z</time>
   </trkpt>
   <trkpt lat="31.882841" lon="34.956404">
    <ele>128.328</ele>
    <time>2011-04-19T08:50:47Z</time>
   </trkpt>
   <trkpt lat="31.883361" lon="34.956828">
    <ele>130.843</ele>
    <time>2011-04-19T08:51:01Z</time>
   </trkpt>
   <trkpt lat="31.884168" lon="34.957354">
    <ele>133.295</ele>
    <time>2011-04-19T08:51:22Z</time>
   </trkpt>
   <trkpt lat="31.884368" lon="34.957623">
    <ele>134.851</ele>
    <time>2011-04-19T08:51:33Z</time>
   </trkpt>
   <trkpt lat="31.884377" lon="34.957654">
    <ele>134.908</ele>
    <time>2011-04-19T08:51:35Z</time>
   </trkpt>
   <trkpt lat="31.884396" lon="34.957666">
    <ele>134.757</ele>
    <time>2011-04-19T08:51:55Z</time>
   </trkpt>
   <trkpt lat="31.884402" lon="34.957669">
    <ele>134.902</ele>
    <time>2011-04-19T08:53:08Z</time>
   </trkpt>
   <trkpt lat="31.884403" lon="34.957668">
    <ele>134.945</ele>
    <time>2011-04-19T08:54:19Z</time>
   </trkpt>
   <trkpt lat="31.884409" lon="34.957660">
    <ele>134.190</ele>
    <time>2011-04-19T08:56:11Z</time>
   </trkpt>
   <trkpt lat="31.884413" lon="34.957668">
    <ele>134.793</ele>
    <time>2011-04-19T08:57:09Z</time>
   </trkpt>
   <trkpt lat="31.884422" lon="34.957670">
    <ele>134.807</ele>
    <time>2011-04-19T08:57:11Z</time>
   </trkpt>
   <trkpt lat="31.884627" lon="34.957785">
    <ele>137.649</ele>
    <time>2011-04-19T08:57:26Z</time>
   </trkpt>
   <trkpt lat="31.884744" lon="34.957837">
    <ele>137.888</ele>
    <time>2011-04-19T08:57:34Z</time>
   </trkpt>
   <trkpt lat="31.885123" lon="34.957966">
    <ele>141.646</ele>
    <time>2011-04-19T08:57:50Z</time>
   </trkpt>
   <trkpt lat="31.885454" lon="34.958217">
    <ele>142.772</ele>
    <time>2011-04-19T08:58:07Z</time>
   </trkpt>
   <trkpt lat="31.885596" lon="34.958372">
    <ele>142.716</ele>
    <time>2011-04-19T08:58:18Z</time>
   </trkpt>
   <trkpt lat="31.885652" lon="34.958315">
    <ele>143.898</ele>
    <time>2011-04-19T08:58:31Z</time>
   </trkpt>
   <trkpt lat="31.885711" lon="34.958245">
    <ele>145.225</ele>
    <time>2011-04-19T08:58:44Z</time>
   </trkpt>
   <trkpt lat="31.885720" lon="34.958239">
    <ele>145.247</ele>
    <time>2011-04-19T08:58:46Z</time>
   </trkpt>
   <trkpt lat="31.885835" lon="34.958125">
    <ele>148.371</ele>
    <time>2011-04-19T08:58:57Z</time>
   </trkpt>
   <trkpt lat="31.886062" lon="34.957942">
    <ele>152.663</ele>
    <time>2011-04-19T08:59:15Z</time>
   </trkpt>
   <trkpt lat="31.886113" lon="34.957881">
    <ele>153.107</ele>
    <time>2011-04-19T08:59:32Z</time>
   </trkpt>
   <trkpt lat="31.886211" lon="34.957749">
    <ele>154.977</ele>
    <time>2011-04-19T08:59:44Z</time>
   </trkpt>
   <trkpt lat="31.886592" lon="34.957354">
    <ele>161.180</ele>
    <time>2011-04-19T09:00:06Z</time>
   </trkpt>
   <trkpt lat="31.886845" lon="34.957049">
    <ele>164.856</ele>
    <time>2011-04-19T09:00:24Z</time>
   </trkpt>
   <trkpt lat="31.886986" lon="34.956924">
    <ele>168.098</ele>
    <time>2011-04-19T09:00:37Z</time>
   </trkpt>
   <trkpt lat="31.887069" lon="34.956812">
    <ele>170.307</ele>
    <time>2011-04-19T09:00:46Z</time>
   </trkpt>
   <trkpt lat="31.887103" lon="34.956763">
    <ele>170.502</ele>
    <time>2011-04-19T09:00:49Z</time>
   </trkpt>
   <trkpt lat="31.887291" lon="34.956620">
    <ele>169.665</ele>
    <time>2011-04-19T09:01:01Z</time>
   </trkpt>
   <trkpt lat="31.887700" lon="34.956288">
    <ele>163.639</ele>
    <time>2011-04-19T09:01:15Z</time>
   </trkpt>
   <trkpt lat="31.888459" lon="34.956045">
    <ele>157.296</ele>
    <time>2011-04-19T09:01:26Z</time>
   </trkpt>
   <trkpt lat="31.889062" lon="34.955970">
    <ele>151.414</ele>
    <time>2011-04-19T09:01:36Z</time>
   </trkpt>
   <trkpt lat="31.890058" lon="34.955764">
    <ele>145.444</ele>
    <time>2011-04-19T09:01:49Z</time>
   </trkpt>
   <trkpt lat="31.890221" lon="34.955752">
    <ele>144.352</ele>
    <time>2011-04-19T09:01:51Z</time>
   </trkpt>
   <trkpt lat="31.890659" lon="34.955548">
    <ele>141.817</ele>
    <time>2011-04-19T09:01:59Z</time>
   </trkpt>
   <trkpt lat="31.890778" lon="34.955406">
    <ele>140.094</ele>
    <time>2011-04-19T09:02:03Z</time>
   </trkpt>
   <trkpt lat="31.890903" lon="34.955159">
    <ele>139.548</ele>
    <time>2011-04-19T09:02:10Z</time>
   </trkpt>
   <trkpt lat="31.891211" lon="34.954749">
    <ele>137.107</ele>
    <time>2011-04-19T09:02:22Z</time>
   </trkpt>
   <trkpt lat="31.891679" lon="34.953700">
    <ele>133.479</ele>
    <time>2011-04-19T09:02:37Z</time>
   </trkpt>
   <trkpt lat="31.891868" lon="34.953168">
    <ele>132.253</ele>
    <time>2011-04-19T09:02:44Z</time>
   </trkpt>
   <trkpt lat="31.891991" lon="34.952980">
    <ele>131.426</ele>
    <time>2011-04-19T09:02:47Z</time>
   </trkpt>
   <trkpt lat="31.892264" lon="34.952790">
    <ele>130.338</ele>
    <time>2011-04-19T09:02:52Z</time>
   </trkpt>
   <trkpt lat="31.892482" lon="34.952732">
    <ele>130.328</ele>
    <time>2011-04-19T09:02:56Z</time>
   </trkpt>
   <trkpt lat="31.893140" lon="34.952455">
    <ele>129.309</ele>
    <time>2011-04-19T09:03:07Z</time>
   </trkpt>
   <trkpt lat="31.893282" lon="34.952169">
    <ele>127.757</ele>
    <time>2011-04-19T09:03:11Z</time>
   </trkpt>
   <trkpt lat="31.893358" lon="34.951729">
    <ele>125.818</ele>
    <time>2011-04-19T09:03:16Z</time>
   </trkpt>
   <trkpt lat="31.893701" lon="34.950658">
    <ele>125.282</ele>
    <time>2011-04-19T09:03:29Z</time>
   </trkpt>
   <trkpt lat="31.893805" lon="34.950459">
    <ele>125.017</ele>
    <time>2011-04-19T09:03:32Z</time>
   </trkpt>
   <trkpt lat="31.893951" lon="34.950130">
    <ele>125.175</ele>
    <time>2011-04-19T09:03:37Z</time>
   </trkpt>
   <trkpt lat="31.894289" lon="34.949439">
    <ele>123.247</ele>
    <time>2011-04-19T09:03:49Z</time>
   </trkpt>
   <trkpt lat="31.894398" lon="34.949085">
    <ele>122.394</ele>
    <time>2011-04-19T09:03:54Z</time>
   </trkpt>
   <trkpt lat="31.894486" lon="34.948625">
    <ele>120.548</ele>
    <time>2011-04-19T09:04:00Z</time>
   </trkpt>
   <trkpt lat="31.894774" lon="34.947684">
    <ele>116.614</ele>
    <time>2011-04-19T09:04:11Z</time>
   </trkpt>
   <trkpt lat="31.894758" lon="34.947189">
    <ele>113.358</ele>
    <time>2011-04-19T09:04:16Z</time>
   </trkpt>
   <trkpt lat="31.894731" lon="34.946990">
    <ele>111.964</ele>
    <time>2011-04-19T09:04:18Z</time>
   </trkpt>
   <trkpt lat="31.894927" lon="34.946268">
    <ele>109.467</ele>
    <time>2011-04-19T09:04:26Z</time>
   </trkpt>
   <trkpt lat="31.895195" lon="34.945841">
    <ele>106.583</ele>
    <time>2011-04-19T09:04:35Z</time>
   </trkpt>
   <trkpt lat="31.895207" lon="34.945831">
    <ele>106.584</ele>
    <time>2011-04-19T09:04:45Z</time>
   </trkpt>
   <trkpt lat="31.895194" lon="34.945830">
    <ele>106.512</ele>
    <time>2011-04-19T09:04:50Z</time>
   </trkpt>
   <trkpt lat="31.895020" lon="34.946055">
    <ele>110.128</ele>
    <time>2011-04-19T09:05:04Z</time>
   </trkpt>
   <trkpt lat="31.894875" lon="34.946099">
    <ele>109.301</ele>
    <time>2011-04-19T09:05:11Z</time>
   </trkpt>
   <trkpt lat="31.894831" lon="34.945894">
    <ele>108.027</ele>
    <time>2011-04-19T09:05:16Z</time>
   </trkpt>
   <trkpt lat="31.894877" lon="34.945615">
    <ele>107.215</ele>
    <time>2011-04-19T09:05:21Z</time>
   </trkpt>
   <trkpt lat="31.894998" lon="34.945351">
    <ele>105.956</ele>
    <time>2011-04-19T09:05:26Z</time>
   </trkpt>
   <trkpt lat="31.895095" lon="34.945205">
    <ele>104.966</ele>
    <time>2011-04-19T09:05:29Z</time>
   </trkpt>
   <trkpt lat="31.895263" lon="34.944989">
    <ele>104.741</ele>
    <time>2011-04-19T09:05:34Z</time>
   </trkpt>
   <trkpt lat="31.895912" lon="34.944528">
    <ele>102.591</ele>
    <time>2011-04-19T09:05:50Z</time>
   </trkpt>
   <trkpt lat="31.895955" lon="34.944611">
    <ele>102.800</ele>
    <time>2011-04-19T09:05:55Z</time>
   </trkpt>
   <trkpt lat="31.895949" lon="34.944750">
    <ele>103.209</ele>
    <time>2011-04-19T09:05:59Z</time>
   </trkpt>
   <trkpt lat="31.895965" lon="34.944746">
    <ele>102.964</ele>
    <time>2011-04-19T09:06:03Z</time>
   </trkpt>
   <trkpt lat="31.895956" lon="34.944686">
    <ele>103.138</ele>
    <time>2011-04-19T09:06:07Z</time>
   </trkpt>
   <trkpt lat="31.895958" lon="34.944416">
    <ele>102.454</ele>
    <time>2011-04-19T09:06:13Z</time>
   </trkpt>
   <trkpt lat="31.895916" lon="34.944200">
    <ele>101.858</ele>
    <time>2011-04-19T09:06:17Z</time>
   </trkpt>
   <trkpt lat="31.896091" lon="34.944118">
    <ele>102.198</ele>
    <time>2011-04-19T09:06:24Z</time>
   </trkpt>
   <trkpt lat="31.896127" lon="34.944199">
    <ele>102.243</ele>
    <time>2011-04-19T09:06:26Z</time>
   </trkpt>
   <trkpt lat="31.896144" lon="34.944295">
    <ele>102.359</ele>
    <time>2011-04-19T09:06:28Z</time>
   </trkpt>
   <trkpt lat="31.896332" lon="34.944863">
    <ele>105.741</ele>
    <time>2011-04-19T09:06:41Z</time>
   </trkpt>
   <trkpt lat="31.896513" lon="34.945167">
    <ele>106.920</ele>
    <time>2011-04-19T09:06:49Z</time>
   </trkpt>
   <trkpt lat="31.896897" lon="34.945698">
    <ele>108.649</ele>
    <time>2011-04-19T09:07:03Z</time>
   </trkpt>
   <trkpt lat="31.897178" lon="34.946108">
    <ele>111.358</ele>
    <time>2011-04-19T09:07:18Z</time>
   </trkpt>
   <trkpt lat="31.897365" lon="34.946418">
    <ele>112.598</ele>
    <time>2011-04-19T09:07:30Z</time>
   </trkpt>
   <trkpt lat="31.897654" lon="34.946754">
    <ele>114.660</ele>
    <time>2011-04-19T09:07:44Z</time>
   </trkpt>
   <trkpt lat="31.898050" lon="34.947231">
    <ele>117.656</ele>
    <time>2011-04-19T09:08:04Z</time>
   </trkpt>
   <trkpt lat="31.898340" lon="34.947308">
    <ele>120.570</ele>
    <time>2011-04-19T09:08:17Z</time>
   </trkpt>
   <trkpt lat="31.898652" lon="34.947333">
    <ele>123.967</ele>
    <time>2011-04-19T09:08:32Z</time>
   </trkpt>
   <trkpt lat="31.899129" lon="34.947466">
    <ele>128.867</ele>
    <time>2011-04-19T09:08:54Z</time>
   </trkpt>
   <trkpt lat="31.899358" lon="34.947495">
    <ele>132.579</ele>
    <time>2011-04-19T09:09:07Z</time>
   </trkpt>
   <trkpt lat="31.899638" lon="34.947357">
    <ele>134.204</ele>
    <time>2011-04-19T09:09:22Z</time>
   </trkpt>
   <trkpt lat="31.899776" lon="34.946882">
    <ele>135.404</ele>
    <time>2011-04-19T09:09:40Z</time>
   </trkpt>
   <trkpt lat="31.900069" lon="34.946662">
    <ele>137.546</ele>
    <time>2011-04-19T09:09:58Z</time>
   </trkpt>
   <trkpt lat="31.900214" lon="34.946305">
    <ele>140.602</ele>
    <time>2011-04-19T09:10:17Z</time>
   </trkpt>
   <trkpt lat="31.900289" lon="34.946117">
    <ele>141.380</ele>
    <time>2011-04-19T09:10:25Z</time>
   </trkpt>
   <trkpt lat="31.900690" lon="34.945788">
    <ele>138.791</ele>
    <time>2011-04-19T09:10:40Z</time>
   </trkpt>
   <trkpt lat="31.900724" lon="34.945745">
    <ele>138.675</ele>
    <time>2011-04-19T09:10:41Z</time>
   </trkpt>
   <trkpt lat="31.900839" lon="34.945627">
    <ele>137.736</ele>
    <time>2011-04-19T09:10:44Z</time>
   </trkpt>
   <trkpt lat="31.901078" lon="34.945356">
    <ele>134.676</ele>
    <time>2011-04-19T09:10:53Z</time>
   </trkpt>
   <trkpt lat="31.901129" lon="34.945176">
    <ele>133.358</ele>
    <time>2011-04-19T09:10:57Z</time>
   </trkpt>
   <trkpt lat="31.901305" lon="34.944832">
    <ele>130.621</ele>
    <time>2011-04-19T09:11:04Z</time>
   </trkpt>
   <trkpt lat="31.901536" lon="34.944670">
    <ele>127.995</ele>
    <time>2011-04-19T09:11:10Z</time>
   </trkpt>
   <trkpt lat="31.902135" lon="34.944536">
    <ele>123.482</ele>
    <time>2011-04-19T09:11:25Z</time>
   </trkpt>
   <trkpt lat="31.902315" lon="34.944606">
    <ele>124.166</ele>
    <time>2011-04-19T09:11:37Z</time>
   </trkpt>
   <trkpt lat="31.902351" lon="34.944675">
    <ele>124.796</ele>
    <time>2011-04-19T09:11:41Z</time>
   </trkpt>
   <trkpt lat="31.902517" lon="34.945058">
    <ele>127.086</ele>
    <time>2011-04-19T09:11:58Z</time>
   </trkpt>
   <trkpt lat="31.902814" lon="34.945387">
    <ele>127.663</ele>
    <time>2011-04-19T09:12:11Z</time>
   </trkpt>
   <trkpt lat="31.903277" lon="34.945447">
    <ele>127.390</ele>
    <time>2011-04-19T09:12:25Z</time>
   </trkpt>
   <trkpt lat="31.903925" lon="34.945403">
    <ele>128.280</ele>
    <time>2011-04-19T09:12:44Z</time>
   </trkpt>
   <trkpt lat="31.904438" lon="34.945714">
    <ele>130.951</ele>
    <time>2011-04-19T09:13:02Z</time>
   </trkpt>
   <trkpt lat="31.905018" lon="34.945958">
    <ele>132.446</ele>
    <time>2011-04-19T09:13:20Z</time>
   </trkpt>
   <trkpt lat="31.905609" lon="34.945993">
    <ele>136.106</ele>
    <time>2011-04-19T09:13:39Z</time>
   </trkpt>
   <trkpt lat="31.906030" lon="34.946063">
    <ele>138.455</ele>
    <time>2011-04-19T09:13:55Z</time>
   </trkpt>
   <trkpt lat="31.906590" lon="34.946093">
    <ele>143.899</ele>
    <time>2011-04-19T09:14:17Z</time>
   </trkpt>
   <trkpt lat="31.906771" lon="34.946035">
    <ele>145.602</ele>
    <time>2011-04-19T09:14:26Z</time>
   </trkpt>
   <trkpt lat="31.907187" lon="34.945663">
    <ele>151.828</ele>
    <time>2011-04-19T09:14:50Z</time>
   </trkpt>
   <trkpt lat="31.907483" lon="34.945323">
    <ele>154.245</ele>
    <time>2011-04-19T09:15:07Z</time>
   </trkpt>
   <trkpt lat="31.907502" lon="34.945299">
    <ele>154.764</ele>
    <time>2011-04-19T09:15:08Z</time>
   </trkpt>
   <trkpt lat="31.907793" lon="34.945204">
    <ele>153.534</ele>
    <time>2011-04-19T09:15:22Z</time>
   </trkpt>
   <trkpt lat="31.907921" lon="34.945176">
    <ele>152.158</ele>
    <time>2011-04-19T09:15:28Z</time>
   </trkpt>
   <trkpt lat="31.907951" lon="34.945204">
    <ele>151.979</ele>
    <time>2011-04-19T09:15:44Z</time>
   </trkpt>
   <trkpt lat="31.907947" lon="34.945217">
    <ele>151.577</ele>
    <time>2011-04-19T09:16:27Z</time>
   </trkpt>
   <trkpt lat="31.907977" lon="34.945191">
    <ele>151.954</ele>
    <time>2011-04-19T09:19:38Z</time>
   </trkpt>
   <trkpt lat="31.908322" lon="34.945060">
    <ele>151.505</ele>
    <time>2011-04-19T09:19:49Z</time>
   </trkpt>
   <trkpt lat="31.908426" lon="34.945018">
    <ele>151.077</ele>
    <time>2011-04-19T09:19:51Z</time>
   </trkpt>
   <trkpt lat="31.909016" lon="34.944923">
    <ele>147.778</ele>
    <time>2011-04-19T09:20:00Z</time>
   </trkpt>
   <trkpt lat="31.909456" lon="34.945006">
    <ele>145.784</ele>
    <time>2011-04-19T09:20:06Z</time>
   </trkpt>
   <trkpt lat="31.909901" lon="34.945134">
    <ele>143.582</ele>
    <time>2011-04-19T09:20:12Z</time>
   </trkpt>
   <trkpt lat="31.910421" lon="34.945219">
    <ele>141.703</ele>
    <time>2011-04-19T09:20:19Z</time>
   </trkpt>
   <trkpt lat="31.911093" lon="34.945399">
    <ele>140.193</ele>
    <time>2011-04-19T09:20:28Z</time>
   </trkpt>
   <trkpt lat="31.911383" lon="34.945575">
    <ele>138.813</ele>
    <time>2011-04-19T09:20:32Z</time>
   </trkpt>
   <trkpt lat="31.911612" lon="34.945820">
    <ele>138.381</ele>
    <time>2011-04-19T09:20:36Z</time>
   </trkpt>
   <trkpt lat="31.911732" lon="34.946008">
    <ele>138.498</ele>
    <time>2011-04-19T09:20:39Z</time>
   </trkpt>
   <trkpt lat="31.911996" lon="34.946058">
    <ele>137.575</ele>
    <time>2011-04-19T09:20:46Z</time>
   </trkpt>
   <trkpt lat="31.912006" lon="34.945948">
    <ele>136.995</ele>
    <time>2011-04-19T09:20:48Z</time>
   </trkpt>
   <trkpt lat="31.912135" lon="34.945433">
    <ele>134.112</ele>
    <time>2011-04-19T09:20:57Z</time>
   </trkpt>
   <trkpt lat="31.912393" lon="34.944951">
    <ele>131.852</ele>
    <time>2011-04-19T09:21:04Z</time>
   </trkpt>
   <trkpt lat="31.913088" lon="34.944337">
    <ele>128.925</ele>
    <time>2011-04-19T09:21:17Z</time>
   </trkpt>
   <trkpt lat="31.913555" lon="34.943832">
    <ele>126.784</ele>
    <time>2011-04-19T09:21:27Z</time>
   </trkpt>
   <trkpt lat="31.913988" lon="34.943637">
    <ele>126.376</ele>
    <time>2011-04-19T09:21:35Z</time>
   </trkpt>
   <trkpt lat="31.914178" lon="34.943591">
    <ele>126.337</ele>
    <time>2011-04-19T09:21:38Z</time>
   </trkpt>
   <trkpt lat="31.914802" lon="34.943522">
    <ele>128.833</ele>
    <time>2011-04-19T09:21:51Z</time>
   </trkpt>
   <trkpt lat="31.914911" lon="34.943578">
    <ele>130.722</ele>
    <time>2011-04-19T09:21:55Z</time>
   </trkpt>
   <trkpt lat="31.914960" lon="34.943674">
    <ele>131.685</ele>
    <time>2011-04-19T09:22:00Z</time>
   </trkpt>
   <trkpt lat="31.915067" lon="34.943924">
    <ele>136.225</ele>
    <time>2011-04-19T09:22:15Z</time>
   </trkpt>
   <trkpt lat="31.915259" lon="34.944180">
    <ele>139.412</ele>
    <time>2011-04-19T09:22:32Z</time>
   </trkpt>
   <trkpt lat="31.915589" lon="34.944558">
    <ele>142.667</ele>
    <time>2011-04-19T09:22:53Z</time>
   </trkpt>
   <trkpt lat="31.915956" lon="34.944986">
    <ele>140.797</ele>
    <time>2011-04-19T09:23:06Z</time>
   </trkpt>
   <trkpt lat="31.916272" lon="34.945559">
    <ele>135.505</ele>
    <time>2011-04-19T09:23:15Z</time>
   </trkpt>
   <trkpt lat="31.916371" lon="34.945788">
    <ele>133.105</ele>
    <time>2011-04-19T09:23:18Z</time>
   </trkpt>
   <trkpt lat="31.917051" lon="34.946320">
    <ele>126.644</ele>
    <time>2011-04-19T09:23:28Z</time>
   </trkpt>
   <trkpt lat="31.917243" lon="34.946443">
    <ele>124.340</ele>
    <time>2011-04-19T09:23:32Z</time>
   </trkpt>
   <trkpt lat="31.917256" lon="34.946599">
    <ele>124.287</ele>
    <time>2011-04-19T09:23:37Z</time>
   </trkpt>
   <trkpt lat="31.917022" lon="34.947072">
    <ele>127.585</ele>
    <time>2011-04-19T09:23:53Z</time>
   </trkpt>
   <trkpt lat="31.916755" lon="34.947321">
    <ele>129.358</ele>
    <time>2011-04-19T09:24:06Z</time>
   </trkpt>
   <trkpt lat="31.916280" lon="34.947587">
    <ele>130.684</ele>
    <time>2011-04-19T09:24:24Z</time>
   </trkpt>
   <trkpt lat="31.915880" lon="34.947854">
    <ele>133.490</ele>
    <time>2011-04-19T09:24:39Z</time>
   </trkpt>
   <trkpt lat="31.915627" lon="34.948264">
    <ele>135.372</ele>
    <time>2011-04-19T09:24:55Z</time>
   </trkpt>
   <trkpt lat="31.915602" lon="34.948642">
    <ele>140.005</ele>
    <time>2011-04-19T09:25:14Z</time>
   </trkpt>
   <trkpt lat="31.915721" lon="34.949046">
    <ele>143.635</ele>
    <time>2011-04-19T09:25:33Z</time>
   </trkpt>
   <trkpt lat="31.916057" lon="34.949478">
    <ele>144.495</ele>
    <time>2011-04-19T09:25:50Z</time>
   </trkpt>
   <trkpt lat="31.916216" lon="34.949757">
    <ele>144.062</ele>
    <time>2011-04-19T09:25:57Z</time>
   </trkpt>
   <trkpt lat="31.916273" lon="34.949903">
    <ele>143.117</ele>
    <time>2011-04-19T09:26:00Z</time>
   </trkpt>
   <trkpt lat="31.916502" lon="34.950020">
    <ele>140.988</ele>
    <time>2011-04-19T09:26:05Z</time>
   </trkpt>
   <trkpt lat="31.916626" lon="34.950001">
    <ele>139.760</ele>
    <time>2011-04-19T09:26:07Z</time>
   </trkpt>
   <trkpt lat="31.916932" lon="34.950273">
    <ele>137.141</ele>
    <time>2011-04-19T09:26:14Z</time>
   </trkpt>
   <trkpt lat="31.917482" lon="34.950496">
    <ele>132.903</ele>
    <time>2011-04-19T09:26:23Z</time>
   </trkpt>
   <trkpt lat="31.917640" lon="34.950454">
    <ele>132.070</ele>
    <time>2011-04-19T09:26:25Z</time>
   </trkpt>
   <trkpt lat="31.918185" lon="34.950355">
    <ele>128.937</ele>
    <time>2011-04-19T09:26:32Z</time>
   </trkpt>
   <trkpt lat="31.918504" lon="34.950074">
    <ele>127.266</ele>
    <time>2011-04-19T09:26:38Z</time>
   </trkpt>
   <trkpt lat="31.918805" lon="34.949973">
    <ele>128.672</ele>
    <time>2011-04-19T09:26:44Z</time>
   </trkpt>
   <trkpt lat="31.919432" lon="34.950007">
    <ele>133.604</ele>
    <time>2011-04-19T09:27:01Z</time>
   </trkpt>
   <trkpt lat="31.919859" lon="34.950237">
    <ele>138.349</ele>
    <time>2011-04-19T09:27:18Z</time>
   </trkpt>
   <trkpt lat="31.920250" lon="34.950439">
    <ele>139.209</ele>
    <time>2011-04-19T09:27:32Z</time>
   </trkpt>
   <trkpt lat="31.920384" lon="34.950472">
    <ele>138.309</ele>
    <time>2011-04-19T09:27:35Z</time>
   </trkpt>
   <trkpt lat="31.920790" lon="34.950342">
    <ele>133.309</ele>
    <time>2011-04-19T09:27:41Z</time>
   </trkpt>
   <trkpt lat="31.920929" lon="34.950238">
    <ele>131.701</ele>
    <time>2011-04-19T09:27:43Z</time>
   </trkpt>
   <trkpt lat="31.921390" lon="34.950059">
    <ele>126.833</ele>
    <time>2011-04-19T09:27:49Z</time>
   </trkpt>
   <trkpt lat="31.921847" lon="34.949911">
    <ele>120.745</ele>
    <time>2011-04-19T09:27:59Z</time>
   </trkpt>
   <trkpt lat="31.921883" lon="34.949918">
    <ele>120.223</ele>
    <time>2011-04-19T09:28:12Z</time>
   </trkpt>
   <trkpt lat="31.922103" lon="34.949904">
    <ele>116.266</ele>
    <time>2011-04-19T09:28:20Z</time>
   </trkpt>
   <trkpt lat="31.922240" lon="34.949924">
    <ele>114.969</ele>
    <time>2011-04-19T09:28:23Z</time>
   </trkpt>
   <trkpt lat="31.922461" lon="34.949862">
    <ele>112.736</ele>
    <time>2011-04-19T09:28:27Z</time>
   </trkpt>
   <trkpt lat="31.922565" lon="34.949786">
    <ele>112.181</ele>
    <time>2011-04-19T09:28:29Z</time>
   </trkpt>
   <trkpt lat="31.923031" lon="34.949816">
    <ele>107.963</ele>
    <time>2011-04-19T09:28:36Z</time>
   </trkpt>
   <trkpt lat="31.923249" lon="34.949887">
    <ele>106.430</ele>
    <time>2011-04-19T09:28:39Z</time>
   </trkpt>
   <trkpt lat="31.923437" lon="34.950014">
    <ele>107.719</ele>
    <time>2011-04-19T09:28:43Z</time>
   </trkpt>
   <trkpt lat="31.924031" lon="34.950322">
    <ele>110.401</ele>
    <time>2011-04-19T09:28:59Z</time>
   </trkpt>
   <trkpt lat="31.924204" lon="34.950532">
    <ele>110.009</ele>
    <time>2011-04-19T09:29:05Z</time>
   </trkpt>
   <trkpt lat="31.924286" lon="34.950764">
    <ele>110.091</ele>
    <time>2011-04-19T09:29:10Z</time>
   </trkpt>
   <trkpt lat="31.924360" lon="34.951708">
    <ele>112.939</ele>
    <time>2011-04-19T09:29:31Z</time>
   </trkpt>
   <trkpt lat="31.924555" lon="34.952240">
    <ele>112.910</ele>
    <time>2011-04-19T09:29:44Z</time>
   </trkpt>
   <trkpt lat="31.924584" lon="34.952466">
    <ele>114.375</ele>
    <time>2011-04-19T09:29:49Z</time>
   </trkpt>
   <trkpt lat="31.924461" lon="34.952996">
    <ele>118.394</ele>
    <time>2011-04-19T09:30:06Z</time>
   </trkpt>
   <trkpt lat="31.924314" lon="34.953513">
    <ele>120.516</ele>
    <time>2011-04-19T09:30:24Z</time>
   </trkpt>
   <trkpt lat="31.924298" lon="34.954044">
    <ele>121.436</ele>
    <time>2011-04-19T09:30:40Z</time>
   </trkpt>
   <trkpt lat="31.924532" lon="34.954673">
    <ele>122.043</ele>
    <time>2011-04-19T09:30:56Z</time>
   </trkpt>
   <trkpt lat="31.924420" lon="34.955104">
    <ele>126.016</ele>
    <time>2011-04-19T09:31:10Z</time>
   </trkpt>
   <trkpt lat="31.924412" lon="34.955679">
    <ele>127.278</ele>
    <time>2011-04-19T09:31:28Z</time>
   </trkpt>
   <trkpt lat="31.924282" lon="34.956154">
    <ele>130.728</ele>
    <time>2011-04-19T09:31:45Z</time>
   </trkpt>
   <trkpt lat="31.924057" lon="34.956516">
    <ele>133.953</ele>
    <time>2011-04-19T09:32:02Z</time>
   </trkpt>
   <trkpt lat="31.923750" lon="34.956834">
    <ele>136.440</ele>
    <time>2011-04-19T09:32:20Z</time>
   </trkpt>
   <trkpt lat="31.923440" lon="34.957070">
    <ele>138.256</ele>
    <time>2011-04-19T09:32:36Z</time>
   </trkpt>
   <trkpt lat="31.923447" lon="34.957103">
    <ele>138.032</ele>
    <time>2011-04-19T09:32:37Z</time>
   </trkpt>
   <trkpt lat="31.923739" lon="34.957234">
    <ele>136.669</ele>
    <time>2011-04-19T09:32:46Z</time>
   </trkpt>
   <trkpt lat="31.923840" lon="34.957229">
    <ele>136.190</ele>
    <time>2011-04-19T09:32:48Z</time>
   </trkpt>
   <trkpt lat="31.924001" lon="34.957193">
    <ele>135.629</ele>
    <time>2011-04-19T09:32:51Z</time>
   </trkpt>
   <trkpt lat="31.924261" lon="34.957301">
    <ele>134.113</ele>
    <time>2011-04-19T09:32:56Z</time>
   </trkpt>
   <trkpt lat="31.924294" lon="34.957690">
    <ele>135.732</ele>
    <time>2011-04-19T09:33:03Z</time>
   </trkpt>
   <trkpt lat="31.924332" lon="34.958262">
    <ele>137.722</ele>
    <time>2011-04-19T09:33:18Z</time>
   </trkpt>
   <trkpt lat="31.924688" lon="34.958244">
    <ele>137.970</ele>
    <time>2011-04-19T09:33:28Z</time>
   </trkpt>
   <trkpt lat="31.924925" lon="34.957677">
    <ele>133.957</ele>
    <time>2011-04-19T09:33:38Z</time>
   </trkpt>
   <trkpt lat="31.925331" lon="34.957369">
    <ele>130.781</ele>
    <time>2011-04-19T09:33:45Z</time>
   </trkpt>
   <trkpt lat="31.925488" lon="34.957462">
    <ele>131.053</ele>
    <time>2011-04-19T09:33:48Z</time>
   </trkpt>
   <trkpt lat="31.925566" lon="34.957536">
    <ele>130.711</ele>
    <time>2011-04-19T09:33:50Z</time>
   </trkpt>
   <trkpt lat="31.925769" lon="34.957500">
    <ele>130.758</ele>
    <time>2011-04-19T09:33:55Z</time>
   </trkpt>
   <trkpt lat="31.925913" lon="34.957233">
    <ele>130.270</ele>
    <time>2011-04-19T09:34:01Z</time>
   </trkpt>
   <trkpt lat="31.925966" lon="34.956998">
    <ele>129.931</ele>
    <time>2011-04-19T09:34:05Z</time>
   </trkpt>
   <trkpt lat="31.926085" lon="34.956639">
    <ele>129.901</ele>
    <time>2011-04-19T09:34:12Z</time>
   </trkpt>
   <trkpt lat="31.926183" lon="34.956498">
    <ele>129.022</ele>
    <time>2011-04-19T09:34:15Z</time>
   </trkpt>
   <trkpt lat="31.926381" lon="34.956384">
    <ele>127.655</ele>
    <time>2011-04-19T09:34:19Z</time>
   </trkpt>
   <trkpt lat="31.926695" lon="34.956380">
    <ele>127.252</ele>
    <time>2011-04-19T09:34:25Z</time>
   </trkpt>
   <trkpt lat="31.926791" lon="34.956392">
    <ele>127.449</ele>
    <time>2011-04-19T09:34:27Z</time>
   </trkpt>
   <trkpt lat="31.927188" lon="34.956418">
    <ele>128.800</ele>
    <time>2011-04-19T09:34:35Z</time>
   </trkpt>
   <trkpt lat="31.927487" lon="34.956720">
    <ele>131.012</ele>
    <time>2011-04-19T09:34:46Z</time>
   </trkpt>
   <trkpt lat="31.927688" lon="34.957256">
    <ele>133.205</ele>
    <time>2011-04-19T09:35:03Z</time>
   </trkpt>
   <trkpt lat="31.928003" lon="34.957736">
    <ele>135.542</ele>
    <time>2011-04-19T09:35:23Z</time>
   </trkpt>
   <trkpt lat="31.928349" lon="34.958157">
    <ele>137.969</ele>
    <time>2011-04-19T09:35:44Z</time>
   </trkpt>
   <trkpt lat="31.928618" lon="34.958111">
    <ele>139.008</ele>
    <time>2011-04-19T09:35:57Z</time>
   </trkpt>
   <trkpt lat="31.928752" lon="34.957967">
    <ele>138.199</ele>
    <time>2011-04-19T09:36:02Z</time>
   </trkpt>
   <trkpt lat="31.929139" lon="34.957322">
    <ele>139.381</ele>
    <time>2011-04-19T09:36:20Z</time>
   </trkpt>
   <trkpt lat="31.929232" lon="34.956786">
    <ele>141.083</ele>
    <time>2011-04-19T09:36:37Z</time>
   </trkpt>
   <trkpt lat="31.929361" lon="34.956169">
    <ele>143.837</ele>
    <time>2011-04-19T09:36:56Z</time>
   </trkpt>
   <trkpt lat="31.929537" lon="34.955606">
    <ele>147.848</ele>
    <time>2011-04-19T09:37:16Z</time>
   </trkpt>
   <trkpt lat="31.929752" lon="34.955050">
    <ele>151.092</ele>
    <time>2011-04-19T09:37:38Z</time>
   </trkpt>
   <trkpt lat="31.930069" lon="34.954521">
    <ele>150.821</ele>
    <time>2011-04-19T09:37:58Z</time>
   </trkpt>
   <trkpt lat="31.930274" lon="34.954270">
    <ele>149.372</ele>
    <time>2011-04-19T09:38:05Z</time>
   </trkpt>
   <trkpt lat="31.930700" lon="34.953440">
    <ele>147.031</ele>
    <time>2011-04-19T09:38:21Z</time>
   </trkpt>
   <trkpt lat="31.931064" lon="34.952899">
    <ele>145.699</ele>
    <time>2011-04-19T09:38:34Z</time>
   </trkpt>
   <trkpt lat="31.931109" lon="34.952807">
    <ele>145.603</ele>
    <time>2011-04-19T09:38:36Z</time>
   </trkpt>
   <trkpt lat="31.931354" lon="34.952318">
    <ele>143.597</ele>
    <time>2011-04-19T09:38:50Z</time>
   </trkpt>
   <trkpt lat="31.931580" lon="34.952282">
    <ele>142.255</ele>
    <time>2011-04-19T09:38:59Z</time>
   </trkpt>
   <trkpt lat="31.931775" lon="34.952445">
    <ele>141.384</ele>
    <time>2011-04-19T09:39:10Z</time>
   </trkpt>
   <trkpt lat="31.931747" lon="34.952398">
    <ele>141.357</ele>
    <time>2011-04-19T09:39:14Z</time>
   </trkpt>
   <trkpt lat="31.931706" lon="34.952312">
    <ele>141.401</ele>
    <time>2011-04-19T09:39:19Z</time>
   </trkpt>
   <trkpt lat="31.931742" lon="34.952234">
    <ele>140.736</ele>
    <time>2011-04-19T09:39:23Z</time>
   </trkpt>
   <trkpt lat="31.932330" lon="34.952217">
    <ele>136.531</ele>
    <time>2011-04-19T09:39:38Z</time>
   </trkpt>
   <trkpt lat="31.933225" lon="34.951916">
    <ele>129.456</ele>
    <time>2011-04-19T09:39:52Z</time>
   </trkpt>
   <trkpt lat="31.934277" lon="34.951526">
    <ele>121.848</ele>
    <time>2011-04-19T09:40:07Z</time>
   </trkpt>
   <trkpt lat="31.934785" lon="34.951013">
    <ele>117.984</ele>
    <time>2011-04-19T09:40:17Z</time>
   </trkpt>
   <trkpt lat="31.934885" lon="34.950916">
    <ele>117.174</ele>
    <time>2011-04-19T09:40:19Z</time>
   </trkpt>
   <trkpt lat="31.935297" lon="34.949989">
    <ele>113.921</ele>
    <time>2011-04-19T09:40:32Z</time>
   </trkpt>
   <trkpt lat="31.935692" lon="34.949293">
    <ele>111.773</ele>
    <time>2011-04-19T09:40:44Z</time>
   </trkpt>
   <trkpt lat="31.936016" lon="34.948996">
    <ele>112.930</ele>
    <time>2011-04-19T09:40:54Z</time>
   </trkpt>
   <trkpt lat="31.936171" lon="34.949160">
    <ele>115.787</ele>
    <time>2011-04-19T09:41:06Z</time>
   </trkpt>
   <trkpt lat="31.936239" lon="34.949256">
    <ele>116.155</ele>
    <time>2011-04-19T09:41:26Z</time>
   </trkpt>
   <trkpt lat="31.936220" lon="34.949260">
    <ele>116.193</ele>
    <time>2011-04-19T09:41:30Z</time>
   </trkpt>
   <trkpt lat="31.936245" lon="34.949189">
    <ele>116.902</ele>
    <time>2011-04-19T09:41:36Z</time>
   </trkpt>
   <trkpt lat="31.936564" lon="34.949275">
    <ele>120.659</ele>
    <time>2011-04-19T09:41:54Z</time>
   </trkpt>
   <trkpt lat="31.936978" lon="34.949417">
    <ele>120.031</ele>
    <time>2011-04-19T09:42:11Z</time>
   </trkpt>
   <trkpt lat="31.937109" lon="34.949404">
    <ele>119.332</ele>
    <time>2011-04-19T09:42:14Z</time>
   </trkpt>
   <trkpt lat="31.937264" lon="34.949081">
    <ele>116.005</ele>
    <time>2011-04-19T09:42:21Z</time>
   </trkpt>
   <trkpt lat="31.937260" lon="34.948793">
    <ele>115.148</ele>
    <time>2011-04-19T09:42:26Z</time>
   </trkpt>
   <trkpt lat="31.937300" lon="34.948577">
    <ele>113.826</ele>
    <time>2011-04-19T09:42:30Z</time>
   </trkpt>
   <trkpt lat="31.937452" lon="34.948390">
    <ele>111.192</ele>
    <time>2011-04-19T09:42:34Z</time>
   </trkpt>
   <trkpt lat="31.937565" lon="34.948310">
    <ele>110.578</ele>
    <time>2011-04-19T09:42:36Z</time>
   </trkpt>
   <trkpt lat="31.937999" lon="34.947675">
    <ele>100.279</ele>
    <time>2011-04-19T09:42:46Z</time>
   </trkpt>
   <trkpt lat="31.938384" lon="34.947101">
    <ele>91.893</ele>
    <time>2011-04-19T09:42:53Z</time>
   </trkpt>
   <trkpt lat="31.938812" lon="34.947032">
    <ele>90.801</ele>
    <time>2011-04-19T09:43:02Z</time>
   </trkpt>
   <trkpt lat="31.938844" lon="34.947060">
    <ele>91.090</ele>
    <time>2011-04-19T09:43:03Z</time>
   </trkpt>
   <trkpt lat="31.939166" lon="34.947288">
    <ele>91.512</ele>
    <time>2011-04-19T09:43:16Z</time>
   </trkpt>
   <trkpt lat="31.939346" lon="34.947337">
    <ele>93.355</ele>
    <time>2011-04-19T09:43:24Z</time>
   </trkpt>
   <trkpt lat="31.939661" lon="34.947417">
    <ele>94.791</ele>
    <time>2011-04-19T09:43:38Z</time>
   </trkpt>
   <trkpt lat="31.940116" lon="34.947624">
    <ele>96.219</ele>
    <time>2011-04-19T09:43:58Z</time>
   </trkpt>
   <trkpt lat="31.940178" lon="34.947652">
    <ele>96.429</ele>
    <time>2011-04-19T09:44:01Z</time>
   </trkpt>
   <trkpt lat="31.940246" lon="34.947721">
    <ele>96.794</ele>
    <time>2011-04-19T09:44:05Z</time>
   </trkpt>
   <trkpt lat="31.940617" lon="34.948095">
    <ele>95.644</ele>
    <time>2011-04-19T09:44:23Z</time>
   </trkpt>
   <trkpt lat="31.940936" lon="34.948366">
    <ele>97.090</ele>
    <time>2011-04-19T09:44:37Z</time>
   </trkpt>
   <trkpt lat="31.941369" lon="34.948763">
    <ele>98.255</ele>
    <time>2011-04-19T09:44:55Z</time>
   </trkpt>
   <trkpt lat="31.941728" lon="34.949152">
    <ele>99.256</ele>
    <time>2011-04-19T09:45:12Z</time>
   </trkpt>
   <trkpt lat="31.941963" lon="34.949435">
    <ele>100.784</ele>
    <time>2011-04-19T09:45:25Z</time>
   </trkpt>
   <trkpt lat="31.942273" lon="34.949846">
    <ele>102.998</ele>
    <time>2011-04-19T09:45:42Z</time>
   </trkpt>
   <trkpt lat="31.942661" lon="34.950262">
    <ele>103.106</ele>
    <time>2011-04-19T09:46:00Z</time>
   </trkpt>
   <trkpt lat="31.943096" lon="34.950595">
    <ele>104.606</ele>
    <time>2011-04-19T09:46:19Z</time>
   </trkpt>
   <trkpt lat="31.943462" lon="34.950717">
    <ele>106.130</ele>
    <time>2011-04-19T09:46:35Z</time>
   </trkpt>
   <trkpt lat="31.943895" lon="34.950773">
    <ele>109.646</ele>
    <time>2011-04-19T09:46:53Z</time>
   </trkpt>
   <trkpt lat="31.944273" lon="34.950774">
    <ele>110.554</ele>
    <time>2011-04-19T09:47:08Z</time>
   </trkpt>
   <trkpt lat="31.944719" lon="34.950782">
    <ele>115.436</ele>
    <time>2011-04-19T09:47:26Z</time>
   </trkpt>
   <trkpt lat="31.945092" lon="34.950966">
    <ele>117.400</ele>
    <time>2011-04-19T09:47:43Z</time>
   </trkpt>
   <trkpt lat="31.945596" lon="34.951164">
    <ele>120.381</ele>
    <time>2011-04-19T09:48:06Z</time>
   </trkpt>
   <trkpt lat="31.946141" lon="34.951312">
    <ele>125.440</ele>
    <time>2011-04-19T09:48:30Z</time>
   </trkpt>
   <trkpt lat="31.946292" lon="34.951392">
    <ele>127.378</ele>
    <time>2011-04-19T09:48:38Z</time>
   </trkpt>
   <trkpt lat="31.946211" lon="34.951791">
    <ele>129.629</ele>
    <time>2011-04-19T09:48:54Z</time>
   </trkpt>
   <trkpt lat="31.946087" lon="34.952188">
    <ele>134.528</ele>
    <time>2011-04-19T09:49:13Z</time>
   </trkpt>
   <trkpt lat="31.946024" lon="34.952771">
    <ele>139.724</ele>
    <time>2011-04-19T09:49:39Z</time>
   </trkpt>
   <trkpt lat="31.946026" lon="34.953123">
    <ele>143.244</ele>
    <time>2011-04-19T09:49:58Z</time>
   </trkpt>
   <trkpt lat="31.945711" lon="34.953333">
    <ele>144.038</ele>
    <time>2011-04-19T09:50:16Z</time>
   </trkpt>
   <trkpt lat="31.945555" lon="34.953648">
    <ele>143.640</ele>
    <time>2011-04-19T09:50:29Z</time>
   </trkpt>
   <trkpt lat="31.945731" lon="34.954172">
    <ele>141.859</ele>
    <time>2011-04-19T09:50:43Z</time>
   </trkpt>
   <trkpt lat="31.945909" lon="34.954771">
    <ele>144.872</ele>
    <time>2011-04-19T09:51:04Z</time>
   </trkpt>
   <trkpt lat="31.946040" lon="34.955180">
    <ele>149.384</ele>
    <time>2011-04-19T09:51:22Z</time>
   </trkpt>
   <trkpt lat="31.946281" lon="34.955492">
    <ele>153.854</ele>
    <time>2011-04-19T09:51:43Z</time>
   </trkpt>
   <trkpt lat="31.946315" lon="34.955514">
    <ele>153.666</ele>
    <time>2011-04-19T09:51:45Z</time>
   </trkpt>
   <trkpt lat="31.946584" lon="34.955639">
    <ele>157.394</ele>
    <time>2011-04-19T09:52:02Z</time>
   </trkpt>
   <trkpt lat="31.946904" lon="34.955693">
    <ele>160.120</ele>
    <time>2011-04-19T09:52:20Z</time>
   </trkpt>
   <trkpt lat="31.947138" lon="34.955678">
    <ele>162.431</ele>
    <time>2011-04-19T09:52:33Z</time>
   </trkpt>
   <trkpt lat="31.947566" lon="34.955643">
    <ele>165.945</ele>
    <time>2011-04-19T09:52:53Z</time>
   </trkpt>
   <trkpt lat="31.947894" lon="34.955678">
    <ele>169.306</ele>
    <time>2011-04-19T09:53:07Z</time>
   </trkpt>
   <trkpt lat="31.948244" lon="34.955665">
    <ele>170.359</ele>
    <time>2011-04-19T09:53:22Z</time>
   </trkpt>
   <trkpt lat="31.948665" lon="34.955617">
    <ele>169.634</ele>
    <time>2011-04-19T09:53:40Z</time>
   </trkpt>
   <trkpt lat="31.948926" lon="34.955600">
    <ele>170.038</ele>
    <time>2011-04-19T09:53:49Z</time>
   </trkpt>
   <trkpt lat="31.949009" lon="34.955579">
    <ele>170.018</ele>
    <time>2011-04-19T09:53:53Z</time>
   </trkpt>
   <trkpt lat="31.949508" lon="34.955509">
    <ele>169.723</ele>
    <time>2011-04-19T09:54:10Z</time>
   </trkpt>
   <trkpt lat="31.949896" lon="34.955501">
    <ele>169.946</ele>
    <time>2011-04-19T09:54:25Z</time>
   </trkpt>
   <trkpt lat="31.950278" lon="34.955472">
    <ele>168.378</ele>
    <time>2011-04-19T09:54:38Z</time>
   </trkpt>
   <trkpt lat="31.950519" lon="34.955451">
    <ele>168.978</ele>
    <time>2011-04-19T09:54:52Z</time>
   </trkpt>
   <trkpt lat="31.950562" lon="34.955455">
    <ele>168.757</ele>
    <time>2011-04-19T09:55:09Z</time>
   </trkpt>
   <trkpt lat="31.950580" lon="34.955448">
    <ele>168.738</ele>
    <time>2011-04-19T09:55:25Z</time>
   </trkpt>
   <trkpt lat="31.950556" lon="34.955320">
    <ele>168.271</ele>
    <time>2011-04-19T09:55:40Z</time>
   </trkpt>
   <trkpt lat="31.950501" lon="34.955152">
    <ele>168.137</ele>
    <time>2011-04-19T09:55:56Z</time>
   </trkpt>
   <trkpt lat="31.950434" lon="34.955051">
    <ele>168.352</ele>
    <time>2011-04-19T09:56:12Z</time>
   </trkpt>
   <trkpt lat="31.950428" lon="34.955091">
    <ele>168.754</ele>
    <time>2011-04-19T09:56:29Z</time>
   </trkpt>
   <trkpt lat="31.950426" lon="34.955093">
    <ele>168.759</ele>
    <time>2011-04-19T10:00:00Z</time>
   </trkpt>
   <trkpt lat="31.950560" lon="34.955362">
    <ele>171.494</ele>
    <time>2011-04-19T10:00:21Z</time>
   </trkpt>
   <trkpt lat="31.950595" lon="34.955586">
    <ele>173.455</ele>
    <time>2011-04-19T10:00:40Z</time>
   </trkpt>
   <trkpt lat="31.950605" lon="34.955675">
    <ele>173.918</ele>
    <time>2011-04-19T10:00:56Z</time>
   </trkpt>
   <trkpt lat="31.950533" lon="34.955731">
    <ele>173.744</ele>
    <time>2011-04-19T10:01:12Z</time>
   </trkpt>
   <trkpt lat="31.950459" lon="34.955731">
    <ele>173.911</ele>
    <time>2011-04-19T10:01:31Z</time>
   </trkpt>
   <trkpt lat="31.950407" lon="34.955714">
    <ele>173.949</ele>
    <time>2011-04-19T10:01:42Z</time>
   </trkpt>
   <trkpt lat="31.950333" lon="34.955523">
    <ele>173.808</ele>
    <time>2011-04-19T10:01:58Z</time>
   </trkpt>
   <trkpt lat="31.950175" lon="34.955466">
    <ele>173.994</ele>
    <time>2011-04-19T10:02:12Z</time>
   </trkpt>
   <trkpt lat="31.949919" lon="34.955500">
    <ele>174.924</ele>
    <time>2011-04-19T10:02:29Z</time>
   </trkpt>
   <trkpt lat="31.949511" lon="34.955728">
    <ele>174.261</ele>
    <time>2011-04-19T10:02:43Z</time>
   </trkpt>
   <trkpt lat="31.949311" lon="34.955941">
    <ele>175.018</ele>
    <time>2011-04-19T10:02:59Z</time>
   </trkpt>
   <trkpt lat="31.949154" lon="34.956139">
    <ele>177.137</ele>
    <time>2011-04-19T10:03:14Z</time>
   </trkpt>
   <trkpt lat="31.949094" lon="34.956192">
    <ele>177.608</ele>
    <time>2011-04-19T10:03:19Z</time>
   </trkpt>
   <trkpt lat="31.949044" lon="34.956393">
    <ele>179.801</ele>
    <time>2011-04-19T10:03:32Z</time>
   </trkpt>
   <trkpt lat="31.949048" lon="34.956661">
    <ele>180.432</ele>
    <time>2011-04-19T10:03:47Z</time>
   </trkpt>
   <trkpt lat="31.949037" lon="34.956815">
    <ele>180.491</ele>
    <time>2011-04-19T10:04:03Z</time>
   </trkpt>
   <trkpt lat="31.949032" lon="34.956819">
    <ele>180.236</ele>
    <time>2011-04-19T10:04:15Z</time>
   </trkpt>
   <trkpt lat="31.949076" lon="34.956956">
    <ele>181.181</ele>
    <time>2011-04-19T10:04:25Z</time>
   </trkpt>
   <trkpt lat="31.949141" lon="34.957003">
    <ele>182.676</ele>
    <time>2011-04-19T10:04:36Z</time>
   </trkpt>
   <trkpt lat="31.949111" lon="34.957006">
    <ele>182.337</ele>
    <time>2011-04-19T10:04:39Z</time>
   </trkpt>
   <trkpt lat="31.949072" lon="34.957078">
    <ele>182.435</ele>
    <time>2011-04-19T10:04:46Z</time>
   </trkpt>
   <trkpt lat="31.949072" lon="34.957103">
    <ele>183.233</ele>
    <time>2011-04-19T10:04:52Z</time>
   </trkpt>
  
   <trkpt lat="31.949124" lon="34.957197">
    <ele>176.490</ele>
    <time>2011-04-19T10:47:43Z</time>
   </trkpt>
   <trkpt lat="31.949051" lon="34.957120">
    <ele>176.695</ele>
    <time>2011-04-19T10:48:05Z</time>
   </trkpt>
   <trkpt lat="31.949050" lon="34.957051">
    <ele>176.805</ele>
    <time>2011-04-19T10:48:14Z</time>
   </trkpt>
   <trkpt lat="31.949093" lon="34.957010">
    <ele>176.780</ele>
    <time>2011-04-19T10:48:29Z</time>
   </trkpt>
   <trkpt lat="31.949071" lon="34.956971">
    <ele>176.708</ele>
    <time>2011-04-19T10:48:50Z</time>
   </trkpt>
   <trkpt lat="31.948992" lon="34.956916">
    <ele>175.520</ele>
    <time>2011-04-19T10:49:08Z</time>
   </trkpt>
   <trkpt lat="31.948917" lon="34.956576">
    <ele>173.804</ele>
    <time>2011-04-19T10:49:28Z</time>
   </trkpt>
   <trkpt lat="31.949069" lon="34.956200">
    <ele>172.232</ele>
    <time>2011-04-19T10:49:43Z</time>
   </trkpt>
   <trkpt lat="31.949275" lon="34.955958">
    <ele>170.025</ele>
    <time>2011-04-19T10:49:49Z</time>
   </trkpt>
   <trkpt lat="31.949762" lon="34.955579">
    <ele>166.934</ele>
    <time>2011-04-19T10:50:01Z</time>
   </trkpt>
   <trkpt lat="31.950283" lon="34.955475">
    <ele>167.795</ele>
    <time>2011-04-19T10:50:14Z</time>
   </trkpt>
   <trkpt lat="31.950719" lon="34.955461">
    <ele>167.433</ele>
    <time>2011-04-19T10:50:29Z</time>
   </trkpt>
   <trkpt lat="31.950714" lon="34.955463">
    <ele>167.965</ele>
    <time>2011-04-19T10:50:40Z</time>
   </trkpt>
   <trkpt lat="31.950760" lon="34.955394">
    <ele>167.459</ele>
    <time>2011-04-19T10:50:46Z</time>
   </trkpt>
   <trkpt lat="31.950772" lon="34.955011">
    <ele>165.815</ele>
    <time>2011-04-19T10:50:57Z</time>
   </trkpt>
   <trkpt lat="31.950791" lon="34.954742">
    <ele>163.903</ele>
    <time>2011-04-19T10:51:02Z</time>
   </trkpt>
   <trkpt lat="31.950817" lon="34.954631">
    <ele>163.289</ele>
    <time>2011-04-19T10:51:04Z</time>
   </trkpt>
   <trkpt lat="31.951218" lon="34.954116">
    <ele>158.905</ele>
    <time>2011-04-19T10:51:13Z</time>
   </trkpt>
   <trkpt lat="31.951551" lon="34.954061">
    <ele>156.137</ele>
    <time>2011-04-19T10:51:17Z</time>
   </trkpt>
   <trkpt lat="31.951881" lon="34.954151">
    <ele>154.501</ele>
    <time>2011-04-19T10:51:21Z</time>
   </trkpt>
   <trkpt lat="31.952077" lon="34.954255">
    <ele>152.887</ele>
    <time>2011-04-19T10:51:24Z</time>
   </trkpt>
   <trkpt lat="31.952920" lon="34.954727">
    <ele>150.926</ele>
    <time>2011-04-19T10:51:38Z</time>
   </trkpt>
   <trkpt lat="31.953286" lon="34.954959">
    <ele>152.459</ele>
    <time>2011-04-19T10:51:49Z</time>
   </trkpt>
   <trkpt lat="31.953339" lon="34.954924">
    <ele>152.346</ele>
    <time>2011-04-19T10:51:51Z</time>
   </trkpt>
   <trkpt lat="31.953528" lon="34.954307">
    <ele>149.048</ele>
    <time>2011-04-19T10:52:02Z</time>
   </trkpt>
   <trkpt lat="31.953613" lon="34.953883">
    <ele>147.674</ele>
    <time>2011-04-19T10:52:08Z</time>
   </trkpt>
   <trkpt lat="31.953645" lon="34.953118">
    <ele>142.861</ele>
    <time>2011-04-19T10:52:18Z</time>
   </trkpt>
   <trkpt lat="31.953737" lon="34.952610">
    <ele>139.508</ele>
    <time>2011-04-19T10:52:24Z</time>
   </trkpt>
   <trkpt lat="31.953885" lon="34.951527">
    <ele>132.614</ele>
    <time>2011-04-19T10:52:35Z</time>
   </trkpt>
   <trkpt lat="31.954280" lon="34.950970">
    <ele>128.854</ele>
    <time>2011-04-19T10:52:43Z</time>
   </trkpt>
   <trkpt lat="31.954533" lon="34.950976">
    <ele>127.146</ele>
    <time>2011-04-19T10:52:46Z</time>
   </trkpt>
   <trkpt lat="31.955095" lon="34.951128">
    <ele>125.468</ele>
    <time>2011-04-19T10:52:53Z</time>
   </trkpt>
   <trkpt lat="31.955317" lon="34.951273">
    <ele>125.760</ele>
    <time>2011-04-19T10:52:57Z</time>
   </trkpt>
   <trkpt lat="31.955544" lon="34.951515">
    <ele>126.159</ele>
    <time>2011-04-19T10:53:03Z</time>
   </trkpt>
   <trkpt lat="31.955664" lon="34.951588">
    <ele>126.066</ele>
    <time>2011-04-19T10:53:06Z</time>
   </trkpt>
   <trkpt lat="31.956065" lon="34.951698">
    <ele>125.029</ele>
    <time>2011-04-19T10:53:15Z</time>
   </trkpt>
   <trkpt lat="31.956199" lon="34.951762">
    <ele>125.271</ele>
    <time>2011-04-19T10:53:18Z</time>
   </trkpt>
   <trkpt lat="31.956780" lon="34.952284">
    <ele>128.090</ele>
    <time>2011-04-19T10:53:35Z</time>
   </trkpt>
   <trkpt lat="31.957246" lon="34.952660">
    <ele>131.397</ele>
    <time>2011-04-19T10:53:53Z</time>
   </trkpt>
   <trkpt lat="31.957711" lon="34.952654">
    <ele>131.964</ele>
    <time>2011-04-19T10:54:08Z</time>
   </trkpt>
   <trkpt lat="31.958101" lon="34.952721">
    <ele>131.079</ele>
    <time>2011-04-19T10:54:20Z</time>
   </trkpt>
   <trkpt lat="31.958210" lon="34.953242">
    <ele>128.826</ele>
    <time>2011-04-19T10:54:31Z</time>
   </trkpt>
   <trkpt lat="31.958230" lon="34.953302">
    <ele>128.501</ele>
    <time>2011-04-19T10:54:32Z</time>
   </trkpt>
   <trkpt lat="31.958542" lon="34.953632">
    <ele>124.424</ele>
    <time>2011-04-19T10:54:38Z</time>
   </trkpt>
   <trkpt lat="31.958895" lon="34.953782">
    <ele>121.358</ele>
    <time>2011-04-19T10:54:42Z</time>
   </trkpt>
   <trkpt lat="31.959145" lon="34.953933">
    <ele>120.621</ele>
    <time>2011-04-19T10:54:45Z</time>
   </trkpt>
   <trkpt lat="31.959690" lon="34.953928">
    <ele>121.151</ele>
    <time>2011-04-19T10:54:52Z</time>
   </trkpt>
   <trkpt lat="31.960106" lon="34.953910">
    <ele>121.417</ele>
    <time>2011-04-19T10:55:02Z</time>
   </trkpt>
   <trkpt lat="31.960514" lon="34.953947">
    <ele>121.862</ele>
    <time>2011-04-19T10:55:18Z</time>
   </trkpt>
   <trkpt lat="31.961235" lon="34.953862">
    <ele>123.365</ele>
    <time>2011-04-19T10:55:40Z</time>
   </trkpt>
   <trkpt lat="31.961630" lon="34.953910">
    <ele>124.541</ele>
    <time>2011-04-19T10:55:54Z</time>
   </trkpt>
   <trkpt lat="31.962036" lon="34.954104">
    <ele>126.932</ele>
    <time>2011-04-19T10:56:12Z</time>
   </trkpt>
   <trkpt lat="31.962486" lon="34.954231">
    <ele>127.439</ele>
    <time>2011-04-19T10:56:31Z</time>
   </trkpt>
   <trkpt lat="31.962662" lon="34.954204">
    <ele>126.337</ele>
    <time>2011-04-19T10:56:36Z</time>
   </trkpt>
   <trkpt lat="31.962957" lon="34.954272">
    <ele>124.618</ele>
    <time>2011-04-19T10:56:42Z</time>
   </trkpt>
   <trkpt lat="31.963198" lon="34.954247">
    <ele>122.943</ele>
    <time>2011-04-19T10:56:46Z</time>
   </trkpt>
   <trkpt lat="31.963319" lon="34.954182">
    <ele>122.075</ele>
    <time>2011-04-19T10:56:48Z</time>
   </trkpt>
   <trkpt lat="31.963554" lon="34.954163">
    <ele>119.606</ele>
    <time>2011-04-19T10:56:52Z</time>
   </trkpt>
   <trkpt lat="31.963977" lon="34.953893">
    <ele>115.315</ele>
    <time>2011-04-19T10:56:59Z</time>
   </trkpt>
   <trkpt lat="31.964828" lon="34.953628">
    <ele>109.802</ele>
    <time>2011-04-19T10:57:10Z</time>
   </trkpt>
   <trkpt lat="31.965387" lon="34.953573">
    <ele>108.853</ele>
    <time>2011-04-19T10:57:17Z</time>
   </trkpt>
   <trkpt lat="31.965634" lon="34.953520">
    <ele>109.167</ele>
    <time>2011-04-19T10:57:21Z</time>
   </trkpt>
   <trkpt lat="31.965969" lon="34.953439">
    <ele>108.362</ele>
    <time>2011-04-19T10:57:34Z</time>
   </trkpt>
   <trkpt lat="31.966011" lon="34.953402">
    <ele>108.569</ele>
    <time>2011-04-19T10:57:54Z</time>
   </trkpt>
   <trkpt lat="31.966020" lon="34.953403">
    <ele>108.413</ele>
    <time>2011-04-19T10:58:16Z</time>
   </trkpt>
   <trkpt lat="31.966187" lon="34.953597">
    <ele>105.453</ele>
    <time>2011-04-19T10:58:25Z</time>
   </trkpt>
   <trkpt lat="31.966314" lon="34.953670">
    <ele>103.645</ele>
    <time>2011-04-19T10:58:29Z</time>
   </trkpt>
   <trkpt lat="31.966415" lon="34.953823">
    <ele>100.461</ele>
    <time>2011-04-19T10:58:33Z</time>
   </trkpt>
   <trkpt lat="31.966555" lon="34.953951">
    <ele>98.257</ele>
    <time>2011-04-19T10:58:37Z</time>
   </trkpt>
   <trkpt lat="31.967033" lon="34.954310">
    <ele>91.833</ele>
    <time>2011-04-19T10:58:48Z</time>
   </trkpt>
   <trkpt lat="31.967302" lon="34.954571">
    <ele>87.728</ele>
    <time>2011-04-19T10:58:54Z</time>
   </trkpt>
   <trkpt lat="31.967415" lon="34.954742">
    <ele>84.140</ele>
    <time>2011-04-19T10:58:58Z</time>
   </trkpt>
   <trkpt lat="31.967477" lon="34.954966">
    <ele>80.228</ele>
    <time>2011-04-19T10:59:03Z</time>
   </trkpt>
   <trkpt lat="31.967690" lon="34.955085">
    <ele>77.372</ele>
    <time>2011-04-19T10:59:10Z</time>
   </trkpt>
   <trkpt lat="31.967989" lon="34.955421">
    <ele>74.585</ele>
    <time>2011-04-19T10:59:21Z</time>
   </trkpt>
   <trkpt lat="31.968072" lon="34.955469">
    <ele>74.428</ele>
    <time>2011-04-19T10:59:23Z</time>
   </trkpt>
   <trkpt lat="31.968314" lon="34.955636">
    <ele>73.034</ele>
    <time>2011-04-19T10:59:30Z</time>
   </trkpt>
   <trkpt lat="31.968381" lon="34.955733">
    <ele>74.331</ele>
    <time>2011-04-19T10:59:34Z</time>
   </trkpt>
   <trkpt lat="31.968332" lon="34.955805">
    <ele>75.692</ele>
    <time>2011-04-19T10:59:38Z</time>
   </trkpt>
   <trkpt lat="31.968387" lon="34.956191">
    <ele>77.982</ele>
    <time>2011-04-19T10:59:53Z</time>
   </trkpt>
   <trkpt lat="31.968751" lon="34.956782">
    <ele>78.912</ele>
    <time>2011-04-19T11:00:13Z</time>
   </trkpt>
   <trkpt lat="31.969183" lon="34.957355">
    <ele>79.767</ele>
    <time>2011-04-19T11:00:33Z</time>
   </trkpt>
   <trkpt lat="31.969497" lon="34.957803">
    <ele>80.014</ele>
    <time>2011-04-19T11:00:46Z</time>
   </trkpt>
   <trkpt lat="31.969774" lon="34.958125">
    <ele>80.478</ele>
    <time>2011-04-19T11:00:56Z</time>
   </trkpt>
   <trkpt lat="31.969887" lon="34.958262">
    <ele>80.760</ele>
    <time>2011-04-19T11:01:00Z</time>
   </trkpt>
   <trkpt lat="31.970266" lon="34.958895">
    <ele>82.600</ele>
    <time>2011-04-19T11:01:17Z</time>
   </trkpt>
   <trkpt lat="31.970394" lon="34.959637">
    <ele>85.346</ele>
    <time>2011-04-19T11:01:35Z</time>
   </trkpt>
   <trkpt lat="31.970413" lon="34.959986">
    <ele>85.767</ele>
    <time>2011-04-19T11:01:47Z</time>
   </trkpt>
   <trkpt lat="31.970700" lon="34.960368">
    <ele>85.908</ele>
    <time>2011-04-19T11:02:02Z</time>
   </trkpt>
   <trkpt lat="31.971088" lon="34.960334">
    <ele>86.609</ele>
    <time>2011-04-19T11:02:16Z</time>
   </trkpt>
   <trkpt lat="31.971341" lon="34.960380">
    <ele>88.077</ele>
    <time>2011-04-19T11:02:31Z</time>
   </trkpt>
   <trkpt lat="31.971401" lon="34.960450">
    <ele>89.450</ele>
    <time>2011-04-19T11:02:41Z</time>
   </trkpt>
   <trkpt lat="31.971579" lon="34.960616">
    <ele>93.393</ele>
    <time>2011-04-19T11:03:00Z</time>
   </trkpt>
   <trkpt lat="31.971660" lon="34.960648">
    <ele>94.478</ele>
    <time>2011-04-19T11:03:06Z</time>
   </trkpt>
   <trkpt lat="31.971684" lon="34.960654">
    <ele>94.977</ele>
    <time>2011-04-19T11:03:08Z</time>
   </trkpt>
   <trkpt lat="31.971958" lon="34.960747">
    <ele>97.859</ele>
    <time>2011-04-19T11:03:27Z</time>
   </trkpt>
   <trkpt lat="31.972260" lon="34.960833">
    <ele>102.685</ele>
    <time>2011-04-19T11:03:49Z</time>
   </trkpt>
   <trkpt lat="31.972533" lon="34.960828">
    <ele>104.936</ele>
    <time>2011-04-19T11:04:09Z</time>
   </trkpt>
   <trkpt lat="31.972791" lon="34.960976">
    <ele>107.417</ele>
    <time>2011-04-19T11:04:29Z</time>
   </trkpt>
   <trkpt lat="31.973075" lon="34.961178">
    <ele>110.364</ele>
    <time>2011-04-19T11:04:49Z</time>
   </trkpt>
   <trkpt lat="31.973380" lon="34.961337">
    <ele>114.144</ele>
    <time>2011-04-19T11:05:09Z</time>
   </trkpt>
   <trkpt lat="31.973394" lon="34.961337">
    <ele>113.870</ele>
    <time>2011-04-19T11:05:10Z</time>
   </trkpt>
   <trkpt lat="31.973580" lon="34.961543">
    <ele>117.283</ele>
    <time>2011-04-19T11:05:27Z</time>
   </trkpt>
   <trkpt lat="31.973779" lon="34.961722">
    <ele>119.462</ele>
    <time>2011-04-19T11:05:42Z</time>
   </trkpt>
   <trkpt lat="31.974006" lon="34.961703">
    <ele>119.753</ele>
    <time>2011-04-19T11:05:52Z</time>
   </trkpt>
   <trkpt lat="31.974348" lon="34.961942">
    <ele>119.307</ele>
    <time>2011-04-19T11:06:06Z</time>
   </trkpt>
   <trkpt lat="31.974462" lon="34.961988">
    <ele>118.947</ele>
    <time>2011-04-19T11:06:09Z</time>
   </trkpt>
   <trkpt lat="31.975045" lon="34.962240">
    <ele>114.845</ele>
    <time>2011-04-19T11:06:21Z</time>
   </trkpt>
   <trkpt lat="31.975766" lon="34.962538">
    <ele>110.543</ele>
    <time>2011-04-19T11:06:32Z</time>
   </trkpt>
   <trkpt lat="31.976059" lon="34.962761">
    <ele>111.468</ele>
    <time>2011-04-19T11:06:39Z</time>
   </trkpt>
   <trkpt lat="31.976246" lon="34.962820">
    <ele>110.025</ele>
    <time>2011-04-19T11:06:43Z</time>
   </trkpt>
   <trkpt lat="31.976571" lon="34.962739">
    <ele>107.800</ele>
    <time>2011-04-19T11:06:49Z</time>
   </trkpt>
   <trkpt lat="31.976625" lon="34.962612">
    <ele>107.716</ele>
    <time>2011-04-19T11:06:53Z</time>
   </trkpt>
   <trkpt lat="31.976605" lon="34.962597">
    <ele>107.534</ele>
    <time>2011-04-19T11:06:57Z</time>
   </trkpt>
   <trkpt lat="31.976589" lon="34.962665">
    <ele>107.587</ele>
    <time>2011-04-19T11:07:01Z</time>
   </trkpt>
   <trkpt lat="31.976548" lon="34.962733">
    <ele>107.705</ele>
    <time>2011-04-19T11:07:17Z</time>
   </trkpt>
   <trkpt lat="31.976567" lon="34.962751">
    <ele>107.698</ele>
    <time>2011-04-19T11:07:20Z</time>
   </trkpt>
   <trkpt lat="31.976946" lon="34.962776">
    <ele>102.742</ele>
    <time>2011-04-19T11:07:31Z</time>
   </trkpt>
   <trkpt lat="31.977158" lon="34.962765">
    <ele>99.796</ele>
    <time>2011-04-19T11:07:43Z</time>
   </trkpt>
   <trkpt lat="31.977362" lon="34.962760">
    <ele>95.016</ele>
    <time>2011-04-19T11:07:53Z</time>
   </trkpt>
   <trkpt lat="31.977528" lon="34.963024">
    <ele>89.302</ele>
    <time>2011-04-19T11:08:06Z</time>
   </trkpt>
   <trkpt lat="31.977592" lon="34.963092">
    <ele>88.089</ele>
    <time>2011-04-19T11:08:09Z</time>
   </trkpt>
   <trkpt lat="31.977686" lon="34.963164">
    <ele>87.727</ele>
    <time>2011-04-19T11:08:12Z</time>
   </trkpt>
   <trkpt lat="31.977708" lon="34.963230">
    <ele>87.732</ele>
    <time>2011-04-19T11:08:22Z</time>
   </trkpt>
   <trkpt lat="31.977716" lon="34.963181">
    <ele>87.636</ele>
    <time>2011-04-19T11:08:45Z</time>
   </trkpt>
   <trkpt lat="31.977715" lon="34.963170">
    <ele>87.658</ele>
    <time>2011-04-19T11:08:48Z</time>
   </trkpt>
   <trkpt lat="31.977748" lon="34.962840">
    <ele>88.061</ele>
    <time>2011-04-19T11:09:04Z</time>
   </trkpt>
   <trkpt lat="31.977794" lon="34.962543">
    <ele>88.105</ele>
    <time>2011-04-19T11:09:13Z</time>
   </trkpt>
   <trkpt lat="31.978158" lon="34.962250">
    <ele>87.564</ele>
    <time>2011-04-19T11:09:27Z</time>
   </trkpt>
   <trkpt lat="31.978194" lon="34.962240">
    <ele>87.120</ele>
    <time>2011-04-19T11:09:28Z</time>
   </trkpt>
   <trkpt lat="31.978461" lon="34.961992">
    <ele>85.782</ele>
    <time>2011-04-19T11:09:40Z</time>
   </trkpt>
   <trkpt lat="31.978474" lon="34.961990">
    <ele>86.079</ele>
    <time>2011-04-19T11:09:42Z</time>
   </trkpt>
   <trkpt lat="31.978729" lon="34.961737">
    <ele>86.718</ele>
    <time>2011-04-19T11:10:01Z</time>
   </trkpt>

   <trkpt lat="31.979235" lon="34.961205">
    <ele>83.481</ele>
    <time>2011-04-19T11:10:25Z</time>
   </trkpt>
   <trkpt lat="31.979399" lon="34.961057">
    <ele>77.887</ele>
    <time>2011-04-19T11:10:36Z</time>
   </trkpt>
   <trkpt lat="31.979718" lon="34.960938">
    <ele>78.982</ele>
    <time>2011-04-19T11:10:49Z</time>
   </trkpt>
   <trkpt lat="31.980037" lon="34.960556">
    <ele>80.098</ele>
    <time>2011-04-19T11:11:02Z</time>
   </trkpt>
   <trkpt lat="31.980371" lon="34.960235">
    <ele>82.270</ele>
    <time>2011-04-19T11:11:15Z</time>
   </trkpt>
   <trkpt lat="31.980674" lon="34.959859">
    <ele>83.552</ele>
    <time>2011-04-19T11:11:29Z</time>
   </trkpt>
   <trkpt lat="31.981011" lon="34.959801">
    <ele>85.742</ele>
    <time>2011-04-19T11:11:43Z</time>
   </trkpt>
   <trkpt lat="31.981382" lon="34.959987">
    <ele>87.173</ele>
    <time>2011-04-19T11:12:01Z</time>
   </trkpt>
   <trkpt lat="31.981756" lon="34.960102">
    <ele>88.783</ele>
    <time>2011-04-19T11:12:18Z</time>
   </trkpt>
   <trkpt lat="31.982009" lon="34.960461">
    <ele>87.047</ele>
    <time>2011-04-19T11:12:32Z</time>
   </trkpt>
   <trkpt lat="31.982140" lon="34.960659">
    <ele>85.901</ele>
    <time>2011-04-19T11:12:38Z</time>
   </trkpt>
   <trkpt lat="31.982393" lon="34.960730">
    <ele>84.924</ele>
    <time>2011-04-19T11:12:44Z</time>
   </trkpt>
   <trkpt lat="31.982764" lon="34.960636">
    <ele>80.814</ele>
    <time>2011-04-19T11:12:51Z</time>
   </trkpt>
   <trkpt lat="31.983249" lon="34.960726">
    <ele>77.473</ele>
    <time>2011-04-19T11:12:59Z</time>
   </trkpt>
   <trkpt lat="31.983531" lon="34.960986">
    <ele>74.463</ele>
    <time>2011-04-19T11:13:10Z</time>
   </trkpt>
   <trkpt lat="31.983610" lon="34.961108">
    <ele>73.682</ele>
    <time>2011-04-19T11:13:24Z</time>
   </trkpt>
   <trkpt lat="31.983710" lon="34.961304">
    <ele>73.912</ele>
    <time>2011-04-19T11:13:42Z</time>
   </trkpt>
   <trkpt lat="31.983736" lon="34.961342">
    <ele>73.847</ele>
    <time>2011-04-19T11:13:49Z</time>
   </trkpt>
   <trkpt lat="31.983838" lon="34.961426">
    <ele>72.971</ele>
    <time>2011-04-19T11:13:59Z</time>
   </trkpt>
   <trkpt lat="31.983848" lon="34.961575">
    <ele>75.360</ele>
    <time>2011-04-19T11:14:08Z</time>
   </trkpt>
   <trkpt lat="31.983943" lon="34.961725">
    <ele>78.515</ele>
    <time>2011-04-19T11:14:18Z</time>
   </trkpt>
   <trkpt lat="31.984140" lon="34.961617">
    <ele>81.932</ele>
    <time>2011-04-19T11:14:35Z</time>
   </trkpt>
   <trkpt lat="31.984172" lon="34.961562">
    <ele>82.767</ele>
    <time>2011-04-19T11:14:39Z</time>
   </trkpt>
   <trkpt lat="31.984335" lon="34.961448">
    <ele>85.188</ele>
    <time>2011-04-19T11:14:52Z</time>
   </trkpt>
   <trkpt lat="31.984563" lon="34.961540">
    <ele>87.268</ele>
    <time>2011-04-19T11:15:11Z</time>
   </trkpt>
   <trkpt lat="31.984670" lon="34.961544">
    <ele>89.674</ele>
    <time>2011-04-19T11:15:20Z</time>
   </trkpt>
   <trkpt lat="31.984748" lon="34.961605">
    <ele>89.888</ele>
    <time>2011-04-19T11:15:28Z</time>
   </trkpt>
   <trkpt lat="31.985001" lon="34.961716">
    <ele>92.802</ele>
    <time>2011-04-19T11:15:47Z</time>
   </trkpt>
   <trkpt lat="31.985363" lon="34.961668">
    <ele>94.355</ele>
    <time>2011-04-19T11:16:05Z</time>
   </trkpt>
   <trkpt lat="31.985791" lon="34.961485">
    <ele>94.206</ele>
    <time>2011-04-19T11:16:20Z</time>
   </trkpt>
   <trkpt lat="31.986009" lon="34.961405">
    <ele>92.105</ele>
    <time>2011-04-19T11:16:26Z</time>
   </trkpt>
   <trkpt lat="31.986161" lon="34.961390">
    <ele>91.150</ele>
    <time>2011-04-19T11:16:29Z</time>
   </trkpt>
   <trkpt lat="31.986373" lon="34.961220">
    <ele>90.500</ele>
    <time>2011-04-19T11:16:34Z</time>
   </trkpt>
   <trkpt lat="31.986474" lon="34.961058">
    <ele>89.666</ele>
    <time>2011-04-19T11:16:37Z</time>
   </trkpt>
   <trkpt lat="31.986502" lon="34.960696">
    <ele>88.813</ele>
    <time>2011-04-19T11:16:44Z</time>
   </trkpt>
   <trkpt lat="31.986659" lon="34.960528">
    <ele>87.397</ele>
    <time>2011-04-19T11:16:49Z</time>
   </trkpt>
   <trkpt lat="31.986798" lon="34.960465">
    <ele>86.338</ele>
    <time>2011-04-19T11:16:52Z</time>
   </trkpt>
   <trkpt lat="31.986882" lon="34.960221">
    <ele>84.844</ele>
    <time>2011-04-19T11:16:59Z</time>
   </trkpt>
   <trkpt lat="31.986974" lon="34.960227">
    <ele>83.933</ele>
    <time>2011-04-19T11:17:01Z</time>
   </trkpt>
   <trkpt lat="31.987079" lon="34.960254">
    <ele>82.925</ele>
    <time>2011-04-19T11:17:03Z</time>
   </trkpt>
   <trkpt lat="31.987375" lon="34.960203">
    <ele>80.997</ele>
    <time>2011-04-19T11:17:08Z</time>
   </trkpt>
   <trkpt lat="31.987555" lon="34.960400">
    <ele>77.560</ele>
    <time>2011-04-19T11:17:14Z</time>
   </trkpt>
   <trkpt lat="31.987819" lon="34.960552">
    <ele>74.628</ele>
    <time>2011-04-19T11:17:20Z</time>
   </trkpt>
   <trkpt lat="31.987957" lon="34.960546">
    <ele>73.927</ele>
    <time>2011-04-19T11:17:22Z</time>
   </trkpt>
   <trkpt lat="31.988202" lon="34.960411">
    <ele>72.790</ele>
    <time>2011-04-19T11:17:27Z</time>
   </trkpt>
   <trkpt lat="31.988428" lon="34.960400">
    <ele>71.595</ele>
    <time>2011-04-19T11:17:31Z</time>
   </trkpt>
   <trkpt lat="31.988577" lon="34.960399">
    <ele>70.311</ele>
    <time>2011-04-19T11:17:34Z</time>
   </trkpt>
   <trkpt lat="31.988869" lon="34.960543">
    <ele>68.084</ele>
    <time>2011-04-19T11:17:40Z</time>
   </trkpt>
   <trkpt lat="31.989039" lon="34.960710">
    <ele>67.307</ele>
    <time>2011-04-19T11:17:45Z</time>
   </trkpt>
   <trkpt lat="31.989182" lon="34.960778">
    <ele>66.683</ele>
    <time>2011-04-19T11:17:49Z</time>
   </trkpt>
   <trkpt lat="31.989223" lon="34.960882">
    <ele>66.756</ele>
    <time>2011-04-19T11:17:53Z</time>
   </trkpt>
   <trkpt lat="31.989338" lon="34.961498">
    <ele>67.993</ele>
    <time>2011-04-19T11:18:12Z</time>
   </trkpt>
   <trkpt lat="31.989616" lon="34.961946">
    <ele>68.945</ele>
    <time>2011-04-19T11:18:28Z</time>
   </trkpt>
   <trkpt lat="31.989966" lon="34.962046">
    <ele>69.455</ele>
    <time>2011-04-19T11:18:43Z</time>
   </trkpt>
   <trkpt lat="31.990292" lon="34.961771">
    <ele>72.583</ele>
    <time>2011-04-19T11:19:00Z</time>
   </trkpt>
   <trkpt lat="31.990492" lon="34.961566">
    <ele>73.956</ele>
    <time>2011-04-19T11:19:13Z</time>
   </trkpt>
   <trkpt lat="31.990746" lon="34.961524">
    <ele>77.223</ele>
    <time>2011-04-19T11:19:33Z</time>
   </trkpt>
   <trkpt lat="31.990739" lon="34.961517">
    <ele>76.869</ele>
    <time>2011-04-19T11:19:51Z</time>
   </trkpt>
   <trkpt lat="31.990670" lon="34.961496">
    <ele>76.542</ele>
    <time>2011-04-19T11:19:56Z</time>
   </trkpt>
   <trkpt lat="31.990336" lon="34.961703">
    <ele>74.766</ele>
    <time>2011-04-19T11:20:09Z</time>
   </trkpt>
   <trkpt lat="31.990219" lon="34.961886">
    <ele>72.975</ele>
    <time>2011-04-19T11:20:19Z</time>
   </trkpt>
   <trkpt lat="31.990253" lon="34.962274">
    <ele>71.675</ele>
    <time>2011-04-19T11:20:34Z</time>
   </trkpt>
   <trkpt lat="31.990240" lon="34.962358">
    <ele>71.665</ele>
    <time>2011-04-19T11:20:39Z</time>
   </trkpt>
   <trkpt lat="31.990124" lon="34.962655">
    <ele>69.093</ele>
    <time>2011-04-19T11:20:53Z</time>
   </trkpt>
   <trkpt lat="31.990094" lon="34.962734">
    <ele>68.198</ele>
    <time>2011-04-19T11:21:10Z</time>
   </trkpt>
   <trkpt lat="31.990096" lon="34.962778">
    <ele>67.905</ele>
    <time>2011-04-19T11:21:25Z</time>
   </trkpt>
   <trkpt lat="31.990113" lon="34.962947">
    <ele>65.876</ele>
    <time>2011-04-19T11:21:37Z</time>
   </trkpt>
   <trkpt lat="31.990184" lon="34.963214">
    <ele>64.685</ele>
    <time>2011-04-19T11:21:45Z</time>
   </trkpt>
   <trkpt lat="31.990195" lon="34.963638">
    <ele>65.301</ele>
    <time>2011-04-19T11:21:55Z</time>
   </trkpt>
   <trkpt lat="31.990192" lon="34.963971">
    <ele>69.888</ele>
    <time>2011-04-19T11:22:10Z</time>
   </trkpt>
   <trkpt lat="31.990242" lon="34.964392">
    <ele>70.378</ele>
    <time>2011-04-19T11:22:29Z</time>
   </trkpt>
   <trkpt lat="31.990266" lon="34.964432">
    <ele>70.495</ele>
    <time>2011-04-19T11:22:31Z</time>
   </trkpt>
   <trkpt lat="31.990428" lon="34.964707">
    <ele>68.967</ele>
    <time>2011-04-19T11:22:45Z</time>
   </trkpt>
   <trkpt lat="31.990521" lon="34.964909">
    <ele>69.378</ele>
    <time>2011-04-19T11:23:05Z</time>
   </trkpt>
   <trkpt lat="31.990538" lon="34.964965">
    <ele>69.353</ele>
    <time>2011-04-19T11:23:07Z</time>
   </trkpt>
   <trkpt lat="31.990740" lon="34.965002">
    <ele>67.963</ele>
    <time>2011-04-19T11:23:15Z</time>
   </trkpt>
   <trkpt lat="31.990882" lon="34.965123">
    <ele>69.369</ele>
    <time>2011-04-19T11:23:26Z</time>
   </trkpt>
   <trkpt lat="31.991082" lon="34.965566">
    <ele>69.076</ele>
    <time>2011-04-19T11:23:41Z</time>
   </trkpt>
   <trkpt lat="31.991369" lon="34.965967">
    <ele>69.028</ele>
    <time>2011-04-19T11:23:57Z</time>
   </trkpt>
   <trkpt lat="31.991668" lon="34.966364">
    <ele>69.068</ele>
    <time>2011-04-19T11:24:14Z</time>
   </trkpt>
   <trkpt lat="31.992047" lon="34.966727">
    <ele>69.196</ele>
    <time>2011-04-19T11:24:30Z</time>
   </trkpt>
   <trkpt lat="31.992470" lon="34.966556">
    <ele>69.178</ele>
    <time>2011-04-19T11:24:44Z</time>
   </trkpt>
   <trkpt lat="31.992926" lon="34.966521">
    <ele>69.817</ele>
    <time>2011-04-19T11:24:59Z</time>
   </trkpt>
   <trkpt lat="31.993391" lon="34.966604">
    <ele>70.687</ele>
    <time>2011-04-19T11:25:15Z</time>
   </trkpt>
   <trkpt lat="31.993988" lon="34.966751">
    <ele>70.751</ele>
    <time>2011-04-19T11:25:32Z</time>
   </trkpt>
   <trkpt lat="31.994346" lon="34.966790">
    <ele>70.543</ele>
    <time>2011-04-19T11:25:44Z</time>
   </trkpt>
   <trkpt lat="31.994553" lon="34.966781">
    <ele>70.817</ele>
    <time>2011-04-19T11:25:51Z</time>
   </trkpt>
   <trkpt lat="31.994923" lon="34.966753">
    <ele>71.468</ele>
    <time>2011-04-19T11:26:03Z</time>
   </trkpt>
   <trkpt lat="31.995545" lon="34.966708">
    <ele>72.611</ele>
    <time>2011-04-19T11:26:21Z</time>
   </trkpt>
   <trkpt lat="31.995945" lon="34.966711">
    <ele>73.579</ele>
    <time>2011-04-19T11:26:35Z</time>
   </trkpt>
   <trkpt lat="31.996054" lon="34.966603">
    <ele>75.496</ele>
    <time>2011-04-19T11:26:52Z</time>
   </trkpt>
   <trkpt lat="31.996076" lon="34.966562">
    <ele>77.218</ele>
    <time>2011-04-19T11:26:59Z</time>
   </trkpt>
   <trkpt lat="31.996132" lon="34.966469">
    <ele>80.647</ele>
    <time>2011-04-19T11:27:13Z</time>
   </trkpt>
   <trkpt lat="31.996145" lon="34.966454">
    <ele>80.691</ele>
    <time>2011-04-19T11:27:16Z</time>
   </trkpt>
   <trkpt lat="31.996238" lon="34.966433">
    <ele>79.996</ele>
    <time>2011-04-19T11:27:21Z</time>
   </trkpt>
   <trkpt lat="31.996401" lon="34.966515">
    <ele>78.722</ele>
    <time>2011-04-19T11:27:25Z</time>
   </trkpt>
   <trkpt lat="31.996728" lon="34.966570">
    <ele>78.078</ele>
    <time>2011-04-19T11:27:33Z</time>
   </trkpt>
   <trkpt lat="31.996869" lon="34.966632">
    <ele>77.383</ele>
    <time>2011-04-19T11:27:37Z</time>
   </trkpt>
   <trkpt lat="31.997263" lon="34.966722">
    <ele>76.887</ele>
    <time>2011-04-19T11:27:50Z</time>
   </trkpt>
   <trkpt lat="31.997738" lon="34.966865">
    <ele>76.863</ele>
    <time>2011-04-19T11:28:06Z</time>
   </trkpt>
   <trkpt lat="31.998129" lon="34.966937">
    <ele>76.033</ele>
    <time>2011-04-19T11:28:20Z</time>
   </trkpt>
   <trkpt lat="31.998554" lon="34.966979">
    <ele>76.128</ele>
    <time>2011-04-19T11:28:34Z</time>
   </trkpt>
   <trkpt lat="31.998995" lon="34.967114">
    <ele>76.322</ele>
    <time>2011-04-19T11:28:49Z</time>
   </trkpt>
   <trkpt lat="31.999249" lon="34.967083">
    <ele>78.224</ele>
    <time>2011-04-19T11:29:01Z</time>
   </trkpt>
   <trkpt lat="31.999530" lon="34.967160">
    <ele>78.504</ele>
    <time>2011-04-19T11:29:14Z</time>
   </trkpt>
   <trkpt lat="32.000038" lon="34.967267">
    <ele>77.662</ele>
    <time>2011-04-19T11:29:33Z</time>
   </trkpt>
   <trkpt lat="32.000476" lon="34.967364">
    <ele>77.977</ele>
    <time>2011-04-19T11:29:48Z</time>
   </trkpt>
   <trkpt lat="32.001002" lon="34.967425">
    <ele>77.896</ele>
    <time>2011-04-19T11:30:05Z</time>
   </trkpt>
   <trkpt lat="32.001498" lon="34.967262">
    <ele>78.896</ele>
    <time>2011-04-19T11:30:23Z</time>
   </trkpt>
   <trkpt lat="32.001773" lon="34.967143">
    <ele>77.770</ele>
    <time>2011-04-19T11:30:34Z</time>
   </trkpt>
   <trkpt lat="32.001784" lon="34.967118">
    <ele>77.717</ele>
    <time>2011-04-19T11:30:35Z</time>
   </trkpt>
   <trkpt lat="32.001915" lon="34.967037">
    <ele>77.375</ele>
    <time>2011-04-19T11:30:40Z</time>
   </trkpt>
   <trkpt lat="32.002035" lon="34.966854">
    <ele>77.703</ele>
    <time>2011-04-19T11:30:47Z</time>
   </trkpt>
   <trkpt lat="32.002157" lon="34.966851">
    <ele>78.370</ele>
    <time>2011-04-19T11:30:51Z</time>
   </trkpt>
   <trkpt lat="32.002202" lon="34.966859">
    <ele>79.431</ele>
    <time>2011-04-19T11:30:53Z</time>
   </trkpt>
   <trkpt lat="32.002253" lon="34.966822">
    <ele>80.219</ele>
    <time>2011-04-19T11:30:57Z</time>
   </trkpt>
   <trkpt lat="32.002266" lon="34.966782">
    <ele>80.572</ele>
    <time>2011-04-19T11:31:00Z</time>
   </trkpt>
   <trkpt lat="32.002340" lon="34.966759">
    <ele>81.239</ele>
    <time>2011-04-19T11:31:15Z</time>
   </trkpt>
   <trkpt lat="32.002408" lon="34.966770">
    <ele>82.064</ele>
    <time>2011-04-19T11:31:25Z</time>
   </trkpt>
   <trkpt lat="32.002735" lon="34.966774">
    <ele>84.459</ele>
    <time>2011-04-19T11:31:39Z</time>
   </trkpt>
   <trkpt lat="32.003126" lon="34.966784">
    <ele>89.735</ele>
    <time>2011-04-19T11:31:57Z</time>
   </trkpt>
   <trkpt lat="32.003398" lon="34.966798">
    <ele>92.056</ele>
    <time>2011-04-19T11:32:12Z</time>
   </trkpt>
   <trkpt lat="32.003727" lon="34.966850">
    <ele>94.013</ele>
    <time>2011-04-19T11:32:33Z</time>
   </trkpt>
   <trkpt lat="32.003861" lon="34.966959">
    <ele>94.627</ele>
    <time>2011-04-19T11:32:44Z</time>
   </trkpt>
   <trkpt lat="32.003956" lon="34.966976">
    <ele>94.138</ele>
    <time>2011-04-19T11:32:50Z</time>
   </trkpt>
   <trkpt lat="32.004233" lon="34.966659">
    <ele>90.332</ele>
    <time>2011-04-19T11:33:05Z</time>
   </trkpt>
   <trkpt lat="32.004216" lon="34.966353">
    <ele>88.341</ele>
    <time>2011-04-19T11:33:15Z</time>
   </trkpt>
   <trkpt lat="32.004369" lon="34.966157">
    <ele>88.164</ele>
    <time>2011-04-19T11:33:24Z</time>
   </trkpt>
   <trkpt lat="32.004383" lon="34.966083">
    <ele>87.950</ele>
    <time>2011-04-19T11:33:27Z</time>
   </trkpt>
   <trkpt lat="32.004274" lon="34.965627">
    <ele>84.342</ele>
    <time>2011-04-19T11:33:39Z</time>
   </trkpt>
   <trkpt lat="32.004146" lon="34.965066">
    <ele>83.630</ele>
    <time>2011-04-19T11:33:53Z</time>
   </trkpt>
   <trkpt lat="32.004070" lon="34.964389">
    <ele>83.483</ele>
    <time>2011-04-19T11:34:09Z</time>
   </trkpt>
   <trkpt lat="32.004112" lon="34.963842">
    <ele>85.977</ele>
    <time>2011-04-19T11:34:25Z</time>
   </trkpt>
   <trkpt lat="32.004223" lon="34.963062">
    <ele>88.337</ele>
    <time>2011-04-19T11:34:48Z</time>
   </trkpt>
   <trkpt lat="32.004342" lon="34.962547">
    <ele>91.947</ele>
    <time>2011-04-19T11:35:07Z</time>
   </trkpt>
   <trkpt lat="32.004537" lon="34.962139">
    <ele>92.965</ele>
    <time>2011-04-19T11:35:23Z</time>
   </trkpt>
   <trkpt lat="32.004811" lon="34.962175">
    <ele>93.697</ele>
    <time>2011-04-19T11:35:33Z</time>
   </trkpt>
   <trkpt lat="32.005307" lon="34.962318">
    <ele>95.264</ele>
    <time>2011-04-19T11:35:51Z</time>
   </trkpt>
   <trkpt lat="32.005997" lon="34.962349">
    <ele>98.219</ele>
    <time>2011-04-19T11:36:14Z</time>
   </trkpt>
   <trkpt lat="32.006593" lon="34.962491">
    <ele>100.297</ele>
    <time>2011-04-19T11:36:35Z</time>
   </trkpt>
   <trkpt lat="32.006945" lon="34.962440">
    <ele>101.645</ele>
    <time>2011-04-19T11:36:47Z</time>
   </trkpt>
   <trkpt lat="32.007447" lon="34.962468">
    <ele>104.536</ele>
    <time>2011-04-19T11:37:03Z</time>
   </trkpt>
   <trkpt lat="32.007891" lon="34.962486">
    <ele>106.010</ele>
    <time>2011-04-19T11:37:18Z</time>
   </trkpt>
   <trkpt lat="32.008599" lon="34.962518">
    <ele>108.254</ele>
    <time>2011-04-19T11:37:42Z</time>
   </trkpt>
   <trkpt lat="32.009244" lon="34.962556">
    <ele>110.930</ele>
    <time>2011-04-19T11:38:04Z</time>
   </trkpt>
   <trkpt lat="32.010091" lon="34.962602">
    <ele>113.667</ele>
    <time>2011-04-19T11:38:29Z</time>
   </trkpt>
   <trkpt lat="32.010603" lon="34.962692">
    <ele>115.049</ele>
    <time>2011-04-19T11:38:45Z</time>
   </trkpt>
   <trkpt lat="32.010955" lon="34.962645">
    <ele>116.133</ele>
    <time>2011-04-19T11:38:57Z</time>
   </trkpt>
   <trkpt lat="32.011469" lon="34.962687">
    <ele>116.463</ele>
    <time>2011-04-19T11:39:13Z</time>
   </trkpt>
   <trkpt lat="32.012346" lon="34.962706">
    <ele>117.176</ele>
    <time>2011-04-19T11:39:35Z</time>
   </trkpt>
   <trkpt lat="32.013048" lon="34.962673">
    <ele>114.559</ele>
    <time>2011-04-19T11:39:52Z</time>
   </trkpt>
   <trkpt lat="32.013579" lon="34.962457">
    <ele>113.228</ele>
    <time>2011-04-19T11:40:07Z</time>
   </trkpt>
   <trkpt lat="32.013795" lon="34.962274">
    <ele>115.052</ele>
    <time>2011-04-19T11:40:16Z</time>
   </trkpt>
   <trkpt lat="32.013883" lon="34.962307">
    <ele>115.785</ele>
    <time>2011-04-19T11:40:21Z</time>
   </trkpt>
   <trkpt lat="32.013923" lon="34.962334">
    <ele>115.958</ele>
    <time>2011-04-19T11:40:23Z</time>
   </trkpt>
   <trkpt lat="32.014323" lon="34.962308">
    <ele>119.329</ele>
    <time>2011-04-19T11:40:42Z</time>
   </trkpt>
   <trkpt lat="32.014771" lon="34.962268">
    <ele>123.123</ele>
    <time>2011-04-19T11:41:01Z</time>
   </trkpt>
   <trkpt lat="32.015161" lon="34.962255">
    <ele>126.290</ele>
    <time>2011-04-19T11:41:19Z</time>
   </trkpt>
   <trkpt lat="32.015492" lon="34.962215">
    <ele>128.380</ele>
    <time>2011-04-19T11:41:36Z</time>
   </trkpt>
   <trkpt lat="32.015983" lon="34.962083">
    <ele>130.681</ele>
    <time>2011-04-19T11:41:57Z</time>
   </trkpt>
   <trkpt lat="32.016270" lon="34.962226">
    <ele>129.938</ele>
    <time>2011-04-19T11:42:10Z</time>
   </trkpt>
   <trkpt lat="32.016510" lon="34.962300">
    <ele>129.124</ele>
    <time>2011-04-19T11:42:17Z</time>
   </trkpt>
   <trkpt lat="32.016641" lon="34.962340">
    <ele>128.164</ele>
    <time>2011-04-19T11:42:20Z</time>
   </trkpt>
   <trkpt lat="32.016791" lon="34.962363">
    <ele>127.593</ele>
    <time>2011-04-19T11:42:23Z</time>
   </trkpt>
   <trkpt lat="32.016998" lon="34.962382">
    <ele>126.460</ele>
    <time>2011-04-19T11:42:27Z</time>
   </trkpt>
   <trkpt lat="32.017953" lon="34.962502">
    <ele>123.861</ele>
    <time>2011-04-19T11:42:45Z</time>
   </trkpt>
   <trkpt lat="32.018306" lon="34.962736">
    <ele>122.778</ele>
    <time>2011-04-19T11:42:56Z</time>
   </trkpt>
   <trkpt lat="32.018362" lon="34.962789">
    <ele>121.818</ele>
    <time>2011-04-19T11:42:58Z</time>
   </trkpt>
   <trkpt lat="32.018463" lon="34.962892">
    <ele>120.899</ele>
    <time>2011-04-19T11:43:01Z</time>
   </trkpt>
   <trkpt lat="32.018785" lon="34.962952">
    <ele>119.154</ele>
    <time>2011-04-19T11:43:08Z</time>
   </trkpt>
   <trkpt lat="32.019037" lon="34.963048">
    <ele>117.403</ele>
    <time>2011-04-19T11:43:13Z</time>
   </trkpt>
   <trkpt lat="32.019539" lon="34.963136">
    <ele>115.726</ele>
    <time>2011-04-19T11:43:27Z</time>
   </trkpt>
   <trkpt lat="32.019692" lon="34.963204">
    <ele>113.839</ele>
    <time>2011-04-19T11:43:37Z</time>
   </trkpt>
   <trkpt lat="32.019708" lon="34.963191">
    <ele>113.705</ele>
    <time>2011-04-19T11:43:57Z</time>
   </trkpt>
   <trkpt lat="32.019709" lon="34.963178">
    <ele>113.698</ele>
    <time>2011-04-19T11:44:58Z</time>
   </trkpt>
   <trkpt lat="32.019790" lon="34.963134">
    <ele>114.231</ele>
    <time>2011-04-19T11:45:12Z</time>
   </trkpt>
   <trkpt lat="32.019861" lon="34.963125">
    <ele>113.821</ele>
    <time>2011-04-19T11:45:34Z</time>
   </trkpt>
   <trkpt lat="32.019865" lon="34.963124">
    <ele>113.778</ele>
    <time>2011-04-19T11:46:06Z</time>
   </trkpt>
   <trkpt lat="32.020089" lon="34.963203">
    <ele>112.146</ele>
    <time>2011-04-19T11:46:15Z</time>
   </trkpt>
   <trkpt lat="32.020346" lon="34.963294">
    <ele>110.129</ele>
    <time>2011-04-19T11:46:21Z</time>
   </trkpt>
   <trkpt lat="32.020553" lon="34.963386">
    <ele>109.072</ele>
    <time>2011-04-19T11:46:26Z</time>
   </trkpt>
   <trkpt lat="32.020738" lon="34.963393">
    <ele>108.232</ele>
    <time>2011-04-19T11:46:30Z</time>
   </trkpt>
   <trkpt lat="32.021217" lon="34.963520">
    <ele>107.259</ele>
    <time>2011-04-19T11:46:45Z</time>
   </trkpt>
   <trkpt lat="32.021550" lon="34.963438">
    <ele>107.915</ele>
    <time>2011-04-19T11:46:58Z</time>
   </trkpt>
   <trkpt lat="32.021793" lon="34.963557">
    <ele>108.000</ele>
    <time>2011-04-19T11:47:10Z</time>
   </trkpt>
   <trkpt lat="32.021978" lon="34.963924">
    <ele>106.748</ele>
    <time>2011-04-19T11:47:24Z</time>
   </trkpt>
   <trkpt lat="32.022063" lon="34.964091">
    <ele>104.950</ele>
    <time>2011-04-19T11:47:36Z</time>
   </trkpt>
   <trkpt lat="32.022221" lon="34.964153">
    <ele>103.151</ele>
    <time>2011-04-19T11:47:56Z</time>
   </trkpt>
   <trkpt lat="32.022270" lon="34.964136">
    <ele>102.928</ele>
    <time>2011-04-19T11:47:59Z</time>
   </trkpt>
   <trkpt lat="32.022350" lon="34.964213">
    <ele>102.626</ele>
    <time>2011-04-19T11:48:05Z</time>
   </trkpt>
   <trkpt lat="32.022094" lon="34.964437">
    <ele>105.635</ele>
    <time>2011-04-19T11:48:22Z</time>
   </trkpt>
   <trkpt lat="32.021777" lon="34.964605">
    <ele>109.862</ele>
    <time>2011-04-19T11:48:42Z</time>
   </trkpt>
   <trkpt lat="32.021689" lon="34.964662">
    <ele>111.643</ele>
    <time>2011-04-19T11:48:56Z</time>
   </trkpt>
   <trkpt lat="32.021612" lon="34.964709">
    <ele>113.315</ele>
    <time>2011-04-19T11:49:10Z</time>
   </trkpt>
   <trkpt lat="32.021495" lon="34.964804">
    <ele>114.074</ele>
    <time>2011-04-19T11:49:26Z</time>
   </trkpt>
   <trkpt lat="32.021503" lon="34.964951">
    <ele>114.425</ele>
    <time>2011-04-19T11:49:36Z</time>
   </trkpt>
   <trkpt lat="32.021520" lon="34.965027">
    <ele>114.598</ele>
    <time>2011-04-19T11:49:45Z</time>
   </trkpt>

   <trkpt lat="32.021715" lon="34.966340">
    <ele>135.078</ele>
    <time>2011-04-19T11:50:46Z</time>
   </trkpt>
   <trkpt lat="32.021849" lon="34.966419">
    <ele>116.473</ele>
    <time>2011-04-19T11:50:50Z</time>
   </trkpt>
   <trkpt lat="32.021866" lon="34.966397">
    <ele>121.976</ele>
    <time>2011-04-19T11:51:02Z</time>
   </trkpt>
   <trkpt lat="32.021879" lon="34.966385">
    <ele>119.938</ele>
    <time>2011-04-19T11:51:10Z</time>
   </trkpt>
   <trkpt lat="32.021922" lon="34.966349">
    <ele>119.341</ele>
    <time>2011-04-19T11:51:14Z</time>
   </trkpt>
   <trkpt lat="32.022136" lon="34.966138">
    <ele>123.205</ele>
    <time>2011-04-19T11:51:32Z</time>
   </trkpt>
   <trkpt lat="32.022174" lon="34.966091">
    <ele>124.460</ele>
    <time>2011-04-19T11:51:38Z</time>
   </trkpt>
   <trkpt lat="32.022363" lon="34.965859">
    <ele>128.556</ele>
    <time>2011-04-19T11:51:57Z</time>
   </trkpt>
   <trkpt lat="32.022382" lon="34.965757">
    <ele>128.387</ele>
    <time>2011-04-19T11:52:01Z</time>
   </trkpt>
   <trkpt lat="32.022452" lon="34.965649">
    <ele>126.439</ele>
    <time>2011-04-19T11:52:05Z</time>
   </trkpt>
   <trkpt lat="32.022814" lon="34.965478">
    <ele>123.115</ele>
    <time>2011-04-19T11:52:20Z</time>
   </trkpt>
   <trkpt lat="32.023008" lon="34.965378">
    <ele>121.175</ele>
    <time>2011-04-19T11:52:26Z</time>
   </trkpt>
   <trkpt lat="32.023165" lon="34.965274">
    <ele>119.128</ele>
    <time>2011-04-19T11:52:30Z</time>
   </trkpt>
   <trkpt lat="32.023278" lon="34.965167">
    <ele>117.737</ele>
    <time>2011-04-19T11:52:33Z</time>
   </trkpt>
   <trkpt lat="32.023833" lon="34.964822">
    <ele>114.177</ele>
    <time>2011-04-19T11:52:48Z</time>
   </trkpt>
   <trkpt lat="32.024182" lon="34.964782">
    <ele>117.046</ele>
    <time>2011-04-19T11:53:05Z</time>
   </trkpt>
   <trkpt lat="32.024323" lon="34.964644">
    <ele>116.995</ele>
    <time>2011-04-19T11:53:18Z</time>
   </trkpt>
   <trkpt lat="32.024344" lon="34.964614">
    <ele>116.200</ele>
    <time>2011-04-19T11:53:24Z</time>
   </trkpt>
   <trkpt lat="32.024304" lon="34.964652">
    <ele>116.450</ele>
    <time>2011-04-19T11:53:28Z</time>
   </trkpt>
   <trkpt lat="32.024271" lon="34.964690">
    <ele>116.542</ele>
    <time>2011-04-19T11:53:31Z</time>
   </trkpt>
   <trkpt lat="32.024378" lon="34.964698">
    <ele>117.069</ele>
    <time>2011-04-19T11:53:40Z</time>
   </trkpt>
   <trkpt lat="32.024650" lon="34.964695">
    <ele>121.298</ele>
    <time>2011-04-19T11:53:55Z</time>
   </trkpt>
   <trkpt lat="32.024694" lon="34.964706">
    <ele>121.919</ele>
    <time>2011-04-19T11:53:58Z</time>
   </trkpt>
   <trkpt lat="32.024881" lon="34.964451">
    <ele>121.836</ele>
    <time>2011-04-19T11:54:14Z</time>
   </trkpt>
   <trkpt lat="32.025135" lon="34.964267">
    <ele>125.099</ele>
    <time>2011-04-19T11:54:30Z</time>
   </trkpt>
   <trkpt lat="32.025474" lon="34.964225">
    <ele>127.752</ele>
    <time>2011-04-19T11:54:47Z</time>
   </trkpt>
   <trkpt lat="32.025776" lon="34.964118">
    <ele>130.663</ele>
    <time>2011-04-19T11:55:04Z</time>
   </trkpt>
   <trkpt lat="32.026169" lon="34.964051">
    <ele>132.752</ele>
    <time>2011-04-19T11:55:22Z</time>
   </trkpt>
   <trkpt lat="32.026508" lon="34.963954">
    <ele>134.143</ele>
    <time>2011-04-19T11:55:36Z</time>
   </trkpt>
   <trkpt lat="32.026868" lon="34.963796">
    <ele>134.465</ele>
    <time>2011-04-19T11:55:51Z</time>
   </trkpt>
   <trkpt lat="32.026962" lon="34.963753">
    <ele>134.020</ele>
    <time>2011-04-19T11:55:55Z</time>
   </trkpt>
   <trkpt lat="32.027200" lon="34.963985">
    <ele>132.207</ele>
    <time>2011-04-19T11:56:08Z</time>
   </trkpt>
   <trkpt lat="32.027235" lon="34.964340">
    <ele>130.050</ele>
    <time>2011-04-19T11:56:22Z</time>
   </trkpt>
   <trkpt lat="32.027343" lon="34.964585">
    <ele>125.880</ele>
    <time>2011-04-19T11:56:29Z</time>
   </trkpt>
   <trkpt lat="32.027574" lon="34.964678">
    <ele>122.294</ele>
    <time>2011-04-19T11:56:36Z</time>
   </trkpt>
   <trkpt lat="32.027683" lon="34.964628">
    <ele>121.059</ele>
    <time>2011-04-19T11:56:39Z</time>
   </trkpt>
   <trkpt lat="32.027846" lon="34.964759">
    <ele>120.249</ele>
    <time>2011-04-19T11:56:44Z</time>
   </trkpt>
   <trkpt lat="32.028042" lon="34.964878">
    <ele>119.088</ele>
    <time>2011-04-19T11:56:51Z</time>
   </trkpt>
   <trkpt lat="32.028221" lon="34.964784">
    <ele>116.219</ele>
    <time>2011-04-19T11:56:57Z</time>
   </trkpt>
   <trkpt lat="32.028357" lon="34.964988">
    <ele>114.251</ele>
    <time>2011-04-19T11:57:05Z</time>
   </trkpt>
   <trkpt lat="32.028631" lon="34.965331">
    <ele>108.410</ele>
    <time>2011-04-19T11:57:19Z</time>
   </trkpt>
   <trkpt lat="32.028695" lon="34.965466">
    <ele>107.651</ele>
    <time>2011-04-19T11:57:23Z</time>
   </trkpt>
   <trkpt lat="32.028748" lon="34.965639">
    <ele>106.354</ele>
    <time>2011-04-19T11:57:28Z</time>
   </trkpt>
   <trkpt lat="32.028833" lon="34.965785">
    <ele>101.549</ele>
    <time>2011-04-19T11:57:33Z</time>
   </trkpt>
   <trkpt lat="32.028891" lon="34.965935">
    <ele>98.199</ele>
    <time>2011-04-19T11:57:37Z</time>
   </trkpt>
   <trkpt lat="32.029071" lon="34.966281">
    <ele>96.642</ele>
    <time>2011-04-19T11:57:47Z</time>
   </trkpt>
   <trkpt lat="32.029172" lon="34.966284">
    <ele>97.542</ele>
    <time>2011-04-19T11:57:51Z</time>
   </trkpt>
   <trkpt lat="32.029566" lon="34.966204">
    <ele>101.718</ele>
    <time>2011-04-19T11:58:07Z</time>
   </trkpt>
   <trkpt lat="32.029862" lon="34.966102">
    <ele>104.145</ele>
    <time>2011-04-19T11:58:23Z</time>
   </trkpt>
   <trkpt lat="32.030128" lon="34.965988">
    <ele>106.794</ele>
    <time>2011-04-19T11:58:38Z</time>
   </trkpt>
   <trkpt lat="32.030348" lon="34.965944">
    <ele>109.681</ele>
    <time>2011-04-19T11:58:53Z</time>
   </trkpt>
   <trkpt lat="32.030571" lon="34.965903">
    <ele>111.997</ele>
    <time>2011-04-19T11:59:07Z</time>
   </trkpt>
   <trkpt lat="32.030826" lon="34.965902">
    <ele>114.730</ele>
    <time>2011-04-19T11:59:26Z</time>
   </trkpt>
   <trkpt lat="32.030955" lon="34.965928">
    <ele>115.660</ele>
    <time>2011-04-19T11:59:35Z</time>
   </trkpt>
   <trkpt lat="32.031122" lon="34.965959">
    <ele>116.430</ele>
    <time>2011-04-19T11:59:47Z</time>
   </trkpt>
   <trkpt lat="32.031384" lon="34.965885">
    <ele>117.466</ele>
    <time>2011-04-19T12:00:04Z</time>
   </trkpt>
   <trkpt lat="32.031613" lon="34.965846">
    <ele>119.427</ele>
    <time>2011-04-19T12:00:18Z</time>
   </trkpt>
   <trkpt lat="32.031845" lon="34.965816">
    <ele>120.482</ele>
    <time>2011-04-19T12:00:31Z</time>
   </trkpt>
   <trkpt lat="32.031967" lon="34.965783">
    <ele>121.458</ele>
    <time>2011-04-19T12:00:39Z</time>
   </trkpt>
   <trkpt lat="32.032050" lon="34.965810">
    <ele>121.842</ele>
    <time>2011-04-19T12:00:45Z</time>
   </trkpt>
   <trkpt lat="32.032118" lon="34.965814">
    <ele>122.528</ele>
    <time>2011-04-19T12:00:50Z</time>
   </trkpt>
   <trkpt lat="32.032182" lon="34.965796">
    <ele>122.633</ele>
    <time>2011-04-19T12:00:56Z</time>
   </trkpt>
   <trkpt lat="32.032278" lon="34.965753">
    <ele>123.287</ele>
    <time>2011-04-19T12:01:03Z</time>
   </trkpt>
   <trkpt lat="32.032323" lon="34.965619">
    <ele>122.066</ele>
    <time>2011-04-19T12:01:09Z</time>
   </trkpt>
   <trkpt lat="32.032332" lon="34.965512">
    <ele>121.425</ele>
    <time>2011-04-19T12:01:11Z</time>
   </trkpt>
   <trkpt lat="32.032392" lon="34.965296">
    <ele>122.356</ele>
    <time>2011-04-19T12:01:16Z</time>
   </trkpt>
   <trkpt lat="32.032595" lon="34.965037">
    <ele>123.152</ele>
    <time>2011-04-19T12:01:30Z</time>
   </trkpt>
   <trkpt lat="32.032657" lon="34.964914">
    <ele>125.594</ele>
    <time>2011-04-19T12:01:41Z</time>
   </trkpt>
   <trkpt lat="32.032792" lon="34.964680">
    <ele>127.231</ele>
    <time>2011-04-19T12:01:56Z</time>
   </trkpt>
   <trkpt lat="32.032800" lon="34.964662">
    <ele>127.354</ele>
    <time>2011-04-19T12:01:57Z</time>
   </trkpt>
   <trkpt lat="32.032968" lon="34.964311">
    <ele>130.754</ele>
    <time>2011-04-19T12:02:17Z</time>
   </trkpt>
   <trkpt lat="32.033069" lon="34.964151">
    <ele>132.137</ele>
    <time>2011-04-19T12:02:28Z</time>
   </trkpt>
   <trkpt lat="32.033210" lon="34.963871">
    <ele>135.460</ele>
    <time>2011-04-19T12:02:46Z</time>
   </trkpt>
   <trkpt lat="32.033269" lon="34.963783">
    <ele>135.622</ele>
    <time>2011-04-19T12:02:51Z</time>
   </trkpt>
   <trkpt lat="32.033393" lon="34.963423">
    <ele>139.517</ele>
    <time>2011-04-19T12:03:12Z</time>
   </trkpt>
   <trkpt lat="32.033398" lon="34.963337">
    <ele>139.578</ele>
    <time>2011-04-19T12:03:16Z</time>
   </trkpt>
   <trkpt lat="32.033358" lon="34.962995">
    <ele>140.447</ele>
    <time>2011-04-19T12:03:31Z</time>
   </trkpt>
   <trkpt lat="32.033393" lon="34.962757">
    <ele>141.293</ele>
    <time>2011-04-19T12:03:41Z</time>
   </trkpt>
   <trkpt lat="32.033301" lon="34.962653">
    <ele>140.420</ele>
    <time>2011-04-19T12:03:49Z</time>
   </trkpt>
   <trkpt lat="32.032964" lon="34.962630">
    <ele>139.235</ele>
    <time>2011-04-19T12:04:06Z</time>
   </trkpt>
   <trkpt lat="32.032692" lon="34.962642">
    <ele>144.026</ele>
    <time>2011-04-19T12:04:18Z</time>
   </trkpt>
   <trkpt lat="32.032639" lon="34.962557">
    <ele>145.516</ele>
    <time>2011-04-19T12:04:23Z</time>
   </trkpt>
   <trkpt lat="32.032674" lon="34.962444">
    <ele>145.804</ele>
    <time>2011-04-19T12:04:28Z</time>
   </trkpt>
   <trkpt lat="32.032913" lon="34.962044">
    <ele>144.919</ele>
    <time>2011-04-19T12:04:41Z</time>
   </trkpt>
   <trkpt lat="32.033155" lon="34.961576">
    <ele>143.044</ele>
    <time>2011-04-19T12:04:51Z</time>
   </trkpt>
   <trkpt lat="32.033341" lon="34.961219">
    <ele>141.408</ele>
    <time>2011-04-19T12:04:58Z</time>
   </trkpt>
   <trkpt lat="32.033410" lon="34.961047">
    <ele>141.393</ele>
    <time>2011-04-19T12:05:01Z</time>
   </trkpt>
   <trkpt lat="32.033475" lon="34.960888">
    <ele>140.682</ele>
    <time>2011-04-19T12:05:04Z</time>
   </trkpt>
   <trkpt lat="32.033511" lon="34.960629">
    <ele>137.310</ele>
    <time>2011-04-19T12:05:08Z</time>
   </trkpt>
   <trkpt lat="32.033532" lon="34.960202">
    <ele>133.973</ele>
    <time>2011-04-19T12:05:13Z</time>
   </trkpt>
   <trkpt lat="32.033518" lon="34.959912">
    <ele>131.659</ele>
    <time>2011-04-19T12:05:16Z</time>
   </trkpt>
   <trkpt lat="32.033554" lon="34.959545">
    <ele>128.913</ele>
    <time>2011-04-19T12:05:20Z</time>
   </trkpt>
   <trkpt lat="32.033542" lon="34.959005">
    <ele>124.593</ele>
    <time>2011-04-19T12:05:29Z</time>
   </trkpt>
   <trkpt lat="32.033601" lon="34.958820">
    <ele>122.711</ele>
    <time>2011-04-19T12:05:34Z</time>
   </trkpt>
   <trkpt lat="32.033687" lon="34.958645">
    <ele>121.612</ele>
    <time>2011-04-19T12:05:38Z</time>
   </trkpt>
   <trkpt lat="32.033790" lon="34.958408">
    <ele>119.525</ele>
    <time>2011-04-19T12:05:43Z</time>
   </trkpt>
   <trkpt lat="32.033949" lon="34.958441">
    <ele>118.787</ele>
    <time>2011-04-19T12:05:48Z</time>
   </trkpt>
   <trkpt lat="32.033951" lon="34.958415">
    <ele>117.973</ele>
    <time>2011-04-19T12:05:52Z</time>
   </trkpt>
   <trkpt lat="32.033827" lon="34.958360">
    <ele>116.884</ele>
    <time>2011-04-19T12:05:58Z</time>
   </trkpt>
   <trkpt lat="32.033774" lon="34.958118">
    <ele>115.272</ele>
    <time>2011-04-19T12:06:06Z</time>
   </trkpt>
   <trkpt lat="32.033940" lon="34.957947">
    <ele>113.822</ele>
    <time>2011-04-19T12:06:12Z</time>
   </trkpt>
   <trkpt lat="32.034078" lon="34.957982">
    <ele>113.503</ele>
    <time>2011-04-19T12:06:15Z</time>
   </trkpt>
   <trkpt lat="32.034393" lon="34.957953">
    <ele>113.406</ele>
    <time>2011-04-19T12:06:24Z</time>
   </trkpt>
   <trkpt lat="32.034605" lon="34.958035">
    <ele>114.795</ele>
    <time>2011-04-19T12:06:32Z</time>
   </trkpt>
   <trkpt lat="32.034692" lon="34.958006">
    <ele>116.073</ele>
    <time>2011-04-19T12:06:37Z</time>
   </trkpt>
   <trkpt lat="32.034952" lon="34.958056">
    <ele>117.069</ele>
    <time>2011-04-19T12:06:48Z</time>
   </trkpt>
   <trkpt lat="32.035051" lon="34.958009">
    <ele>117.214</ele>
    <time>2011-04-19T12:06:54Z</time>
   </trkpt>
   <trkpt lat="32.035329" lon="34.958049">
    <ele>118.111</ele>
    <time>2011-04-19T12:07:11Z</time>
   </trkpt>
   <trkpt lat="32.035414" lon="34.958065">
    <ele>118.323</ele>
    <time>2011-04-19T12:07:16Z</time>
   </trkpt>
   <trkpt lat="32.035722" lon="34.958096">
    <ele>121.303</ele>
    <time>2011-04-19T12:07:35Z</time>
   </trkpt>
   <trkpt lat="32.036070" lon="34.958166">
    <ele>123.309</ele>
    <time>2011-04-19T12:07:51Z</time>
   </trkpt>
   <trkpt lat="32.036256" lon="34.958177">
    <ele>124.051</ele>
    <time>2011-04-19T12:07:58Z</time>
   </trkpt>
   <trkpt lat="32.036524" lon="34.958148">
    <ele>124.589</ele>
    <time>2011-04-19T12:08:09Z</time>
   </trkpt>
   <trkpt lat="32.036773" lon="34.958183">
    <ele>130.134</ele>
    <time>2011-04-19T12:08:22Z</time>
   </trkpt>
   <trkpt lat="32.037110" lon="34.958255">
    <ele>132.103</ele>
    <time>2011-04-19T12:08:40Z</time>
   </trkpt>
   <trkpt lat="32.037149" lon="34.958273">
    <ele>131.817</ele>
    <time>2011-04-19T12:08:43Z</time>
   </trkpt>
   <trkpt lat="32.037311" lon="34.958451">
    <ele>131.960</ele>
    <time>2011-04-19T12:09:00Z</time>
   </trkpt>
   <trkpt lat="32.037482" lon="34.958465">
    <ele>133.982</ele>
    <time>2011-04-19T12:09:11Z</time>
   </trkpt>
   <trkpt lat="32.037515" lon="34.958555">
    <ele>133.742</ele>
    <time>2011-04-19T12:09:16Z</time>
   </trkpt>
   <trkpt lat="32.037507" lon="34.958922">
    <ele>133.270</ele>
    <time>2011-04-19T12:09:29Z</time>
   </trkpt>
   <trkpt lat="32.037454" lon="34.959447">
    <ele>135.102</ele>
    <time>2011-04-19T12:09:47Z</time>
   </trkpt>
   <trkpt lat="32.037413" lon="34.959924">
    <ele>135.484</ele>
    <time>2011-04-19T12:10:04Z</time>
   </trkpt>
   <trkpt lat="32.037371" lon="34.960536">
    <ele>138.521</ele>
    <time>2011-04-19T12:10:26Z</time>
   </trkpt>
   <trkpt lat="32.037330" lon="34.960950">
    <ele>137.972</ele>
    <time>2011-04-19T12:10:42Z</time>
   </trkpt>
   <trkpt lat="32.037239" lon="34.961401">
    <ele>143.509</ele>
    <time>2011-04-19T12:10:59Z</time>
   </trkpt>
   <trkpt lat="32.037164" lon="34.961830">
    <ele>147.718</ele>
    <time>2011-04-19T12:11:20Z</time>
   </trkpt>
   <trkpt lat="32.037132" lon="34.962228">
    <ele>148.298</ele>
    <time>2011-04-19T12:11:39Z</time>
   </trkpt>
   <trkpt lat="32.037085" lon="34.962529">
    <ele>148.707</ele>
    <time>2011-04-19T12:11:54Z</time>
   </trkpt>
   <trkpt lat="32.036972" lon="34.962702">
    <ele>146.659</ele>
    <time>2011-04-19T12:12:03Z</time>
   </trkpt>
   <trkpt lat="32.036961" lon="34.962759">
    <ele>143.169</ele>
    <time>2011-04-19T12:12:06Z</time>
   </trkpt>
   <trkpt lat="32.036882" lon="34.963080">
    <ele>141.726</ele>
    <time>2011-04-19T12:12:18Z</time>
   </trkpt>
   <trkpt lat="32.036921" lon="34.963508">
    <ele>145.618</ele>
    <time>2011-04-19T12:12:31Z</time>
   </trkpt>
   <trkpt lat="32.036984" lon="34.964032">
    <ele>148.785</ele>
    <time>2011-04-19T12:12:46Z</time>
   </trkpt>
   <trkpt lat="32.037059" lon="34.964619">
    <ele>150.517</ele>
    <time>2011-04-19T12:13:03Z</time>
   </trkpt>
   <trkpt lat="32.037080" lon="34.965149">
    <ele>151.940</ele>
    <time>2011-04-19T12:13:17Z</time>
   </trkpt>
   <trkpt lat="32.037082" lon="34.965211">
    <ele>152.471</ele>
    <time>2011-04-19T12:13:20Z</time>
   </trkpt>
   <trkpt lat="32.037135" lon="34.965244">
    <ele>152.622</ele>
    <time>2011-04-19T12:13:24Z</time>
   </trkpt>
   <trkpt lat="32.037557" lon="34.965077">
    <ele>153.923</ele>
    <time>2011-04-19T12:13:43Z</time>
   </trkpt>
   <trkpt lat="32.037903" lon="34.965010">
    <ele>153.263</ele>
    <time>2011-04-19T12:13:52Z</time>
   </trkpt>
   <trkpt lat="32.038286" lon="34.964905">
    <ele>151.861</ele>
    <time>2011-04-19T12:14:00Z</time>
   </trkpt>
   <trkpt lat="32.038498" lon="34.964848">
    <ele>150.570</ele>
    <time>2011-04-19T12:14:04Z</time>
   </trkpt>
   <trkpt lat="32.038966" lon="34.964746">
    <ele>148.966</ele>
    <time>2011-04-19T12:14:12Z</time>
   </trkpt>
   <trkpt lat="32.040139" lon="34.964463">
    <ele>146.695</ele>
    <time>2011-04-19T12:14:30Z</time>
   </trkpt>
   <trkpt lat="32.040210" lon="34.964448">
    <ele>145.844</ele>
    <time>2011-04-19T12:14:31Z</time>
   </trkpt>
   <trkpt lat="32.040491" lon="34.964357">
    <ele>143.887</ele>
    <time>2011-04-19T12:14:35Z</time>
   </trkpt>
   <trkpt lat="32.041201" lon="34.964088">
    <ele>138.820</ele>
    <time>2011-04-19T12:14:46Z</time>
   </trkpt>
   <trkpt lat="32.042022" lon="34.963827">
    <ele>133.321</ele>
    <time>2011-04-19T12:15:00Z</time>
   </trkpt>
   <trkpt lat="32.042150" lon="34.963756">
    <ele>132.883</ele>
    <time>2011-04-19T12:15:02Z</time>
   </trkpt>
   <trkpt lat="32.042269" lon="34.963670">
    <ele>131.943</ele>
    <time>2011-04-19T12:15:04Z</time>
   </trkpt>
   <trkpt lat="32.042981" lon="34.962861">
    <ele>121.841</ele>
    <time>2011-04-19T12:15:16Z</time>
   </trkpt>
   <trkpt lat="32.043519" lon="34.962035">
    <ele>116.679</ele>
    <time>2011-04-19T12:15:26Z</time>
   </trkpt>
   <trkpt lat="32.043663" lon="34.961845">
    <ele>115.230</ele>
    <time>2011-04-19T12:15:29Z</time>
   </trkpt>
   <trkpt lat="32.044091" lon="34.961176">
    <ele>110.201</ele>
    <time>2011-04-19T12:15:39Z</time>
   </trkpt>
   <trkpt lat="32.044490" lon="34.960863">
    <ele>105.685</ele>
    <time>2011-04-19T12:15:46Z</time>
   </trkpt>
   <trkpt lat="32.044743" lon="34.960526">
    <ele>102.836</ele>
    <time>2011-04-19T12:15:53Z</time>
   </trkpt>
   <trkpt lat="32.044767" lon="34.960397">
    <ele>101.560</ele>
    <time>2011-04-19T12:15:56Z</time>
   </trkpt>
   <trkpt lat="32.044678" lon="34.959778">
    <ele>95.991</ele>
    <time>2011-04-19T12:16:05Z</time>
   </trkpt>
   <trkpt lat="32.044628" lon="34.959531">
    <ele>94.512</ele>
    <time>2011-04-19T12:16:08Z</time>
   </trkpt>
   <trkpt lat="32.044603" lon="34.959161">
    <ele>90.891</ele>
    <time>2011-04-19T12:16:12Z</time>
   </trkpt>
   <trkpt lat="32.044584" lon="34.958860">
    <ele>89.819</ele>
    <time>2011-04-19T12:16:17Z</time>
   </trkpt>
   <trkpt lat="32.044596" lon="34.958692">
    <ele>90.527</ele>
    <time>2011-04-19T12:16:20Z</time>
   </trkpt>
   <trkpt lat="32.044730" lon="34.958315">
    <ele>91.156</ele>
    <time>2011-04-19T12:16:26Z</time>
   </trkpt>
   <trkpt lat="32.044893" lon="34.957896">
    <ele>91.185</ele>
    <time>2011-04-19T12:16:37Z</time>
   </trkpt>
   <trkpt lat="32.044983" lon="34.957513">
    <ele>90.469</ele>
    <time>2011-04-19T12:16:48Z</time>
   </trkpt>
   <trkpt lat="32.044999" lon="34.957445">
    <ele>90.377</ele>
    <time>2011-04-19T12:16:50Z</time>
   </trkpt>
   <trkpt lat="32.044953" lon="34.956968">
    <ele>88.289</ele>
    <time>2011-04-19T12:17:03Z</time>
   </trkpt>
   <trkpt lat="32.044764" lon="34.956479">
    <ele>83.252</ele>
    <time>2011-04-19T12:17:15Z</time>
   </trkpt>
   <trkpt lat="32.044693" lon="34.956430">
    <ele>82.921</ele>
    <time>2011-04-19T12:17:17Z</time>
   </trkpt>
   <trkpt lat="32.044594" lon="34.956087">
    <ele>82.877</ele>
    <time>2011-04-19T12:17:26Z</time>
   </trkpt>
   <trkpt lat="32.044599" lon="34.955499">
    <ele>80.319</ele>
    <time>2011-04-19T12:17:44Z</time>
   </trkpt>
   <trkpt lat="32.044616" lon="34.955090">
    <ele>78.778</ele>
    <time>2011-04-19T12:17:51Z</time>
   </trkpt>
   <trkpt lat="32.044715" lon="34.954842">
    <ele>78.247</ele>
    <time>2011-04-19T12:17:56Z</time>
   </trkpt>
   <trkpt lat="32.044810" lon="34.954712">
    <ele>78.349</ele>
    <time>2011-04-19T12:17:59Z</time>
   </trkpt>
   <trkpt lat="32.044897" lon="34.954544">
    <ele>78.336</ele>
    <time>2011-04-19T12:18:04Z</time>
   </trkpt>
   <trkpt lat="32.044988" lon="34.954470">
    <ele>78.813</ele>
    <time>2011-04-19T12:18:09Z</time>
   </trkpt>
   <trkpt lat="32.045035" lon="34.954449">
    <ele>78.959</ele>
    <time>2011-04-19T12:18:11Z</time>
   </trkpt>
   <trkpt lat="32.045323" lon="34.954050">
    <ele>79.508</ele>
    <time>2011-04-19T12:18:25Z</time>
   </trkpt>
   <trkpt lat="32.045459" lon="34.953565">
    <ele>78.224</ele>
    <time>2011-04-19T12:18:37Z</time>
   </trkpt>
   <trkpt lat="32.045433" lon="34.953194">
    <ele>78.351</ele>
    <time>2011-04-19T12:18:46Z</time>
   </trkpt>
   <trkpt lat="32.045430" lon="34.953148">
    <ele>77.960</ele>
    <time>2011-04-19T12:18:47Z</time>
   </trkpt>
   <trkpt lat="32.045387" lon="34.952725">
    <ele>80.005</ele>
    <time>2011-04-19T12:18:56Z</time>
   </trkpt>
   <trkpt lat="32.045316" lon="34.952088">
    <ele>79.587</ele>
    <time>2011-04-19T12:19:11Z</time>
   </trkpt>
   <trkpt lat="32.045238" lon="34.951621">
    <ele>80.870</ele>
    <time>2011-04-19T12:19:22Z</time>
   </trkpt>
   <trkpt lat="32.045081" lon="34.951082">
    <ele>84.262</ele>
    <time>2011-04-19T12:19:32Z</time>
   </trkpt>
   <trkpt lat="32.045007" lon="34.950880">
    <ele>82.658</ele>
    <time>2011-04-19T12:19:36Z</time>
   </trkpt>
   <trkpt lat="32.044675" lon="34.950354">
    <ele>80.003</ele>
    <time>2011-04-19T12:19:49Z</time>
   </trkpt>
   <trkpt lat="32.044223" lon="34.949616">
    <ele>78.752</ele>
    <time>2011-04-19T12:20:07Z</time>
   </trkpt>
   <trkpt lat="32.044009" lon="34.949265">
    <ele>78.255</ele>
    <time>2011-04-19T12:20:17Z</time>
   </trkpt>
   <trkpt lat="32.044185" lon="34.948975">
    <ele>74.842</ele>
    <time>2011-04-19T12:20:29Z</time>
   </trkpt>
   <trkpt lat="32.044641" lon="34.948448">
    <ele>74.506</ele>
    <time>2011-04-19T12:20:48Z</time>
   </trkpt>
   <trkpt lat="32.044958" lon="34.947900">
    <ele>75.202</ele>
    <time>2011-04-19T12:21:06Z</time>
   </trkpt>
   <trkpt lat="32.045155" lon="34.947732">
    <ele>75.801</ele>
    <time>2011-04-19T12:21:20Z</time>
   </trkpt>
   <trkpt lat="32.045275" lon="34.947627">
    <ele>75.711</ele>
    <time>2011-04-19T12:21:28Z</time>
   </trkpt>
   <trkpt lat="32.045488" lon="34.947108">
    <ele>75.127</ele>
    <time>2011-04-19T12:21:46Z</time>
   </trkpt>
   <trkpt lat="32.045822" lon="34.946570">
    <ele>74.939</ele>
    <time>2011-04-19T12:22:05Z</time>
   </trkpt>
   <trkpt lat="32.046305" lon="34.946170">
    <ele>74.912</ele>
    <time>2011-04-19T12:22:22Z</time>
   </trkpt>
   <trkpt lat="32.046613" lon="34.946060">
    <ele>76.889</ele>
    <time>2011-04-19T12:22:35Z</time>
   </trkpt>
   <trkpt lat="32.046685" lon="34.946097">
    <ele>77.052</ele>
    <time>2011-04-19T12:22:48Z</time>
   </trkpt>
   <trkpt lat="32.046722" lon="34.946122">
    <ele>75.127</ele>
    <time>2011-04-19T12:23:09Z</time>
   </trkpt>
   <trkpt lat="32.046748" lon="34.946129">
    <ele>77.281</ele>
    <time>2011-04-19T12:27:50Z</time>
   </trkpt>
   <trkpt lat="32.046748" lon="34.946128">
    <ele>77.269</ele>
    <time>2011-04-19T12:28:24Z</time>
   </trkpt>
   <trkpt lat="32.046746" lon="34.946117">
    <ele>77.210</ele>
    <time>2011-04-19T12:30:18Z</time>
   </trkpt>
   <trkpt lat="32.046759" lon="34.946126">
    <ele>78.780</ele>
    <time>2011-04-19T12:31:37Z</time>
   </trkpt>
   <trkpt lat="32.046774" lon="34.946107">
    <ele>78.848</ele>
    <time>2011-04-19T12:32:11Z</time>
   </trkpt>
   <trkpt lat="32.046751" lon="34.946050">
    <ele>79.271</ele>
    <time>2011-04-19T12:32:38Z</time>
   </trkpt>
   <trkpt lat="32.046777" lon="34.945907">
    <ele>79.379</ele>
    <time>2011-04-19T12:33:00Z</time>
   </trkpt>
   <trkpt lat="32.046769" lon="34.945898">
    <ele>79.559</ele>
    <time>2011-04-19T12:33:23Z</time>
   </trkpt>
   <trkpt lat="32.046769" lon="34.945898">
    <ele>79.558</ele>
    <time>2011-04-19T12:33:24Z</time>
   </trkpt>
   <trkpt lat="32.046929" lon="34.945743">
    <ele>80.354</ele>
    <time>2011-04-19T12:33:36Z</time>
   </trkpt>
   <trkpt lat="32.047284" lon="34.945498">
    <ele>79.543</ele>
    <time>2011-04-19T12:33:51Z</time>
   </trkpt>
   <trkpt lat="32.047695" lon="34.945266">
    <ele>77.839</ele>
    <time>2011-04-19T12:34:04Z</time>
   </trkpt>
   <trkpt lat="32.048078" lon="34.945107">
    <ele>75.713</ele>
    <time>2011-04-19T12:34:17Z</time>
   </trkpt>
   <trkpt lat="32.048550" lon="34.944881">
    <ele>73.743</ele>
    <time>2011-04-19T12:34:31Z</time>
   </trkpt>
   <trkpt lat="32.048836" lon="34.944697">
    <ele>73.251</ele>
    <time>2011-04-19T12:34:42Z</time>
   </trkpt>
   <trkpt lat="32.048874" lon="34.944696">
    <ele>73.590</ele>
    <time>2011-04-19T12:34:44Z</time>
   </trkpt>
   <trkpt lat="32.049099" lon="34.944456">
    <ele>73.008</ele>
    <time>2011-04-19T12:34:57Z</time>
   </trkpt>
   <trkpt lat="32.049258" lon="34.944468">
    <ele>72.811</ele>
    <time>2011-04-19T12:35:02Z</time>
   </trkpt>
   <trkpt lat="32.049331" lon="34.944497">
    <ele>72.940</ele>
    <time>2011-04-19T12:35:04Z</time>
   </trkpt>
   <trkpt lat="32.049463" lon="34.944448">
    <ele>73.142</ele>
    <time>2011-04-19T12:35:09Z</time>
   </trkpt>
   <trkpt lat="32.049523" lon="34.944450">
    <ele>73.265</ele>
    <time>2011-04-19T12:35:11Z</time>
   </trkpt>
   <trkpt lat="32.049576" lon="34.944366">
    <ele>72.505</ele>
    <time>2011-04-19T12:35:15Z</time>
   </trkpt>
   <trkpt lat="32.049582" lon="34.944304">
    <ele>71.951</ele>
    <time>2011-04-19T12:35:17Z</time>
   </trkpt>
   <trkpt lat="32.049650" lon="34.944236">
    <ele>71.390</ele>
    <time>2011-04-19T12:35:21Z</time>
   </trkpt>
   <trkpt lat="32.050216" lon="34.944050">
    <ele>71.665</ele>
    <time>2011-04-19T12:35:37Z</time>
   </trkpt>
   <trkpt lat="32.050344" lon="34.944009">
    <ele>71.882</ele>
    <time>2011-04-19T12:35:41Z</time>
   </trkpt>
   <trkpt lat="32.050578" lon="34.943974">
    <ele>70.475</ele>
    <time>2011-04-19T12:35:50Z</time>
   </trkpt>
   <trkpt lat="32.050585" lon="34.943945">
    <ele>71.019</ele>
    <time>2011-04-19T12:36:02Z</time>
   </trkpt>
   <trkpt lat="32.050626" lon="34.943930">
    <ele>71.256</ele>
    <time>2011-04-19T12:36:09Z</time>
   </trkpt>
   <trkpt lat="32.050986" lon="34.943878">
    <ele>71.322</ele>
    <time>2011-04-19T12:36:22Z</time>
   </trkpt>
   <trkpt lat="32.051065" lon="34.943870">
    <ele>71.351</ele>
    <time>2011-04-19T12:36:24Z</time>
   </trkpt>
   <trkpt lat="32.051194" lon="34.943863">
    <ele>70.819</ele>
    <time>2011-04-19T12:36:27Z</time>
   </trkpt>
   <trkpt lat="32.051368" lon="34.943846">
    <ele>70.996</ele>
    <time>2011-04-19T12:36:31Z</time>
   </trkpt>
   <trkpt lat="32.051800" lon="34.943821">
    <ele>71.101</ele>
    <time>2011-04-19T12:36:42Z</time>
   </trkpt>
   <trkpt lat="32.052317" lon="34.943802">
    <ele>71.160</ele>
    <time>2011-04-19T12:36:59Z</time>
   </trkpt>
   <trkpt lat="32.052607" lon="34.943972">
    <ele>71.340</ele>
    <time>2011-04-19T12:37:10Z</time>
   </trkpt>
   <trkpt lat="32.052600" lon="34.943853">
    <ele>71.894</ele>
    <time>2011-04-19T12:37:22Z</time>
   </trkpt>
   <trkpt lat="32.052620" lon="34.943742">
    <ele>71.640</ele>
    <time>2011-04-19T12:37:28Z</time>
   </trkpt>
   <trkpt lat="32.052631" lon="34.943665">
    <ele>73.812</ele>
    <time>2011-04-19T12:37:46Z</time>
   </trkpt>
   <trkpt lat="32.052633" lon="34.943652">
    <ele>73.849</ele>
    <time>2011-04-19T12:37:47Z</time>
   </trkpt>
   <trkpt lat="32.052618" lon="34.943506">
    <ele>75.150</ele>
    <time>2011-04-19T12:38:01Z</time>
   </trkpt>
   <trkpt lat="32.052609" lon="34.943402">
    <ele>74.075</ele>
    <time>2011-04-19T12:38:22Z</time>
   </trkpt>
   <trkpt lat="32.052660" lon="34.943376">
    <ele>73.611</ele>
    <time>2011-04-19T12:38:27Z</time>
   </trkpt>
   <trkpt lat="32.052778" lon="34.943370">
    <ele>72.480</ele>
    <time>2011-04-19T12:38:36Z</time>
   </trkpt>
   <trkpt lat="32.052814" lon="34.943291">
    <ele>71.208</ele>
    <time>2011-04-19T12:38:41Z</time>
   </trkpt>
   <trkpt lat="32.052814" lon="34.943194">
    <ele>68.788</ele>
    <time>2011-04-19T12:38:44Z</time>
   </trkpt>
   <trkpt lat="32.052880" lon="34.943139">
    <ele>69.012</ele>
    <time>2011-04-19T12:38:49Z</time>
   </trkpt>
   <trkpt lat="32.052924" lon="34.943128">
    <ele>69.154</ele>
    <time>2011-04-19T12:39:04Z</time>
   </trkpt>
   <trkpt lat="32.052930" lon="34.943109">
    <ele>69.372</ele>
    <time>2011-04-19T12:39:24Z</time>
   </trkpt>
   <trkpt lat="32.052928" lon="34.942742">
    <ele>68.535</ele>
    <time>2011-04-19T12:39:38Z</time>
   </trkpt>
   <trkpt lat="32.052887" lon="34.941960">
    <ele>67.258</ele>
    <time>2011-04-19T12:39:58Z</time>
   </trkpt>
   <trkpt lat="32.052966" lon="34.941542">
    <ele>66.991</ele>
    <time>2011-04-19T12:40:09Z</time>
   </trkpt>
   <trkpt lat="32.053038" lon="34.941391">
    <ele>67.512</ele>
    <time>2011-04-19T12:40:16Z</time>
   </trkpt>
   <trkpt lat="32.053047" lon="34.941371">
    <ele>67.533</ele>
    <time>2011-04-19T12:40:18Z</time>
   </trkpt>
   <trkpt lat="32.053189" lon="34.941247">
    <ele>67.771</ele>
    <time>2011-04-19T12:40:35Z</time>
   </trkpt>
   <trkpt lat="32.053193" lon="34.941243">
    <ele>67.724</ele>
    <time>2011-04-19T12:40:53Z</time>
   </trkpt>
   <trkpt lat="32.053490" lon="34.941063">
    <ele>68.131</ele>
    <time>2011-04-19T12:41:05Z</time>
   </trkpt>
   <trkpt lat="32.053910" lon="34.940908">
    <ele>68.168</ele>
    <time>2011-04-19T12:41:19Z</time>
   </trkpt>
   <trkpt lat="32.054308" lon="34.940732">
    <ele>66.393</ele>
    <time>2011-04-19T12:41:36Z</time>
   </trkpt>
   <trkpt lat="32.054423" lon="34.940671">
    <ele>66.139</ele>
    <time>2011-04-19T12:42:10Z</time>
   </trkpt>
   <trkpt lat="32.054869" lon="34.940494">
    <ele>63.100</ele>
    <time>2011-04-19T12:42:24Z</time>
   </trkpt>
   <trkpt lat="32.055815" lon="34.940182">
    <ele>55.860</ele>
    <time>2011-04-19T12:42:42Z</time>
   </trkpt>
   <trkpt lat="32.056007" lon="34.940122">
    <ele>54.432</ele>
    <time>2011-04-19T12:42:45Z</time>
   </trkpt>
   <trkpt lat="32.056266" lon="34.940064">
    <ele>52.810</ele>
    <time>2011-04-19T12:42:49Z</time>
   </trkpt>
   <trkpt lat="32.057149" lon="34.939765">
    <ele>47.652</ele>
    <time>2011-04-19T12:43:04Z</time>
   </trkpt>
   <trkpt lat="32.057320" lon="34.939705">
    <ele>48.094</ele>
    <time>2011-04-19T12:43:13Z</time>
   </trkpt>
   <trkpt lat="32.057552" lon="34.939607">
    <ele>50.359</ele>
    <time>2011-04-19T12:43:28Z</time>
   </trkpt>
   <trkpt lat="32.057999" lon="34.939550">
    <ele>49.312</ele>
    <time>2011-04-19T12:43:42Z</time>
   </trkpt>
   <trkpt lat="32.058046" lon="34.939573">
    <ele>48.843</ele>
    <time>2011-04-19T12:43:43Z</time>
   </trkpt>
   <trkpt lat="32.058237" lon="34.939543">
    <ele>48.744</ele>
    <time>2011-04-19T12:43:47Z</time>
   </trkpt>
   <trkpt lat="32.058580" lon="34.939371">
    <ele>48.956</ele>
    <time>2011-04-19T12:44:00Z</time>
   </trkpt>
   <trkpt lat="32.058865" lon="34.939193">
    <ele>49.247</ele>
    <time>2011-04-19T12:44:12Z</time>
   </trkpt>
   <trkpt lat="32.058867" lon="34.939177">
    <ele>49.588</ele>
    <time>2011-04-19T12:44:13Z</time>
   </trkpt>
   <trkpt lat="32.058764" lon="34.939154">
    <ele>50.425</ele>
    <time>2011-04-19T12:44:19Z</time>
   </trkpt>
   <trkpt lat="32.058325" lon="34.939311">
    <ele>55.772</ele>
    <time>2011-04-19T12:44:39Z</time>
   </trkpt>
   <trkpt lat="32.058071" lon="34.939173">
    <ele>58.198</ele>
    <time>2011-04-19T12:44:54Z</time>
   </trkpt>
   <trkpt lat="32.057980" lon="34.938707">
    <ele>57.725</ele>
    <time>2011-04-19T12:45:09Z</time>
   </trkpt>
   <trkpt lat="32.057915" lon="34.938403">
    <ele>57.497</ele>
    <time>2011-04-19T12:45:19Z</time>
   </trkpt>
   <trkpt lat="32.058202" lon="34.938157">
    <ele>54.711</ele>
    <time>2011-04-19T12:45:28Z</time>
   </trkpt>
   <trkpt lat="32.058288" lon="34.938100">
    <ele>53.924</ele>
    <time>2011-04-19T12:45:30Z</time>
   </trkpt>
   <trkpt lat="32.058385" lon="34.937880">
    <ele>52.926</ele>
    <time>2011-04-19T12:45:35Z</time>
   </trkpt>
   <trkpt lat="32.058426" lon="34.937021">
    <ele>53.919</ele>
    <time>2011-04-19T12:45:53Z</time>
   </trkpt>
   <trkpt lat="32.058569" lon="34.936335">
    <ele>54.681</ele>
    <time>2011-04-19T12:46:09Z</time>
   </trkpt>
   <trkpt lat="32.058590" lon="34.936165">
    <ele>54.358</ele>
    <time>2011-04-19T12:46:13Z</time>
   </trkpt>
   <trkpt lat="32.058585" lon="34.935218">
    <ele>53.317</ele>
    <time>2011-04-19T12:46:31Z</time>
   </trkpt>
   <trkpt lat="32.058581" lon="34.934754">
    <ele>52.310</ele>
    <time>2011-04-19T12:46:39Z</time>
   </trkpt>
   <trkpt lat="32.058866" lon="34.934388">
    <ele>52.122</ele>
    <time>2011-04-19T12:46:49Z</time>
   </trkpt>
   <trkpt lat="32.058915" lon="34.934382">
    <ele>51.941</ele>
    <time>2011-04-19T12:46:50Z</time>
   </trkpt>
   <trkpt lat="32.059248" lon="34.934402">
    <ele>50.903</ele>
    <time>2011-04-19T12:46:57Z</time>
   </trkpt>
   <trkpt lat="32.059879" lon="34.934319">
    <ele>49.404</ele>
    <time>2011-04-19T12:47:10Z</time>
   </trkpt>
   <trkpt lat="32.060063" lon="34.934270">
    <ele>49.086</ele>
    <time>2011-04-19T12:47:14Z</time>
   </trkpt>
   <trkpt lat="32.060199" lon="34.934254">
    <ele>48.785</ele>
    <time>2011-04-19T12:47:17Z</time>
   </trkpt>
   <trkpt lat="32.060339" lon="34.934248">
    <ele>48.180</ele>
    <time>2011-04-19T12:47:20Z</time>
   </trkpt>
   <trkpt lat="32.061404" lon="34.934114">
    <ele>45.279</ele>
    <time>2011-04-19T12:47:44Z</time>
   </trkpt>
   <trkpt lat="32.062430" lon="34.934013">
    <ele>44.034</ele>
    <time>2011-04-19T12:48:06Z</time>
   </trkpt>
   <trkpt lat="32.062630" lon="34.933990">
    <ele>43.845</ele>
    <time>2011-04-19T12:48:10Z</time>
   </trkpt>
   <trkpt lat="32.063586" lon="34.933711">
    <ele>44.935</ele>
    <time>2011-04-19T12:48:31Z</time>
   </trkpt>
   <trkpt lat="32.064538" lon="34.933568">
    <ele>46.683</ele>
    <time>2011-04-19T12:48:53Z</time>
   </trkpt>
   <trkpt lat="32.065095" lon="34.933488">
    <ele>46.789</ele>
    <time>2011-04-19T12:49:05Z</time>
   </trkpt>
   <trkpt lat="32.065425" lon="34.933488">
    <ele>46.342</ele>
    <time>2011-04-19T12:49:12Z</time>
   </trkpt>
   <trkpt lat="32.065654" lon="34.933516">
    <ele>46.303</ele>
    <time>2011-04-19T12:49:17Z</time>
   </trkpt>
   <trkpt lat="32.066078" lon="34.933481">
    <ele>46.708</ele>
    <time>2011-04-19T12:49:27Z</time>
   </trkpt>
   <trkpt lat="32.066645" lon="34.933373">
    <ele>45.992</ele>
    <time>2011-04-19T12:49:40Z</time>
   </trkpt>
   <trkpt lat="32.067172" lon="34.933263">
    <ele>46.666</ele>
    <time>2011-04-19T12:49:52Z</time>
   </trkpt>
   <trkpt lat="32.067837" lon="34.933167">
    <ele>46.644</ele>
    <time>2011-04-19T12:50:06Z</time>
   </trkpt>
   <trkpt lat="32.068029" lon="34.933148">
    <ele>46.954</ele>
    <time>2011-04-19T12:50:10Z</time>
   </trkpt>
   <trkpt lat="32.068190" lon="34.933146">
    <ele>46.989</ele>
    <time>2011-04-19T12:50:14Z</time>
   </trkpt>
   <trkpt lat="32.068997" lon="34.933033">
    <ele>45.828</ele>
    <time>2011-04-19T12:50:31Z</time>
   </trkpt>
   <trkpt lat="32.069099" lon="34.933034">
    <ele>45.854</ele>
    <time>2011-04-19T12:50:33Z</time>
   </trkpt>
   <trkpt lat="32.069199" lon="34.933020">
    <ele>45.869</ele>
    <time>2011-04-19T12:50:35Z</time>
   </trkpt>
   <trkpt lat="32.069976" lon="34.933224">
    <ele>46.302</ele>
    <time>2011-04-19T12:50:51Z</time>
   </trkpt>
   <trkpt lat="32.070841" lon="34.933496">
    <ele>46.205</ele>
    <time>2011-04-19T12:51:09Z</time>
   </trkpt>
   <trkpt lat="32.071035" lon="34.933475">
    <ele>46.112</ele>
    <time>2011-04-19T12:51:13Z</time>
   </trkpt>
   <trkpt lat="32.071215" lon="34.933499">
    <ele>46.097</ele>
    <time>2011-04-19T12:51:17Z</time>
   </trkpt>
   <trkpt lat="32.071398" lon="34.933502">
    <ele>45.217</ele>
    <time>2011-04-19T12:51:21Z</time>
   </trkpt>
   <trkpt lat="32.072057" lon="34.933394">
    <ele>43.489</ele>
    <time>2011-04-19T12:51:36Z</time>
   </trkpt>
   <trkpt lat="32.072893" lon="34.933205">
    <ele>42.254</ele>
    <time>2011-04-19T12:51:53Z</time>
   </trkpt>
   <trkpt lat="32.073087" lon="34.933173">
    <ele>41.822</ele>
    <time>2011-04-19T12:51:57Z</time>
   </trkpt>
   <trkpt lat="32.073331" lon="34.933092">
    <ele>42.180</ele>
    <time>2011-04-19T12:52:02Z</time>
   </trkpt>
   <trkpt lat="32.074235" lon="34.932940">
    <ele>43.049</ele>
    <time>2011-04-19T12:52:22Z</time>
   </trkpt>
   <trkpt lat="32.074720" lon="34.932801">
    <ele>42.168</ele>
    <time>2011-04-19T12:52:36Z</time>
   </trkpt>
   <trkpt lat="32.075192" lon="34.932634">
    <ele>41.349</ele>
    <time>2011-04-19T12:52:48Z</time>
   </trkpt>
   <trkpt lat="32.075492" lon="34.932581">
    <ele>40.870</ele>
    <time>2011-04-19T12:52:55Z</time>
   </trkpt>
   <trkpt lat="32.076235" lon="34.932447">
    <ele>40.125</ele>
    <time>2011-04-19T12:53:11Z</time>
   </trkpt>
   <trkpt lat="32.076373" lon="34.932403">
    <ele>40.052</ele>
    <time>2011-04-19T12:53:14Z</time>
   </trkpt>
   <trkpt lat="32.077276" lon="34.932296">
    <ele>39.297</ele>
    <time>2011-04-19T12:53:32Z</time>
   </trkpt>
   <trkpt lat="32.077422" lon="34.932291">
    <ele>39.487</ele>
    <time>2011-04-19T12:53:35Z</time>
   </trkpt>
   <trkpt lat="32.077953" lon="34.932241">
    <ele>39.380</ele>
    <time>2011-04-19T12:53:46Z</time>
   </trkpt>
   <trkpt lat="32.078425" lon="34.932153">
    <ele>39.718</ele>
    <time>2011-04-19T12:53:56Z</time>
   </trkpt>
   <trkpt lat="32.078615" lon="34.932182">
    <ele>39.097</ele>
    <time>2011-04-19T12:54:01Z</time>
   </trkpt>
   <trkpt lat="32.078705" lon="34.932236">
    <ele>37.581</ele>
    <time>2011-04-19T12:54:03Z</time>
   </trkpt>
   <trkpt lat="32.078830" lon="34.932292">
    <ele>37.053</ele>
    <time>2011-04-19T12:54:06Z</time>
   </trkpt>
   <trkpt lat="32.079050" lon="34.932010">
    <ele>36.751</ele>
    <time>2011-04-19T12:54:18Z</time>
   </trkpt>
   <trkpt lat="32.079287" lon="34.931843">
    <ele>37.095</ele>
    <time>2011-04-19T12:54:26Z</time>
   </trkpt>
   <trkpt lat="32.079744" lon="34.931887">
    <ele>39.066</ele>
    <time>2011-04-19T12:54:39Z</time>
   </trkpt>
   <trkpt lat="32.080134" lon="34.931913">
    <ele>39.269</ele>
    <time>2011-04-19T12:54:53Z</time>
   </trkpt>
   <trkpt lat="32.080685" lon="34.931976">
    <ele>37.569</ele>
    <time>2011-04-19T12:55:09Z</time>
   </trkpt>
   <trkpt lat="32.081156" lon="34.932047">
    <ele>37.527</ele>
    <time>2011-04-19T12:55:20Z</time>
   </trkpt>
   <trkpt lat="32.081896" lon="34.932165">
    <ele>36.587</ele>
    <time>2011-04-19T12:55:35Z</time>
   </trkpt>
   <trkpt lat="32.082053" lon="34.932182">
    <ele>36.519</ele>
    <time>2011-04-19T12:55:38Z</time>
   </trkpt>
   <trkpt lat="32.082643" lon="34.932309">
    <ele>36.796</ele>
    <time>2011-04-19T12:55:50Z</time>
   </trkpt>
   <trkpt lat="32.083174" lon="34.932341">
    <ele>36.626</ele>
    <time>2011-04-19T12:56:00Z</time>
   </trkpt>
   <trkpt lat="32.084050" lon="34.932380">
    <ele>36.921</ele>
    <time>2011-04-19T12:56:16Z</time>
   </trkpt>
   <trkpt lat="32.084870" lon="34.932531">
    <ele>37.809</ele>
    <time>2011-04-19T12:56:34Z</time>
   </trkpt>
   <trkpt lat="32.084999" lon="34.932511">
    <ele>37.764</ele>
    <time>2011-04-19T12:56:37Z</time>
   </trkpt>
   <trkpt lat="32.085269" lon="34.932117">
    <ele>36.006</ele>
    <time>2011-04-19T12:56:46Z</time>
   </trkpt>
   <trkpt lat="32.085272" lon="34.932040">
    <ele>35.657</ele>
    <time>2011-04-19T12:56:47Z</time>
   </trkpt>
   <trkpt lat="32.085275" lon="34.931885">
    <ele>35.700</ele>
    <time>2011-04-19T12:56:49Z</time>
   </trkpt>
   <trkpt lat="32.085291" lon="34.931338">
    <ele>35.568</ele>
    <time>2011-04-19T12:56:57Z</time>
   </trkpt>
   <trkpt lat="32.085473" lon="34.930508">
    <ele>35.739</ele>
    <time>2011-04-19T12:57:12Z</time>
   </trkpt>
   <trkpt lat="32.085534" lon="34.930233">
    <ele>35.513</ele>
    <time>2011-04-19T12:57:17Z</time>
   </trkpt>
   <trkpt lat="32.085694" lon="34.929236">
    <ele>35.031</ele>
    <time>2011-04-19T12:57:35Z</time>
   </trkpt>
   <trkpt lat="32.086085" lon="34.928725">
    <ele>34.798</ele>
    <time>2011-04-19T12:57:47Z</time>
   </trkpt>
   <trkpt lat="32.086338" lon="34.928447">
    <ele>34.770</ele>
    <time>2011-04-19T12:57:54Z</time>
   </trkpt>
   <trkpt lat="32.086460" lon="34.928340">
    <ele>34.549</ele>
    <time>2011-04-19T12:57:57Z</time>
   </trkpt>
   <trkpt lat="32.087080" lon="34.927483">
    <ele>33.906</ele>
    <time>2011-04-19T12:58:16Z</time>
   </trkpt>
   <trkpt lat="32.087712" lon="34.926788">
    <ele>33.241</ele>
    <time>2011-04-19T12:58:33Z</time>
   </trkpt>
   <trkpt lat="32.088001" lon="34.926437">
    <ele>33.012</ele>
    <time>2011-04-19T12:58:41Z</time>
   </trkpt>
   <trkpt lat="32.088817" lon="34.925929">
    <ele>32.278</ele>
    <time>2011-04-19T12:59:00Z</time>
   </trkpt>
   <trkpt lat="32.088858" lon="34.925912">
    <ele>32.505</ele>
    <time>2011-04-19T12:59:01Z</time>
   </trkpt>
   <trkpt lat="32.089471" lon="34.925988">
    <ele>31.539</ele>
    <time>2011-04-19T12:59:15Z</time>
   </trkpt>
   <trkpt lat="32.089608" lon="34.926009">
    <ele>31.446</ele>
    <time>2011-04-19T12:59:18Z</time>
   </trkpt>
   <trkpt lat="32.089827" lon="34.926072">
    <ele>31.080</ele>
    <time>2011-04-19T12:59:23Z</time>
   </trkpt>
   <trkpt lat="32.090636" lon="34.926178">
    <ele>31.315</ele>
    <time>2011-04-19T12:59:40Z</time>
   </trkpt>
   <trkpt lat="32.091770" lon="34.926441">
    <ele>29.996</ele>
    <time>2011-04-19T13:00:00Z</time>
   </trkpt>
   <trkpt lat="32.092249" lon="34.926545">
    <ele>29.828</ele>
    <time>2011-04-19T13:00:08Z</time>
   </trkpt>
   <trkpt lat="32.093156" lon="34.926749">
    <ele>29.237</ele>
    <time>2011-04-19T13:00:24Z</time>
   </trkpt>
   <trkpt lat="32.093435" lon="34.926809">
    <ele>29.521</ele>
    <time>2011-04-19T13:00:29Z</time>
   </trkpt>
   <trkpt lat="32.093751" lon="34.926942">
    <ele>29.137</ele>
    <time>2011-04-19T13:00:35Z</time>
   </trkpt>
   <trkpt lat="32.094085" lon="34.927041">
    <ele>28.773</ele>
    <time>2011-04-19T13:00:42Z</time>
   </trkpt>
   <trkpt lat="32.094689" lon="34.927262">
    <ele>27.842</ele>
    <time>2011-04-19T13:00:56Z</time>
   </trkpt>
   <trkpt lat="32.094868" lon="34.927315">
    <ele>28.096</ele>
    <time>2011-04-19T13:01:00Z</time>
   </trkpt>
   <trkpt lat="32.094998" lon="34.927336">
    <ele>28.106</ele>
    <time>2011-04-19T13:01:03Z</time>
   </trkpt>
   <trkpt lat="32.095442" lon="34.927488">
    <ele>27.448</ele>
    <time>2011-04-19T13:01:15Z</time>
   </trkpt>
   <trkpt lat="32.095530" lon="34.927485">
    <ele>28.131</ele>
    <time>2011-04-19T13:01:17Z</time>
   </trkpt>
   <trkpt lat="32.096378" lon="34.927580">
    <ele>27.904</ele>
    <time>2011-04-19T13:01:37Z</time>
   </trkpt>
   <trkpt lat="32.096837" lon="34.927710">
    <ele>27.574</ele>
    <time>2011-04-19T13:01:47Z</time>
   </trkpt>
   <trkpt lat="32.097058" lon="34.927745">
    <ele>27.291</ele>
    <time>2011-04-19T13:01:51Z</time>
   </trkpt>
   <trkpt lat="32.097337" lon="34.927768">
    <ele>27.373</ele>
    <time>2011-04-19T13:01:56Z</time>
   </trkpt>
   <trkpt lat="32.097500" lon="34.927826">
    <ele>27.520</ele>
    <time>2011-04-19T13:01:59Z</time>
   </trkpt>
   <trkpt lat="32.098090" lon="34.928003">
    <ele>28.248</ele>
    <time>2011-04-19T13:02:10Z</time>
   </trkpt>
   <trkpt lat="32.098282" lon="34.928041">
    <ele>28.357</ele>
    <time>2011-04-19T13:02:14Z</time>
   </trkpt>
   <trkpt lat="32.099159" lon="34.928200">
    <ele>28.392</ele>
    <time>2011-04-19T13:02:32Z</time>
   </trkpt>
   <trkpt lat="32.100237" lon="34.928446">
    <ele>27.246</ele>
    <time>2011-04-19T13:02:53Z</time>
   </trkpt>
   <trkpt lat="32.101109" lon="34.928704">
    <ele>23.711</ele>
    <time>2011-04-19T13:03:08Z</time>
   </trkpt>
   <trkpt lat="32.101439" lon="34.929031">
    <ele>21.722</ele>
    <time>2011-04-19T13:03:17Z</time>
   </trkpt>
   <trkpt lat="32.101426" lon="34.929167">
    <ele>22.494</ele>
    <time>2011-04-19T13:03:27Z</time>
   </trkpt>
   <trkpt lat="32.101371" lon="34.929196">
    <ele>22.276</ele>
    <time>2011-04-19T13:03:31Z</time>
   </trkpt>
   <trkpt lat="32.101158" lon="34.929524">
    <ele>23.161</ele>
    <time>2011-04-19T13:03:46Z</time>
   </trkpt>
   <trkpt lat="32.100957" lon="34.929957">
    <ele>22.909</ele>
    <time>2011-04-19T13:04:00Z</time>
   </trkpt>
   <trkpt lat="32.100942" lon="34.929992">
    <ele>23.201</ele>
    <time>2011-04-19T13:04:08Z</time>
   </trkpt>
   <trkpt lat="32.100977" lon="34.929919">
    <ele>22.911</ele>
    <time>2011-04-19T13:04:24Z</time>
   </trkpt>
   <trkpt lat="32.101000" lon="34.929879">
    <ele>21.864</ele>
    <time>2011-04-19T13:04:51Z</time>
   </trkpt>
   <trkpt lat="32.101177" lon="34.929432">
    <ele>20.655</ele>
    <time>2011-04-19T13:05:06Z</time>
   </trkpt>
   <trkpt lat="32.101523" lon="34.929142">
    <ele>19.816</ele>
    <time>2011-04-19T13:05:20Z</time>
   </trkpt>
   <trkpt lat="32.101597" lon="34.929400">
    <ele>19.679</ele>
    <time>2011-04-19T13:05:29Z</time>
   </trkpt>
   <trkpt lat="32.101691" lon="34.929727">
    <ele>19.123</ele>
    <time>2011-04-19T13:05:39Z</time>
   </trkpt>
   <trkpt lat="32.101856" lon="34.930085">
    <ele>17.829</ele>
    <time>2011-04-19T13:05:50Z</time>
   </trkpt>
   <trkpt lat="32.101845" lon="34.930109">
    <ele>17.818</ele>
    <time>2011-04-19T13:06:11Z</time>
   </trkpt>
   <trkpt lat="32.101845" lon="34.930109">
    <ele>17.783</ele>
    <time>2011-04-19T13:06:13Z</time>
   </trkpt>
   <trkpt lat="32.101825" lon="34.930185">
    <ele>18.164</ele>
    <time>2011-04-19T13:06:18Z</time>
   </trkpt>
   <trkpt lat="32.101679" lon="34.930874">
    <ele>18.039</ele>
    <time>2011-04-19T13:06:35Z</time>
   </trkpt>
   <trkpt lat="32.101664" lon="34.931655">
    <ele>18.850</ele>
    <time>2011-04-19T13:06:52Z</time>
   </trkpt>
   <trkpt lat="32.101768" lon="34.932171">
    <ele>19.971</ele>
    <time>2011-04-19T13:07:03Z</time>
   </trkpt>
   <trkpt lat="32.101798" lon="34.932268">
    <ele>19.524</ele>
    <time>2011-04-19T13:07:05Z</time>
   </trkpt>
   <trkpt lat="32.101882" lon="34.932443">
    <ele>19.838</ele>
    <time>2011-04-19T13:07:09Z</time>
   </trkpt>
   <trkpt lat="32.102037" lon="34.932651">
    <ele>20.287</ele>
    <time>2011-04-19T13:07:14Z</time>
   </trkpt>
   <trkpt lat="32.102101" lon="34.932718">
    <ele>20.291</ele>
    <time>2011-04-19T13:07:16Z</time>
   </trkpt>
   <trkpt lat="32.102790" lon="34.933388">
    <ele>20.682</ele>
    <time>2011-04-19T13:07:35Z</time>
   </trkpt>
   <trkpt lat="32.102954" lon="34.933544">
    <ele>20.442</ele>
    <time>2011-04-19T13:07:39Z</time>
   </trkpt>
   <trkpt lat="32.103501" lon="34.934092">
    <ele>20.377</ele>
    <time>2011-04-19T13:07:55Z</time>
   </trkpt>
   <trkpt lat="32.103661" lon="34.934220">
    <ele>20.424</ele>
    <time>2011-04-19T13:07:59Z</time>
   </trkpt>
   <trkpt lat="32.103787" lon="34.934287">
    <ele>21.006</ele>
    <time>2011-04-19T13:08:02Z</time>
   </trkpt>
   <trkpt lat="32.104816" lon="34.934454">
    <ele>22.225</ele>
    <time>2011-04-19T13:08:22Z</time>
   </trkpt>
   <trkpt lat="32.105767" lon="34.934584">
    <ele>21.707</ele>
    <time>2011-04-19T13:08:37Z</time>
   </trkpt>
   <trkpt lat="32.106428" lon="34.934481">
    <ele>21.278</ele>
    <time>2011-04-19T13:08:48Z</time>
   </trkpt>
   <trkpt lat="32.107178" lon="34.934473">
    <ele>20.361</ele>
    <time>2011-04-19T13:09:01Z</time>
   </trkpt>
   <trkpt lat="32.107413" lon="34.934459">
    <ele>20.003</ele>
    <time>2011-04-19T13:09:05Z</time>
   </trkpt>
   <trkpt lat="32.108086" lon="34.934280">
    <ele>22.146</ele>
    <time>2011-04-19T13:09:19Z</time>
   </trkpt>
   <trkpt lat="32.108128" lon="34.934247">
    <ele>22.337</ele>
    <time>2011-04-19T13:09:20Z</time>
   </trkpt>
   <trkpt lat="32.108277" lon="34.934085">
    <ele>22.923</ele>
    <time>2011-04-19T13:09:24Z</time>
   </trkpt>
   <trkpt lat="32.108566" lon="34.933601">
    <ele>24.300</ele>
    <time>2011-04-19T13:09:34Z</time>
   </trkpt>
   <trkpt lat="32.108599" lon="34.933494">
    <ele>24.290</ele>
    <time>2011-04-19T13:09:36Z</time>
   </trkpt>
   <trkpt lat="32.108817" lon="34.932308">
    <ele>22.055</ele>
    <time>2011-04-19T13:09:52Z</time>
   </trkpt>
   <trkpt lat="32.108931" lon="34.931837">
    <ele>21.380</ele>
    <time>2011-04-19T13:09:58Z</time>
   </trkpt>
   <trkpt lat="32.109233" lon="34.930344">
    <ele>19.369</ele>
    <time>2011-04-19T13:10:17Z</time>
   </trkpt>
   <trkpt lat="32.109450" lon="34.929194">
    <ele>19.340</ele>
    <time>2011-04-19T13:10:34Z</time>
   </trkpt>
   <trkpt lat="32.109656" lon="34.928289">
    <ele>18.399</ele>
    <time>2011-04-19T13:10:49Z</time>
   </trkpt>
   <trkpt lat="32.109649" lon="34.928025">
    <ele>17.250</ele>
    <time>2011-04-19T13:10:56Z</time>
   </trkpt>
   <trkpt lat="32.109712" lon="34.927832">
    <ele>17.743</ele>
    <time>2011-04-19T13:11:03Z</time>
   </trkpt>
   <trkpt lat="32.109737" lon="34.927621">
    <ele>17.452</ele>
    <time>2011-04-19T13:11:08Z</time>
   </trkpt>
   <trkpt lat="32.109742" lon="34.927515">
    <ele>17.434</ele>
    <time>2011-04-19T13:11:10Z</time>
   </trkpt>
   <trkpt lat="32.109678" lon="34.927045">
    <ele>17.355</ele>
    <time>2011-04-19T13:11:22Z</time>
   </trkpt>
   <trkpt lat="32.109636" lon="34.926788">
    <ele>17.750</ele>
    <time>2011-04-19T13:11:41Z</time>
   </trkpt>
   <trkpt lat="32.109411" lon="34.925610">
    <ele>16.474</ele>
    <time>2011-04-19T13:12:03Z</time>
   </trkpt>
   <trkpt lat="32.109348" lon="34.924567">
    <ele>14.807</ele>
    <time>2011-04-19T13:12:19Z</time>
   </trkpt>
   <trkpt lat="32.109386" lon="34.924234">
    <ele>13.491</ele>
    <time>2011-04-19T13:12:27Z</time>
   </trkpt>
   <trkpt lat="32.109379" lon="34.924169">
    <ele>13.387</ele>
    <time>2011-04-19T13:12:31Z</time>
   </trkpt>
   <trkpt lat="32.109366" lon="34.924140">
    <ele>12.908</ele>
    <time>2011-04-19T13:12:33Z</time>
   </trkpt>
   <trkpt lat="32.109392" lon="34.923989">
    <ele>9.250</ele>
    <time>2011-04-19T13:12:38Z</time>
   </trkpt>
   <trkpt lat="32.109270" lon="34.923615">
    <ele>11.794</ele>
    <time>2011-04-19T13:12:50Z</time>
   </trkpt>
   <trkpt lat="32.109124" lon="34.923195">
    <ele>11.994</ele>
    <time>2011-04-19T13:13:00Z</time>
   </trkpt>
   <trkpt lat="32.109117" lon="34.923137">
    <ele>11.461</ele>
    <time>2011-04-19T13:13:01Z</time>
   </trkpt>
   <trkpt lat="32.109076" lon="34.922641">
    <ele>12.557</ele>
    <time>2011-04-19T13:13:12Z</time>
   </trkpt>
   <trkpt lat="32.108991" lon="34.922175">
    <ele>12.885</ele>
    <time>2011-04-19T13:13:24Z</time>
   </trkpt>
   <trkpt lat="32.108969" lon="34.922001">
    <ele>13.993</ele>
    <time>2011-04-19T13:13:28Z</time>
   </trkpt>
   <trkpt lat="32.109062" lon="34.921498">
    <ele>14.988</ele>
    <time>2011-04-19T13:13:42Z</time>
   </trkpt>
   <trkpt lat="32.109060" lon="34.921439">
    <ele>14.507</ele>
    <time>2011-04-19T13:13:46Z</time>
   </trkpt>
   <trkpt lat="32.109099" lon="34.921410">
    <ele>14.513</ele>
    <time>2011-04-19T13:13:50Z</time>
   </trkpt>
   <trkpt lat="32.109480" lon="34.921147">
    <ele>14.682</ele>
    <time>2011-04-19T13:14:04Z</time>
   </trkpt>
   <trkpt lat="32.109637" lon="34.921018">
    <ele>14.310</ele>
    <time>2011-04-19T13:14:08Z</time>
   </trkpt>
   <trkpt lat="32.109745" lon="34.920891">
    <ele>14.257</ele>
    <time>2011-04-19T13:14:11Z</time>
   </trkpt>
   <trkpt lat="32.109849" lon="34.920470">
    <ele>14.395</ele>
    <time>2011-04-19T13:14:19Z</time>
   </trkpt>
   <trkpt lat="32.109984" lon="34.920253">
    <ele>13.688</ele>
    <time>2011-04-19T13:14:25Z</time>
   </trkpt>
   <trkpt lat="32.110025" lon="34.920062">
    <ele>13.249</ele>
    <time>2011-04-19T13:14:29Z</time>
   </trkpt>
   <trkpt lat="32.109981" lon="34.919839">
    <ele>12.775</ele>
    <time>2011-04-19T13:14:33Z</time>
   </trkpt>
   <trkpt lat="32.110075" lon="34.919093">
    <ele>12.733</ele>
    <time>2011-04-19T13:14:46Z</time>
   </trkpt>
   <trkpt lat="32.110146" lon="34.918957">
    <ele>12.879</ele>
    <time>2011-04-19T13:14:49Z</time>
   </trkpt>
   <trkpt lat="32.110289" lon="34.918820">
    <ele>12.727</ele>
    <time>2011-04-19T13:14:53Z</time>
   </trkpt>
   <trkpt lat="32.110605" lon="34.918672">
    <ele>12.757</ele>
    <time>2011-04-19T13:15:00Z</time>
   </trkpt>
   <trkpt lat="32.110758" lon="34.918494">
    <ele>13.343</ele>
    <time>2011-04-19T13:15:05Z</time>
   </trkpt>
   <trkpt lat="32.110817" lon="34.917491">
    <ele>15.573</ele>
    <time>2011-04-19T13:15:26Z</time>
   </trkpt>
   <trkpt lat="32.110821" lon="34.917441">
    <ele>15.690</ele>
    <time>2011-04-19T13:15:27Z</time>
   </trkpt>
   <trkpt lat="32.110739" lon="34.917194">
    <ele>15.573</ele>
    <time>2011-04-19T13:15:32Z</time>
   </trkpt>
   <trkpt lat="32.110653" lon="34.916736">
    <ele>14.430</ele>
    <time>2011-04-19T13:15:39Z</time>
   </trkpt>
   <trkpt lat="32.110674" lon="34.916312">
    <ele>14.115</ele>
    <time>2011-04-19T13:15:45Z</time>
   </trkpt>
   <trkpt lat="32.110679" lon="34.914905">
    <ele>12.881</ele>
    <time>2011-04-19T13:16:05Z</time>
   </trkpt>
   <trkpt lat="32.110687" lon="34.913845">
    <ele>12.763</ele>
    <time>2011-04-19T13:16:22Z</time>
   </trkpt>
   <trkpt lat="32.110774" lon="34.913756">
    <ele>12.153</ele>
    <time>2011-04-19T13:16:27Z</time>
   </trkpt>
   <trkpt lat="32.111032" lon="34.913763">
    <ele>11.760</ele>
    <time>2011-04-19T13:16:34Z</time>
   </trkpt>
   <trkpt lat="32.111124" lon="34.913740">
    <ele>12.683</ele>
    <time>2011-04-19T13:16:38Z</time>
   </trkpt>
   <trkpt lat="32.111239" lon="34.913445">
    <ele>12.350</ele>
    <time>2011-04-19T13:16:51Z</time>
   </trkpt>
   <trkpt lat="32.111292" lon="34.912817">
    <ele>13.851</ele>
    <time>2011-04-19T13:17:07Z</time>
   </trkpt>
   <trkpt lat="32.111353" lon="34.912209">
    <ele>13.667</ele>
    <time>2011-04-19T13:17:22Z</time>
   </trkpt>
   <trkpt lat="32.111509" lon="34.911970">
    <ele>13.662</ele>
    <time>2011-04-19T13:17:29Z</time>
   </trkpt>
   <trkpt lat="32.111989" lon="34.911634">
    <ele>14.542</ele>
    <time>2011-04-19T13:17:44Z</time>
   </trkpt>
   <trkpt lat="32.112282" lon="34.911574">
    <ele>15.661</ele>
    <time>2011-04-19T13:17:55Z</time>
   </trkpt>
   <trkpt lat="32.112857" lon="34.911585">
    <ele>16.798</ele>
    <time>2011-04-19T13:18:12Z</time>
   </trkpt>
   <trkpt lat="32.113258" lon="34.911650">
    <ele>17.111</ele>
    <time>2011-04-19T13:18:21Z</time>
   </trkpt>
   <trkpt lat="32.113788" lon="34.911605">
    <ele>17.338</ele>
    <time>2011-04-19T13:18:32Z</time>
   </trkpt>
   <trkpt lat="32.114605" lon="34.911479">
    <ele>17.182</ele>
    <time>2011-04-19T13:18:51Z</time>
   </trkpt>
   <trkpt lat="32.115251" lon="34.911386">
    <ele>16.719</ele>
    <time>2011-04-19T13:19:06Z</time>
   </trkpt>
   <trkpt lat="32.115326" lon="34.911511">
    <ele>16.683</ele>
    <time>2011-04-19T13:19:10Z</time>
   </trkpt>
   <trkpt lat="32.115356" lon="34.912133">
    <ele>16.844</ele>
    <time>2011-04-19T13:19:24Z</time>
   </trkpt>
   <trkpt lat="32.115416" lon="34.912273">
    <ele>16.660</ele>
    <time>2011-04-19T13:19:27Z</time>
   </trkpt>
   <trkpt lat="32.115484" lon="34.913002">
    <ele>15.839</ele>
    <time>2011-04-19T13:19:40Z</time>
   </trkpt>
   <trkpt lat="32.115715" lon="34.913243">
    <ele>15.364</ele>
    <time>2011-04-19T13:19:47Z</time>
   </trkpt>
   <trkpt lat="32.115923" lon="34.913252">
    <ele>14.994</ele>
    <time>2011-04-19T13:19:51Z</time>
   </trkpt>
   <trkpt lat="32.116142" lon="34.913132">
    <ele>14.618</ele>
    <time>2011-04-19T13:19:56Z</time>
   </trkpt>
   <trkpt lat="32.116427" lon="34.912828">
    <ele>15.854</ele>
    <time>2011-04-19T13:20:04Z</time>
   </trkpt>
   <trkpt lat="32.116839" lon="34.912886">
    <ele>15.837</ele>
    <time>2011-04-19T13:20:14Z</time>
   </trkpt>
   <trkpt lat="32.116868" lon="34.912935">
    <ele>15.605</ele>
    <time>2011-04-19T13:20:15Z</time>
   </trkpt>
   <trkpt lat="32.116944" lon="34.913086">
    <ele>14.832</ele>
    <time>2011-04-19T13:20:18Z</time>
   </trkpt>
   <trkpt lat="32.117164" lon="34.913975">
    <ele>14.401</ele>
    <time>2011-04-19T13:20:32Z</time>
   </trkpt>
   <trkpt lat="32.117480" lon="34.914280">
    <ele>14.479</ele>
    <time>2011-04-19T13:20:40Z</time>
   </trkpt>
   <trkpt lat="32.117526" lon="34.914248">
    <ele>14.659</ele>
    <time>2011-04-19T13:20:41Z</time>
   </trkpt>
   <trkpt lat="32.117615" lon="34.914173">
    <ele>14.352</ele>
    <time>2011-04-19T13:20:43Z</time>
   </trkpt>
   <trkpt lat="32.117874" lon="34.914091">
    <ele>13.757</ele>
    <time>2011-04-19T13:20:48Z</time>
   </trkpt>
   <trkpt lat="32.118169" lon="34.914280">
    <ele>13.790</ele>
    <time>2011-04-19T13:20:54Z</time>
   </trkpt>
   <trkpt lat="32.118295" lon="34.914474">
    <ele>13.626</ele>
    <time>2011-04-19T13:20:58Z</time>
   </trkpt>
   <trkpt lat="32.118445" lon="34.914602">
    <ele>13.597</ele>
    <time>2011-04-19T13:21:02Z</time>
   </trkpt>
   <trkpt lat="32.118679" lon="34.914640">
    <ele>11.908</ele>
    <time>2011-04-19T13:21:07Z</time>
   </trkpt>
   <trkpt lat="32.118872" lon="34.914485">
    <ele>12.167</ele>
    <time>2011-04-19T13:21:12Z</time>
   </trkpt>
   <trkpt lat="32.118821" lon="34.914198">
    <ele>11.536</ele>
    <time>2011-04-19T13:21:18Z</time>
   </trkpt>
   <trkpt lat="32.118599" lon="34.913915">
    <ele>12.697</ele>
    <time>2011-04-19T13:21:25Z</time>
   </trkpt>
   <trkpt lat="32.118477" lon="34.913751">
    <ele>12.813</ele>
    <time>2011-04-19T13:21:29Z</time>
   </trkpt>
   <trkpt lat="32.118425" lon="34.913404">
    <ele>12.942</ele>
    <time>2011-04-19T13:21:36Z</time>
   </trkpt>
   <trkpt lat="32.118696" lon="34.912974">
    <ele>17.393</ele>
    <time>2011-04-19T13:21:48Z</time>
   </trkpt>
   <trkpt lat="32.118889" lon="34.912865">
    <ele>17.633</ele>
    <time>2011-04-19T13:21:53Z</time>
   </trkpt>
   <trkpt lat="32.119294" lon="34.912257">
    <ele>17.021</ele>
    <time>2011-04-19T13:22:06Z</time>
   </trkpt>
   <trkpt lat="32.119356" lon="34.912095">
    <ele>16.933</ele>
    <time>2011-04-19T13:22:09Z</time>
   </trkpt>
   <trkpt lat="32.119381" lon="34.911839">
    <ele>16.685</ele>
    <time>2011-04-19T13:22:13Z</time>
   </trkpt>
   <trkpt lat="32.119411" lon="34.911238">
    <ele>17.099</ele>
    <time>2011-04-19T13:22:24Z</time>
   </trkpt>
   <trkpt lat="32.119689" lon="34.911134">
    <ele>15.823</ele>
    <time>2011-04-19T13:22:34Z</time>
   </trkpt>
   <trkpt lat="32.119719" lon="34.911148">
    <ele>15.604</ele>
    <time>2011-04-19T13:22:36Z</time>
   </trkpt>
   <trkpt lat="32.119765" lon="34.911104">
    <ele>16.469</ele>
    <time>2011-04-19T13:22:40Z</time>
   </trkpt>
   <trkpt lat="32.119982" lon="34.911059">
    <ele>16.003</ele>
    <time>2011-04-19T13:22:50Z</time>
   </trkpt>
   <trkpt lat="32.120026" lon="34.911183">
    <ele>16.353</ele>
    <time>2011-04-19T13:22:55Z</time>
   </trkpt>
   <trkpt lat="32.119885" lon="34.911786">
    <ele>15.931</ele>
    <time>2011-04-19T13:23:11Z</time>
   </trkpt>
   <trkpt lat="32.119879" lon="34.911905">
    <ele>14.953</ele>
    <time>2011-04-19T13:23:14Z</time>
   </trkpt>
   <trkpt lat="32.119917" lon="34.911991">
    <ele>12.985</ele>
    <time>2011-04-19T13:23:16Z</time>
   </trkpt>
   <trkpt lat="32.120084" lon="34.912126">
    <ele>11.130</ele>
    <time>2011-04-19T13:23:20Z</time>
   </trkpt>
   <trkpt lat="32.120158" lon="34.912198">
    <ele>10.378</ele>
    <time>2011-04-19T13:23:22Z</time>
   </trkpt>
   <trkpt lat="32.120429" lon="34.912125">
    <ele>9.985</ele>
    <time>2011-04-19T13:23:30Z</time>
   </trkpt>
   <trkpt lat="32.120635" lon="34.911808">
    <ele>14.351</ele>
    <time>2011-04-19T13:23:43Z</time>
   </trkpt>
   <trkpt lat="32.120725" lon="34.911316">
    <ele>14.363</ele>
    <time>2011-04-19T13:23:58Z</time>
   </trkpt>
   <trkpt lat="32.120851" lon="34.910648">
    <ele>14.169</ele>
    <time>2011-04-19T13:24:15Z</time>
   </trkpt>
   <trkpt lat="32.121006" lon="34.910560">
    <ele>14.480</ele>
    <time>2011-04-19T13:24:20Z</time>
   </trkpt>
   <trkpt lat="32.122077" lon="34.910403">
    <ele>14.095</ele>
    <time>2011-04-19T13:24:42Z</time>
   </trkpt>
   <trkpt lat="32.122924" lon="34.910277">
    <ele>13.803</ele>
    <time>2011-04-19T13:24:58Z</time>
   </trkpt>
   <trkpt lat="32.123122" lon="34.910229">
    <ele>13.884</ele>
    <time>2011-04-19T13:25:02Z</time>
   </trkpt>
   <trkpt lat="32.123546" lon="34.910128">
    <ele>13.657</ele>
    <time>2011-04-19T13:25:13Z</time>
   </trkpt>
   <trkpt lat="32.123631" lon="34.910127">
    <ele>13.465</ele>
    <time>2011-04-19T13:25:15Z</time>
   </trkpt>
   <trkpt lat="32.123847" lon="34.910138">
    <ele>13.300</ele>
    <time>2011-04-19T13:25:20Z</time>
   </trkpt>
   <trkpt lat="32.124069" lon="34.910101">
    <ele>13.243</ele>
    <time>2011-04-19T13:25:25Z</time>
   </trkpt>
   <trkpt lat="32.124212" lon="34.910095">
    <ele>12.937</ele>
    <time>2011-04-19T13:25:28Z</time>
   </trkpt>
   <trkpt lat="32.124402" lon="34.910135">
    <ele>12.322</ele>
    <time>2011-04-19T13:25:32Z</time>
   </trkpt>
   <trkpt lat="32.124678" lon="34.910243">
    <ele>11.980</ele>
    <time>2011-04-19T13:25:38Z</time>
   </trkpt>
   <trkpt lat="32.124842" lon="34.910333">
    <ele>12.029</ele>
    <time>2011-04-19T13:25:42Z</time>
   </trkpt>
   <trkpt lat="32.125042" lon="34.910373">
    <ele>12.277</ele>
    <time>2011-04-19T13:25:46Z</time>
   </trkpt>
   <trkpt lat="32.125414" lon="34.910417">
    <ele>12.499</ele>
    <time>2011-04-19T13:25:57Z</time>
   </trkpt>
   <trkpt lat="32.125451" lon="34.910347">
    <ele>11.899</ele>
    <time>2011-04-19T13:26:10Z</time>
   </trkpt>
   <trkpt lat="32.125735" lon="34.910226">
    <ele>12.066</ele>
    <time>2011-04-19T13:26:22Z</time>
   </trkpt>
   <trkpt lat="32.125729" lon="34.910215">
    <ele>13.329</ele>
    <time>2011-04-19T13:26:31Z</time>
   </trkpt>
   <trkpt lat="32.125438" lon="34.910357">
    <ele>13.175</ele>
    <time>2011-04-19T13:26:44Z</time>
   </trkpt>
   <trkpt lat="32.125413" lon="34.910436">
    <ele>13.216</ele>
    <time>2011-04-19T13:26:47Z</time>
   </trkpt>
   <trkpt lat="32.125461" lon="34.910519">
    <ele>12.374</ele>
    <time>2011-04-19T13:27:04Z</time>
   </trkpt>
   <trkpt lat="32.125457" lon="34.910519">
    <ele>12.406</ele>
    <time>2011-04-19T13:27:05Z</time>
   </trkpt>
   <trkpt lat="32.125430" lon="34.910398">
    <ele>12.486</ele>
    <time>2011-04-19T13:27:18Z</time>
   </trkpt>
   <trkpt lat="32.125451" lon="34.910357">
    <ele>12.176</ele>
    <time>2011-04-19T13:27:22Z</time>
   </trkpt>
   <trkpt lat="32.125642" lon="34.910228">
    <ele>13.382</ele>
    <time>2011-04-19T13:27:41Z</time>
   </trkpt>
   <trkpt lat="32.125689" lon="34.910206">
    <ele>12.760</ele>
    <time>2011-04-19T13:28:02Z</time>
   </trkpt>
   <trkpt lat="32.125716" lon="34.910209">
    <ele>12.704</ele>
    <time>2011-04-19T13:28:06Z</time>
   </trkpt>
   <trkpt lat="32.126083" lon="34.910342">
    <ele>11.380</ele>
    <time>2011-04-19T13:28:21Z</time>
   </trkpt>
   <trkpt lat="32.126512" lon="34.910763">
    <ele>9.822</ele>
    <time>2011-04-19T13:28:36Z</time>
   </trkpt>
   <trkpt lat="32.126694" lon="34.911129">
    <ele>8.682</ele>
    <time>2011-04-19T13:28:47Z</time>
   </trkpt>
   <trkpt lat="32.126769" lon="34.911273">
    <ele>7.989</ele>
    <time>2011-04-19T13:28:51Z</time>
   </trkpt>
   <trkpt lat="32.126892" lon="34.911337">
    <ele>7.136</ele>
    <time>2011-04-19T13:28:55Z</time>
   </trkpt>
   <trkpt lat="32.126944" lon="34.911339">
    <ele>8.210</ele>
    <time>2011-04-19T13:29:05Z</time>
   </trkpt>
   <trkpt lat="32.126934" lon="34.911322">
    <ele>7.822</ele>
    <time>2011-04-19T13:29:33Z</time>
   </trkpt>
   <trkpt lat="32.126935" lon="34.911345">
    <ele>6.593</ele>
    <time>2011-04-19T13:29:43Z</time>
   </trkpt>
   <trkpt lat="32.126933" lon="34.911345">
    <ele>6.915</ele>
    <time>2011-04-19T13:29:45Z</time>
   </trkpt>
   <trkpt lat="32.126960" lon="34.911240">
    <ele>7.500</ele>
    <time>2011-04-19T13:29:59Z</time>
   </trkpt>
   <trkpt lat="32.126971" lon="34.911231">
    <ele>9.022</ele>
    <time>2011-04-19T13:30:15Z</time>
   </trkpt>
   <trkpt lat="32.126998" lon="34.911173">
    <ele>9.872</ele>
    <time>2011-04-19T13:30:29Z</time>
   </trkpt>
   <trkpt lat="32.127025" lon="34.911128">
    <ele>10.341</ele>
    <time>2011-04-19T13:30:42Z</time>
   </trkpt>
   <trkpt lat="32.127035" lon="34.911114">
    <ele>12.244</ele>
    <time>2011-04-19T13:30:49Z</time>
   </trkpt>
   <trkpt lat="32.127074" lon="34.911106">
    <ele>13.090</ele>
    <time>2011-04-19T13:30:53Z</time>
   </trkpt>
   <trkpt lat="32.127077" lon="34.911039">
    <ele>14.081</ele>
    <time>2011-04-19T13:30:59Z</time>
   </trkpt>
   <trkpt lat="32.126934" lon="34.910910">
    <ele>11.966</ele>
    <time>2011-04-19T13:31:15Z</time>
   </trkpt>
   <trkpt lat="32.126935" lon="34.910907">
    <ele>12.032</ele>
    <time>2011-04-19T13:31:18Z</time>
   </trkpt>
   <trkpt lat="32.126728" lon="34.910572">
    <ele>12.297</ele>
    <time>2011-04-19T13:31:34Z</time>
   </trkpt>
   <trkpt lat="32.126473" lon="34.910210">
    <ele>12.881</ele>
    <time>2011-04-19T13:31:47Z</time>
   </trkpt>
   <trkpt lat="32.126338" lon="34.909854">
    <ele>12.555</ele>
    <time>2011-04-19T13:31:57Z</time>
   </trkpt>
   <trkpt lat="32.126461" lon="34.909743">
    <ele>13.302</ele>
    <time>2011-04-19T13:32:01Z</time>
   </trkpt>
   <trkpt lat="32.126996" lon="34.909427">
    <ele>15.207</ele>
    <time>2011-04-19T13:32:18Z</time>
   </trkpt>
   <trkpt lat="32.127159" lon="34.908957">
    <ele>15.862</ele>
    <time>2011-04-19T13:32:30Z</time>
   </trkpt>
   <trkpt lat="32.127031" lon="34.908481">
    <ele>15.003</ele>
    <time>2011-04-19T13:32:42Z</time>
   </trkpt>
   <trkpt lat="32.126660" lon="34.907805">
    <ele>15.130</ele>
    <time>2011-04-19T13:32:59Z</time>
   </trkpt>
   <trkpt lat="32.126200" lon="34.907393">
    <ele>16.441</ele>
    <time>2011-04-19T13:33:15Z</time>
   </trkpt>
   <trkpt lat="32.125837" lon="34.907534">
    <ele>15.537</ele>
    <time>2011-04-19T13:33:27Z</time>
   </trkpt>
   <trkpt lat="32.125049" lon="34.907866">
    <ele>13.532</ele>
    <time>2011-04-19T13:33:45Z</time>
   </trkpt>
   <trkpt lat="32.124436" lon="34.908116">
    <ele>12.986</ele>
    <time>2011-04-19T13:34:00Z</time>
   </trkpt>
   <trkpt lat="32.124160" lon="34.908289">
    <ele>13.268</ele>
    <time>2011-04-19T13:34:11Z</time>
   </trkpt>
   <trkpt lat="32.124117" lon="34.908224">
    <ele>13.121</ele>
    <time>2011-04-19T13:34:13Z</time>
   </trkpt>
   <trkpt lat="32.124266" lon="34.908001">
    <ele>12.707</ele>
    <time>2011-04-19T13:34:20Z</time>
   </trkpt>
   <trkpt lat="32.124446" lon="34.907711">
    <ele>13.082</ele>
    <time>2011-04-19T13:34:30Z</time>
   </trkpt>
   <trkpt lat="32.124418" lon="34.907433">
    <ele>13.483</ele>
    <time>2011-04-19T13:34:40Z</time>
   </trkpt>
   <trkpt lat="32.124195" lon="34.907108">
    <ele>12.769</ele>
    <time>2011-04-19T13:34:55Z</time>
   </trkpt>
   <trkpt lat="32.124177" lon="34.907087">
    <ele>12.748</ele>
    <time>2011-04-19T13:34:56Z</time>
   </trkpt>
   <trkpt lat="32.123878" lon="34.907000">
    <ele>12.720</ele>
    <time>2011-04-19T13:35:06Z</time>
   </trkpt>
   <trkpt lat="32.123505" lon="34.907088">
    <ele>11.727</ele>
    <time>2011-04-19T13:35:18Z</time>
   </trkpt>
   <trkpt lat="32.123463" lon="34.906852">
    <ele>11.803</ele>
    <time>2011-04-19T13:35:27Z</time>
   </trkpt>
   <trkpt lat="32.123584" lon="34.906737">
    <ele>12.246</ele>
    <time>2011-04-19T13:35:44Z</time>
   </trkpt>
   <trkpt lat="32.123880" lon="34.906564">
    <ele>13.813</ele>
    <time>2011-04-19T13:35:57Z</time>
   </trkpt>
   <trkpt lat="32.124506" lon="34.906077">
    <ele>15.028</ele>
    <time>2011-04-19T13:36:17Z</time>
   </trkpt>
   <trkpt lat="32.124783" lon="34.905566">
    <ele>14.325</ele>
    <time>2011-04-19T13:36:31Z</time>
   </trkpt>
   <trkpt lat="32.124848" lon="34.905392">
    <ele>13.907</ele>
    <time>2011-04-19T13:36:43Z</time>
   </trkpt>
   <trkpt lat="32.125029" lon="34.905007">
    <ele>14.617</ele>
    <time>2011-04-19T13:36:55Z</time>
   </trkpt>
   <trkpt lat="32.125019" lon="34.904903">
    <ele>14.445</ele>
    <time>2011-04-19T13:36:59Z</time>
   </trkpt>
   <trkpt lat="32.124844" lon="34.904618">
    <ele>13.731</ele>
    <time>2011-04-19T13:37:08Z</time>
   </trkpt>
   <trkpt lat="32.124804" lon="34.904479">
    <ele>12.557</ele>
    <time>2011-04-19T13:37:11Z</time>
   </trkpt>
   <trkpt lat="32.124736" lon="34.904253">
    <ele>10.791</ele>
    <time>2011-04-19T13:37:15Z</time>
   </trkpt>
   <trkpt lat="32.124689" lon="34.903949">
    <ele>7.833</ele>
    <time>2011-04-19T13:37:21Z</time>
   </trkpt>
   <trkpt lat="32.124652" lon="34.903893">
    <ele>6.679</ele>
    <time>2011-04-19T13:37:23Z</time>
   </trkpt>
   <trkpt lat="32.124884" lon="34.903476">
    <ele>5.916</ele>
    <time>2011-04-19T13:37:33Z</time>
   </trkpt>
   <trkpt lat="32.124947" lon="34.903353">
    <ele>7.165</ele>
    <time>2011-04-19T13:37:36Z</time>
   </trkpt>
   <trkpt lat="32.124933" lon="34.902977">
    <ele>9.745</ele>
    <time>2011-04-19T13:37:47Z</time>
   </trkpt>
   <trkpt lat="32.124831" lon="34.902902">
    <ele>11.099</ele>
    <time>2011-04-19T13:37:58Z</time>
   </trkpt>
   <trkpt lat="32.124638" lon="34.902721">
    <ele>10.917</ele>
    <time>2011-04-19T13:38:06Z</time>
   </trkpt>
   <trkpt lat="32.124470" lon="34.902706">
    <ele>10.799</ele>
    <time>2011-04-19T13:38:10Z</time>
   </trkpt>
   <trkpt lat="32.124202" lon="34.902805">
    <ele>11.333</ele>
    <time>2011-04-19T13:38:18Z</time>
   </trkpt>
   <trkpt lat="32.124091" lon="34.902612">
    <ele>6.641</ele>
    <time>2011-04-19T13:38:26Z</time>
   </trkpt>
   <trkpt lat="32.124106" lon="34.902001">
    <ele>7.314</ele>
    <time>2011-04-19T13:38:38Z</time>
   </trkpt>
   <trkpt lat="32.123860" lon="34.901200">
    <ele>8.194</ele>
    <time>2011-04-19T13:38:54Z</time>
   </trkpt>
   <trkpt lat="32.123748" lon="34.900890">
    <ele>8.923</ele>
    <time>2011-04-19T13:39:00Z</time>
   </trkpt>
   <trkpt lat="32.123545" lon="34.900656">
    <ele>9.063</ele>
    <time>2011-04-19T13:39:06Z</time>
   </trkpt>
   <trkpt lat="32.123402" lon="34.900589">
    <ele>8.958</ele>
    <time>2011-04-19T13:39:09Z</time>
   </trkpt>
   <trkpt lat="32.123207" lon="34.900576">
    <ele>9.035</ele>
    <time>2011-04-19T13:39:13Z</time>
   </trkpt>
   <trkpt lat="32.122778" lon="34.900584">
    <ele>9.612</ele>
    <time>2011-04-19T13:39:26Z</time>
   </trkpt>
   <trkpt lat="32.122723" lon="34.900488">
    <ele>10.009</ele>
    <time>2011-04-19T13:39:38Z</time>
   </trkpt>
   <trkpt lat="32.122705" lon="34.900203">
    <ele>10.331</ele>
    <time>2011-04-19T13:39:49Z</time>
   </trkpt>
   <trkpt lat="32.122695" lon="34.899896">
    <ele>9.939</ele>
    <time>2011-04-19T13:39:56Z</time>
   </trkpt>
   <trkpt lat="32.122866" lon="34.899588">
    <ele>9.795</ele>
    <time>2011-04-19T13:40:04Z</time>
   </trkpt>
   <trkpt lat="32.123233" lon="34.899698">
    <ele>9.981</ele>
    <time>2011-04-19T13:40:13Z</time>
   </trkpt>
   <trkpt lat="32.123274" lon="34.899752">
    <ele>9.478</ele>
    <time>2011-04-19T13:40:14Z</time>
   </trkpt>
   <trkpt lat="32.123443" lon="34.899960">
    <ele>9.527</ele>
    <time>2011-04-19T13:40:19Z</time>
   </trkpt>
   <trkpt lat="32.123643" lon="34.900026">
    <ele>10.047</ele>
    <time>2011-04-19T13:40:24Z</time>
   </trkpt>
   <trkpt lat="32.123797" lon="34.899990">
    <ele>10.732</ele>
    <time>2011-04-19T13:40:28Z</time>
   </trkpt>
   <trkpt lat="32.123995" lon="34.899887">
    <ele>10.668</ele>
    <time>2011-04-19T13:40:33Z</time>
   </trkpt>
   <trkpt lat="32.124139" lon="34.899739">
    <ele>10.184</ele>
    <time>2011-04-19T13:40:37Z</time>
   </trkpt>
   <trkpt lat="32.124487" lon="34.899678">
    <ele>11.729</ele>
    <time>2011-04-19T13:40:47Z</time>
   </trkpt>
   <trkpt lat="32.124865" lon="34.899840">
    <ele>11.888</ele>
    <time>2011-04-19T13:40:58Z</time>
   </trkpt>
   <trkpt lat="32.124928" lon="34.899572">
    <ele>12.204</ele>
    <time>2011-04-19T13:41:06Z</time>
   </trkpt>
   <trkpt lat="32.124890" lon="34.899147">
    <ele>11.922</ele>
    <time>2011-04-19T13:41:18Z</time>
   </trkpt>
   <trkpt lat="32.125109" lon="34.899013">
    <ele>11.487</ele>
    <time>2011-04-19T13:41:24Z</time>
   </trkpt>
   <trkpt lat="32.125221" lon="34.898919">
    <ele>11.608</ele>
    <time>2011-04-19T13:41:27Z</time>
   </trkpt>
   <trkpt lat="32.125359" lon="34.898659">
    <ele>12.520</ele>
    <time>2011-04-19T13:41:34Z</time>
   </trkpt>
   <trkpt lat="32.125365" lon="34.898479">
    <ele>11.949</ele>
    <time>2011-04-19T13:41:47Z</time>
   </trkpt>
   <trkpt lat="32.125384" lon="34.898463">
    <ele>12.025</ele>
    <time>2011-04-19T13:42:08Z</time>
   </trkpt>
   <trkpt lat="32.125528" lon="34.898336">
    <ele>11.831</ele>
    <time>2011-04-19T13:42:25Z</time>
   </trkpt>
   <trkpt lat="32.125570" lon="34.898242">
    <ele>12.187</ele>
    <time>2011-04-19T13:42:34Z</time>
   </trkpt>
   <trkpt lat="32.125734" lon="34.898187">
    <ele>12.070</ele>
    <time>2011-04-19T13:42:44Z</time>
   </trkpt>
   <trkpt lat="32.126058" lon="34.897929">
    <ele>11.133</ele>
    <time>2011-04-19T13:42:55Z</time>
   </trkpt>
   <trkpt lat="32.126253" lon="34.897486">
    <ele>10.991</ele>
    <time>2011-04-19T13:43:06Z</time>
   </trkpt>
   <trkpt lat="32.126276" lon="34.897384">
    <ele>9.404</ele>
    <time>2011-04-19T13:43:08Z</time>
   </trkpt>
   <trkpt lat="32.126219" lon="34.897220">
    <ele>8.818</ele>
    <time>2011-04-19T13:43:12Z</time>
   </trkpt>
   <trkpt lat="32.126169" lon="34.897170">
    <ele>9.504</ele>
    <time>2011-04-19T13:43:14Z</time>
   </trkpt>
   <trkpt lat="32.125981" lon="34.897087">
    <ele>9.639</ele>
    <time>2011-04-19T13:43:19Z</time>
   </trkpt>
   <trkpt lat="32.125855" lon="34.897054">
    <ele>9.356</ele>
    <time>2011-04-19T13:43:22Z</time>
   </trkpt>
   <trkpt lat="32.125346" lon="34.896917">
    <ele>8.347</ele>
    <time>2011-04-19T13:43:33Z</time>
   </trkpt>
   <trkpt lat="32.125030" lon="34.896694">
    <ele>7.944</ele>
    <time>2011-04-19T13:43:40Z</time>
   </trkpt>
   <trkpt lat="32.124955" lon="34.896597">
    <ele>8.661</ele>
    <time>2011-04-19T13:43:43Z</time>
   </trkpt>
   <trkpt lat="32.124949" lon="34.896566">
    <ele>9.257</ele>
    <time>2011-04-19T13:44:01Z</time>
   </trkpt>
   <trkpt lat="32.124934" lon="34.896288">
    <ele>9.084</ele>
    <time>2011-04-19T13:44:16Z</time>
   </trkpt>
   <trkpt lat="32.125168" lon="34.896008">
    <ele>8.842</ele>
    <time>2011-04-19T13:44:28Z</time>
   </trkpt>
   <trkpt lat="32.125596" lon="34.895701">
    <ele>10.479</ele>
    <time>2011-04-19T13:44:41Z</time>
   </trkpt>
   <trkpt lat="32.125903" lon="34.895348">
    <ele>12.464</ele>
    <time>2011-04-19T13:44:54Z</time>
   </trkpt>
   <trkpt lat="32.125872" lon="34.895306">
    <ele>11.196</ele>
    <time>2011-04-19T13:45:06Z</time>
   </trkpt>
   <trkpt lat="32.125855" lon="34.895325">
    <ele>10.516</ele>
    <time>2011-04-19T13:45:32Z</time>
   </trkpt>
   <trkpt lat="32.125655" lon="34.895299">
    <ele>7.244</ele>
    <time>2011-04-19T13:45:43Z</time>
   </trkpt>
   <trkpt lat="32.125614" lon="34.895292">
    <ele>6.894</ele>
    <time>2011-04-19T13:45:45Z</time>
   </trkpt>
   <trkpt lat="32.125480" lon="34.895257">
    <ele>10.331</ele>
    <time>2011-04-19T13:45:58Z</time>
   </trkpt>
   <trkpt lat="32.125429" lon="34.895239">
    <ele>10.786</ele>
    <time>2011-04-19T13:46:08Z</time>
   </trkpt>
   <trkpt lat="32.125232" lon="34.895010">
    <ele>10.900</ele>
    <time>2011-04-19T13:46:21Z</time>
   </trkpt>
   <trkpt lat="32.124753" lon="34.894880">
    <ele>12.155</ele>
    <time>2011-04-19T13:46:36Z</time>
   </trkpt>
   <trkpt lat="32.124699" lon="34.894912">
    <ele>12.425</ele>
    <time>2011-04-19T13:46:46Z</time>
   </trkpt>
   <trkpt lat="32.124578" lon="34.895099">
    <ele>12.566</ele>
    <time>2011-04-19T13:47:00Z</time>
   </trkpt>
   <trkpt lat="32.124260" lon="34.895386">
    <ele>13.045</ele>
    <time>2011-04-19T13:47:15Z</time>
   </trkpt>
   <trkpt lat="32.123895" lon="34.895443">
    <ele>14.050</ele>
    <time>2011-04-19T13:47:31Z</time>
   </trkpt>
   <trkpt lat="32.123603" lon="34.895027">
    <ele>12.998</ele>
    <time>2011-04-19T13:47:45Z</time>
   </trkpt>
   <trkpt lat="32.123436" lon="34.894822">
    <ele>13.069</ele>
    <time>2011-04-19T13:47:50Z</time>
   </trkpt>
   <trkpt lat="32.123375" lon="34.894605">
    <ele>14.401</ele>
    <time>2011-04-19T13:47:55Z</time>
   </trkpt>
   <trkpt lat="32.123506" lon="34.894070">
    <ele>14.884</ele>
    <time>2011-04-19T13:48:10Z</time>
   </trkpt>
   <trkpt lat="32.123707" lon="34.893527">
    <ele>14.706</ele>
    <time>2011-04-19T13:48:25Z</time>
   </trkpt>
   <trkpt lat="32.123954" lon="34.893224">
    <ele>14.518</ele>
    <time>2011-04-19T13:48:37Z</time>
   </trkpt>
   <trkpt lat="32.124006" lon="34.893181">
    <ele>14.469</ele>
    <time>2011-04-19T13:48:40Z</time>
   </trkpt>
   <trkpt lat="32.124324" lon="34.893117">
    <ele>12.933</ele>
    <time>2011-04-19T13:48:53Z</time>
   </trkpt>
   <trkpt lat="32.124530" lon="34.893086">
    <ele>12.085</ele>
    <time>2011-04-19T13:49:05Z</time>
   </trkpt>
   <trkpt lat="32.124581" lon="34.893090">
    <ele>12.089</ele>
    <time>2011-04-19T13:49:08Z</time>
   </trkpt>
   <trkpt lat="32.124652" lon="34.893040">
    <ele>11.880</ele>
    <time>2011-04-19T13:49:18Z</time>
   </trkpt>
   <trkpt lat="32.124690" lon="34.892959">
    <ele>11.740</ele>
    <time>2011-04-19T13:49:33Z</time>
   </trkpt>
   <trkpt lat="32.124677" lon="34.892869">
    <ele>11.675</ele>
    <time>2011-04-19T13:49:41Z</time>
   </trkpt>
   <trkpt lat="32.124686" lon="34.892847">
    <ele>11.681</ele>
    <time>2011-04-19T13:49:43Z</time>
   </trkpt>
   <trkpt lat="32.124633" lon="34.892752">
    <ele>11.459</ele>
    <time>2011-04-19T13:49:58Z</time>
   </trkpt>
   <trkpt lat="32.124606" lon="34.892738">
    <ele>11.738</ele>
    <time>2011-04-19T13:50:15Z</time>
   </trkpt>
   <trkpt lat="32.124636" lon="34.892756">
    <ele>11.830</ele>
    <time>2011-04-19T13:50:20Z</time>
   </trkpt>
   <trkpt lat="32.124689" lon="34.892870">
    <ele>11.166</ele>
    <time>2011-04-19T13:50:33Z</time>
   </trkpt>
   <trkpt lat="32.124665" lon="34.892901">
    <ele>11.037</ele>
    <time>2011-04-19T13:50:37Z</time>
   </trkpt>
   <trkpt lat="32.124704" lon="34.892972">
    <ele>10.331</ele>
    <time>2011-04-19T13:50:52Z</time>
   </trkpt>
   <trkpt lat="32.124699" lon="34.892969">
    <ele>9.816</ele>
    <time>2011-04-19T13:51:29Z</time>
   </trkpt>
   <trkpt lat="32.124685" lon="34.892955">
    <ele>10.191</ele>
    <time>2011-04-19T13:51:43Z</time>
   </trkpt>
   <trkpt lat="32.124678" lon="34.892971">
    <ele>11.539</ele>
    <time>2011-04-19T13:52:06Z</time>
   </trkpt>
   <trkpt lat="32.124659" lon="34.893013">
    <ele>11.497</ele>
    <time>2011-04-19T13:52:23Z</time>
   </trkpt>
   <trkpt lat="32.124654" lon="34.893027">
    <ele>11.343</ele>
    <time>2011-04-19T13:52:36Z</time>
   </trkpt>
   <trkpt lat="32.124558" lon="34.893098">
    <ele>10.944</ele>
    <time>2011-04-19T13:52:45Z</time>
   </trkpt>
   <trkpt lat="32.124531" lon="34.893082">
    <ele>11.136</ele>
    <time>2011-04-19T13:52:48Z</time>
   </trkpt>
   <trkpt lat="32.124475" lon="34.893089">
    <ele>10.863</ele>
    <time>2011-04-19T13:52:53Z</time>
   </trkpt>
   <trkpt lat="32.124198" lon="34.893142">
    <ele>12.287</ele>
    <time>2011-04-19T13:53:12Z</time>
   </trkpt>
   <trkpt lat="32.123934" lon="34.893232">
    <ele>12.996</ele>
    <time>2011-04-19T13:53:34Z</time>
   </trkpt>
   <trkpt lat="32.123814" lon="34.893339">
    <ele>12.596</ele>
    <time>2011-04-19T13:53:45Z</time>
   </trkpt>
   <trkpt lat="32.123598" lon="34.893722">
    <ele>12.250</ele>
    <time>2011-04-19T13:53:59Z</time>
   </trkpt>
   <trkpt lat="32.123418" lon="34.894251">
    <ele>12.473</ele>
    <time>2011-04-19T13:54:14Z</time>
   </trkpt>
   <trkpt lat="32.123362" lon="34.894668">
    <ele>12.308</ele>
    <time>2011-04-19T13:54:23Z</time>
   </trkpt>
   <trkpt lat="32.123530" lon="34.894969">
    <ele>10.845</ele>
    <time>2011-04-19T13:54:32Z</time>
   </trkpt>
   <trkpt lat="32.123973" lon="34.895494">
    <ele>12.426</ele>
    <time>2011-04-19T13:54:48Z</time>
   </trkpt>
   <trkpt lat="32.124356" lon="34.895324">
    <ele>11.948</ele>
    <time>2011-04-19T13:55:00Z</time>
   </trkpt>
   <trkpt lat="32.124428" lon="34.895270">
    <ele>11.520</ele>
    <time>2011-04-19T13:55:02Z</time>
   </trkpt>
   <trkpt lat="32.124489" lon="34.895205">
    <ele>11.491</ele>
    <time>2011-04-19T13:55:04Z</time>
   </trkpt>
   <trkpt lat="32.124706" lon="34.894911">
    <ele>10.395</ele>
    <time>2011-04-19T13:55:14Z</time>
   </trkpt>
   <trkpt lat="32.124840" lon="34.894869">
    <ele>9.948</ele>
    <time>2011-04-19T13:55:18Z</time>
   </trkpt>
   <trkpt lat="32.125333" lon="34.895112">
    <ele>9.029</ele>
    <time>2011-04-19T13:55:33Z</time>
   </trkpt>
   <trkpt lat="32.125431" lon="34.895277">
    <ele>8.517</ele>
    <time>2011-04-19T13:55:44Z</time>
   </trkpt>
   <trkpt lat="32.125531" lon="34.895277">
    <ele>8.801</ele>
    <time>2011-04-19T13:55:59Z</time>
   </trkpt>
   <trkpt lat="32.125578" lon="34.895293">
    <ele>6.733</ele>
    <time>2011-04-19T13:56:03Z</time>
   </trkpt>
   <trkpt lat="32.125709" lon="34.895312">
    <ele>10.197</ele>
    <time>2011-04-19T13:56:15Z</time>
   </trkpt>
   <trkpt lat="32.125847" lon="34.895337">
    <ele>14.973</ele>
    <time>2011-04-19T13:56:28Z</time>
   </trkpt>
   <trkpt lat="32.125963" lon="34.895316">
    <ele>14.719</ele>
    <time>2011-04-19T13:56:42Z</time>
   </trkpt>
   <trkpt lat="32.126080" lon="34.895345">
    <ele>14.647</ele>
    <time>2011-04-19T13:56:56Z</time>
   </trkpt>
   <trkpt lat="32.126133" lon="34.895355">
    <ele>14.319</ele>
    <time>2011-04-19T13:57:18Z</time>
   </trkpt>
   <trkpt lat="32.126285" lon="34.895391">
    <ele>14.595</ele>
    <time>2011-04-19T13:57:28Z</time>
   </trkpt>
   <trkpt lat="32.126732" lon="34.895455">
    <ele>13.819</ele>
    <time>2011-04-19T13:57:42Z</time>
   </trkpt>
   <trkpt lat="32.126868" lon="34.895516">
    <ele>13.399</ele>
    <time>2011-04-19T13:57:47Z</time>
   </trkpt>
   <trkpt lat="32.126903" lon="34.895441">
    <ele>12.871</ele>
    <time>2011-04-19T13:57:51Z</time>
   </trkpt>
   <trkpt lat="32.126667" lon="34.895033">
    <ele>10.704</ele>
    <time>2011-04-19T13:58:03Z</time>
   </trkpt>
   <trkpt lat="32.126518" lon="34.894787">
    <ele>13.201</ele>
    <time>2011-04-19T13:58:19Z</time>
   </trkpt>
   <trkpt lat="32.126516" lon="34.894787">
    <ele>13.411</ele>
    <time>2011-04-19T13:58:26Z</time>
   </trkpt>
   <trkpt lat="32.126488" lon="34.894733">
    <ele>13.753</ele>
    <time>2011-04-19T13:58:31Z</time>
   </trkpt>
   <trkpt lat="32.126256" lon="34.894224">
    <ele>14.257</ele>
    <time>2011-04-19T13:58:46Z</time>
   </trkpt>
   <trkpt lat="32.125943" lon="34.893705">
    <ele>13.840</ele>
    <time>2011-04-19T13:59:00Z</time>
   </trkpt>
   <trkpt lat="32.125461" lon="34.892822">
    <ele>13.463</ele>
    <time>2011-04-19T13:59:20Z</time>
   </trkpt>
   <trkpt lat="32.125275" lon="34.892487">
    <ele>13.288</ele>
    <time>2011-04-19T13:59:27Z</time>
   </trkpt>
   <trkpt lat="32.125175" lon="34.892201">
    <ele>13.138</ele>
    <time>2011-04-19T13:59:37Z</time>
   </trkpt>
   <trkpt lat="32.125085" lon="34.892145">
    <ele>13.011</ele>
    <time>2011-04-19T13:59:42Z</time>
   </trkpt>
   <trkpt lat="32.124957" lon="34.892096">
    <ele>12.528</ele>
    <time>2011-04-19T13:59:46Z</time>
   </trkpt>
   <trkpt lat="32.124834" lon="34.891982">
    <ele>12.656</ele>
    <time>2011-04-19T13:59:50Z</time>
   </trkpt>
   <trkpt lat="32.124779" lon="34.891914">
    <ele>12.558</ele>
    <time>2011-04-19T13:59:52Z</time>
   </trkpt>
   <trkpt lat="32.124701" lon="34.891791">
    <ele>12.346</ele>
    <time>2011-04-19T13:59:55Z</time>
   </trkpt>
   <trkpt lat="32.124486" lon="34.891330">
    <ele>11.750</ele>
    <time>2011-04-19T14:00:08Z</time>
   </trkpt>
   <trkpt lat="32.124267" lon="34.891036">
    <ele>10.941</ele>
    <time>2011-04-19T14:00:22Z</time>
   </trkpt>
   <trkpt lat="32.123985" lon="34.890746">
    <ele>11.655</ele>
    <time>2011-04-19T14:00:37Z</time>
   </trkpt>
   <trkpt lat="32.123741" lon="34.890212">
    <ele>11.049</ele>
    <time>2011-04-19T14:00:51Z</time>
   </trkpt>
   <trkpt lat="32.123446" lon="34.889501">
    <ele>10.291</ele>
    <time>2011-04-19T14:01:07Z</time>
   </trkpt>
   <trkpt lat="32.123454" lon="34.889421">
    <ele>9.985</ele>
    <time>2011-04-19T14:01:09Z</time>
   </trkpt>
   <trkpt lat="32.123616" lon="34.888801">
    <ele>8.832</ele>
    <time>2011-04-19T14:01:23Z</time>
   </trkpt>
   <trkpt lat="32.123873" lon="34.888105">
    <ele>9.952</ele>
    <time>2011-04-19T14:01:41Z</time>
   </trkpt>
   <trkpt lat="32.124050" lon="34.887462">
    <ele>10.690</ele>
    <time>2011-04-19T14:01:56Z</time>
   </trkpt>
   <trkpt lat="32.124155" lon="34.887272">
    <ele>10.111</ele>
    <time>2011-04-19T14:02:01Z</time>
   </trkpt>
   <trkpt lat="32.124582" lon="34.887083">
    <ele>10.471</ele>
    <time>2011-04-19T14:02:14Z</time>
   </trkpt>
   <trkpt lat="32.124768" lon="34.887170">
    <ele>10.813</ele>
    <time>2011-04-19T14:02:24Z</time>
   </trkpt>
   <trkpt lat="32.124865" lon="34.887368">
    <ele>10.755</ele>
    <time>2011-04-19T14:02:35Z</time>
   </trkpt>
   <trkpt lat="32.124920" lon="34.887342">
    <ele>9.529</ele>
    <time>2011-04-19T14:02:39Z</time>
   </trkpt>
   <trkpt lat="32.125106" lon="34.887111">
    <ele>9.032</ele>
    <time>2011-04-19T14:02:49Z</time>
   </trkpt>
   <trkpt lat="32.125290" lon="34.886905">
    <ele>11.049</ele>
    <time>2011-04-19T14:03:01Z</time>
   </trkpt>
   <trkpt lat="32.125343" lon="34.886536">
    <ele>10.702</ele>
    <time>2011-04-19T14:03:14Z</time>
   </trkpt>
   <trkpt lat="32.125315" lon="34.886131">
    <ele>9.263</ele>
    <time>2011-04-19T14:03:27Z</time>
   </trkpt>
   <trkpt lat="32.125256" lon="34.885755">
    <ele>9.203</ele>
    <time>2011-04-19T14:03:41Z</time>
   </trkpt>
   <trkpt lat="32.125312" lon="34.885413">
    <ele>8.865</ele>
    <time>2011-04-19T14:03:54Z</time>
   </trkpt>
   <trkpt lat="32.125448" lon="34.884908">
    <ele>8.947</ele>
    <time>2011-04-19T14:04:09Z</time>
   </trkpt>
   <trkpt lat="32.125713" lon="34.884376">
    <ele>9.025</ele>
    <time>2011-04-19T14:04:27Z</time>
   </trkpt>
   <trkpt lat="32.125948" lon="34.883780">
    <ele>9.157</ele>
    <time>2011-04-19T14:04:45Z</time>
   </trkpt>
   <trkpt lat="32.125906" lon="34.883286">
    <ele>8.281</ele>
    <time>2011-04-19T14:04:59Z</time>
   </trkpt>
   <trkpt lat="32.125892" lon="34.883239">
    <ele>8.058</ele>
    <time>2011-04-19T14:05:00Z</time>
   </trkpt>
   <trkpt lat="32.125928" lon="34.882982">
    <ele>8.976</ele>
    <time>2011-04-19T14:05:05Z</time>
   </trkpt>
   <trkpt lat="32.125979" lon="34.882860">
    <ele>9.202</ele>
    <time>2011-04-19T14:05:08Z</time>
   </trkpt>
   <trkpt lat="32.126057" lon="34.882679">
    <ele>9.241</ele>
    <time>2011-04-19T14:05:12Z</time>
   </trkpt>
   <trkpt lat="32.126248" lon="34.882075">
    <ele>8.422</ele>
    <time>2011-04-19T14:05:24Z</time>
   </trkpt>
   <trkpt lat="32.126282" lon="34.881941">
    <ele>8.655</ele>
    <time>2011-04-19T14:05:27Z</time>
   </trkpt>
   <trkpt lat="32.126296" lon="34.881829">
    <ele>8.624</ele>
    <time>2011-04-19T14:05:29Z</time>
   </trkpt>
   <trkpt lat="32.126260" lon="34.881412">
    <ele>8.615</ele>
    <time>2011-04-19T14:05:36Z</time>
   </trkpt>
   <trkpt lat="32.126262" lon="34.881249">
    <ele>7.435</ele>
    <time>2011-04-19T14:05:39Z</time>
   </trkpt>
   <trkpt lat="32.126448" lon="34.881328">
    <ele>6.433</ele>
    <time>2011-04-19T14:05:46Z</time>
   </trkpt>
   <trkpt lat="32.126432" lon="34.881559">
    <ele>6.969</ele>
    <time>2011-04-19T14:05:51Z</time>
   </trkpt>
   <trkpt lat="32.126495" lon="34.882056">
    <ele>8.395</ele>
    <time>2011-04-19T14:06:02Z</time>
   </trkpt>
   <trkpt lat="32.126591" lon="34.882259">
    <ele>8.916</ele>
    <time>2011-04-19T14:06:07Z</time>
   </trkpt>
   <trkpt lat="32.126780" lon="34.882291">
    <ele>7.361</ele>
    <time>2011-04-19T14:06:12Z</time>
   </trkpt>
   <trkpt lat="32.127083" lon="34.882213">
    <ele>9.229</ele>
    <time>2011-04-19T14:06:18Z</time>
   </trkpt>
   <trkpt lat="32.127272" lon="34.882089">
    <ele>9.917</ele>
    <time>2011-04-19T14:06:23Z</time>
   </trkpt>
   <trkpt lat="32.127263" lon="34.881906">
    <ele>9.770</ele>
    <time>2011-04-19T14:06:28Z</time>
   </trkpt>
   <trkpt lat="32.127179" lon="34.881776">
    <ele>9.982</ele>
    <time>2011-04-19T14:06:35Z</time>
   </trkpt>
   <trkpt lat="32.127075" lon="34.881375">
    <ele>7.718</ele>
    <time>2011-04-19T14:06:46Z</time>
   </trkpt>
   <trkpt lat="32.127061" lon="34.881164">
    <ele>6.672</ele>
    <time>2011-04-19T14:06:50Z</time>
   </trkpt>
   <trkpt lat="32.127221" lon="34.880762">
    <ele>7.061</ele>
    <time>2011-04-19T14:07:01Z</time>
   </trkpt>
   <trkpt lat="32.127493" lon="34.880333">
    <ele>7.045</ele>
    <time>2011-04-19T14:07:14Z</time>
   </trkpt>
   <trkpt lat="32.127511" lon="34.880294">
    <ele>6.997</ele>
    <time>2011-04-19T14:07:15Z</time>
   </trkpt>
   <trkpt lat="32.127500" lon="34.880038">
    <ele>7.719</ele>
    <time>2011-04-19T14:07:21Z</time>
   </trkpt>
   <trkpt lat="32.127535" lon="34.879910">
    <ele>7.669</ele>
    <time>2011-04-19T14:07:28Z</time>
   </trkpt>
   <trkpt lat="32.127535" lon="34.879643">
    <ele>7.274</ele>
    <time>2011-04-19T14:07:38Z</time>
   </trkpt>
   <trkpt lat="32.127483" lon="34.879608">
    <ele>7.744</ele>
    <time>2011-04-19T14:07:42Z</time>
   </trkpt>
   <trkpt lat="32.127119" lon="34.879601">
    <ele>7.282</ele>
    <time>2011-04-19T14:07:57Z</time>
   </trkpt>
   <trkpt lat="32.126903" lon="34.879651">
    <ele>6.645</ele>
    <time>2011-04-19T14:08:04Z</time>
   </trkpt>
   <trkpt lat="32.126245" lon="34.879878">
    <ele>6.255</ele>
    <time>2011-04-19T14:08:20Z</time>
   </trkpt>
   <trkpt lat="32.126010" lon="34.879914">
    <ele>5.303</ele>
    <time>2011-04-19T14:08:26Z</time>
   </trkpt>
   <trkpt lat="32.125540" lon="34.879695">
    <ele>5.462</ele>
    <time>2011-04-19T14:08:39Z</time>
   </trkpt>
   <trkpt lat="32.125467" lon="34.879642">
    <ele>5.437</ele>
    <time>2011-04-19T14:08:41Z</time>
   </trkpt>
   <trkpt lat="32.125277" lon="34.879441">
    <ele>5.216</ele>
    <time>2011-04-19T14:08:47Z</time>
   </trkpt>
   <trkpt lat="32.125216" lon="34.879178">
    <ele>5.331</ele>
    <time>2011-04-19T14:08:53Z</time>
   </trkpt>
   <trkpt lat="32.125255" lon="34.878697">
    <ele>4.550</ele>
    <time>2011-04-19T14:09:05Z</time>
   </trkpt>
   <trkpt lat="32.125131" lon="34.878405">
    <ele>4.882</ele>
    <time>2011-04-19T14:09:12Z</time>
   </trkpt>
   <trkpt lat="32.124961" lon="34.878313">
    <ele>3.963</ele>
    <time>2011-04-19T14:09:16Z</time>
   </trkpt>
   <trkpt lat="32.124720" lon="34.878153">
    <ele>4.757</ele>
    <time>2011-04-19T14:09:22Z</time>
   </trkpt>
   <trkpt lat="32.124423" lon="34.877998">
    <ele>4.684</ele>
    <time>2011-04-19T14:09:29Z</time>
   </trkpt>
   <trkpt lat="32.124163" lon="34.877853">
    <ele>3.913</ele>
    <time>2011-04-19T14:09:35Z</time>
   </trkpt>
   <trkpt lat="32.124057" lon="34.877745">
    <ele>4.468</ele>
    <time>2011-04-19T14:09:38Z</time>
   </trkpt>
   <trkpt lat="32.123877" lon="34.877587">
    <ele>4.388</ele>
    <time>2011-04-19T14:09:43Z</time>
   </trkpt>
   <trkpt lat="32.123787" lon="34.877474">
    <ele>4.248</ele>
    <time>2011-04-19T14:09:46Z</time>
   </trkpt>
   <trkpt lat="32.123808" lon="34.877163">
    <ele>5.792</ele>
    <time>2011-04-19T14:09:54Z</time>
   </trkpt>
   <trkpt lat="32.124266" lon="34.876968">
    <ele>4.835</ele>
    <time>2011-04-19T14:10:06Z</time>
   </trkpt>
   <trkpt lat="32.124622" lon="34.876840">
    <ele>6.573</ele>
    <time>2011-04-19T14:10:16Z</time>
   </trkpt>
   <trkpt lat="32.124695" lon="34.876683">
    <ele>6.348</ele>
    <time>2011-04-19T14:10:20Z</time>
   </trkpt>
   <trkpt lat="32.124711" lon="34.876428">
    <ele>6.447</ele>
    <time>2011-04-19T14:10:25Z</time>
   </trkpt>
   <trkpt lat="32.124567" lon="34.875974">
    <ele>5.176</ele>
    <time>2011-04-19T14:10:34Z</time>
   </trkpt>
   <trkpt lat="32.124481" lon="34.875858">
    <ele>5.931</ele>
    <time>2011-04-19T14:10:37Z</time>
   </trkpt>
   <trkpt lat="32.124237" lon="34.875789">
    <ele>5.329</ele>
    <time>2011-04-19T14:10:44Z</time>
   </trkpt>
   <trkpt lat="32.124159" lon="34.875819">
    <ele>5.013</ele>
    <time>2011-04-19T14:10:46Z</time>
   </trkpt>
   <trkpt lat="32.123978" lon="34.875975">
    <ele>4.706</ele>
    <time>2011-04-19T14:10:51Z</time>
   </trkpt>
   <trkpt lat="32.123915" lon="34.876064">
    <ele>4.506</ele>
    <time>2011-04-19T14:10:53Z</time>
   </trkpt>
   <trkpt lat="32.123658" lon="34.876280">
    <ele>3.589</ele>
    <time>2011-04-19T14:10:59Z</time>
   </trkpt>
   <trkpt lat="32.123521" lon="34.876348">
    <ele>3.608</ele>
    <time>2011-04-19T14:11:02Z</time>
   </trkpt>
   <trkpt lat="32.123285" lon="34.876394">
    <ele>4.477</ele>
    <time>2011-04-19T14:11:07Z</time>
   </trkpt>
   <trkpt lat="32.122894" lon="34.876557">
    <ele>5.635</ele>
    <time>2011-04-19T14:11:19Z</time>
   </trkpt>
   <trkpt lat="32.122823" lon="34.876622">
    <ele>5.140</ele>
    <time>2011-04-19T14:11:21Z</time>
   </trkpt>
   <trkpt lat="32.122464" lon="34.876582">
    <ele>3.962</ele>
    <time>2011-04-19T14:11:30Z</time>
   </trkpt>
   <trkpt lat="32.122271" lon="34.875962">
    <ele>3.752</ele>
    <time>2011-04-19T14:11:43Z</time>
   </trkpt>
   <trkpt lat="32.122172" lon="34.875488">
    <ele>3.556</ele>
    <time>2011-04-19T14:11:53Z</time>
   </trkpt>
   <trkpt lat="32.121912" lon="34.874790">
    <ele>4.608</ele>
    <time>2011-04-19T14:12:07Z</time>
   </trkpt>
   <trkpt lat="32.121513" lon="34.874315">
    <ele>5.643</ele>
    <time>2011-04-19T14:12:21Z</time>
   </trkpt>
   <trkpt lat="32.121341" lon="34.874293">
    <ele>4.764</ele>
    <time>2011-04-19T14:12:27Z</time>
   </trkpt>
   <trkpt lat="32.121169" lon="34.874395">
    <ele>4.679</ele>
    <time>2011-04-19T14:12:32Z</time>
   </trkpt>
   <trkpt lat="32.121100" lon="34.874511">
    <ele>4.068</ele>
    <time>2011-04-19T14:12:35Z</time>
   </trkpt>
   <trkpt lat="32.121069" lon="34.874936">
    <ele>6.030</ele>
    <time>2011-04-19T14:12:47Z</time>
   </trkpt>
   <trkpt lat="32.120979" lon="34.875166">
    <ele>5.814</ele>
    <time>2011-04-19T14:12:52Z</time>
   </trkpt>
   <trkpt lat="32.120894" lon="34.875214">
    <ele>5.466</ele>
    <time>2011-04-19T14:12:54Z</time>
   </trkpt>
   <trkpt lat="32.120713" lon="34.875262">
    <ele>4.949</ele>
    <time>2011-04-19T14:12:58Z</time>
   </trkpt>
   <trkpt lat="32.120365" lon="34.875049">
    <ele>5.428</ele>
    <time>2011-04-19T14:13:06Z</time>
   </trkpt>
   <trkpt lat="32.120309" lon="34.874783">
    <ele>4.870</ele>
    <time>2011-04-19T14:13:11Z</time>
   </trkpt>
   <trkpt lat="32.120347" lon="34.874581">
    <ele>4.661</ele>
    <time>2011-04-19T14:13:15Z</time>
   </trkpt>
   <trkpt lat="32.120389" lon="34.874492">
    <ele>3.908</ele>
    <time>2011-04-19T14:13:17Z</time>
   </trkpt>
   <trkpt lat="32.120525" lon="34.874359">
    <ele>4.265</ele>
    <time>2011-04-19T14:13:21Z</time>
   </trkpt>
   <trkpt lat="32.120868" lon="34.874218">
    <ele>4.756</ele>
    <time>2011-04-19T14:13:30Z</time>
   </trkpt>
   <trkpt lat="32.121223" lon="34.874126">
    <ele>5.749</ele>
    <time>2011-04-19T14:13:39Z</time>
   </trkpt>
   <trkpt lat="32.121385" lon="34.874032">
    <ele>6.061</ele>
    <time>2011-04-19T14:13:43Z</time>
   </trkpt>
   <trkpt lat="32.121480" lon="34.873948">
    <ele>6.067</ele>
    <time>2011-04-19T14:13:46Z</time>
   </trkpt>
   <trkpt lat="32.121619" lon="34.873836">
    <ele>6.273</ele>
    <time>2011-04-19T14:13:50Z</time>
   </trkpt>
   <trkpt lat="32.121782" lon="34.873927">
    <ele>6.872</ele>
    <time>2011-04-19T14:13:55Z</time>
   </trkpt>
   <trkpt lat="32.122017" lon="34.874400">
    <ele>7.153</ele>
    <time>2011-04-19T14:14:06Z</time>
   </trkpt>
   <trkpt lat="32.122470" lon="34.874596">
    <ele>8.866</ele>
    <time>2011-04-19T14:14:19Z</time>
   </trkpt>
   <trkpt lat="32.122741" lon="34.874390">
    <ele>7.552</ele>
    <time>2011-04-19T14:14:29Z</time>
   </trkpt>
   <trkpt lat="32.123028" lon="34.874105">
    <ele>4.957</ele>
    <time>2011-04-19T14:14:41Z</time>
   </trkpt>
   <trkpt lat="32.123375" lon="34.873897">
    <ele>4.328</ele>
    <time>2011-04-19T14:14:52Z</time>
   </trkpt>
   <trkpt lat="32.123812" lon="34.873753">
    <ele>5.659</ele>
    <time>2011-04-19T14:15:05Z</time>
   </trkpt>
   <trkpt lat="32.123870" lon="34.873715">
    <ele>5.174</ele>
    <time>2011-04-19T14:15:07Z</time>
   </trkpt>
   <trkpt lat="32.123936" lon="34.873648">
    <ele>4.630</ele>
    <time>2011-04-19T14:15:09Z</time>
   </trkpt>
   <trkpt lat="32.124208" lon="34.873167">
    <ele>5.691</ele>
    <time>2011-04-19T14:15:22Z</time>
   </trkpt>
   <trkpt lat="32.124317" lon="34.872806">
    <ele>4.144</ele>
    <time>2011-04-19T14:15:30Z</time>
   </trkpt>
   <trkpt lat="32.124357" lon="34.872720">
    <ele>3.868</ele>
    <time>2011-04-19T14:15:32Z</time>
   </trkpt>
   <trkpt lat="32.124669" lon="34.872378">
    <ele>3.881</ele>
    <time>2011-04-19T14:15:43Z</time>
   </trkpt>
   <trkpt lat="32.125085" lon="34.872085">
    <ele>4.595</ele>
    <time>2011-04-19T14:15:53Z</time>
   </trkpt>
   <trkpt lat="32.125408" lon="34.872004">
    <ele>4.107</ele>
    <time>2011-04-19T14:16:00Z</time>
   </trkpt>
   <trkpt lat="32.126189" lon="34.871999">
    <ele>5.506</ele>
    <time>2011-04-19T14:16:18Z</time>
   </trkpt>
   <trkpt lat="32.126543" lon="34.871881">
    <ele>5.938</ele>
    <time>2011-04-19T14:16:30Z</time>
   </trkpt>
   <trkpt lat="32.126636" lon="34.871665">
    <ele>5.585</ele>
    <time>2011-04-19T14:16:38Z</time>
   </trkpt>
   <trkpt lat="32.126521" lon="34.871199">
    <ele>7.687</ele>
    <time>2011-04-19T14:16:54Z</time>
   </trkpt>
   <trkpt lat="32.126419" lon="34.871049">
    <ele>7.800</ele>
    <time>2011-04-19T14:16:59Z</time>
   </trkpt>
   <trkpt lat="32.126053" lon="34.870729">
    <ele>9.809</ele>
    <time>2011-04-19T14:17:13Z</time>
   </trkpt>
   <trkpt lat="32.125759" lon="34.870578">
    <ele>5.919</ele>
    <time>2011-04-19T14:17:22Z</time>
   </trkpt>
   <trkpt lat="32.125614" lon="34.870351">
    <ele>4.995</ele>
    <time>2011-04-19T14:17:27Z</time>
   </trkpt>
   <trkpt lat="32.125616" lon="34.870174">
    <ele>4.641</ele>
    <time>2011-04-19T14:17:30Z</time>
   </trkpt>
   <trkpt lat="32.125596" lon="34.869792">
    <ele>3.252</ele>
    <time>2011-04-19T14:17:37Z</time>
   </trkpt>
   <trkpt lat="32.125502" lon="34.869356">
    <ele>3.021</ele>
    <time>2011-04-19T14:17:46Z</time>
   </trkpt>
   <trkpt lat="32.125129" lon="34.868910">
    <ele>2.900</ele>
    <time>2011-04-19T14:18:00Z</time>
   </trkpt>
   <trkpt lat="32.124828" lon="34.868750">
    <ele>1.555</ele>
    <time>2011-04-19T14:18:07Z</time>
   </trkpt>
   <trkpt lat="32.124639" lon="34.868627">
    <ele>1.356</ele>
    <time>2011-04-19T14:18:12Z</time>
   </trkpt>
   <trkpt lat="32.124039" lon="34.868492">
    <ele>1.452</ele>
    <time>2011-04-19T14:18:26Z</time>
   </trkpt>
   <trkpt lat="32.123778" lon="34.868738">
    <ele>3.910</ele>
    <time>2011-04-19T14:18:39Z</time>
   </trkpt>
   <trkpt lat="32.123741" lon="34.868813">
    <ele>2.894</ele>
    <time>2011-04-19T14:18:41Z</time>
   </trkpt>
   <trkpt lat="32.123670" lon="34.868945">
    <ele>1.722</ele>
    <time>2011-04-19T14:18:44Z</time>
   </trkpt>
   <trkpt lat="32.123584" lon="34.869088">
    <ele>1.609</ele>
    <time>2011-04-19T14:18:47Z</time>
   </trkpt>
   <trkpt lat="32.123046" lon="34.869538">
    <ele>0.384</ele>
    <time>2011-04-19T14:19:02Z</time>
   </trkpt>
   <trkpt lat="32.122502" lon="34.869882">
    <ele>1.672</ele>
    <time>2011-04-19T14:19:17Z</time>
   </trkpt>
   <trkpt lat="32.122460" lon="34.869906">
    <ele>1.244</ele>
    <time>2011-04-19T14:19:18Z</time>
   </trkpt>
   <trkpt lat="32.122259" lon="34.869923">
    <ele>1.901</ele>
    <time>2011-04-19T14:19:23Z</time>
   </trkpt>
   <trkpt lat="32.121899" lon="34.869810">
    <ele>3.453</ele>
    <time>2011-04-19T14:19:33Z</time>
   </trkpt>
   <trkpt lat="32.121718" lon="34.869652">
    <ele>2.952</ele>
    <time>2011-04-19T14:19:38Z</time>
   </trkpt>
   <trkpt lat="32.121747" lon="34.869308">
    <ele>3.591</ele>
    <time>2011-04-19T14:19:46Z</time>
   </trkpt>
   <trkpt lat="32.121777" lon="34.869275">
    <ele>3.739</ele>
    <time>2011-04-19T14:19:47Z</time>
   </trkpt>
   <trkpt lat="32.122005" lon="34.869001">
    <ele>3.469</ele>
    <time>2011-04-19T14:19:55Z</time>
   </trkpt>
   <trkpt lat="32.122062" lon="34.868808">
    <ele>2.850</ele>
    <time>2011-04-19T14:19:59Z</time>
   </trkpt>
   <trkpt lat="32.122113" lon="34.868669">
    <ele>1.874</ele>
    <time>2011-04-19T14:20:02Z</time>
   </trkpt>
   <trkpt lat="32.122564" lon="34.868060">
    <ele>1.475</ele>
    <time>2011-04-19T14:20:19Z</time>
   </trkpt>
   <trkpt lat="32.123001" lon="34.867913">
    <ele>1.704</ele>
    <time>2011-04-19T14:20:31Z</time>
   </trkpt>
   <trkpt lat="32.123175" lon="34.867893">
    <ele>1.892</ele>
    <time>2011-04-19T14:20:35Z</time>
   </trkpt>
   <trkpt lat="32.123307" lon="34.867849">
    <ele>2.623</ele>
    <time>2011-04-19T14:20:38Z</time>
   </trkpt>
   <trkpt lat="32.123454" lon="34.867755">
    <ele>3.042</ele>
    <time>2011-04-19T14:20:42Z</time>
   </trkpt>
   <trkpt lat="32.123545" lon="34.867439">
    <ele>3.236</ele>
    <time>2011-04-19T14:20:49Z</time>
   </trkpt>
   <trkpt lat="32.123498" lon="34.867216">
    <ele>2.700</ele>
    <time>2011-04-19T14:20:53Z</time>
   </trkpt>
   <trkpt lat="32.123497" lon="34.866966">
    <ele>1.189</ele>
    <time>2011-04-19T14:20:57Z</time>
   </trkpt>
   <trkpt lat="32.123705" lon="34.866575">
    <ele>1.708</ele>
    <time>2011-04-19T14:21:05Z</time>
   </trkpt>
   <trkpt lat="32.123779" lon="34.866392">
    <ele>2.578</ele>
    <time>2011-04-19T14:21:09Z</time>
   </trkpt>
   <trkpt lat="32.123808" lon="34.866200">
    <ele>3.160</ele>
    <time>2011-04-19T14:21:13Z</time>
   </trkpt>
   <trkpt lat="32.123705" lon="34.865566">
    <ele>5.177</ele>
    <time>2011-04-19T14:21:28Z</time>
   </trkpt>
   <trkpt lat="32.123642" lon="34.865476">
    <ele>4.442</ele>
    <time>2011-04-19T14:21:31Z</time>
   </trkpt>
   <trkpt lat="32.123341" lon="34.865264">
    <ele>1.708</ele>
    <time>2011-04-19T14:21:37Z</time>
   </trkpt>
   <trkpt lat="32.122994" lon="34.865223">
    <ele>2.659</ele>
    <time>2011-04-19T14:21:45Z</time>
   </trkpt>
   <trkpt lat="32.122560" lon="34.865185">
    <ele>1.896</ele>
    <time>2011-04-19T14:21:57Z</time>
   </trkpt>
   <trkpt lat="32.122249" lon="34.865221">
    <ele>4.489</ele>
    <time>2011-04-19T14:22:12Z</time>
   </trkpt>
   <trkpt lat="32.122142" lon="34.865258">
    <ele>3.815</ele>
    <time>2011-04-19T14:22:16Z</time>
   </trkpt>
   <trkpt lat="32.121944" lon="34.865593">
    <ele>3.073</ele>
    <time>2011-04-19T14:22:23Z</time>
   </trkpt>
   <trkpt lat="32.121925" lon="34.865704">
    <ele>2.672</ele>
    <time>2011-04-19T14:22:25Z</time>
   </trkpt>
   <trkpt lat="32.122028" lon="34.866156">
    <ele>2.130</ele>
    <time>2011-04-19T14:22:32Z</time>
   </trkpt>
   <trkpt lat="32.122133" lon="34.866418">
    <ele>2.275</ele>
    <time>2011-04-19T14:22:37Z</time>
   </trkpt>
   <trkpt lat="32.122028" lon="34.866797">
    <ele>2.368</ele>
    <time>2011-04-19T14:22:44Z</time>
   </trkpt>
   <trkpt lat="32.121966" lon="34.866873">
    <ele>2.824</ele>
    <time>2011-04-19T14:22:46Z</time>
   </trkpt>
   <trkpt lat="32.121886" lon="34.867116">
    <ele>2.445</ele>
    <time>2011-04-19T14:22:51Z</time>
   </trkpt>
   <trkpt lat="32.121838" lon="34.867584">
    <ele>1.253</ele>
    <time>2011-04-19T14:22:58Z</time>
   </trkpt>
   <trkpt lat="32.121693" lon="34.867781">
    <ele>2.428</ele>
    <time>2011-04-19T14:23:03Z</time>
   </trkpt>
   <trkpt lat="32.121496" lon="34.867692">
    <ele>2.187</ele>
    <time>2011-04-19T14:23:08Z</time>
   </trkpt>
   <trkpt lat="32.121436" lon="34.867601">
    <ele>1.743</ele>
    <time>2011-04-19T14:23:10Z</time>
   </trkpt>
   <trkpt lat="32.121180" lon="34.867248">
    <ele>2.766</ele>
    <time>2011-04-19T14:23:21Z</time>
   </trkpt>
   <trkpt lat="32.120860" lon="34.867067">
    <ele>5.066</ele>
    <time>2011-04-19T14:23:31Z</time>
   </trkpt>
   <trkpt lat="32.120731" lon="34.866942">
    <ele>5.808</ele>
    <time>2011-04-19T14:23:37Z</time>
   </trkpt>
   <trkpt lat="32.120582" lon="34.866950">
    <ele>6.943</ele>
    <time>2011-04-19T14:23:43Z</time>
   </trkpt>
   <trkpt lat="32.120221" lon="34.866943">
    <ele>7.145</ele>
    <time>2011-04-19T14:23:56Z</time>
   </trkpt>
   <trkpt lat="32.120136" lon="34.866955">
    <ele>8.492</ele>
    <time>2011-04-19T14:24:05Z</time>
   </trkpt>
   <trkpt lat="32.120120" lon="34.866963">
    <ele>6.191</ele>
    <time>2011-04-19T14:24:27Z</time>
   </trkpt>
   <trkpt lat="32.120104" lon="34.866969">
    <ele>5.570</ele>
    <time>2011-04-19T14:24:47Z</time>
   </trkpt>
   <trkpt lat="32.120100" lon="34.866970">
    <ele>5.814</ele>
    <time>2011-04-19T14:26:26Z</time>
   </trkpt>
   <trkpt lat="32.119919" lon="34.866929">
    <ele>5.477</ele>
    <time>2011-04-19T14:27:02Z</time>
   </trkpt>
   <trkpt lat="32.119452" lon="34.866708">
    <ele>5.721</ele>
    <time>2011-04-19T14:27:16Z</time>
   </trkpt>
   <trkpt lat="32.119120" lon="34.866364">
    <ele>6.134</ele>
    <time>2011-04-19T14:27:28Z</time>
   </trkpt>
   <trkpt lat="32.118673" lon="34.866059">
    <ele>5.258</ele>
    <time>2011-04-19T14:27:41Z</time>
   </trkpt>
   <trkpt lat="32.118423" lon="34.865894">
    <ele>3.646</ele>
    <time>2011-04-19T14:27:48Z</time>
   </trkpt>
   <trkpt lat="32.118239" lon="34.865605">
    <ele>3.718</ele>
    <time>2011-04-19T14:27:55Z</time>
   </trkpt>
   <trkpt lat="32.118015" lon="34.865135">
    <ele>5.610</ele>
    <time>2011-04-19T14:28:08Z</time>
   </trkpt>
   <trkpt lat="32.117618" lon="34.864827">
    <ele>5.444</ele>
    <time>2011-04-19T14:28:22Z</time>
   </trkpt>
   <trkpt lat="32.117388" lon="34.864677">
    <ele>5.813</ele>
    <time>2011-04-19T14:28:29Z</time>
   </trkpt>
   <trkpt lat="32.117019" lon="34.864620">
    <ele>4.774</ele>
    <time>2011-04-19T14:28:41Z</time>
   </trkpt>
   <trkpt lat="32.116924" lon="34.864401">
    <ele>5.055</ele>
    <time>2011-04-19T14:28:49Z</time>
   </trkpt>
   <trkpt lat="32.117151" lon="34.863829">
    <ele>4.702</ele>
    <time>2011-04-19T14:29:05Z</time>
   </trkpt>
   <trkpt lat="32.117349" lon="34.863251">
    <ele>4.750</ele>
    <time>2011-04-19T14:29:19Z</time>
   </trkpt>
   <trkpt lat="32.117279" lon="34.862739">
    <ele>5.456</ele>
    <time>2011-04-19T14:29:33Z</time>
   </trkpt>
   <trkpt lat="32.116969" lon="34.862246">
    <ele>4.102</ele>
    <time>2011-04-19T14:29:47Z</time>
   </trkpt>
   <trkpt lat="32.116653" lon="34.861699">
    <ele>4.291</ele>
    <time>2011-04-19T14:29:59Z</time>
   </trkpt>
   <trkpt lat="32.116287" lon="34.861339">
    <ele>4.566</ele>
    <time>2011-04-19T14:30:12Z</time>
   </trkpt>
   <trkpt lat="32.115856" lon="34.861442">
    <ele>4.826</ele>
    <time>2011-04-19T14:30:25Z</time>
   </trkpt>
   <trkpt lat="32.115766" lon="34.861506">
    <ele>4.294</ele>
    <time>2011-04-19T14:30:28Z</time>
   </trkpt>
   <trkpt lat="32.115395" lon="34.862052">
    <ele>4.244</ele>
    <time>2011-04-19T14:30:43Z</time>
   </trkpt>
   <trkpt lat="32.115281" lon="34.862276">
    <ele>4.265</ele>
    <time>2011-04-19T14:30:50Z</time>
   </trkpt>
   <trkpt lat="32.115128" lon="34.862291">
    <ele>4.180</ele>
    <time>2011-04-19T14:30:54Z</time>
   </trkpt>
   <trkpt lat="32.114648" lon="34.862075">
    <ele>3.792</ele>
    <time>2011-04-19T14:31:06Z</time>
   </trkpt>
   <trkpt lat="32.114466" lon="34.861913">
    <ele>3.915</ele>
    <time>2011-04-19T14:31:11Z</time>
   </trkpt>
   <trkpt lat="32.114271" lon="34.861783">
    <ele>3.188</ele>
    <time>2011-04-19T14:31:15Z</time>
   </trkpt>
   <trkpt lat="32.114064" lon="34.861716">
    <ele>3.330</ele>
    <time>2011-04-19T14:31:19Z</time>
   </trkpt>
   <trkpt lat="32.113924" lon="34.861475">
    <ele>3.943</ele>
    <time>2011-04-19T14:31:24Z</time>
   </trkpt>
   <trkpt lat="32.113861" lon="34.861131">
    <ele>3.596</ele>
    <time>2011-04-19T14:31:30Z</time>
   </trkpt>
   <trkpt lat="32.113787" lon="34.860956">
    <ele>4.782</ele>
    <time>2011-04-19T14:31:33Z</time>
   </trkpt>
   <trkpt lat="32.113626" lon="34.860790">
    <ele>5.873</ele>
    <time>2011-04-19T14:31:37Z</time>
   </trkpt>
   <trkpt lat="32.113390" lon="34.860655">
    <ele>6.619</ele>
    <time>2011-04-19T14:31:42Z</time>
   </trkpt>
   <trkpt lat="32.113203" lon="34.860666">
    <ele>5.825</ele>
    <time>2011-04-19T14:31:46Z</time>
   </trkpt>
   <trkpt lat="32.112843" lon="34.860719">
    <ele>4.610</ele>
    <time>2011-04-19T14:31:53Z</time>
   </trkpt>
   <trkpt lat="32.112189" lon="34.860639">
    <ele>5.553</ele>
    <time>2011-04-19T14:32:08Z</time>
   </trkpt>
   <trkpt lat="32.111852" lon="34.860837">
    <ele>4.265</ele>
    <time>2011-04-19T14:32:16Z</time>
   </trkpt>
   <trkpt lat="32.111712" lon="34.860937">
    <ele>2.989</ele>
    <time>2011-04-19T14:32:19Z</time>
   </trkpt>
   <trkpt lat="32.111540" lon="34.860979">
    <ele>2.560</ele>
    <time>2011-04-19T14:32:24Z</time>
   </trkpt>
   <trkpt lat="32.111249" lon="34.860666">
    <ele>5.515</ele>
    <time>2011-04-19T14:32:38Z</time>
   </trkpt>
   <trkpt lat="32.111139" lon="34.860290">
    <ele>6.074</ele>
    <time>2011-04-19T14:32:48Z</time>
   </trkpt>
   <trkpt lat="32.111182" lon="34.860108">
    <ele>5.703</ele>
    <time>2011-04-19T14:32:52Z</time>
   </trkpt>
   <trkpt lat="32.111255" lon="34.859981">
    <ele>6.078</ele>
    <time>2011-04-19T14:32:55Z</time>
   </trkpt>
   <trkpt lat="32.111334" lon="34.859798">
    <ele>6.213</ele>
    <time>2011-04-19T14:32:59Z</time>
   </trkpt>
   <trkpt lat="32.111224" lon="34.859457">
    <ele>6.995</ele>
    <time>2011-04-19T14:33:06Z</time>
   </trkpt>
   <trkpt lat="32.111157" lon="34.859374">
    <ele>7.098</ele>
    <time>2011-04-19T14:33:08Z</time>
   </trkpt>
   <trkpt lat="32.111074" lon="34.859132">
    <ele>7.485</ele>
    <time>2011-04-19T14:33:13Z</time>
   </trkpt>
   <trkpt lat="32.111188" lon="34.858550">
    <ele>8.243</ele>
    <time>2011-04-19T14:33:27Z</time>
   </trkpt>
   <trkpt lat="32.111055" lon="34.857814">
    <ele>6.160</ele>
    <time>2011-04-19T14:33:39Z</time>
   </trkpt>
   <trkpt lat="32.111000" lon="34.857565">
    <ele>6.827</ele>
    <time>2011-04-19T14:33:43Z</time>
   </trkpt>
   <trkpt lat="32.110874" lon="34.857332">
    <ele>7.660</ele>
    <time>2011-04-19T14:33:48Z</time>
   </trkpt>
   <trkpt lat="32.110687" lon="34.857202">
    <ele>7.318</ele>
    <time>2011-04-19T14:33:53Z</time>
   </trkpt>
   <trkpt lat="32.110451" lon="34.857162">
    <ele>5.614</ele>
    <time>2011-04-19T14:33:58Z</time>
   </trkpt>
   <trkpt lat="32.110055" lon="34.857159">
    <ele>4.307</ele>
    <time>2011-04-19T14:34:07Z</time>
   </trkpt>
   <trkpt lat="32.109710" lon="34.857289">
    <ele>4.974</ele>
    <time>2011-04-19T14:34:20Z</time>
   </trkpt>
   <trkpt lat="32.109005" lon="34.857656">
    <ele>5.282</ele>
    <time>2011-04-19T14:34:37Z</time>
   </trkpt>
   <trkpt lat="32.108769" lon="34.857775">
    <ele>4.532</ele>
    <time>2011-04-19T14:34:42Z</time>
   </trkpt>
   <trkpt lat="32.108320" lon="34.857962">
    <ele>4.812</ele>
    <time>2011-04-19T14:34:51Z</time>
   </trkpt>
   <trkpt lat="32.108231" lon="34.858051">
    <ele>4.521</ele>
    <time>2011-04-19T14:34:53Z</time>
   </trkpt>
   <trkpt lat="32.107968" lon="34.858007">
    <ele>3.731</ele>
    <time>2011-04-19T14:35:00Z</time>
   </trkpt>
   <trkpt lat="32.107878" lon="34.857775">
    <ele>3.398</ele>
    <time>2011-04-19T14:35:04Z</time>
   </trkpt>
   <trkpt lat="32.107905" lon="34.857402">
    <ele>4.482</ele>
    <time>2011-04-19T14:35:10Z</time>
   </trkpt>
   <trkpt lat="32.107883" lon="34.856969">
    <ele>5.782</ele>
    <time>2011-04-19T14:35:18Z</time>
   </trkpt>
   <trkpt lat="32.107778" lon="34.856675">
    <ele>5.860</ele>
    <time>2011-04-19T14:35:24Z</time>
   </trkpt>
   <trkpt lat="32.107685" lon="34.856471">
    <ele>4.852</ele>
    <time>2011-04-19T14:35:28Z</time>
   </trkpt>
   <trkpt lat="32.107683" lon="34.856218">
    <ele>4.315</ele>
    <time>2011-04-19T14:35:32Z</time>
   </trkpt>
   <trkpt lat="32.107911" lon="34.855979">
    <ele>4.960</ele>
    <time>2011-04-19T14:35:39Z</time>
   </trkpt>
   <trkpt lat="32.108270" lon="34.855650">
    <ele>5.396</ele>
    <time>2011-04-19T14:35:49Z</time>
   </trkpt>
   <trkpt lat="32.108336" lon="34.855521">
    <ele>6.333</ele>
    <time>2011-04-19T14:35:52Z</time>
   </trkpt>
   <trkpt lat="32.108380" lon="34.855279">
    <ele>6.915</ele>
    <time>2011-04-19T14:35:57Z</time>
   </trkpt>
   <trkpt lat="32.108313" lon="34.854911">
    <ele>7.473</ele>
    <time>2011-04-19T14:36:05Z</time>
   </trkpt>
   <trkpt lat="32.108118" lon="34.854632">
    <ele>6.589</ele>
    <time>2011-04-19T14:36:11Z</time>
   </trkpt>
   <trkpt lat="32.107842" lon="34.854400">
    <ele>5.943</ele>
    <time>2011-04-19T14:36:18Z</time>
   </trkpt>
   <trkpt lat="32.107720" lon="34.854304">
    <ele>5.724</ele>
    <time>2011-04-19T14:36:21Z</time>
   </trkpt>
   <trkpt lat="32.107388" lon="34.854142">
    <ele>4.962</ele>
    <time>2011-04-19T14:36:27Z</time>
   </trkpt>
   <trkpt lat="32.107160" lon="34.854076">
    <ele>6.228</ele>
    <time>2011-04-19T14:36:32Z</time>
   </trkpt>
   <trkpt lat="32.107010" lon="34.853993">
    <ele>6.861</ele>
    <time>2011-04-19T14:36:36Z</time>
   </trkpt>
   <trkpt lat="32.106656" lon="34.853954">
    <ele>5.703</ele>
    <time>2011-04-19T14:36:44Z</time>
   </trkpt>
   <trkpt lat="32.106473" lon="34.853899">
    <ele>3.785</ele>
    <time>2011-04-19T14:36:48Z</time>
   </trkpt>
   <trkpt lat="32.106368" lon="34.853606">
    <ele>4.387</ele>
    <time>2011-04-19T14:36:55Z</time>
   </trkpt>
   <trkpt lat="32.106402" lon="34.853562">
    <ele>4.550</ele>
    <time>2011-04-19T14:36:56Z</time>
   </trkpt>
   <trkpt lat="32.106586" lon="34.853354">
    <ele>5.097</ele>
    <time>2011-04-19T14:37:01Z</time>
   </trkpt>
   <trkpt lat="32.107374" lon="34.853003">
    <ele>4.448</ele>
    <time>2011-04-19T14:37:17Z</time>
   </trkpt>
   <trkpt lat="32.107708" lon="34.852900">
    <ele>4.510</ele>
    <time>2011-04-19T14:37:24Z</time>
   </trkpt>
   <trkpt lat="32.107791" lon="34.852903">
    <ele>3.679</ele>
    <time>2011-04-19T14:37:26Z</time>
   </trkpt>
   <trkpt lat="32.108118" lon="34.852790">
    <ele>3.798</ele>
    <time>2011-04-19T14:37:33Z</time>
   </trkpt>
   <trkpt lat="32.108538" lon="34.852573">
    <ele>7.305</ele>
    <time>2011-04-19T14:37:46Z</time>
   </trkpt>
   <trkpt lat="32.108597" lon="34.852142">
    <ele>6.163</ele>
    <time>2011-04-19T14:37:58Z</time>
   </trkpt>
   <trkpt lat="32.108561" lon="34.851960">
    <ele>7.102</ele>
    <time>2011-04-19T14:38:02Z</time>
   </trkpt>
   <trkpt lat="32.108268" lon="34.851591">
    <ele>6.899</ele>
    <time>2011-04-19T14:38:14Z</time>
   </trkpt>
   <trkpt lat="32.108100" lon="34.851464">
    <ele>4.921</ele>
    <time>2011-04-19T14:38:18Z</time>
   </trkpt>
   <trkpt lat="32.107736" lon="34.851281">
    <ele>3.588</ele>
    <time>2011-04-19T14:38:26Z</time>
   </trkpt>
   <trkpt lat="32.107604" lon="34.851184">
    <ele>2.900</ele>
    <time>2011-04-19T14:38:29Z</time>
   </trkpt>
   <trkpt lat="32.107249" lon="34.850879">
    <ele>5.660</ele>
    <time>2011-04-19T14:38:40Z</time>
   </trkpt>
   <trkpt lat="32.106815" lon="34.850813">
    <ele>4.427</ele>
    <time>2011-04-19T14:38:51Z</time>
   </trkpt>
   <trkpt lat="32.106654" lon="34.850518">
    <ele>4.143</ele>
    <time>2011-04-19T14:38:59Z</time>
   </trkpt>
   <trkpt lat="32.106763" lon="34.850376">
    <ele>4.262</ele>
    <time>2011-04-19T14:39:03Z</time>
   </trkpt>
   <trkpt lat="32.106924" lon="34.850252">
    <ele>5.048</ele>
    <time>2011-04-19T14:39:08Z</time>
   </trkpt>
   <trkpt lat="32.107042" lon="34.850026">
    <ele>5.685</ele>
    <time>2011-04-19T14:39:13Z</time>
   </trkpt>
   <trkpt lat="32.107079" lon="34.849740">
    <ele>4.191</ele>
    <time>2011-04-19T14:39:18Z</time>
   </trkpt>
   <trkpt lat="32.107129" lon="34.849445">
    <ele>2.726</ele>
    <time>2011-04-19T14:39:22Z</time>
   </trkpt>
   <trkpt lat="32.107174" lon="34.849197">
    <ele>3.829</ele>
    <time>2011-04-19T14:39:26Z</time>
   </trkpt>
   <trkpt lat="32.107198" lon="34.848638">
    <ele>4.588</ele>
    <time>2011-04-19T14:39:38Z</time>
   </trkpt>
   <trkpt lat="32.106976" lon="34.848075">
    <ele>4.907</ele>
    <time>2011-04-19T14:39:51Z</time>
   </trkpt>
   <trkpt lat="32.106819" lon="34.847728">
    <ele>5.396</ele>
    <time>2011-04-19T14:40:03Z</time>
   </trkpt>
   <trkpt lat="32.106771" lon="34.847019">
    <ele>6.815</ele>
    <time>2011-04-19T14:40:20Z</time>
   </trkpt>
   <trkpt lat="32.106826" lon="34.846996">
    <ele>7.195</ele>
    <time>2011-04-19T14:40:23Z</time>
   </trkpt>
   <trkpt lat="32.106924" lon="34.846980">
    <ele>7.309</ele>
    <time>2011-04-19T14:40:39Z</time>
   </trkpt>
   <trkpt lat="32.106908" lon="34.846978">
    <ele>7.210</ele>
    <time>2011-04-19T14:40:40Z</time>
   </trkpt>
   <trkpt lat="32.106785" lon="34.846891">
    <ele>5.396</ele>
    <time>2011-04-19T14:40:47Z</time>
   </trkpt>
   <trkpt lat="32.106834" lon="34.846548">
    <ele>4.342</ele>
    <time>2011-04-19T14:40:54Z</time>
   </trkpt>
   <trkpt lat="32.107213" lon="34.846113">
    <ele>4.248</ele>
    <time>2011-04-19T14:41:07Z</time>
   </trkpt>
   <trkpt lat="32.107659" lon="34.845565">
    <ele>4.621</ele>
    <time>2011-04-19T14:41:21Z</time>
   </trkpt>
   <trkpt lat="32.107810" lon="34.845323">
    <ele>4.711</ele>
    <time>2011-04-19T14:41:26Z</time>
   </trkpt>
   <trkpt lat="32.107951" lon="34.844970">
    <ele>4.179</ele>
    <time>2011-04-19T14:41:32Z</time>
   </trkpt>
   <trkpt lat="32.108141" lon="34.844596">
    <ele>4.908</ele>
    <time>2011-04-19T14:41:40Z</time>
   </trkpt>
   <trkpt lat="32.108240" lon="34.844387">
    <ele>4.648</ele>
    <time>2011-04-19T14:41:48Z</time>
   </trkpt>
   <trkpt lat="32.108327" lon="34.844316">
    <ele>6.428</ele>
    <time>2011-04-19T14:42:08Z</time>
   </trkpt>
   <trkpt lat="32.108314" lon="34.844284">
    <ele>6.079</ele>
    <time>2011-04-19T14:42:21Z</time>
   </trkpt>
   <trkpt lat="32.108322" lon="34.844228">
    <ele>6.246</ele>
    <time>2011-04-19T14:42:25Z</time>
   </trkpt>
   <trkpt lat="32.108434" lon="34.843757">
    <ele>5.385</ele>
    <time>2011-04-19T14:42:37Z</time>
   </trkpt>
   <trkpt lat="32.108507" lon="34.843350">
    <ele>4.885</ele>
    <time>2011-04-19T14:42:49Z</time>
   </trkpt>
   <trkpt lat="32.108486" lon="34.842716">
    <ele>6.797</ele>
    <time>2011-04-19T14:43:05Z</time>
   </trkpt>
   <trkpt lat="32.108284" lon="34.842188">
    <ele>8.623</ele>
    <time>2011-04-19T14:43:19Z</time>
   </trkpt>
   <trkpt lat="32.108235" lon="34.842114">
    <ele>8.430</ele>
    <time>2011-04-19T14:43:21Z</time>
   </trkpt>
   <trkpt lat="32.107584" lon="34.841832">
    <ele>5.707</ele>
    <time>2011-04-19T14:43:34Z</time>
   </trkpt>
   <trkpt lat="32.107153" lon="34.841580">
    <ele>4.883</ele>
    <time>2011-04-19T14:43:43Z</time>
   </trkpt>
   <trkpt lat="32.106966" lon="34.841146">
    <ele>4.312</ele>
    <time>2011-04-19T14:43:51Z</time>
   </trkpt>
   <trkpt lat="32.107065" lon="34.840489">
    <ele>5.073</ele>
    <time>2011-04-19T14:44:03Z</time>
   </trkpt>
   <trkpt lat="32.107095" lon="34.840372">
    <ele>5.157</ele>
    <time>2011-04-19T14:44:05Z</time>
   </trkpt>
   <trkpt lat="32.107178" lon="34.839823">
    <ele>8.081</ele>
    <time>2011-04-19T14:44:18Z</time>
   </trkpt>
   <trkpt lat="32.107193" lon="34.839713">
    <ele>8.584</ele>
    <time>2011-04-19T14:44:30Z</time>
   </trkpt>
   <trkpt lat="32.107054" lon="34.839530">
    <ele>7.152</ele>
    <time>2011-04-19T14:44:40Z</time>
   </trkpt>
   <trkpt lat="32.106645" lon="34.839101">
    <ele>5.464</ele>
    <time>2011-04-19T14:44:51Z</time>
   </trkpt>
   <trkpt lat="32.106495" lon="34.838869">
    <ele>4.567</ele>
    <time>2011-04-19T14:44:55Z</time>
   </trkpt>
   <trkpt lat="32.106285" lon="34.838390">
    <ele>4.742</ele>
    <time>2011-04-19T14:45:03Z</time>
   </trkpt>
   <trkpt lat="32.105877" lon="34.837318">
    <ele>4.276</ele>
    <time>2011-04-19T14:45:20Z</time>
   </trkpt>
   <trkpt lat="32.105810" lon="34.837113">
    <ele>4.520</ele>
    <time>2011-04-19T14:45:23Z</time>
   </trkpt>
   <trkpt lat="32.105316" lon="34.836033">
    <ele>4.379</ele>
    <time>2011-04-19T14:45:39Z</time>
   </trkpt>
   <trkpt lat="32.105291" lon="34.835973">
    <ele>3.757</ele>
    <time>2011-04-19T14:45:40Z</time>
   </trkpt>
   <trkpt lat="32.105247" lon="34.835716">
    <ele>3.465</ele>
    <time>2011-04-19T14:45:44Z</time>
   </trkpt>
   <trkpt lat="32.105327" lon="34.835203">
    <ele>5.538</ele>
    <time>2011-04-19T14:45:52Z</time>
   </trkpt>
   <trkpt lat="32.105392" lon="34.834034">
    <ele>6.631</ele>
    <time>2011-04-19T14:46:10Z</time>
   </trkpt>
   <trkpt lat="32.105482" lon="34.833192">
    <ele>5.484</ele>
    <time>2011-04-19T14:46:26Z</time>
   </trkpt>
   <trkpt lat="32.105483" lon="34.833138">
    <ele>5.033</ele>
    <time>2011-04-19T14:46:35Z</time>
   </trkpt>
   <trkpt lat="32.105496" lon="34.833031">
    <ele>5.944</ele>
    <time>2011-04-19T14:46:49Z</time>
   </trkpt>
   <trkpt lat="32.105523" lon="34.832921">
    <ele>5.550</ele>
    <time>2011-04-19T14:46:55Z</time>
   </trkpt>
   <trkpt lat="32.105667" lon="34.832268">
    <ele>5.898</ele>
    <time>2011-04-19T14:47:10Z</time>
   </trkpt>
   <trkpt lat="32.105798" lon="34.831778">
    <ele>6.356</ele>
    <time>2011-04-19T14:47:19Z</time>
   </trkpt>
   <trkpt lat="32.105821" lon="34.831600">
    <ele>6.524</ele>
    <time>2011-04-19T14:47:22Z</time>
   </trkpt>
   <trkpt lat="32.105862" lon="34.831415">
    <ele>7.916</ele>
    <time>2011-04-19T14:47:25Z</time>
   </trkpt>
   <trkpt lat="32.105975" lon="34.830762">
    <ele>7.841</ele>
    <time>2011-04-19T14:47:39Z</time>
   </trkpt>
   <trkpt lat="32.105979" lon="34.830710">
    <ele>7.607</ele>
    <time>2011-04-19T14:47:40Z</time>
   </trkpt>
   <trkpt lat="32.106002" lon="34.830288">
    <ele>9.038</ele>
    <time>2011-04-19T14:47:48Z</time>
   </trkpt>
   <trkpt lat="32.106075" lon="34.829494">
    <ele>10.143</ele>
    <time>2011-04-19T14:48:02Z</time>
   </trkpt>
   <trkpt lat="32.106200" lon="34.829235">
    <ele>9.854</ele>
    <time>2011-04-19T14:48:09Z</time>
   </trkpt>
   <trkpt lat="32.106093" lon="34.828557">
    <ele>8.263</ele>
    <time>2011-04-19T14:48:26Z</time>
   </trkpt>
   <trkpt lat="32.106041" lon="34.828224">
    <ele>10.000</ele>
    <time>2011-04-19T14:48:41Z</time>
   </trkpt>
   <trkpt lat="32.106160" lon="34.828199">
    <ele>9.685</ele>
    <time>2011-04-19T14:48:49Z</time>
   </trkpt>
   <trkpt lat="32.106218" lon="34.828190">
    <ele>9.315</ele>
    <time>2011-04-19T14:49:06Z</time>
   </trkpt>
   <trkpt lat="32.106258" lon="34.828180">
    <ele>9.421</ele>
    <time>2011-04-19T14:49:09Z</time>
   </trkpt>
   <trkpt lat="32.106300" lon="34.828152">
    <ele>9.428</ele>
    <time>2011-04-19T14:49:22Z</time>
   </trkpt>
   <trkpt lat="32.106251" lon="34.828147">
    <ele>9.152</ele>
    <time>2011-04-19T14:49:26Z</time>
   </trkpt>
   <trkpt lat="32.106063" lon="34.828248">
    <ele>7.014</ele>
    <time>2011-04-19T14:49:35Z</time>
   </trkpt>
   <trkpt lat="32.106065" lon="34.828379">
    <ele>6.998</ele>
    <time>2011-04-19T14:49:39Z</time>
   </trkpt>
   <trkpt lat="32.106085" lon="34.828663">
    <ele>5.933</ele>
    <time>2011-04-19T14:49:45Z</time>
   </trkpt>
   <trkpt lat="32.106097" lon="34.829157">
    <ele>5.202</ele>
    <time>2011-04-19T14:49:58Z</time>
   </trkpt>
   <trkpt lat="32.106079" lon="34.829522">
    <ele>4.890</ele>
    <time>2011-04-19T14:50:11Z</time>
   </trkpt>
   <trkpt lat="32.106082" lon="34.829533">
    <ele>4.564</ele>
    <time>2011-04-19T14:50:12Z</time>
   </trkpt>
   <trkpt lat="32.106152" lon="34.829548">
    <ele>5.193</ele>
    <time>2011-04-19T14:50:18Z</time>
   </trkpt>
   <trkpt lat="32.106190" lon="34.829526">
    <ele>4.952</ele>
    <time>2011-04-19T14:50:20Z</time>
   </trkpt>
   <trkpt lat="32.106198" lon="34.829134">
    <ele>2.292</ele>
    <time>2011-04-19T14:50:31Z</time>
   </trkpt>
   <trkpt lat="32.106116" lon="34.828477">
    <ele>0.892</ele>
    <time>2011-04-19T14:50:46Z</time>
   </trkpt>
   <trkpt lat="32.106095" lon="34.828247">
    <ele>0.994</ele>
    <time>2011-04-19T14:50:52Z</time>
   </trkpt>
   <trkpt lat="32.106300" lon="34.828179">
    <ele>1.332</ele>
    <time>2011-04-19T14:51:03Z</time>
   </trkpt>
   <trkpt lat="32.106594" lon="34.828124">
    <ele>2.602</ele>
    <time>2011-04-19T14:51:14Z</time>
   </trkpt>
   <trkpt lat="32.106765" lon="34.828104">
    <ele>2.616</ele>
    <time>2011-04-19T14:51:26Z</time>
   </trkpt>
   <trkpt lat="32.106759" lon="34.827941">
    <ele>3.167</ele>
    <time>2011-04-19T14:51:35Z</time>
   </trkpt>
   <trkpt lat="32.106828" lon="34.827851">
    <ele>3.134</ele>
    <time>2011-04-19T14:51:41Z</time>
   </trkpt>
   <trkpt lat="32.106905" lon="34.827810">
    <ele>2.835</ele>
    <time>2011-04-19T14:51:47Z</time>
   </trkpt>
   <trkpt lat="32.106979" lon="34.827844">
    <ele>2.984</ele>
    <time>2011-04-19T14:51:52Z</time>
   </trkpt>
   <trkpt lat="32.106999" lon="34.827830">
    <ele>2.988</ele>
    <time>2011-04-19T14:51:54Z</time>
   </trkpt>
   <trkpt lat="32.107027" lon="34.827759">
    <ele>2.832</ele>
    <time>2011-04-19T14:51:58Z</time>
   </trkpt>
   <trkpt lat="32.107016" lon="34.827685">
    <ele>3.111</ele>
    <time>2011-04-19T14:52:10Z</time>
   </trkpt>
   <trkpt lat="32.107014" lon="34.827684">
    <ele>2.889</ele>
    <time>2011-04-19T14:52:26Z</time>
   </trkpt>
   <trkpt lat="32.106972" lon="34.827290">
    <ele>4.106</ele>
    <time>2011-04-19T14:52:39Z</time>
   </trkpt>
   <trkpt lat="32.106846" lon="34.826564">
    <ele>4.850</ele>
    <time>2011-04-19T14:52:55Z</time>
   </trkpt>
   <trkpt lat="32.106841" lon="34.826505">
    <ele>4.957</ele>
    <time>2011-04-19T14:52:57Z</time>
   </trkpt>
   <trkpt lat="32.106752" lon="34.826059">
    <ele>5.066</ele>
    <time>2011-04-19T14:53:10Z</time>
   </trkpt>
   <trkpt lat="32.106717" lon="34.826049">
    <ele>4.177</ele>
    <time>2011-04-19T14:53:24Z</time>
   </trkpt>
   <trkpt lat="32.106443" lon="34.825879">
    <ele>5.367</ele>
    <time>2011-04-19T14:53:37Z</time>
   </trkpt>
   <trkpt lat="32.106288" lon="34.825849">
    <ele>5.403</ele>
    <time>2011-04-19T14:53:42Z</time>
   </trkpt>
   <trkpt lat="32.106209" lon="34.825720">
    <ele>4.888</ele>
    <time>2011-04-19T14:53:47Z</time>
   </trkpt>
   <trkpt lat="32.106178" lon="34.825507">
    <ele>4.277</ele>
    <time>2011-04-19T14:53:54Z</time>
   </trkpt>
   <trkpt lat="32.106095" lon="34.825396">
    <ele>3.682</ele>
    <time>2011-04-19T14:54:01Z</time>
   </trkpt>
   <trkpt lat="32.106022" lon="34.825343">
    <ele>3.415</ele>
    <time>2011-04-19T14:54:06Z</time>
   </trkpt>
   <trkpt lat="32.105627" lon="34.825131">
    <ele>1.298</ele>
    <time>2011-04-19T14:54:20Z</time>
   </trkpt>
   <trkpt lat="32.105314" lon="34.825116">
    <ele>-0.599</ele>
    <time>2011-04-19T14:54:28Z</time>
   </trkpt>
   <trkpt lat="32.105197" lon="34.825055">
    <ele>-1.424</ele>
    <time>2011-04-19T14:54:32Z</time>
   </trkpt>
   <trkpt lat="32.105001" lon="34.824630">
    <ele>-1.912</ele>
    <time>2011-04-19T14:54:46Z</time>
   </trkpt>
   <trkpt lat="32.104824" lon="34.824238">
    <ele>-0.691</ele>
    <time>2011-04-19T14:54:58Z</time>
   </trkpt>
   <trkpt lat="32.104692" lon="34.823985">
    <ele>1.077</ele>
    <time>2011-04-19T14:55:43Z</time>
   </trkpt>
   <trkpt lat="32.104517" lon="34.823485">
    <ele>1.591</ele>
    <time>2011-04-19T14:55:55Z</time>
   </trkpt>
   <trkpt lat="32.104506" lon="34.823387">
    <ele>2.649</ele>
    <time>2011-04-19T14:55:57Z</time>
   </trkpt>
   <trkpt lat="32.104222" lon="34.823161">
    <ele>3.658</ele>
    <time>2011-04-19T14:56:06Z</time>
   </trkpt>
   <trkpt lat="32.103930" lon="34.822756">
    <ele>4.496</ele>
    <time>2011-04-19T14:56:17Z</time>
   </trkpt>
   <trkpt lat="32.103790" lon="34.822645">
    <ele>3.773</ele>
    <time>2011-04-19T14:56:21Z</time>
   </trkpt>
   <trkpt lat="32.103565" lon="34.822561">
    <ele>3.043</ele>
    <time>2011-04-19T14:56:26Z</time>
   </trkpt>
   <trkpt lat="32.103139" lon="34.822769">
    <ele>4.214</ele>
    <time>2011-04-19T14:56:38Z</time>
   </trkpt>
   <trkpt lat="32.102824" lon="34.823413">
    <ele>3.397</ele>
    <time>2011-04-19T14:56:53Z</time>
   </trkpt>
   <trkpt lat="32.102554" lon="34.823616">
    <ele>2.722</ele>
    <time>2011-04-19T14:57:04Z</time>
   </trkpt>
   <trkpt lat="32.102304" lon="34.823319">
    <ele>4.632</ele>
    <time>2011-04-19T14:57:18Z</time>
   </trkpt>
   <trkpt lat="32.102226" lon="34.822651">
    <ele>2.045</ele>
    <time>2011-04-19T14:57:32Z</time>
   </trkpt>
   <trkpt lat="32.102014" lon="34.821934">
    <ele>2.056</ele>
    <time>2011-04-19T14:57:47Z</time>
   </trkpt>
   <trkpt lat="32.101768" lon="34.821219">
    <ele>1.528</ele>
    <time>2011-04-19T14:58:04Z</time>
   </trkpt>
   <trkpt lat="32.101715" lon="34.821144">
    <ele>1.362</ele>
    <time>2011-04-19T14:58:06Z</time>
   </trkpt>
   <trkpt lat="32.101580" lon="34.821019">
    <ele>1.551</ele>
    <time>2011-04-19T14:58:10Z</time>
   </trkpt>
   <trkpt lat="32.101238" lon="34.820865">
    <ele>1.880</ele>
    <time>2011-04-19T14:58:18Z</time>
   </trkpt>
   <trkpt lat="32.101006" lon="34.820835">
    <ele>-1.984</ele>
    <time>2011-04-19T14:58:23Z</time>
   </trkpt>
   <trkpt lat="32.100702" lon="34.820912">
    <ele>-0.986</ele>
    <time>2011-04-19T14:58:30Z</time>
   </trkpt>
   <trkpt lat="32.100071" lon="34.821509">
    <ele>-0.822</ele>
    <time>2011-04-19T14:58:50Z</time>
   </trkpt>
   <trkpt lat="32.099605" lon="34.821764">
    <ele>-1.454</ele>
    <time>2011-04-19T14:59:05Z</time>
   </trkpt>
   <trkpt lat="32.099319" lon="34.821894">
    <ele>-2.121</ele>
    <time>2011-04-19T14:59:15Z</time>
   </trkpt>
   <trkpt lat="32.098992" lon="34.821829">
    <ele>0.057</ele>
    <time>2011-04-19T14:59:25Z</time>
   </trkpt>
   <trkpt lat="32.098939" lon="34.821790">
    <ele>-0.113</ele>
    <time>2011-04-19T14:59:27Z</time>
   </trkpt>
   <trkpt lat="32.098541" lon="34.821481">
    <ele>-0.013</ele>
    <time>2011-04-19T14:59:39Z</time>
   </trkpt>
   <trkpt lat="32.098272" lon="34.821316">
    <ele>-0.646</ele>
    <time>2011-04-19T14:59:46Z</time>
   </trkpt>
   <trkpt lat="32.097956" lon="34.820952">
    <ele>2.691</ele>
    <time>2011-04-19T14:59:57Z</time>
   </trkpt>
   <trkpt lat="32.097827" lon="34.820835">
    <ele>3.286</ele>
    <time>2011-04-19T15:00:01Z</time>
   </trkpt>
   <trkpt lat="32.097631" lon="34.820722">
    <ele>3.141</ele>
    <time>2011-04-19T15:00:07Z</time>
   </trkpt>
   <trkpt lat="32.097571" lon="34.820661">
    <ele>2.662</ele>
    <time>2011-04-19T15:00:09Z</time>
   </trkpt>
   <trkpt lat="32.097367" lon="34.820474">
    <ele>2.015</ele>
    <time>2011-04-19T15:00:16Z</time>
   </trkpt>
   <trkpt lat="32.096991" lon="34.820225">
    <ele>0.693</ele>
    <time>2011-04-19T15:00:29Z</time>
   </trkpt>
   <trkpt lat="32.096703" lon="34.820043">
    <ele>1.037</ele>
    <time>2011-04-19T15:00:40Z</time>
   </trkpt>
   <trkpt lat="32.096580" lon="34.819628">
    <ele>-0.535</ele>
    <time>2011-04-19T15:00:49Z</time>
   </trkpt>
   <trkpt lat="32.096644" lon="34.819305">
    <ele>-0.440</ele>
    <time>2011-04-19T15:00:57Z</time>
   </trkpt>
   <trkpt lat="32.096948" lon="34.819141">
    <ele>-1.864</ele>
    <time>2011-04-19T15:01:09Z</time>
   </trkpt>
   <trkpt lat="32.097276" lon="34.819075">
    <ele>-1.184</ele>
    <time>2011-04-19T15:01:18Z</time>
   </trkpt>
   <trkpt lat="32.097552" lon="34.819012">
    <ele>2.529</ele>
    <time>2011-04-19T15:01:26Z</time>
   </trkpt>
   <trkpt lat="32.097573" lon="34.818982">
    <ele>3.021</ele>
    <time>2011-04-19T15:01:27Z</time>
   </trkpt>
   <trkpt lat="32.097650" lon="34.818901">
    <ele>4.380</ele>
    <time>2011-04-19T15:01:31Z</time>
   </trkpt>
   <trkpt lat="32.097696" lon="34.818852">
    <ele>5.642</ele>
    <time>2011-04-19T15:01:33Z</time>
   </trkpt>
   <trkpt lat="32.097801" lon="34.818697">
    <ele>8.559</ele>
    <time>2011-04-19T15:01:38Z</time>
   </trkpt>
   <trkpt lat="32.098069" lon="34.818193">
    <ele>14.062</ele>
    <time>2011-04-19T15:01:50Z</time>
   </trkpt>
   <trkpt lat="32.098099" lon="34.818124">
    <ele>13.454</ele>
    <time>2011-04-19T15:01:51Z</time>
   </trkpt>
   <trkpt lat="32.098228" lon="34.817593">
    <ele>11.527</ele>
    <time>2011-04-19T15:02:02Z</time>
   </trkpt>
   <trkpt lat="32.098303" lon="34.816952">
    <ele>7.914</ele>
    <time>2011-04-19T15:02:14Z</time>
   </trkpt>
   <trkpt lat="32.098305" lon="34.816797">
    <ele>4.590</ele>
    <time>2011-04-19T15:02:18Z</time>
   </trkpt>
   <trkpt lat="32.098329" lon="34.816721">
    <ele>6.940</ele>
    <time>2011-04-19T15:02:25Z</time>
   </trkpt>
   <trkpt lat="32.098341" lon="34.816638">
    <ele>8.299</ele>
    <time>2011-04-19T15:02:28Z</time>
   </trkpt>
   <trkpt lat="32.098370" lon="34.816573">
    <ele>7.854</ele>
    <time>2011-04-19T15:02:30Z</time>
   </trkpt>
   <trkpt lat="32.098357" lon="34.816384">
    <ele>8.105</ele>
    <time>2011-04-19T15:02:34Z</time>
   </trkpt>
   <trkpt lat="32.098408" lon="34.816137">
    <ele>8.364</ele>
    <time>2011-04-19T15:02:38Z</time>
   </trkpt>
   <trkpt lat="32.098457" lon="34.815838">
    <ele>9.956</ele>
    <time>2011-04-19T15:02:43Z</time>
   </trkpt>
   <trkpt lat="32.098339" lon="34.815274">
    <ele>10.078</ele>
    <time>2011-04-19T15:02:53Z</time>
   </trkpt>
   <trkpt lat="32.098226" lon="34.815115">
    <ele>8.344</ele>
    <time>2011-04-19T15:02:57Z</time>
   </trkpt>
   <trkpt lat="32.098087" lon="34.814983">
    <ele>5.583</ele>
    <time>2011-04-19T15:03:01Z</time>
   </trkpt>
   <trkpt lat="32.097530" lon="34.814736">
    <ele>1.576</ele>
    <time>2011-04-19T15:03:14Z</time>
   </trkpt>
   <trkpt lat="32.097408" lon="34.814677">
    <ele>0.772</ele>
    <time>2011-04-19T15:03:17Z</time>
   </trkpt>
   <trkpt lat="32.097023" lon="34.814392">
    <ele>1.094</ele>
    <time>2011-04-19T15:03:27Z</time>
   </trkpt>
   <trkpt lat="32.096908" lon="34.814310">
    <ele>0.383</ele>
    <time>2011-04-19T15:03:30Z</time>
   </trkpt>
   <trkpt lat="32.096638" lon="34.814053">
    <ele>-0.144</ele>
    <time>2011-04-19T15:03:37Z</time>
   </trkpt>
   <trkpt lat="32.096336" lon="34.813585">
    <ele>-0.828</ele>
    <time>2011-04-19T15:03:46Z</time>
   </trkpt>
   <trkpt lat="32.096247" lon="34.813331">
    <ele>-1.630</ele>
    <time>2011-04-19T15:03:50Z</time>
   </trkpt>
   <trkpt lat="32.096268" lon="34.812344">
    <ele>-2.710</ele>
    <time>2011-04-19T15:04:06Z</time>
   </trkpt>
   <trkpt lat="32.096322" lon="34.811991">
    <ele>-1.894</ele>
    <time>2011-04-19T15:04:12Z</time>
   </trkpt>
   <trkpt lat="32.096346" lon="34.811812">
    <ele>-1.283</ele>
    <time>2011-04-19T15:04:15Z</time>
   </trkpt>
   <trkpt lat="32.096411" lon="34.811594">
    <ele>-0.816</ele>
    <time>2011-04-19T15:04:19Z</time>
   </trkpt>
   <trkpt lat="32.096421" lon="34.811328">
    <ele>-0.539</ele>
    <time>2011-04-19T15:04:24Z</time>
   </trkpt>
   <trkpt lat="32.096417" lon="34.811110">
    <ele>2.444</ele>
    <time>2011-04-19T15:04:28Z</time>
   </trkpt>
   <trkpt lat="32.096576" lon="34.810389">
    <ele>0.786</ele>
    <time>2011-04-19T15:04:41Z</time>
   </trkpt>
   <trkpt lat="32.096597" lon="34.810226">
    <ele>0.409</ele>
    <time>2011-04-19T15:04:44Z</time>
   </trkpt>
   <trkpt lat="32.096632" lon="34.809779">
    <ele>-1.012</ele>
    <time>2011-04-19T15:04:52Z</time>
   </trkpt>
   <trkpt lat="32.096844" lon="34.809501">
    <ele>-0.049</ele>
    <time>2011-04-19T15:05:02Z</time>
   </trkpt>
   <trkpt lat="32.096961" lon="34.809395">
    <ele>-0.395</ele>
    <time>2011-04-19T15:05:14Z</time>
   </trkpt>
   <trkpt lat="32.096959" lon="34.809399">
    <ele>-0.493</ele>
    <time>2011-04-19T15:07:59Z</time>
   </trkpt>
   <trkpt lat="32.096972" lon="34.809391">
    <ele>-0.251</ele>
    <time>2011-04-19T15:10:37Z</time>
   </trkpt>
   <trkpt lat="32.097029" lon="34.809317">
    <ele>0.028</ele>
    <time>2011-04-19T15:10:41Z</time>
   </trkpt>
  </trkseg>
 </trk>
</gpx>
